<?xml version="1.0" encoding="UTF-8" standalone="no" ?>
<gpx xmlns="http://www.topografix.com/GPX/1/1" xmlns:xsi="http://www.w3.org/2001/XMLSchema-instance" xsi:schemaLocation="http://www.topografix.com/GPX/1/1 http://www.topografix.com/GPX/1/1/gpx.xsd" version="1.1" creator="VisuGPX - https://www.visugpx.com">
  <metadata>
    <name>Gravel--Cussey</name>
  </metadata>
  <trk>
    <name><![CDATA[Gravel--Cussey_1]]></name>
    <trkseg>
      <trkpt lat="47.4776" lon="5.14068">
        <ele>292.8</ele>
        <time>2022-06-06T11:33:41Z</time>
      </trkpt>
      <trkpt lat="47.47765" lon="5.14071">
        <ele>292.8</ele>
        <time>2022-06-06T11:33:42Z</time>
      </trkpt>
      <trkpt lat="47.47768" lon="5.1407">
        <ele>292.8</ele>
        <time>2022-06-06T11:33:43Z</time>
      </trkpt>
      <trkpt lat="47.4777" lon="5.14065">
        <ele>292.8</ele>
        <time>2022-06-06T11:33:44Z</time>
      </trkpt>
      <trkpt lat="47.4777" lon="5.14036">
        <ele>293.6</ele>
        <time>2022-06-06T11:33:49Z</time>
      </trkpt>
      <trkpt lat="47.47771" lon="5.1401">
        <ele>294.6</ele>
        <time>2022-06-06T11:33:54Z</time>
      </trkpt>
      <trkpt lat="47.47772" lon="5.14005">
        <ele>295</ele>
        <time>2022-06-06T11:33:55Z</time>
      </trkpt>
      <trkpt lat="47.47773" lon="5.13985">
        <ele>296</ele>
        <time>2022-06-06T11:33:59Z</time>
      </trkpt>
      <trkpt lat="47.47774" lon="5.1398">
        <ele>296.2</ele>
        <time>2022-06-06T11:34:00Z</time>
      </trkpt>
      <trkpt lat="47.47775" lon="5.13961">
        <ele>297.4</ele>
        <time>2022-06-06T11:34:04Z</time>
      </trkpt>
      <trkpt lat="47.47776" lon="5.13946">
        <ele>298.2</ele>
        <time>2022-06-06T11:34:07Z</time>
      </trkpt>
      <trkpt lat="47.47777" lon="5.13936">
        <ele>298.6</ele>
        <time>2022-06-06T11:34:09Z</time>
      </trkpt>
      <trkpt lat="47.47778" lon="5.13918">
        <ele>299.6</ele>
        <time>2022-06-06T11:34:13Z</time>
      </trkpt>
      <trkpt lat="47.47778" lon="5.13913">
        <ele>299.8</ele>
        <time>2022-06-06T11:34:14Z</time>
      </trkpt>
      <trkpt lat="47.4778" lon="5.13902">
        <ele>301</ele>
        <time>2022-06-06T11:34:17Z</time>
      </trkpt>
      <trkpt lat="47.47778" lon="5.13883">
        <ele>301.8</ele>
        <time>2022-06-06T11:34:21Z</time>
      </trkpt>
      <trkpt lat="47.47778" lon="5.13876">
        <ele>302.2</ele>
        <time>2022-06-06T11:34:22Z</time>
      </trkpt>
      <trkpt lat="47.47778" lon="5.13858">
        <ele>303.4</ele>
        <time>2022-06-06T11:34:26Z</time>
      </trkpt>
      <trkpt lat="47.47776" lon="5.1385">
        <ele>304</ele>
        <time>2022-06-06T11:34:28Z</time>
      </trkpt>
      <trkpt lat="47.47772" lon="5.1384">
        <ele>304.4</ele>
        <time>2022-06-06T11:34:31Z</time>
      </trkpt>
      <trkpt lat="47.47771" lon="5.13831">
        <ele>304.8</ele>
        <time>2022-06-06T11:34:33Z</time>
      </trkpt>
      <trkpt lat="47.4777" lon="5.13826">
        <ele>305.2</ele>
        <time>2022-06-06T11:34:34Z</time>
      </trkpt>
      <trkpt lat="47.47771" lon="5.13805">
        <ele>305.4</ele>
        <time>2022-06-06T11:34:38Z</time>
      </trkpt>
      <trkpt lat="47.47773" lon="5.13801">
        <ele>305.4</ele>
        <time>2022-06-06T11:34:39Z</time>
      </trkpt>
      <trkpt lat="47.47775" lon="5.13798">
        <ele>305.4</ele>
        <time>2022-06-06T11:34:40Z</time>
      </trkpt>
      <trkpt lat="47.4778" lon="5.13797">
        <ele>305.2</ele>
        <time>2022-06-06T11:34:42Z</time>
      </trkpt>
      <trkpt lat="47.47783" lon="5.13799">
        <ele>305</ele>
        <time>2022-06-06T11:34:43Z</time>
      </trkpt>
      <trkpt lat="47.47789" lon="5.13807">
        <ele>305</ele>
        <time>2022-06-06T11:34:46Z</time>
      </trkpt>
      <trkpt lat="47.47799" lon="5.13823">
        <ele>305.6</ele>
        <time>2022-06-06T11:34:52Z</time>
      </trkpt>
      <trkpt lat="47.47801" lon="5.13829">
        <ele>306.2</ele>
        <time>2022-06-06T11:34:54Z</time>
      </trkpt>
      <trkpt lat="47.47805" lon="5.13838">
        <ele>306.8</ele>
        <time>2022-06-06T11:34:57Z</time>
      </trkpt>
      <trkpt lat="47.47808" lon="5.13851">
        <ele>308.2</ele>
        <time>2022-06-06T11:35:01Z</time>
      </trkpt>
      <trkpt lat="47.47808" lon="5.13854">
        <ele>308.4</ele>
        <time>2022-06-06T11:35:02Z</time>
      </trkpt>
      <trkpt lat="47.47811" lon="5.13864">
        <ele>309.4</ele>
        <time>2022-06-06T11:35:05Z</time>
      </trkpt>
      <trkpt lat="47.47811" lon="5.13868">
        <ele>309.6</ele>
        <time>2022-06-06T11:35:06Z</time>
      </trkpt>
      <trkpt lat="47.47814" lon="5.13881">
        <ele>310.6</ele>
        <time>2022-06-06T11:35:10Z</time>
      </trkpt>
      <trkpt lat="47.47815" lon="5.13884">
        <ele>310.8</ele>
        <time>2022-06-06T11:35:11Z</time>
      </trkpt>
      <trkpt lat="47.47818" lon="5.13893">
        <ele>311.6</ele>
        <time>2022-06-06T11:35:14Z</time>
      </trkpt>
      <trkpt lat="47.47823" lon="5.13906">
        <ele>312.6</ele>
        <time>2022-06-06T11:35:18Z</time>
      </trkpt>
      <trkpt lat="47.47824" lon="5.13909">
        <ele>312.8</ele>
        <time>2022-06-06T11:35:19Z</time>
      </trkpt>
      <trkpt lat="47.47836" lon="5.13927">
        <ele>314</ele>
        <time>2022-06-06T11:35:26Z</time>
      </trkpt>
      <trkpt lat="47.47844" lon="5.13941">
        <ele>315.2</ele>
        <time>2022-06-06T11:35:31Z</time>
      </trkpt>
      <trkpt lat="47.47851" lon="5.1395">
        <ele>316</ele>
        <time>2022-06-06T11:35:35Z</time>
      </trkpt>
      <trkpt lat="47.47854" lon="5.13955">
        <ele>316.4</ele>
        <time>2022-06-06T11:35:37Z</time>
      </trkpt>
      <trkpt lat="47.4786" lon="5.13967">
        <ele>317.6</ele>
        <time>2022-06-06T11:35:42Z</time>
      </trkpt>
      <trkpt lat="47.47861" lon="5.13969">
        <ele>317.8</ele>
        <time>2022-06-06T11:35:43Z</time>
      </trkpt>
      <trkpt lat="47.47872" lon="5.13986">
        <ele>318.8</ele>
        <time>2022-06-06T11:35:49Z</time>
      </trkpt>
      <trkpt lat="47.47875" lon="5.13993">
        <ele>319.2</ele>
        <time>2022-06-06T11:35:51Z</time>
      </trkpt>
      <trkpt lat="47.47887" lon="5.14018">
        <ele>320</ele>
        <time>2022-06-06T11:35:58Z</time>
      </trkpt>
      <trkpt lat="47.47903" lon="5.1404">
        <ele>321</ele>
        <time>2022-06-06T11:36:05Z</time>
      </trkpt>
      <trkpt lat="47.47926" lon="5.14064">
        <ele>321.8</ele>
        <time>2022-06-06T11:36:15Z</time>
      </trkpt>
      <trkpt lat="47.47929" lon="5.14066">
        <ele>322</ele>
        <time>2022-06-06T11:36:16Z</time>
      </trkpt>
      <trkpt lat="47.47947" lon="5.14083">
        <ele>323</ele>
        <time>2022-06-06T11:36:23Z</time>
      </trkpt>
      <trkpt lat="47.4795" lon="5.14085">
        <ele>323.2</ele>
        <time>2022-06-06T11:36:24Z</time>
      </trkpt>
      <trkpt lat="47.47982" lon="5.14104">
        <ele>323.8</ele>
        <time>2022-06-06T11:36:33Z</time>
      </trkpt>
      <trkpt lat="47.48004" lon="5.14116">
        <ele>323.8</ele>
        <time>2022-06-06T11:36:38Z</time>
      </trkpt>
      <trkpt lat="47.48014" lon="5.14121">
        <ele>323.6</ele>
        <time>2022-06-06T11:36:40Z</time>
      </trkpt>
      <trkpt lat="47.48033" lon="5.14132">
        <ele>323.2</ele>
        <time>2022-06-06T11:36:44Z</time>
      </trkpt>
      <trkpt lat="47.48043" lon="5.14138">
        <ele>323</ele>
        <time>2022-06-06T11:36:46Z</time>
      </trkpt>
      <trkpt lat="47.48064" lon="5.14148">
        <ele>322.6</ele>
        <time>2022-06-06T11:36:50Z</time>
      </trkpt>
      <trkpt lat="47.48082" lon="5.1416">
        <ele>322.2</ele>
        <time>2022-06-06T11:36:53Z</time>
      </trkpt>
      <trkpt lat="47.48101" lon="5.1417">
        <ele>321.8</ele>
        <time>2022-06-06T11:36:56Z</time>
      </trkpt>
      <trkpt lat="47.48128" lon="5.14182">
        <ele>321</ele>
        <time>2022-06-06T11:37:00Z</time>
      </trkpt>
      <trkpt lat="47.48149" lon="5.14193">
        <ele>320.2</ele>
        <time>2022-06-06T11:37:03Z</time>
      </trkpt>
      <trkpt lat="47.48157" lon="5.14198">
        <ele>320</ele>
        <time>2022-06-06T11:37:04Z</time>
      </trkpt>
      <trkpt lat="47.48181" lon="5.14212">
        <ele>318.8</ele>
        <time>2022-06-06T11:37:07Z</time>
      </trkpt>
      <trkpt lat="47.48196" lon="5.14219">
        <ele>318</ele>
        <time>2022-06-06T11:37:09Z</time>
      </trkpt>
      <trkpt lat="47.48204" lon="5.14223">
        <ele>317.8</ele>
        <time>2022-06-06T11:37:10Z</time>
      </trkpt>
      <trkpt lat="47.48236" lon="5.14241">
        <ele>316.6</ele>
        <time>2022-06-06T11:37:14Z</time>
      </trkpt>
      <trkpt lat="47.48243" lon="5.14246">
        <ele>316.2</ele>
        <time>2022-06-06T11:37:15Z</time>
      </trkpt>
      <trkpt lat="47.4825" lon="5.14251">
        <ele>315.2</ele>
        <time>2022-06-06T11:37:16Z</time>
      </trkpt>
      <trkpt lat="47.48274" lon="5.14266">
        <ele>314</ele>
        <time>2022-06-06T11:37:19Z</time>
      </trkpt>
      <trkpt lat="47.48299" lon="5.14278">
        <ele>313</ele>
        <time>2022-06-06T11:37:22Z</time>
      </trkpt>
      <trkpt lat="47.4833" lon="5.14292">
        <ele>311.8</ele>
        <time>2022-06-06T11:37:26Z</time>
      </trkpt>
      <trkpt lat="47.48344" lon="5.143">
        <ele>311.2</ele>
        <time>2022-06-06T11:37:28Z</time>
      </trkpt>
      <trkpt lat="47.48357" lon="5.14308">
        <ele>310.8</ele>
        <time>2022-06-06T11:37:30Z</time>
      </trkpt>
      <trkpt lat="47.48375" lon="5.14316">
        <ele>310.6</ele>
        <time>2022-06-06T11:37:33Z</time>
      </trkpt>
      <trkpt lat="47.48403" lon="5.14332">
        <ele>311.2</ele>
        <time>2022-06-06T11:37:38Z</time>
      </trkpt>
      <trkpt lat="47.48409" lon="5.14335">
        <ele>311.4</ele>
        <time>2022-06-06T11:37:39Z</time>
      </trkpt>
      <trkpt lat="47.4842" lon="5.14341">
        <ele>311.8</ele>
        <time>2022-06-06T11:37:41Z</time>
      </trkpt>
      <trkpt lat="47.48441" lon="5.14352">
        <ele>312</ele>
        <time>2022-06-06T11:37:45Z</time>
      </trkpt>
      <trkpt lat="47.48447" lon="5.14354">
        <ele>312.2</ele>
        <time>2022-06-06T11:37:46Z</time>
      </trkpt>
      <trkpt lat="47.48479" lon="5.14375">
        <ele>312.2</ele>
        <time>2022-06-06T11:37:51Z</time>
      </trkpt>
      <trkpt lat="47.48523" lon="5.14396">
        <ele>312</ele>
        <time>2022-06-06T11:37:58Z</time>
      </trkpt>
      <trkpt lat="47.48552" lon="5.14413">
        <ele>312.4</ele>
        <time>2022-06-06T11:38:03Z</time>
      </trkpt>
      <trkpt lat="47.48558" lon="5.14416">
        <ele>312.6</ele>
        <time>2022-06-06T11:38:04Z</time>
      </trkpt>
      <trkpt lat="47.48569" lon="5.14423">
        <ele>312.8</ele>
        <time>2022-06-06T11:38:06Z</time>
      </trkpt>
      <trkpt lat="47.48585" lon="5.14429">
        <ele>313.4</ele>
        <time>2022-06-06T11:38:09Z</time>
      </trkpt>
      <trkpt lat="47.48597" lon="5.14438">
        <ele>313.6</ele>
        <time>2022-06-06T11:38:11Z</time>
      </trkpt>
      <trkpt lat="47.48616" lon="5.14448">
        <ele>314.4</ele>
        <time>2022-06-06T11:38:15Z</time>
      </trkpt>
      <trkpt lat="47.48627" lon="5.14456">
        <ele>314.6</ele>
        <time>2022-06-06T11:38:17Z</time>
      </trkpt>
      <trkpt lat="47.48653" lon="5.14467">
        <ele>315.4</ele>
        <time>2022-06-06T11:38:22Z</time>
      </trkpt>
      <trkpt lat="47.48672" lon="5.14478">
        <ele>315.6</ele>
        <time>2022-06-06T11:38:26Z</time>
      </trkpt>
      <trkpt lat="47.48681" lon="5.14482">
        <ele>316</ele>
        <time>2022-06-06T11:38:28Z</time>
      </trkpt>
      <trkpt lat="47.48694" lon="5.14489">
        <ele>316.2</ele>
        <time>2022-06-06T11:38:31Z</time>
      </trkpt>
      <trkpt lat="47.48706" lon="5.14497">
        <ele>316.6</ele>
        <time>2022-06-06T11:38:34Z</time>
      </trkpt>
      <trkpt lat="47.48716" lon="5.14502">
        <ele>316.6</ele>
        <time>2022-06-06T11:38:36Z</time>
      </trkpt>
      <trkpt lat="47.4872" lon="5.14504">
        <ele>316.8</ele>
        <time>2022-06-06T11:38:37Z</time>
      </trkpt>
      <trkpt lat="47.48729" lon="5.14509">
        <ele>316.8</ele>
        <time>2022-06-06T11:38:39Z</time>
      </trkpt>
      <trkpt lat="47.48738" lon="5.14515">
        <ele>316.8</ele>
        <time>2022-06-06T11:38:41Z</time>
      </trkpt>
      <trkpt lat="47.4876" lon="5.14526">
        <ele>317</ele>
        <time>2022-06-06T11:38:45Z</time>
      </trkpt>
      <trkpt lat="47.48798" lon="5.14548">
        <ele>316.4</ele>
        <time>2022-06-06T11:38:51Z</time>
      </trkpt>
      <trkpt lat="47.48813" lon="5.14551">
        <ele>316.2</ele>
        <time>2022-06-06T11:38:53Z</time>
      </trkpt>
      <trkpt lat="47.48839" lon="5.14544">
        <ele>315.4</ele>
        <time>2022-06-06T11:38:56Z</time>
      </trkpt>
      <trkpt lat="47.48853" lon="5.14538">
        <ele>315</ele>
        <time>2022-06-06T11:38:58Z</time>
      </trkpt>
      <trkpt lat="47.48877" lon="5.14525">
        <ele>313.8</ele>
        <time>2022-06-06T11:39:01Z</time>
      </trkpt>
      <trkpt lat="47.489" lon="5.14511">
        <ele>312.6</ele>
        <time>2022-06-06T11:39:04Z</time>
      </trkpt>
      <trkpt lat="47.48933" lon="5.14484">
        <ele>311.4</ele>
        <time>2022-06-06T11:39:09Z</time>
      </trkpt>
      <trkpt lat="47.48946" lon="5.14474">
        <ele>311</ele>
        <time>2022-06-06T11:39:11Z</time>
      </trkpt>
      <trkpt lat="47.48955" lon="5.14466">
        <ele>311</ele>
        <time>2022-06-06T11:39:13Z</time>
      </trkpt>
      <trkpt lat="47.48985" lon="5.14446">
        <ele>311.4</ele>
        <time>2022-06-06T11:39:19Z</time>
      </trkpt>
      <trkpt lat="47.49015" lon="5.14428">
        <ele>312.6</ele>
        <time>2022-06-06T11:39:25Z</time>
      </trkpt>
      <trkpt lat="47.4902" lon="5.14424">
        <ele>313</ele>
        <time>2022-06-06T11:39:26Z</time>
      </trkpt>
      <trkpt lat="47.49033" lon="5.14415">
        <ele>313.8</ele>
        <time>2022-06-06T11:39:29Z</time>
      </trkpt>
      <trkpt lat="47.4905" lon="5.14402">
        <ele>314.6</ele>
        <time>2022-06-06T11:39:33Z</time>
      </trkpt>
      <trkpt lat="47.49053" lon="5.144">
        <ele>314.8</ele>
        <time>2022-06-06T11:39:34Z</time>
      </trkpt>
      <trkpt lat="47.49074" lon="5.14386">
        <ele>316</ele>
        <time>2022-06-06T11:39:39Z</time>
      </trkpt>
      <trkpt lat="47.49082" lon="5.14379">
        <ele>316.2</ele>
        <time>2022-06-06T11:39:41Z</time>
      </trkpt>
      <trkpt lat="47.49106" lon="5.14361">
        <ele>317</ele>
        <time>2022-06-06T11:39:47Z</time>
      </trkpt>
      <trkpt lat="47.49125" lon="5.14346">
        <ele>318.2</ele>
        <time>2022-06-06T11:39:52Z</time>
      </trkpt>
      <trkpt lat="47.49129" lon="5.14343">
        <ele>318.2</ele>
        <time>2022-06-06T11:39:53Z</time>
      </trkpt>
      <trkpt lat="47.49146" lon="5.14332">
        <ele>319.2</ele>
        <time>2022-06-06T11:39:57Z</time>
      </trkpt>
      <trkpt lat="47.49153" lon="5.14325">
        <ele>319.8</ele>
        <time>2022-06-06T11:39:59Z</time>
      </trkpt>
      <trkpt lat="47.49165" lon="5.14317">
        <ele>320.4</ele>
        <time>2022-06-06T11:40:02Z</time>
      </trkpt>
      <trkpt lat="47.49185" lon="5.14301">
        <ele>321.6</ele>
        <time>2022-06-06T11:40:08Z</time>
      </trkpt>
      <trkpt lat="47.4921" lon="5.14283">
        <ele>322.6</ele>
        <time>2022-06-06T11:40:15Z</time>
      </trkpt>
      <trkpt lat="47.49217" lon="5.14278">
        <ele>322.8</ele>
        <time>2022-06-06T11:40:17Z</time>
      </trkpt>
      <trkpt lat="47.49228" lon="5.1427">
        <ele>323.8</ele>
        <time>2022-06-06T11:40:20Z</time>
      </trkpt>
      <trkpt lat="47.49242" lon="5.14261">
        <ele>324.4</ele>
        <time>2022-06-06T11:40:24Z</time>
      </trkpt>
      <trkpt lat="47.49246" lon="5.14259">
        <ele>324.8</ele>
        <time>2022-06-06T11:40:25Z</time>
      </trkpt>
      <trkpt lat="47.49265" lon="5.14257">
        <ele>325.8</ele>
        <time>2022-06-06T11:40:30Z</time>
      </trkpt>
      <trkpt lat="47.49269" lon="5.14258">
        <ele>326</ele>
        <time>2022-06-06T11:40:31Z</time>
      </trkpt>
      <trkpt lat="47.49294" lon="5.1427">
        <ele>326.8</ele>
        <time>2022-06-06T11:40:37Z</time>
      </trkpt>
      <trkpt lat="47.49302" lon="5.14274">
        <ele>327.2</ele>
        <time>2022-06-06T11:40:39Z</time>
      </trkpt>
      <trkpt lat="47.49323" lon="5.14281">
        <ele>327.6</ele>
        <time>2022-06-06T11:40:44Z</time>
      </trkpt>
      <trkpt lat="47.49332" lon="5.14286">
        <ele>327.6</ele>
        <time>2022-06-06T11:40:46Z</time>
      </trkpt>
      <trkpt lat="47.49345" lon="5.1429">
        <ele>328</ele>
        <time>2022-06-06T11:40:49Z</time>
      </trkpt>
      <trkpt lat="47.49358" lon="5.14296">
        <ele>328.4</ele>
        <time>2022-06-06T11:40:52Z</time>
      </trkpt>
      <trkpt lat="47.49376" lon="5.14303">
        <ele>328.6</ele>
        <time>2022-06-06T11:40:56Z</time>
      </trkpt>
      <trkpt lat="47.4941" lon="5.14318">
        <ele>328.8</ele>
        <time>2022-06-06T11:41:03Z</time>
      </trkpt>
      <trkpt lat="47.49448" lon="5.1433">
        <ele>328.6</ele>
        <time>2022-06-06T11:41:11Z</time>
      </trkpt>
      <trkpt lat="47.49491" lon="5.14345">
        <ele>327.8</ele>
        <time>2022-06-06T11:41:19Z</time>
      </trkpt>
      <trkpt lat="47.49516" lon="5.14353">
        <ele>327.2</ele>
        <time>2022-06-06T11:41:23Z</time>
      </trkpt>
      <trkpt lat="47.49542" lon="5.14363">
        <ele>326.4</ele>
        <time>2022-06-06T11:41:27Z</time>
      </trkpt>
      <trkpt lat="47.49563" lon="5.1437">
        <ele>326</ele>
        <time>2022-06-06T11:41:30Z</time>
      </trkpt>
      <trkpt lat="47.49594" lon="5.14381">
        <ele>324.8</ele>
        <time>2022-06-06T11:41:34Z</time>
      </trkpt>
      <trkpt lat="47.49627" lon="5.14393">
        <ele>323.6</ele>
        <time>2022-06-06T11:41:38Z</time>
      </trkpt>
      <trkpt lat="47.49644" lon="5.14399">
        <ele>323</ele>
        <time>2022-06-06T11:41:40Z</time>
      </trkpt>
      <trkpt lat="47.49661" lon="5.14404">
        <ele>322.6</ele>
        <time>2022-06-06T11:41:42Z</time>
      </trkpt>
      <trkpt lat="47.49677" lon="5.1441">
        <ele>321.2</ele>
        <time>2022-06-06T11:41:44Z</time>
      </trkpt>
      <trkpt lat="47.49693" lon="5.14415">
        <ele>320.2</ele>
        <time>2022-06-06T11:41:46Z</time>
      </trkpt>
      <trkpt lat="47.497" lon="5.14417">
        <ele>320</ele>
        <time>2022-06-06T11:41:47Z</time>
      </trkpt>
      <trkpt lat="47.49727" lon="5.14426">
        <ele>319.4</ele>
        <time>2022-06-06T11:41:51Z</time>
      </trkpt>
      <trkpt lat="47.49773" lon="5.14443">
        <ele>319.2</ele>
        <time>2022-06-06T11:41:58Z</time>
      </trkpt>
      <trkpt lat="47.4983" lon="5.14466">
        <ele>320.4</ele>
        <time>2022-06-06T11:42:07Z</time>
      </trkpt>
      <trkpt lat="47.49836" lon="5.14469">
        <ele>320.4</ele>
        <time>2022-06-06T11:42:08Z</time>
      </trkpt>
      <trkpt lat="47.49855" lon="5.14476">
        <ele>320.6</ele>
        <time>2022-06-06T11:42:11Z</time>
      </trkpt>
      <trkpt lat="47.49874" lon="5.14484">
        <ele>320.8</ele>
        <time>2022-06-06T11:42:14Z</time>
      </trkpt>
      <trkpt lat="47.49912" lon="5.14497">
        <ele>321.2</ele>
        <time>2022-06-06T11:42:20Z</time>
      </trkpt>
      <trkpt lat="47.49924" lon="5.14502">
        <ele>321.2</ele>
        <time>2022-06-06T11:42:22Z</time>
      </trkpt>
      <trkpt lat="47.49977" lon="5.14522">
        <ele>321.6</ele>
        <time>2022-06-06T11:42:30Z</time>
      </trkpt>
      <trkpt lat="47.49983" lon="5.14524">
        <ele>321.6</ele>
        <time>2022-06-06T11:42:31Z</time>
      </trkpt>
      <trkpt lat="47.50034" lon="5.14542">
        <ele>321.6</ele>
        <time>2022-06-06T11:42:39Z</time>
      </trkpt>
      <trkpt lat="47.50059" lon="5.14551">
        <ele>322.2</ele>
        <time>2022-06-06T11:42:43Z</time>
      </trkpt>
      <trkpt lat="47.50094" lon="5.14564">
        <ele>323</ele>
        <time>2022-06-06T11:42:49Z</time>
      </trkpt>
      <trkpt lat="47.50111" lon="5.1457">
        <ele>323.4</ele>
        <time>2022-06-06T11:42:52Z</time>
      </trkpt>
      <trkpt lat="47.50132" lon="5.14579">
        <ele>324.4</ele>
        <time>2022-06-06T11:42:56Z</time>
      </trkpt>
      <trkpt lat="47.50138" lon="5.1458">
        <ele>324.8</ele>
        <time>2022-06-06T11:42:57Z</time>
      </trkpt>
      <trkpt lat="47.50154" lon="5.14587">
        <ele>325.6</ele>
        <time>2022-06-06T11:43:00Z</time>
      </trkpt>
      <trkpt lat="47.50175" lon="5.14595">
        <ele>326.6</ele>
        <time>2022-06-06T11:43:04Z</time>
      </trkpt>
      <trkpt lat="47.5018" lon="5.14597">
        <ele>326.6</ele>
        <time>2022-06-06T11:43:05Z</time>
      </trkpt>
      <trkpt lat="47.50204" lon="5.14606">
        <ele>327.6</ele>
        <time>2022-06-06T11:43:10Z</time>
      </trkpt>
      <trkpt lat="47.50219" lon="5.14612">
        <ele>328.2</ele>
        <time>2022-06-06T11:43:13Z</time>
      </trkpt>
      <trkpt lat="47.50257" lon="5.14625">
        <ele>328.6</ele>
        <time>2022-06-06T11:43:21Z</time>
      </trkpt>
      <trkpt lat="47.50261" lon="5.14627">
        <ele>328.8</ele>
        <time>2022-06-06T11:43:22Z</time>
      </trkpt>
      <trkpt lat="47.50298" lon="5.1464">
        <ele>329.6</ele>
        <time>2022-06-06T11:43:30Z</time>
      </trkpt>
      <trkpt lat="47.50313" lon="5.14646">
        <ele>329.8</ele>
        <time>2022-06-06T11:43:33Z</time>
      </trkpt>
      <trkpt lat="47.50343" lon="5.14658">
        <ele>330.4</ele>
        <time>2022-06-06T11:43:39Z</time>
      </trkpt>
      <trkpt lat="47.50348" lon="5.1466">
        <ele>330.4</ele>
        <time>2022-06-06T11:43:40Z</time>
      </trkpt>
      <trkpt lat="47.50378" lon="5.14671">
        <ele>330.8</ele>
        <time>2022-06-06T11:43:46Z</time>
      </trkpt>
      <trkpt lat="47.50389" lon="5.14676">
        <ele>331</ele>
        <time>2022-06-06T11:43:48Z</time>
      </trkpt>
      <trkpt lat="47.50442" lon="5.14695">
        <ele>331.6</ele>
        <time>2022-06-06T11:43:58Z</time>
      </trkpt>
      <trkpt lat="47.5049" lon="5.14713">
        <ele>332</ele>
        <time>2022-06-06T11:44:07Z</time>
      </trkpt>
      <trkpt lat="47.505" lon="5.14717">
        <ele>332.2</ele>
        <time>2022-06-06T11:44:09Z</time>
      </trkpt>
      <trkpt lat="47.50555" lon="5.14735">
        <ele>332.6</ele>
        <time>2022-06-06T11:44:19Z</time>
      </trkpt>
      <trkpt lat="47.50561" lon="5.14737">
        <ele>332.6</ele>
        <time>2022-06-06T11:44:20Z</time>
      </trkpt>
      <trkpt lat="47.50613" lon="5.14756">
        <ele>332.6</ele>
        <time>2022-06-06T11:44:29Z</time>
      </trkpt>
      <trkpt lat="47.50665" lon="5.14776">
        <ele>332</ele>
        <time>2022-06-06T11:44:37Z</time>
      </trkpt>
      <trkpt lat="47.50679" lon="5.14783">
        <ele>331.4</ele>
        <time>2022-06-06T11:44:39Z</time>
      </trkpt>
      <trkpt lat="47.50692" lon="5.14793">
        <ele>330.8</ele>
        <time>2022-06-06T11:44:41Z</time>
      </trkpt>
      <trkpt lat="47.50699" lon="5.14799">
        <ele>330.8</ele>
        <time>2022-06-06T11:44:42Z</time>
      </trkpt>
      <trkpt lat="47.50706" lon="5.14807">
        <ele>330.4</ele>
        <time>2022-06-06T11:44:43Z</time>
      </trkpt>
      <trkpt lat="47.50717" lon="5.14822">
        <ele>329.8</ele>
        <time>2022-06-06T11:44:45Z</time>
      </trkpt>
      <trkpt lat="47.50723" lon="5.14831">
        <ele>329.4</ele>
        <time>2022-06-06T11:44:46Z</time>
      </trkpt>
      <trkpt lat="47.50745" lon="5.14869">
        <ele>328.6</ele>
        <time>2022-06-06T11:44:50Z</time>
      </trkpt>
      <trkpt lat="47.5075" lon="5.1488">
        <ele>328.4</ele>
        <time>2022-06-06T11:44:51Z</time>
      </trkpt>
      <trkpt lat="47.50757" lon="5.14889">
        <ele>328.2</ele>
        <time>2022-06-06T11:44:52Z</time>
      </trkpt>
      <trkpt lat="47.5077" lon="5.14908">
        <ele>327</ele>
        <time>2022-06-06T11:44:54Z</time>
      </trkpt>
      <trkpt lat="47.50777" lon="5.14918">
        <ele>326.2</ele>
        <time>2022-06-06T11:44:55Z</time>
      </trkpt>
      <trkpt lat="47.50783" lon="5.14929">
        <ele>325.8</ele>
        <time>2022-06-06T11:44:56Z</time>
      </trkpt>
      <trkpt lat="47.50793" lon="5.14954">
        <ele>325.2</ele>
        <time>2022-06-06T11:44:58Z</time>
      </trkpt>
      <trkpt lat="47.50797" lon="5.14968">
        <ele>325</ele>
        <time>2022-06-06T11:44:59Z</time>
      </trkpt>
      <trkpt lat="47.50804" lon="5.14997">
        <ele>323.8</ele>
        <time>2022-06-06T11:45:01Z</time>
      </trkpt>
      <trkpt lat="47.50806" lon="5.15012">
        <ele>322.6</ele>
        <time>2022-06-06T11:45:02Z</time>
      </trkpt>
      <trkpt lat="47.50811" lon="5.15043">
        <ele>322</ele>
        <time>2022-06-06T11:45:04Z</time>
      </trkpt>
      <trkpt lat="47.50812" lon="5.15059">
        <ele>321.6</ele>
        <time>2022-06-06T11:45:05Z</time>
      </trkpt>
      <trkpt lat="47.50815" lon="5.15075">
        <ele>321.2</ele>
        <time>2022-06-06T11:45:06Z</time>
      </trkpt>
      <trkpt lat="47.50817" lon="5.15091">
        <ele>320.4</ele>
        <time>2022-06-06T11:45:07Z</time>
      </trkpt>
      <trkpt lat="47.50821" lon="5.15124">
        <ele>319.2</ele>
        <time>2022-06-06T11:45:09Z</time>
      </trkpt>
      <trkpt lat="47.50825" lon="5.15158">
        <ele>317.6</ele>
        <time>2022-06-06T11:45:11Z</time>
      </trkpt>
      <trkpt lat="47.50831" lon="5.15192">
        <ele>316.2</ele>
        <time>2022-06-06T11:45:13Z</time>
      </trkpt>
      <trkpt lat="47.50839" lon="5.15245">
        <ele>315</ele>
        <time>2022-06-06T11:45:16Z</time>
      </trkpt>
      <trkpt lat="47.50841" lon="5.15264">
        <ele>314.2</ele>
        <time>2022-06-06T11:45:17Z</time>
      </trkpt>
      <trkpt lat="47.50843" lon="5.15283">
        <ele>312.8</ele>
        <time>2022-06-06T11:45:18Z</time>
      </trkpt>
      <trkpt lat="47.50846" lon="5.1532">
        <ele>310.2</ele>
        <time>2022-06-06T11:45:20Z</time>
      </trkpt>
      <trkpt lat="47.50849" lon="5.15355">
        <ele>308.4</ele>
        <time>2022-06-06T11:45:22Z</time>
      </trkpt>
      <trkpt lat="47.50852" lon="5.15389">
        <ele>306.6</ele>
        <time>2022-06-06T11:45:24Z</time>
      </trkpt>
      <trkpt lat="47.50853" lon="5.15407">
        <ele>305.4</ele>
        <time>2022-06-06T11:45:25Z</time>
      </trkpt>
      <trkpt lat="47.50853" lon="5.15442">
        <ele>304.2</ele>
        <time>2022-06-06T11:45:27Z</time>
      </trkpt>
      <trkpt lat="47.5086" lon="5.15511">
        <ele>302.6</ele>
        <time>2022-06-06T11:45:31Z</time>
      </trkpt>
      <trkpt lat="47.50866" lon="5.15544">
        <ele>300.8</ele>
        <time>2022-06-06T11:45:33Z</time>
      </trkpt>
      <trkpt lat="47.50876" lon="5.15574">
        <ele>299.6</ele>
        <time>2022-06-06T11:45:35Z</time>
      </trkpt>
      <trkpt lat="47.50883" lon="5.15588">
        <ele>298.8</ele>
        <time>2022-06-06T11:45:36Z</time>
      </trkpt>
      <trkpt lat="47.5089" lon="5.15601">
        <ele>298.2</ele>
        <time>2022-06-06T11:45:37Z</time>
      </trkpt>
      <trkpt lat="47.50905" lon="5.15624">
        <ele>297</ele>
        <time>2022-06-06T11:45:39Z</time>
      </trkpt>
      <trkpt lat="47.50913" lon="5.15636">
        <ele>296.4</ele>
        <time>2022-06-06T11:45:40Z</time>
      </trkpt>
      <trkpt lat="47.50927" lon="5.1566">
        <ele>295.8</ele>
        <time>2022-06-06T11:45:42Z</time>
      </trkpt>
      <trkpt lat="47.50947" lon="5.15696">
        <ele>294.2</ele>
        <time>2022-06-06T11:45:45Z</time>
      </trkpt>
      <trkpt lat="47.50961" lon="5.1572">
        <ele>293.4</ele>
        <time>2022-06-06T11:45:47Z</time>
      </trkpt>
      <trkpt lat="47.50967" lon="5.15732">
        <ele>292.8</ele>
        <time>2022-06-06T11:45:48Z</time>
      </trkpt>
      <trkpt lat="47.50987" lon="5.15767">
        <ele>291.4</ele>
        <time>2022-06-06T11:45:51Z</time>
      </trkpt>
      <trkpt lat="47.51001" lon="5.15791">
        <ele>290.4</ele>
        <time>2022-06-06T11:45:53Z</time>
      </trkpt>
      <trkpt lat="47.51007" lon="5.15802">
        <ele>289.6</ele>
        <time>2022-06-06T11:45:54Z</time>
      </trkpt>
      <trkpt lat="47.51028" lon="5.15833">
        <ele>288.6</ele>
        <time>2022-06-06T11:45:57Z</time>
      </trkpt>
      <trkpt lat="47.51035" lon="5.15844">
        <ele>288.4</ele>
        <time>2022-06-06T11:45:58Z</time>
      </trkpt>
      <trkpt lat="47.51064" lon="5.15887">
        <ele>287.4</ele>
        <time>2022-06-06T11:46:02Z</time>
      </trkpt>
      <trkpt lat="47.51072" lon="5.15898">
        <ele>286.8</ele>
        <time>2022-06-06T11:46:03Z</time>
      </trkpt>
      <trkpt lat="47.51079" lon="5.15908">
        <ele>286.4</ele>
        <time>2022-06-06T11:46:04Z</time>
      </trkpt>
      <trkpt lat="47.51108" lon="5.15951">
        <ele>284.8</ele>
        <time>2022-06-06T11:46:08Z</time>
      </trkpt>
      <trkpt lat="47.51131" lon="5.15982">
        <ele>283.4</ele>
        <time>2022-06-06T11:46:11Z</time>
      </trkpt>
      <trkpt lat="47.51146" lon="5.16002">
        <ele>282.6</ele>
        <time>2022-06-06T11:46:13Z</time>
      </trkpt>
      <trkpt lat="47.51161" lon="5.16022">
        <ele>282.2</ele>
        <time>2022-06-06T11:46:15Z</time>
      </trkpt>
      <trkpt lat="47.51177" lon="5.16041">
        <ele>281.2</ele>
        <time>2022-06-06T11:46:17Z</time>
      </trkpt>
      <trkpt lat="47.5119" lon="5.16058">
        <ele>280</ele>
        <time>2022-06-06T11:46:19Z</time>
      </trkpt>
      <trkpt lat="47.51195" lon="5.16066">
        <ele>279.4</ele>
        <time>2022-06-06T11:46:20Z</time>
      </trkpt>
      <trkpt lat="47.51199" lon="5.16085">
        <ele>278.4</ele>
        <time>2022-06-06T11:46:22Z</time>
      </trkpt>
      <trkpt lat="47.51198" lon="5.16094">
        <ele>278.2</ele>
        <time>2022-06-06T11:46:23Z</time>
      </trkpt>
      <trkpt lat="47.51195" lon="5.16102">
        <ele>277.6</ele>
        <time>2022-06-06T11:46:24Z</time>
      </trkpt>
      <trkpt lat="47.51192" lon="5.16111">
        <ele>277.4</ele>
        <time>2022-06-06T11:46:25Z</time>
      </trkpt>
      <trkpt lat="47.51186" lon="5.16129">
        <ele>276.6</ele>
        <time>2022-06-06T11:46:27Z</time>
      </trkpt>
      <trkpt lat="47.5118" lon="5.16149">
        <ele>276.4</ele>
        <time>2022-06-06T11:46:29Z</time>
      </trkpt>
      <trkpt lat="47.51166" lon="5.16198">
        <ele>276</ele>
        <time>2022-06-06T11:46:34Z</time>
      </trkpt>
      <trkpt lat="47.51166" lon="5.16208">
        <ele>276</ele>
        <time>2022-06-06T11:46:35Z</time>
      </trkpt>
      <trkpt lat="47.51169" lon="5.16214">
        <ele>275.8</ele>
        <time>2022-06-06T11:46:36Z</time>
      </trkpt>
      <trkpt lat="47.51173" lon="5.16218">
        <ele>275.8</ele>
        <time>2022-06-06T11:46:37Z</time>
      </trkpt>
      <trkpt lat="47.51206" lon="5.16243">
        <ele>275.6</ele>
        <time>2022-06-06T11:46:43Z</time>
      </trkpt>
      <trkpt lat="47.51232" lon="5.16264">
        <ele>275.4</ele>
        <time>2022-06-06T11:46:47Z</time>
      </trkpt>
      <trkpt lat="47.51239" lon="5.16269">
        <ele>275.2</ele>
        <time>2022-06-06T11:46:48Z</time>
      </trkpt>
      <trkpt lat="47.51268" lon="5.16285">
        <ele>274.2</ele>
        <time>2022-06-06T11:46:52Z</time>
      </trkpt>
      <trkpt lat="47.51295" lon="5.16301">
        <ele>272.8</ele>
        <time>2022-06-06T11:46:56Z</time>
      </trkpt>
      <trkpt lat="47.51315" lon="5.16314">
        <ele>271.6</ele>
        <time>2022-06-06T11:46:59Z</time>
      </trkpt>
      <trkpt lat="47.51342" lon="5.1633">
        <ele>271</ele>
        <time>2022-06-06T11:47:03Z</time>
      </trkpt>
      <trkpt lat="47.51371" lon="5.16346">
        <ele>270.6</ele>
        <time>2022-06-06T11:47:07Z</time>
      </trkpt>
      <trkpt lat="47.51407" lon="5.16367">
        <ele>270.2</ele>
        <time>2022-06-06T11:47:12Z</time>
      </trkpt>
      <trkpt lat="47.51436" lon="5.16384">
        <ele>269.6</ele>
        <time>2022-06-06T11:47:16Z</time>
      </trkpt>
      <trkpt lat="47.51472" lon="5.16405">
        <ele>269</ele>
        <time>2022-06-06T11:47:21Z</time>
      </trkpt>
      <trkpt lat="47.51513" lon="5.1643">
        <ele>268.6</ele>
        <time>2022-06-06T11:47:27Z</time>
      </trkpt>
      <trkpt lat="47.51519" lon="5.16433">
        <ele>268.4</ele>
        <time>2022-06-06T11:47:28Z</time>
      </trkpt>
      <trkpt lat="47.51538" lon="5.16444">
        <ele>268.6</ele>
        <time>2022-06-06T11:47:31Z</time>
      </trkpt>
      <trkpt lat="47.51551" lon="5.16447">
        <ele>268.6</ele>
        <time>2022-06-06T11:47:33Z</time>
      </trkpt>
      <trkpt lat="47.51598" lon="5.16447">
        <ele>268.6</ele>
        <time>2022-06-06T11:47:40Z</time>
      </trkpt>
      <trkpt lat="47.51637" lon="5.16445">
        <ele>268.2</ele>
        <time>2022-06-06T11:47:46Z</time>
      </trkpt>
      <trkpt lat="47.51676" lon="5.16444">
        <ele>267.8</ele>
        <time>2022-06-06T11:47:52Z</time>
      </trkpt>
      <trkpt lat="47.51733" lon="5.16442">
        <ele>268</ele>
        <time>2022-06-06T11:48:01Z</time>
      </trkpt>
      <trkpt lat="47.51774" lon="5.16441">
        <ele>268.2</ele>
        <time>2022-06-06T11:48:08Z</time>
      </trkpt>
      <trkpt lat="47.51813" lon="5.1644">
        <ele>268.4</ele>
        <time>2022-06-06T11:48:15Z</time>
      </trkpt>
      <trkpt lat="47.51818" lon="5.16441">
        <ele>268.4</ele>
        <time>2022-06-06T11:48:16Z</time>
      </trkpt>
      <trkpt lat="47.51822" lon="5.16445">
        <ele>268.6</ele>
        <time>2022-06-06T11:48:17Z</time>
      </trkpt>
      <trkpt lat="47.51827" lon="5.16456">
        <ele>268.6</ele>
        <time>2022-06-06T11:48:19Z</time>
      </trkpt>
      <trkpt lat="47.5183" lon="5.16477">
        <ele>268.8</ele>
        <time>2022-06-06T11:48:23Z</time>
      </trkpt>
      <trkpt lat="47.51835" lon="5.16487">
        <ele>269.8</ele>
        <time>2022-06-06T11:48:26Z</time>
      </trkpt>
      <trkpt lat="47.51838" lon="5.16489">
        <ele>270</ele>
        <time>2022-06-06T11:48:27Z</time>
      </trkpt>
      <trkpt lat="47.51845" lon="5.16493">
        <ele>270.6</ele>
        <time>2022-06-06T11:48:29Z</time>
      </trkpt>
      <trkpt lat="47.5185" lon="5.16493">
        <ele>270.6</ele>
        <time>2022-06-06T11:48:30Z</time>
      </trkpt>
      <trkpt lat="47.51854" lon="5.16492">
        <ele>270.8</ele>
        <time>2022-06-06T11:48:31Z</time>
      </trkpt>
      <trkpt lat="47.5187" lon="5.16483">
        <ele>270.8</ele>
        <time>2022-06-06T11:48:34Z</time>
      </trkpt>
      <trkpt lat="47.51911" lon="5.16456">
        <ele>270.4</ele>
        <time>2022-06-06T11:48:41Z</time>
      </trkpt>
      <trkpt lat="47.51946" lon="5.16423">
        <ele>269.4</ele>
        <time>2022-06-06T11:48:47Z</time>
      </trkpt>
      <trkpt lat="47.51973" lon="5.16392">
        <ele>269</ele>
        <time>2022-06-06T11:48:52Z</time>
      </trkpt>
      <trkpt lat="47.51983" lon="5.16377">
        <ele>269.2</ele>
        <time>2022-06-06T11:48:54Z</time>
      </trkpt>
      <trkpt lat="47.51992" lon="5.16362">
        <ele>269</ele>
        <time>2022-06-06T11:48:56Z</time>
      </trkpt>
      <trkpt lat="47.52011" lon="5.16322">
        <ele>268.8</ele>
        <time>2022-06-06T11:49:01Z</time>
      </trkpt>
      <trkpt lat="47.52029" lon="5.16267">
        <ele>268.8</ele>
        <time>2022-06-06T11:49:07Z</time>
      </trkpt>
      <trkpt lat="47.52045" lon="5.16198">
        <ele>268.8</ele>
        <time>2022-06-06T11:49:14Z</time>
      </trkpt>
      <trkpt lat="47.52062" lon="5.16121">
        <ele>268.8</ele>
        <time>2022-06-06T11:49:22Z</time>
      </trkpt>
      <trkpt lat="47.52064" lon="5.16112">
        <ele>268.8</ele>
        <time>2022-06-06T11:49:23Z</time>
      </trkpt>
      <trkpt lat="47.52083" lon="5.1603">
        <ele>268.8</ele>
        <time>2022-06-06T11:49:32Z</time>
      </trkpt>
      <trkpt lat="47.52089" lon="5.16002">
        <ele>268.8</ele>
        <time>2022-06-06T11:49:35Z</time>
      </trkpt>
      <trkpt lat="47.52103" lon="5.1594">
        <ele>268.8</ele>
        <time>2022-06-06T11:49:42Z</time>
      </trkpt>
      <trkpt lat="47.5212" lon="5.15861">
        <ele>269.2</ele>
        <time>2022-06-06T11:49:51Z</time>
      </trkpt>
      <trkpt lat="47.52124" lon="5.15844">
        <ele>269.2</ele>
        <time>2022-06-06T11:49:53Z</time>
      </trkpt>
      <trkpt lat="47.52142" lon="5.15765">
        <ele>269.4</ele>
        <time>2022-06-06T11:50:02Z</time>
      </trkpt>
      <trkpt lat="47.52152" lon="5.1572">
        <ele>269.4</ele>
        <time>2022-06-06T11:50:07Z</time>
      </trkpt>
      <trkpt lat="47.5217" lon="5.15641">
        <ele>270</ele>
        <time>2022-06-06T11:50:16Z</time>
      </trkpt>
      <trkpt lat="47.52174" lon="5.15623">
        <ele>270</ele>
        <time>2022-06-06T11:50:18Z</time>
      </trkpt>
      <trkpt lat="47.5219" lon="5.15547">
        <ele>270.4</ele>
        <time>2022-06-06T11:50:27Z</time>
      </trkpt>
      <trkpt lat="47.52197" lon="5.15517">
        <ele>270.8</ele>
        <time>2022-06-06T11:50:31Z</time>
      </trkpt>
      <trkpt lat="47.52199" lon="5.15511">
        <ele>271</ele>
        <time>2022-06-06T11:50:32Z</time>
      </trkpt>
      <trkpt lat="47.52203" lon="5.15507">
        <ele>271</ele>
        <time>2022-06-06T11:50:33Z</time>
      </trkpt>
      <trkpt lat="47.52212" lon="5.15506">
        <ele>271.2</ele>
        <time>2022-06-06T11:50:35Z</time>
      </trkpt>
      <trkpt lat="47.52244" lon="5.15516">
        <ele>271.2</ele>
        <time>2022-06-06T11:50:41Z</time>
      </trkpt>
      <trkpt lat="47.52294" lon="5.15528">
        <ele>271</ele>
        <time>2022-06-06T11:50:50Z</time>
      </trkpt>
      <trkpt lat="47.52305" lon="5.15523">
        <ele>271</ele>
        <time>2022-06-06T11:50:52Z</time>
      </trkpt>
      <trkpt lat="47.5231" lon="5.15517">
        <ele>270.8</ele>
        <time>2022-06-06T11:50:53Z</time>
      </trkpt>
      <trkpt lat="47.52314" lon="5.15512">
        <ele>270.8</ele>
        <time>2022-06-06T11:50:54Z</time>
      </trkpt>
      <trkpt lat="47.52322" lon="5.15504">
        <ele>270.2</ele>
        <time>2022-06-06T11:50:56Z</time>
      </trkpt>
      <trkpt lat="47.52326" lon="5.15498">
        <ele>270</ele>
        <time>2022-06-06T11:50:57Z</time>
      </trkpt>
      <trkpt lat="47.52348" lon="5.15462">
        <ele>269.4</ele>
        <time>2022-06-06T11:51:04Z</time>
      </trkpt>
      <trkpt lat="47.5235" lon="5.15457">
        <ele>269.4</ele>
        <time>2022-06-06T11:51:05Z</time>
      </trkpt>
      <trkpt lat="47.52352" lon="5.15454">
        <ele>269.2</ele>
        <time>2022-06-06T11:51:07Z</time>
      </trkpt>
      <trkpt lat="47.52353" lon="5.15453">
        <ele>269.2</ele>
        <time>2022-06-06T11:51:08Z</time>
      </trkpt>
      <trkpt lat="47.52355" lon="5.15453">
        <ele>268.8</ele>
        <time>2022-06-06T11:51:13Z</time>
      </trkpt>
      <trkpt lat="47.52357" lon="5.15451">
        <ele>268.8</ele>
        <time>2022-06-06T11:51:14Z</time>
      </trkpt>
      <trkpt lat="47.5236" lon="5.15444">
        <ele>268.8</ele>
        <time>2022-06-06T11:51:17Z</time>
      </trkpt>
      <trkpt lat="47.52373" lon="5.15425">
        <ele>269</ele>
        <time>2022-06-06T11:51:24Z</time>
      </trkpt>
      <trkpt lat="47.52374" lon="5.15417">
        <ele>269</ele>
        <time>2022-06-06T11:51:26Z</time>
      </trkpt>
      <trkpt lat="47.52378" lon="5.15413">
        <ele>269</ele>
        <time>2022-06-06T11:51:28Z</time>
      </trkpt>
      <trkpt lat="47.52396" lon="5.15395">
        <ele>268.8</ele>
        <time>2022-06-06T11:51:34Z</time>
      </trkpt>
      <trkpt lat="47.52424" lon="5.15373">
        <ele>268.6</ele>
        <time>2022-06-06T11:51:41Z</time>
      </trkpt>
      <trkpt lat="47.52457" lon="5.1536">
        <ele>268.8</ele>
        <time>2022-06-06T11:51:48Z</time>
      </trkpt>
      <trkpt lat="47.52497" lon="5.15337">
        <ele>269.4</ele>
        <time>2022-06-06T11:51:57Z</time>
      </trkpt>
      <trkpt lat="47.52528" lon="5.15309">
        <ele>269.8</ele>
        <time>2022-06-06T11:52:05Z</time>
      </trkpt>
      <trkpt lat="47.52539" lon="5.15301">
        <ele>270</ele>
        <time>2022-06-06T11:52:09Z</time>
      </trkpt>
      <trkpt lat="47.52556" lon="5.15292">
        <ele>270.2</ele>
        <time>2022-06-06T11:52:14Z</time>
      </trkpt>
      <trkpt lat="47.52561" lon="5.1529">
        <ele>270.2</ele>
        <time>2022-06-06T11:52:15Z</time>
      </trkpt>
      <trkpt lat="47.5258" lon="5.15286">
        <ele>270.4</ele>
        <time>2022-06-06T11:52:19Z</time>
      </trkpt>
      <trkpt lat="47.52616" lon="5.15287">
        <ele>270.4</ele>
        <time>2022-06-06T11:52:26Z</time>
      </trkpt>
      <trkpt lat="47.52654" lon="5.15291">
        <ele>270.4</ele>
        <time>2022-06-06T11:52:33Z</time>
      </trkpt>
      <trkpt lat="47.5271" lon="5.15296">
        <ele>270.2</ele>
        <time>2022-06-06T11:52:43Z</time>
      </trkpt>
      <trkpt lat="47.52716" lon="5.15296">
        <ele>270.2</ele>
        <time>2022-06-06T11:52:44Z</time>
      </trkpt>
      <trkpt lat="47.52764" lon="5.15297">
        <ele>270.4</ele>
        <time>2022-06-06T11:52:52Z</time>
      </trkpt>
      <trkpt lat="47.52782" lon="5.15297">
        <ele>270.4</ele>
        <time>2022-06-06T11:52:55Z</time>
      </trkpt>
      <trkpt lat="47.52794" lon="5.15302">
        <ele>270.4</ele>
        <time>2022-06-06T11:52:57Z</time>
      </trkpt>
      <trkpt lat="47.52802" lon="5.15315">
        <ele>270.4</ele>
        <time>2022-06-06T11:52:59Z</time>
      </trkpt>
      <trkpt lat="47.52804" lon="5.15323">
        <ele>270.2</ele>
        <time>2022-06-06T11:53:00Z</time>
      </trkpt>
      <trkpt lat="47.52824" lon="5.15395">
        <ele>269.6</ele>
        <time>2022-06-06T11:53:08Z</time>
      </trkpt>
      <trkpt lat="47.52833" lon="5.15433">
        <ele>269.4</ele>
        <time>2022-06-06T11:53:12Z</time>
      </trkpt>
      <trkpt lat="47.52839" lon="5.15451">
        <ele>269.2</ele>
        <time>2022-06-06T11:53:14Z</time>
      </trkpt>
      <trkpt lat="47.52859" lon="5.15522">
        <ele>269.2</ele>
        <time>2022-06-06T11:53:21Z</time>
      </trkpt>
      <trkpt lat="47.52877" lon="5.15584">
        <ele>268.8</ele>
        <time>2022-06-06T11:53:27Z</time>
      </trkpt>
      <trkpt lat="47.52881" lon="5.15593">
        <ele>268.8</ele>
        <time>2022-06-06T11:53:28Z</time>
      </trkpt>
      <trkpt lat="47.52887" lon="5.156">
        <ele>268.8</ele>
        <time>2022-06-06T11:53:29Z</time>
      </trkpt>
      <trkpt lat="47.52901" lon="5.15606">
        <ele>268.8</ele>
        <time>2022-06-06T11:53:31Z</time>
      </trkpt>
      <trkpt lat="47.52913" lon="5.15602">
        <ele>268.6</ele>
        <time>2022-06-06T11:53:33Z</time>
      </trkpt>
      <trkpt lat="47.52919" lon="5.15598">
        <ele>268.6</ele>
        <time>2022-06-06T11:53:34Z</time>
      </trkpt>
      <trkpt lat="47.52964" lon="5.15566">
        <ele>269.2</ele>
        <time>2022-06-06T11:53:42Z</time>
      </trkpt>
      <trkpt lat="47.52971" lon="5.15561">
        <ele>269.4</ele>
        <time>2022-06-06T11:53:43Z</time>
      </trkpt>
      <trkpt lat="47.5298" lon="5.15548">
        <ele>269.6</ele>
        <time>2022-06-06T11:53:45Z</time>
      </trkpt>
      <trkpt lat="47.52982" lon="5.15539">
        <ele>269.6</ele>
        <time>2022-06-06T11:53:46Z</time>
      </trkpt>
      <trkpt lat="47.52982" lon="5.15528">
        <ele>269.4</ele>
        <time>2022-06-06T11:53:47Z</time>
      </trkpt>
      <trkpt lat="47.52979" lon="5.15506">
        <ele>269.4</ele>
        <time>2022-06-06T11:53:49Z</time>
      </trkpt>
      <trkpt lat="47.52966" lon="5.15433">
        <ele>268.8</ele>
        <time>2022-06-06T11:53:56Z</time>
      </trkpt>
      <trkpt lat="47.52957" lon="5.15387">
        <ele>268.8</ele>
        <time>2022-06-06T11:54:01Z</time>
      </trkpt>
      <trkpt lat="47.52943" lon="5.15318">
        <ele>269</ele>
        <time>2022-06-06T11:54:09Z</time>
      </trkpt>
      <trkpt lat="47.5294" lon="5.15293">
        <ele>269.2</ele>
        <time>2022-06-06T11:54:12Z</time>
      </trkpt>
      <trkpt lat="47.52939" lon="5.15276">
        <ele>269.4</ele>
        <time>2022-06-06T11:54:14Z</time>
      </trkpt>
      <trkpt lat="47.52944" lon="5.15252">
        <ele>269.4</ele>
        <time>2022-06-06T11:54:17Z</time>
      </trkpt>
      <trkpt lat="47.52946" lon="5.15244">
        <ele>269.4</ele>
        <time>2022-06-06T11:54:18Z</time>
      </trkpt>
      <trkpt lat="47.52966" lon="5.15194">
        <ele>269.6</ele>
        <time>2022-06-06T11:54:25Z</time>
      </trkpt>
      <trkpt lat="47.52985" lon="5.15152">
        <ele>269.6</ele>
        <time>2022-06-06T11:54:31Z</time>
      </trkpt>
      <trkpt lat="47.53013" lon="5.1512">
        <ele>269.4</ele>
        <time>2022-06-06T11:54:37Z</time>
      </trkpt>
      <trkpt lat="47.53059" lon="5.15075">
        <ele>269.2</ele>
        <time>2022-06-06T11:54:46Z</time>
      </trkpt>
      <trkpt lat="47.53104" lon="5.15029">
        <ele>269.6</ele>
        <time>2022-06-06T11:54:55Z</time>
      </trkpt>
      <trkpt lat="47.53109" lon="5.15024">
        <ele>269.8</ele>
        <time>2022-06-06T11:54:56Z</time>
      </trkpt>
      <trkpt lat="47.53155" lon="5.14978">
        <ele>270</ele>
        <time>2022-06-06T11:55:05Z</time>
      </trkpt>
      <trkpt lat="47.53171" lon="5.14962">
        <ele>270</ele>
        <time>2022-06-06T11:55:08Z</time>
      </trkpt>
      <trkpt lat="47.53217" lon="5.14915">
        <ele>269.8</ele>
        <time>2022-06-06T11:55:17Z</time>
      </trkpt>
      <trkpt lat="47.53227" lon="5.14904">
        <ele>270</ele>
        <time>2022-06-06T11:55:19Z</time>
      </trkpt>
      <trkpt lat="47.53272" lon="5.14858">
        <ele>270.2</ele>
        <time>2022-06-06T11:55:28Z</time>
      </trkpt>
      <trkpt lat="47.53287" lon="5.14842">
        <ele>270.4</ele>
        <time>2022-06-06T11:55:31Z</time>
      </trkpt>
      <trkpt lat="47.53333" lon="5.14796">
        <ele>270.6</ele>
        <time>2022-06-06T11:55:40Z</time>
      </trkpt>
      <trkpt lat="47.53348" lon="5.14781">
        <ele>270.8</ele>
        <time>2022-06-06T11:55:43Z</time>
      </trkpt>
      <trkpt lat="47.53394" lon="5.14734">
        <ele>270.8</ele>
        <time>2022-06-06T11:55:52Z</time>
      </trkpt>
      <trkpt lat="47.53405" lon="5.14723">
        <ele>270.8</ele>
        <time>2022-06-06T11:55:54Z</time>
      </trkpt>
      <trkpt lat="47.53425" lon="5.147">
        <ele>271</ele>
        <time>2022-06-06T11:55:58Z</time>
      </trkpt>
      <trkpt lat="47.53433" lon="5.14686">
        <ele>271</ele>
        <time>2022-06-06T11:56:00Z</time>
      </trkpt>
      <trkpt lat="47.53441" lon="5.14672">
        <ele>271.2</ele>
        <time>2022-06-06T11:56:02Z</time>
      </trkpt>
      <trkpt lat="47.53451" lon="5.14663">
        <ele>271.2</ele>
        <time>2022-06-06T11:56:04Z</time>
      </trkpt>
      <trkpt lat="47.53463" lon="5.14665">
        <ele>271.2</ele>
        <time>2022-06-06T11:56:06Z</time>
      </trkpt>
      <trkpt lat="47.53468" lon="5.1467">
        <ele>271.2</ele>
        <time>2022-06-06T11:56:07Z</time>
      </trkpt>
      <trkpt lat="47.53474" lon="5.14674">
        <ele>271.2</ele>
        <time>2022-06-06T11:56:08Z</time>
      </trkpt>
      <trkpt lat="47.53486" lon="5.14677">
        <ele>271.2</ele>
        <time>2022-06-06T11:56:10Z</time>
      </trkpt>
      <trkpt lat="47.53497" lon="5.1467">
        <ele>271.2</ele>
        <time>2022-06-06T11:56:12Z</time>
      </trkpt>
      <trkpt lat="47.53502" lon="5.14664">
        <ele>271.2</ele>
        <time>2022-06-06T11:56:13Z</time>
      </trkpt>
      <trkpt lat="47.53526" lon="5.14619">
        <ele>271.2</ele>
        <time>2022-06-06T11:56:19Z</time>
      </trkpt>
      <trkpt lat="47.53561" lon="5.14551">
        <ele>271.2</ele>
        <time>2022-06-06T11:56:28Z</time>
      </trkpt>
      <trkpt lat="47.53565" lon="5.14543">
        <ele>271.2</ele>
        <time>2022-06-06T11:56:29Z</time>
      </trkpt>
      <trkpt lat="47.53601" lon="5.14472">
        <ele>271.4</ele>
        <time>2022-06-06T11:56:38Z</time>
      </trkpt>
      <trkpt lat="47.53636" lon="5.14402">
        <ele>271.6</ele>
        <time>2022-06-06T11:56:47Z</time>
      </trkpt>
      <trkpt lat="47.53644" lon="5.14387">
        <ele>271.6</ele>
        <time>2022-06-06T11:56:49Z</time>
      </trkpt>
      <trkpt lat="47.53672" lon="5.14335">
        <ele>271.8</ele>
        <time>2022-06-06T11:56:56Z</time>
      </trkpt>
      <trkpt lat="47.53706" lon="5.14267">
        <ele>272</ele>
        <time>2022-06-06T11:57:05Z</time>
      </trkpt>
      <trkpt lat="47.53709" lon="5.1426">
        <ele>272</ele>
        <time>2022-06-06T11:57:06Z</time>
      </trkpt>
      <trkpt lat="47.53729" lon="5.14225">
        <ele>272.2</ele>
        <time>2022-06-06T11:57:11Z</time>
      </trkpt>
      <trkpt lat="47.53734" lon="5.1422">
        <ele>272.2</ele>
        <time>2022-06-06T11:57:12Z</time>
      </trkpt>
      <trkpt lat="47.53739" lon="5.14218">
        <ele>272.2</ele>
        <time>2022-06-06T11:57:13Z</time>
      </trkpt>
      <trkpt lat="47.53756" lon="5.14213">
        <ele>272.4</ele>
        <time>2022-06-06T11:57:16Z</time>
      </trkpt>
      <trkpt lat="47.53772" lon="5.14201">
        <ele>272.2</ele>
        <time>2022-06-06T11:57:19Z</time>
      </trkpt>
      <trkpt lat="47.53776" lon="5.14195">
        <ele>272.2</ele>
        <time>2022-06-06T11:57:20Z</time>
      </trkpt>
      <trkpt lat="47.5378" lon="5.14188">
        <ele>272.2</ele>
        <time>2022-06-06T11:57:21Z</time>
      </trkpt>
      <trkpt lat="47.53797" lon="5.14157">
        <ele>272.2</ele>
        <time>2022-06-06T11:57:26Z</time>
      </trkpt>
      <trkpt lat="47.53804" lon="5.14143">
        <ele>272.2</ele>
        <time>2022-06-06T11:57:28Z</time>
      </trkpt>
      <trkpt lat="47.53817" lon="5.14118">
        <ele>272.2</ele>
        <time>2022-06-06T11:57:32Z</time>
      </trkpt>
      <trkpt lat="47.53837" lon="5.14077">
        <ele>272.4</ele>
        <time>2022-06-06T11:57:38Z</time>
      </trkpt>
      <trkpt lat="47.53843" lon="5.14062">
        <ele>272.6</ele>
        <time>2022-06-06T11:57:40Z</time>
      </trkpt>
      <trkpt lat="47.53851" lon="5.14041">
        <ele>272.6</ele>
        <time>2022-06-06T11:57:43Z</time>
      </trkpt>
      <trkpt lat="47.53856" lon="5.14026">
        <ele>272.4</ele>
        <time>2022-06-06T11:57:45Z</time>
      </trkpt>
      <trkpt lat="47.53865" lon="5.13992">
        <ele>272.6</ele>
        <time>2022-06-06T11:57:49Z</time>
      </trkpt>
      <trkpt lat="47.53867" lon="5.13985">
        <ele>272.6</ele>
        <time>2022-06-06T11:57:50Z</time>
      </trkpt>
      <trkpt lat="47.53872" lon="5.13962">
        <ele>272.6</ele>
        <time>2022-06-06T11:57:53Z</time>
      </trkpt>
      <trkpt lat="47.53875" lon="5.13938">
        <ele>272.6</ele>
        <time>2022-06-06T11:57:56Z</time>
      </trkpt>
      <trkpt lat="47.53877" lon="5.1393">
        <ele>272.6</ele>
        <time>2022-06-06T11:57:57Z</time>
      </trkpt>
      <trkpt lat="47.53883" lon="5.13918">
        <ele>272.6</ele>
        <time>2022-06-06T11:57:59Z</time>
      </trkpt>
      <trkpt lat="47.53891" lon="5.13915">
        <ele>272.8</ele>
        <time>2022-06-06T11:58:01Z</time>
      </trkpt>
      <trkpt lat="47.53894" lon="5.13916">
        <ele>272.8</ele>
        <time>2022-06-06T11:58:02Z</time>
      </trkpt>
      <trkpt lat="47.5391" lon="5.1393">
        <ele>272.8</ele>
        <time>2022-06-06T11:58:06Z</time>
      </trkpt>
      <trkpt lat="47.53937" lon="5.13944">
        <ele>272.6</ele>
        <time>2022-06-06T11:58:11Z</time>
      </trkpt>
      <trkpt lat="47.53959" lon="5.13948">
        <ele>272.6</ele>
        <time>2022-06-06T11:58:15Z</time>
      </trkpt>
      <trkpt lat="47.53965" lon="5.13946">
        <ele>272.8</ele>
        <time>2022-06-06T11:58:16Z</time>
      </trkpt>
      <trkpt lat="47.53971" lon="5.13943">
        <ele>272.6</ele>
        <time>2022-06-06T11:58:17Z</time>
      </trkpt>
      <trkpt lat="47.53982" lon="5.13934">
        <ele>272.8</ele>
        <time>2022-06-06T11:58:19Z</time>
      </trkpt>
      <trkpt lat="47.54001" lon="5.13912">
        <ele>272.8</ele>
        <time>2022-06-06T11:58:23Z</time>
      </trkpt>
      <trkpt lat="47.54005" lon="5.13908">
        <ele>272.8</ele>
        <time>2022-06-06T11:58:24Z</time>
      </trkpt>
      <trkpt lat="47.5401" lon="5.13906">
        <ele>272.8</ele>
        <time>2022-06-06T11:58:25Z</time>
      </trkpt>
      <trkpt lat="47.54022" lon="5.13905">
        <ele>272.6</ele>
        <time>2022-06-06T11:58:27Z</time>
      </trkpt>
      <trkpt lat="47.54029" lon="5.13907">
        <ele>272.6</ele>
        <time>2022-06-06T11:58:28Z</time>
      </trkpt>
      <trkpt lat="47.54083" lon="5.13927">
        <ele>273.2</ele>
        <time>2022-06-06T11:58:37Z</time>
      </trkpt>
      <trkpt lat="47.54125" lon="5.13941">
        <ele>273.8</ele>
        <time>2022-06-06T11:58:45Z</time>
      </trkpt>
      <trkpt lat="47.54164" lon="5.13957">
        <ele>274.6</ele>
        <time>2022-06-06T11:58:53Z</time>
      </trkpt>
      <trkpt lat="47.54178" lon="5.13961">
        <ele>275</ele>
        <time>2022-06-06T11:58:56Z</time>
      </trkpt>
      <trkpt lat="47.54188" lon="5.13963">
        <ele>275.2</ele>
        <time>2022-06-06T11:58:58Z</time>
      </trkpt>
      <trkpt lat="47.54197" lon="5.13966">
        <ele>275.4</ele>
        <time>2022-06-06T11:59:00Z</time>
      </trkpt>
      <trkpt lat="47.54212" lon="5.13967">
        <ele>276.2</ele>
        <time>2022-06-06T11:59:03Z</time>
      </trkpt>
      <trkpt lat="47.54226" lon="5.1397">
        <ele>276.4</ele>
        <time>2022-06-06T11:59:06Z</time>
      </trkpt>
      <trkpt lat="47.5426" lon="5.13976">
        <ele>277</ele>
        <time>2022-06-06T11:59:13Z</time>
      </trkpt>
      <trkpt lat="47.54279" lon="5.1398">
        <ele>277.2</ele>
        <time>2022-06-06T11:59:17Z</time>
      </trkpt>
      <trkpt lat="47.54293" lon="5.13987">
        <ele>277.6</ele>
        <time>2022-06-06T11:59:20Z</time>
      </trkpt>
      <trkpt lat="47.54323" lon="5.14009">
        <ele>278.2</ele>
        <time>2022-06-06T11:59:27Z</time>
      </trkpt>
      <trkpt lat="47.54327" lon="5.14014">
        <ele>278.4</ele>
        <time>2022-06-06T11:59:28Z</time>
      </trkpt>
      <trkpt lat="47.54358" lon="5.14047">
        <ele>278.8</ele>
        <time>2022-06-06T11:59:36Z</time>
      </trkpt>
      <trkpt lat="47.54386" lon="5.1408">
        <ele>278.8</ele>
        <time>2022-06-06T11:59:43Z</time>
      </trkpt>
      <trkpt lat="47.5439" lon="5.14084">
        <ele>279</ele>
        <time>2022-06-06T11:59:44Z</time>
      </trkpt>
      <trkpt lat="47.54422" lon="5.14122">
        <ele>279</ele>
        <time>2022-06-06T11:59:52Z</time>
      </trkpt>
      <trkpt lat="47.54445" lon="5.14151">
        <ele>279.4</ele>
        <time>2022-06-06T11:59:58Z</time>
      </trkpt>
      <trkpt lat="47.5446" lon="5.1417">
        <ele>279.8</ele>
        <time>2022-06-06T12:00:02Z</time>
      </trkpt>
      <trkpt lat="47.54482" lon="5.14197">
        <ele>280.6</ele>
        <time>2022-06-06T12:00:08Z</time>
      </trkpt>
      <trkpt lat="47.5449" lon="5.14206">
        <ele>280.8</ele>
        <time>2022-06-06T12:00:10Z</time>
      </trkpt>
      <trkpt lat="47.54519" lon="5.14233">
        <ele>281.8</ele>
        <time>2022-06-06T12:00:17Z</time>
      </trkpt>
      <trkpt lat="47.54547" lon="5.14248">
        <ele>282.8</ele>
        <time>2022-06-06T12:00:23Z</time>
      </trkpt>
      <trkpt lat="47.54561" lon="5.14254">
        <ele>283.2</ele>
        <time>2022-06-06T12:00:26Z</time>
      </trkpt>
      <trkpt lat="47.54574" lon="5.14258">
        <ele>283.6</ele>
        <time>2022-06-06T12:00:29Z</time>
      </trkpt>
      <trkpt lat="47.54579" lon="5.14259">
        <ele>284</ele>
        <time>2022-06-06T12:00:30Z</time>
      </trkpt>
      <trkpt lat="47.54588" lon="5.14261">
        <ele>284.4</ele>
        <time>2022-06-06T12:00:32Z</time>
      </trkpt>
      <trkpt lat="47.54593" lon="5.14262">
        <ele>284.4</ele>
        <time>2022-06-06T12:00:33Z</time>
      </trkpt>
      <trkpt lat="47.54632" lon="5.14267">
        <ele>285</ele>
        <time>2022-06-06T12:00:41Z</time>
      </trkpt>
      <trkpt lat="47.54637" lon="5.14268">
        <ele>285</ele>
        <time>2022-06-06T12:00:42Z</time>
      </trkpt>
      <trkpt lat="47.54666" lon="5.14275">
        <ele>285</ele>
        <time>2022-06-06T12:00:48Z</time>
      </trkpt>
      <trkpt lat="47.54685" lon="5.1428">
        <ele>285</ele>
        <time>2022-06-06T12:00:52Z</time>
      </trkpt>
      <trkpt lat="47.54704" lon="5.14286">
        <ele>284.8</ele>
        <time>2022-06-06T12:00:56Z</time>
      </trkpt>
      <trkpt lat="47.54709" lon="5.14288">
        <ele>284.8</ele>
        <time>2022-06-06T12:00:57Z</time>
      </trkpt>
      <trkpt lat="47.54741" lon="5.14306">
        <ele>282.8</ele>
        <time>2022-06-06T12:01:03Z</time>
      </trkpt>
      <trkpt lat="47.54746" lon="5.1431">
        <ele>284</ele>
        <time>2022-06-06T12:01:04Z</time>
      </trkpt>
      <trkpt lat="47.54788" lon="5.14347">
        <ele>283.6</ele>
        <time>2022-06-06T12:01:13Z</time>
      </trkpt>
      <trkpt lat="47.54825" lon="5.14371">
        <ele>284</ele>
        <time>2022-06-06T12:01:21Z</time>
      </trkpt>
      <trkpt lat="47.54851" lon="5.14383">
        <ele>285.2</ele>
        <time>2022-06-06T12:01:27Z</time>
      </trkpt>
      <trkpt lat="47.54854" lon="5.14385">
        <ele>285.6</ele>
        <time>2022-06-06T12:01:28Z</time>
      </trkpt>
      <trkpt lat="47.54864" lon="5.14392">
        <ele>286.2</ele>
        <time>2022-06-06T12:01:31Z</time>
      </trkpt>
      <trkpt lat="47.54873" lon="5.14399">
        <ele>286.8</ele>
        <time>2022-06-06T12:01:34Z</time>
      </trkpt>
      <trkpt lat="47.54889" lon="5.14406">
        <ele>287</ele>
        <time>2022-06-06T12:01:39Z</time>
      </trkpt>
      <trkpt lat="47.54905" lon="5.14412">
        <ele>287</ele>
        <time>2022-06-06T12:01:44Z</time>
      </trkpt>
      <trkpt lat="47.54912" lon="5.14415">
        <ele>287.2</ele>
        <time>2022-06-06T12:01:46Z</time>
      </trkpt>
      <trkpt lat="47.54933" lon="5.14422">
        <ele>287.4</ele>
        <time>2022-06-06T12:01:52Z</time>
      </trkpt>
      <trkpt lat="47.54955" lon="5.14431">
        <ele>288</ele>
        <time>2022-06-06T12:01:58Z</time>
      </trkpt>
      <trkpt lat="47.54965" lon="5.14436">
        <ele>288.2</ele>
        <time>2022-06-06T12:02:01Z</time>
      </trkpt>
      <trkpt lat="47.54983" lon="5.14442">
        <ele>289.2</ele>
        <time>2022-06-06T12:02:06Z</time>
      </trkpt>
      <trkpt lat="47.54987" lon="5.14443">
        <ele>289.4</ele>
        <time>2022-06-06T12:02:07Z</time>
      </trkpt>
      <trkpt lat="47.55003" lon="5.14449">
        <ele>290.2</ele>
        <time>2022-06-06T12:02:12Z</time>
      </trkpt>
      <trkpt lat="47.55006" lon="5.14447">
        <ele>290.4</ele>
        <time>2022-06-06T12:02:13Z</time>
      </trkpt>
      <trkpt lat="47.55026" lon="5.14447">
        <ele>291.2</ele>
        <time>2022-06-06T12:02:18Z</time>
      </trkpt>
      <trkpt lat="47.55035" lon="5.1445">
        <ele>291.6</ele>
        <time>2022-06-06T12:02:20Z</time>
      </trkpt>
      <trkpt lat="47.55051" lon="5.14456">
        <ele>292</ele>
        <time>2022-06-06T12:02:24Z</time>
      </trkpt>
      <trkpt lat="47.55074" lon="5.14462">
        <ele>292.4</ele>
        <time>2022-06-06T12:02:30Z</time>
      </trkpt>
      <trkpt lat="47.55084" lon="5.14465">
        <ele>292.8</ele>
        <time>2022-06-06T12:02:33Z</time>
      </trkpt>
      <trkpt lat="47.55095" lon="5.14467">
        <ele>293.4</ele>
        <time>2022-06-06T12:02:36Z</time>
      </trkpt>
      <trkpt lat="47.55107" lon="5.1447">
        <ele>294</ele>
        <time>2022-06-06T12:02:40Z</time>
      </trkpt>
      <trkpt lat="47.55118" lon="5.14473">
        <ele>294.6</ele>
        <time>2022-06-06T12:02:43Z</time>
      </trkpt>
      <trkpt lat="47.55133" lon="5.14477">
        <ele>295.2</ele>
        <time>2022-06-06T12:02:47Z</time>
      </trkpt>
      <trkpt lat="47.55141" lon="5.14479">
        <ele>295.6</ele>
        <time>2022-06-06T12:02:49Z</time>
      </trkpt>
      <trkpt lat="47.5516" lon="5.14484">
        <ele>296.4</ele>
        <time>2022-06-06T12:02:54Z</time>
      </trkpt>
      <trkpt lat="47.55164" lon="5.14484">
        <ele>296.8</ele>
        <time>2022-06-06T12:02:55Z</time>
      </trkpt>
      <trkpt lat="47.552" lon="5.14492">
        <ele>297.6</ele>
        <time>2022-06-06T12:03:04Z</time>
      </trkpt>
      <trkpt lat="47.55223" lon="5.14496">
        <ele>298.6</ele>
        <time>2022-06-06T12:03:10Z</time>
      </trkpt>
      <trkpt lat="47.5523" lon="5.14497">
        <ele>299</ele>
        <time>2022-06-06T12:03:12Z</time>
      </trkpt>
      <trkpt lat="47.5524" lon="5.14498">
        <ele>299.8</ele>
        <time>2022-06-06T12:03:15Z</time>
      </trkpt>
      <trkpt lat="47.55264" lon="5.145">
        <ele>300.8</ele>
        <time>2022-06-06T12:03:22Z</time>
      </trkpt>
      <trkpt lat="47.55268" lon="5.14501">
        <ele>301</ele>
        <time>2022-06-06T12:03:23Z</time>
      </trkpt>
      <trkpt lat="47.55299" lon="5.14504">
        <ele>301.8</ele>
        <time>2022-06-06T12:03:32Z</time>
      </trkpt>
      <trkpt lat="47.55313" lon="5.14505">
        <ele>301.8</ele>
        <time>2022-06-06T12:03:36Z</time>
      </trkpt>
      <trkpt lat="47.5532" lon="5.14505">
        <ele>302</ele>
        <time>2022-06-06T12:03:39Z</time>
      </trkpt>
      <trkpt lat="47.55341" lon="5.14506">
        <ele>302.4</ele>
        <time>2022-06-06T12:03:46Z</time>
      </trkpt>
      <trkpt lat="47.55372" lon="5.14515">
        <ele>302.6</ele>
        <time>2022-06-06T12:03:53Z</time>
      </trkpt>
      <trkpt lat="47.55394" lon="5.14522">
        <ele>302.8</ele>
        <time>2022-06-06T12:03:58Z</time>
      </trkpt>
      <trkpt lat="47.55398" lon="5.14523">
        <ele>303</ele>
        <time>2022-06-06T12:03:59Z</time>
      </trkpt>
      <trkpt lat="47.5542" lon="5.1453">
        <ele>303.4</ele>
        <time>2022-06-06T12:04:04Z</time>
      </trkpt>
      <trkpt lat="47.5545" lon="5.14542">
        <ele>303.8</ele>
        <time>2022-06-06T12:04:11Z</time>
      </trkpt>
      <trkpt lat="47.55453" lon="5.14544">
        <ele>304</ele>
        <time>2022-06-06T12:04:12Z</time>
      </trkpt>
      <trkpt lat="47.55474" lon="5.14551">
        <ele>304.6</ele>
        <time>2022-06-06T12:04:18Z</time>
      </trkpt>
      <trkpt lat="47.55482" lon="5.14552">
        <ele>305</ele>
        <time>2022-06-06T12:04:21Z</time>
      </trkpt>
      <trkpt lat="47.55488" lon="5.14553">
        <ele>305.2</ele>
        <time>2022-06-06T12:04:23Z</time>
      </trkpt>
      <trkpt lat="47.55501" lon="5.14554">
        <ele>306</ele>
        <time>2022-06-06T12:04:27Z</time>
      </trkpt>
      <trkpt lat="47.55512" lon="5.14556">
        <ele>307</ele>
        <time>2022-06-06T12:04:31Z</time>
      </trkpt>
      <trkpt lat="47.55515" lon="5.14556">
        <ele>307.2</ele>
        <time>2022-06-06T12:04:32Z</time>
      </trkpt>
      <trkpt lat="47.55532" lon="5.14561">
        <ele>308</ele>
        <time>2022-06-06T12:04:37Z</time>
      </trkpt>
      <trkpt lat="47.55544" lon="5.14563">
        <ele>308.4</ele>
        <time>2022-06-06T12:04:40Z</time>
      </trkpt>
      <trkpt lat="47.55554" lon="5.14566">
        <ele>308.8</ele>
        <time>2022-06-06T12:04:43Z</time>
      </trkpt>
      <trkpt lat="47.5556" lon="5.1457">
        <ele>309.6</ele>
        <time>2022-06-06T12:04:45Z</time>
      </trkpt>
      <trkpt lat="47.55577" lon="5.14571">
        <ele>310.6</ele>
        <time>2022-06-06T12:04:50Z</time>
      </trkpt>
      <trkpt lat="47.55579" lon="5.14571">
        <ele>310.6</ele>
        <time>2022-06-06T12:04:51Z</time>
      </trkpt>
      <trkpt lat="47.55592" lon="5.14574">
        <ele>311.2</ele>
        <time>2022-06-06T12:04:55Z</time>
      </trkpt>
      <trkpt lat="47.556" lon="5.14575">
        <ele>311.8</ele>
        <time>2022-06-06T12:04:57Z</time>
      </trkpt>
      <trkpt lat="47.55617" lon="5.14576">
        <ele>312.8</ele>
        <time>2022-06-06T12:05:02Z</time>
      </trkpt>
      <trkpt lat="47.55624" lon="5.14578">
        <ele>313.2</ele>
        <time>2022-06-06T12:05:04Z</time>
      </trkpt>
      <trkpt lat="47.55638" lon="5.14586">
        <ele>314</ele>
        <time>2022-06-06T12:05:08Z</time>
      </trkpt>
      <trkpt lat="47.55649" lon="5.14591">
        <ele>314.8</ele>
        <time>2022-06-06T12:05:13Z</time>
      </trkpt>
      <trkpt lat="47.55651" lon="5.1459">
        <ele>315</ele>
        <time>2022-06-06T12:05:14Z</time>
      </trkpt>
      <trkpt lat="47.55657" lon="5.14582">
        <ele>315.2</ele>
        <time>2022-06-06T12:05:17Z</time>
      </trkpt>
      <trkpt lat="47.55666" lon="5.14563">
        <ele>315</ele>
        <time>2022-06-06T12:05:21Z</time>
      </trkpt>
      <trkpt lat="47.55671" lon="5.1455">
        <ele>315</ele>
        <time>2022-06-06T12:05:23Z</time>
      </trkpt>
      <trkpt lat="47.55675" lon="5.14532">
        <ele>314.4</ele>
        <time>2022-06-06T12:05:25Z</time>
      </trkpt>
      <trkpt lat="47.55678" lon="5.14492">
        <ele>312.6</ele>
        <time>2022-06-06T12:05:28Z</time>
      </trkpt>
      <trkpt lat="47.55679" lon="5.14481">
        <ele>311.6</ele>
        <time>2022-06-06T12:05:29Z</time>
      </trkpt>
      <trkpt lat="47.5568" lon="5.14467">
        <ele>311</ele>
        <time>2022-06-06T12:05:30Z</time>
      </trkpt>
      <trkpt lat="47.55681" lon="5.14454">
        <ele>310.4</ele>
        <time>2022-06-06T12:05:31Z</time>
      </trkpt>
      <trkpt lat="47.55684" lon="5.1443">
        <ele>309.2</ele>
        <time>2022-06-06T12:05:33Z</time>
      </trkpt>
      <trkpt lat="47.55686" lon="5.14418">
        <ele>308.6</ele>
        <time>2022-06-06T12:05:34Z</time>
      </trkpt>
      <trkpt lat="47.55689" lon="5.14403">
        <ele>308</ele>
        <time>2022-06-06T12:05:35Z</time>
      </trkpt>
      <trkpt lat="47.55697" lon="5.14367">
        <ele>306.8</ele>
        <time>2022-06-06T12:05:38Z</time>
      </trkpt>
      <trkpt lat="47.55702" lon="5.14346">
        <ele>305.8</ele>
        <time>2022-06-06T12:05:40Z</time>
      </trkpt>
      <trkpt lat="47.55708" lon="5.14321">
        <ele>304.8</ele>
        <time>2022-06-06T12:05:43Z</time>
      </trkpt>
      <trkpt lat="47.5571" lon="5.14314">
        <ele>304.6</ele>
        <time>2022-06-06T12:05:44Z</time>
      </trkpt>
      <trkpt lat="47.55719" lon="5.14287">
        <ele>304.2</ele>
        <time>2022-06-06T12:05:48Z</time>
      </trkpt>
      <trkpt lat="47.55721" lon="5.14282">
        <ele>304.2</ele>
        <time>2022-06-06T12:05:49Z</time>
      </trkpt>
      <trkpt lat="47.55739" lon="5.14244">
        <ele>304.8</ele>
        <time>2022-06-06T12:05:57Z</time>
      </trkpt>
      <trkpt lat="47.55763" lon="5.14206">
        <ele>305</ele>
        <time>2022-06-06T12:06:06Z</time>
      </trkpt>
      <trkpt lat="47.5578" lon="5.14181">
        <ele>305</ele>
        <time>2022-06-06T12:06:12Z</time>
      </trkpt>
      <trkpt lat="47.55797" lon="5.14149">
        <ele>304.8</ele>
        <time>2022-06-06T12:06:19Z</time>
      </trkpt>
      <trkpt lat="47.5581" lon="5.14118">
        <ele>305</ele>
        <time>2022-06-06T12:06:25Z</time>
      </trkpt>
      <trkpt lat="47.55814" lon="5.141">
        <ele>305.2</ele>
        <time>2022-06-06T12:06:28Z</time>
      </trkpt>
      <trkpt lat="47.55822" lon="5.14046">
        <ele>305.8</ele>
        <time>2022-06-06T12:06:37Z</time>
      </trkpt>
      <trkpt lat="47.55822" lon="5.1404">
        <ele>306</ele>
        <time>2022-06-06T12:06:38Z</time>
      </trkpt>
      <trkpt lat="47.55827" lon="5.13971">
        <ele>306.4</ele>
        <time>2022-06-06T12:06:49Z</time>
      </trkpt>
      <trkpt lat="47.55831" lon="5.13954">
        <ele>306.4</ele>
        <time>2022-06-06T12:06:53Z</time>
      </trkpt>
      <trkpt lat="47.55836" lon="5.13955">
        <ele>306.6</ele>
        <time>2022-06-06T12:06:55Z</time>
      </trkpt>
      <trkpt lat="47.55837" lon="5.13959">
        <ele>306.6</ele>
        <time>2022-06-06T12:06:56Z</time>
      </trkpt>
      <trkpt lat="47.55845" lon="5.13979">
        <ele>307</ele>
        <time>2022-06-06T12:07:00Z</time>
      </trkpt>
      <trkpt lat="47.55848" lon="5.13989">
        <ele>307.2</ele>
        <time>2022-06-06T12:07:02Z</time>
      </trkpt>
      <trkpt lat="47.55862" lon="5.14025">
        <ele>307.8</ele>
        <time>2022-06-06T12:07:09Z</time>
      </trkpt>
      <trkpt lat="47.55869" lon="5.14041">
        <ele>308.2</ele>
        <time>2022-06-06T12:07:12Z</time>
      </trkpt>
      <trkpt lat="47.5588" lon="5.1407">
        <ele>308.4</ele>
        <time>2022-06-06T12:07:17Z</time>
      </trkpt>
      <trkpt lat="47.55891" lon="5.14098">
        <ele>308.8</ele>
        <time>2022-06-06T12:07:22Z</time>
      </trkpt>
      <trkpt lat="47.55897" lon="5.14113">
        <ele>309</ele>
        <time>2022-06-06T12:07:25Z</time>
      </trkpt>
      <trkpt lat="47.55901" lon="5.14124">
        <ele>309.2</ele>
        <time>2022-06-06T12:07:27Z</time>
      </trkpt>
      <trkpt lat="47.55913" lon="5.14149">
        <ele>309.6</ele>
        <time>2022-06-06T12:07:32Z</time>
      </trkpt>
      <trkpt lat="47.5592" lon="5.1415">
        <ele>309.8</ele>
        <time>2022-06-06T12:07:34Z</time>
      </trkpt>
      <trkpt lat="47.55922" lon="5.14146">
        <ele>309.8</ele>
        <time>2022-06-06T12:07:35Z</time>
      </trkpt>
      <trkpt lat="47.55923" lon="5.14141">
        <ele>309.8</ele>
        <time>2022-06-06T12:07:36Z</time>
      </trkpt>
      <trkpt lat="47.55922" lon="5.14129">
        <ele>310</ele>
        <time>2022-06-06T12:07:38Z</time>
      </trkpt>
      <trkpt lat="47.55922" lon="5.14122">
        <ele>310.2</ele>
        <time>2022-06-06T12:07:39Z</time>
      </trkpt>
      <trkpt lat="47.55916" lon="5.14081">
        <ele>311</ele>
        <time>2022-06-06T12:07:45Z</time>
      </trkpt>
      <trkpt lat="47.55914" lon="5.14074">
        <ele>311</ele>
        <time>2022-06-06T12:07:46Z</time>
      </trkpt>
      <trkpt lat="47.55908" lon="5.14017">
        <ele>310.6</ele>
        <time>2022-06-06T12:07:54Z</time>
      </trkpt>
      <trkpt lat="47.55905" lon="5.13989">
        <ele>310.6</ele>
        <time>2022-06-06T12:07:58Z</time>
      </trkpt>
      <trkpt lat="47.55905" lon="5.13961">
        <ele>310.6</ele>
        <time>2022-06-06T12:08:02Z</time>
      </trkpt>
      <trkpt lat="47.55909" lon="5.13932">
        <ele>310.6</ele>
        <time>2022-06-06T12:08:07Z</time>
      </trkpt>
      <trkpt lat="47.55909" lon="5.13913">
        <ele>310.6</ele>
        <time>2022-06-06T12:08:10Z</time>
      </trkpt>
      <trkpt lat="47.55907" lon="5.13886">
        <ele>310.6</ele>
        <time>2022-06-06T12:08:14Z</time>
      </trkpt>
      <trkpt lat="47.55902" lon="5.13829">
        <ele>311</ele>
        <time>2022-06-06T12:08:22Z</time>
      </trkpt>
      <trkpt lat="47.55899" lon="5.13794">
        <ele>311.2</ele>
        <time>2022-06-06T12:08:27Z</time>
      </trkpt>
      <trkpt lat="47.55895" lon="5.13767">
        <ele>311.4</ele>
        <time>2022-06-06T12:08:31Z</time>
      </trkpt>
      <trkpt lat="47.55893" lon="5.13761">
        <ele>311.6</ele>
        <time>2022-06-06T12:08:32Z</time>
      </trkpt>
      <trkpt lat="47.55892" lon="5.13747">
        <ele>311.6</ele>
        <time>2022-06-06T12:08:34Z</time>
      </trkpt>
      <trkpt lat="47.55892" lon="5.1374">
        <ele>311.6</ele>
        <time>2022-06-06T12:08:35Z</time>
      </trkpt>
      <trkpt lat="47.55893" lon="5.13732">
        <ele>311.8</ele>
        <time>2022-06-06T12:08:36Z</time>
      </trkpt>
      <trkpt lat="47.55896" lon="5.13713">
        <ele>312</ele>
        <time>2022-06-06T12:08:39Z</time>
      </trkpt>
      <trkpt lat="47.55898" lon="5.13708">
        <ele>312.2</ele>
        <time>2022-06-06T12:08:40Z</time>
      </trkpt>
      <trkpt lat="47.55899" lon="5.137">
        <ele>312.2</ele>
        <time>2022-06-06T12:08:41Z</time>
      </trkpt>
      <trkpt lat="47.55906" lon="5.13666">
        <ele>312.4</ele>
        <time>2022-06-06T12:08:46Z</time>
      </trkpt>
      <trkpt lat="47.55907" lon="5.13658">
        <ele>312.4</ele>
        <time>2022-06-06T12:08:47Z</time>
      </trkpt>
      <trkpt lat="47.55918" lon="5.13623">
        <ele>312.4</ele>
        <time>2022-06-06T12:08:52Z</time>
      </trkpt>
      <trkpt lat="47.55937" lon="5.13563">
        <ele>312</ele>
        <time>2022-06-06T12:09:00Z</time>
      </trkpt>
      <trkpt lat="47.5595" lon="5.1351">
        <ele>311.6</ele>
        <time>2022-06-06T12:09:07Z</time>
      </trkpt>
      <trkpt lat="47.55959" lon="5.13452">
        <ele>311.4</ele>
        <time>2022-06-06T12:09:15Z</time>
      </trkpt>
      <trkpt lat="47.55959" lon="5.13431">
        <ele>311.2</ele>
        <time>2022-06-06T12:09:18Z</time>
      </trkpt>
      <trkpt lat="47.5596" lon="5.13425">
        <ele>311.2</ele>
        <time>2022-06-06T12:09:19Z</time>
      </trkpt>
      <trkpt lat="47.55961" lon="5.13412">
        <ele>311.2</ele>
        <time>2022-06-06T12:09:21Z</time>
      </trkpt>
      <trkpt lat="47.55967" lon="5.13358">
        <ele>311.2</ele>
        <time>2022-06-06T12:09:29Z</time>
      </trkpt>
      <trkpt lat="47.55967" lon="5.13337">
        <ele>311.2</ele>
        <time>2022-06-06T12:09:32Z</time>
      </trkpt>
      <trkpt lat="47.55971" lon="5.13305">
        <ele>310.6</ele>
        <time>2022-06-06T12:09:36Z</time>
      </trkpt>
      <trkpt lat="47.55975" lon="5.13292">
        <ele>310.2</ele>
        <time>2022-06-06T12:09:38Z</time>
      </trkpt>
      <trkpt lat="47.55985" lon="5.1326">
        <ele>309</ele>
        <time>2022-06-06T12:09:42Z</time>
      </trkpt>
      <trkpt lat="47.55987" lon="5.13253">
        <ele>308.6</ele>
        <time>2022-06-06T12:09:43Z</time>
      </trkpt>
      <trkpt lat="47.55995" lon="5.13226">
        <ele>307.8</ele>
        <time>2022-06-06T12:09:46Z</time>
      </trkpt>
      <trkpt lat="47.56004" lon="5.13196">
        <ele>307</ele>
        <time>2022-06-06T12:09:49Z</time>
      </trkpt>
      <trkpt lat="47.56008" lon="5.13186">
        <ele>306.6</ele>
        <time>2022-06-06T12:09:50Z</time>
      </trkpt>
      <trkpt lat="47.56019" lon="5.13156">
        <ele>305.4</ele>
        <time>2022-06-06T12:09:53Z</time>
      </trkpt>
      <trkpt lat="47.56021" lon="5.13146">
        <ele>304.2</ele>
        <time>2022-06-06T12:09:54Z</time>
      </trkpt>
      <trkpt lat="47.56022" lon="5.13137">
        <ele>303.8</ele>
        <time>2022-06-06T12:09:55Z</time>
      </trkpt>
      <trkpt lat="47.56022" lon="5.13125">
        <ele>303.2</ele>
        <time>2022-06-06T12:09:56Z</time>
      </trkpt>
      <trkpt lat="47.56021" lon="5.13118">
        <ele>302.8</ele>
        <time>2022-06-06T12:09:57Z</time>
      </trkpt>
      <trkpt lat="47.56018" lon="5.13106">
        <ele>301.8</ele>
        <time>2022-06-06T12:09:59Z</time>
      </trkpt>
      <trkpt lat="47.56015" lon="5.13101">
        <ele>301.2</ele>
        <time>2022-06-06T12:10:00Z</time>
      </trkpt>
      <trkpt lat="47.56013" lon="5.13096">
        <ele>300.6</ele>
        <time>2022-06-06T12:10:01Z</time>
      </trkpt>
      <trkpt lat="47.56011" lon="5.13091">
        <ele>300.4</ele>
        <time>2022-06-06T12:10:02Z</time>
      </trkpt>
      <trkpt lat="47.56008" lon="5.13078">
        <ele>299.2</ele>
        <time>2022-06-06T12:10:04Z</time>
      </trkpt>
      <trkpt lat="47.56006" lon="5.1307">
        <ele>298.6</ele>
        <time>2022-06-06T12:10:05Z</time>
      </trkpt>
      <trkpt lat="47.56004" lon="5.13064">
        <ele>298.2</ele>
        <time>2022-06-06T12:10:06Z</time>
      </trkpt>
      <trkpt lat="47.55993" lon="5.13039">
        <ele>297.4</ele>
        <time>2022-06-06T12:10:10Z</time>
      </trkpt>
      <trkpt lat="47.55989" lon="5.13025">
        <ele>297</ele>
        <time>2022-06-06T12:10:12Z</time>
      </trkpt>
      <trkpt lat="47.55991" lon="5.13015">
        <ele>296.6</ele>
        <time>2022-06-06T12:10:14Z</time>
      </trkpt>
      <trkpt lat="47.56001" lon="5.13009">
        <ele>296.2</ele>
        <time>2022-06-06T12:10:16Z</time>
      </trkpt>
      <trkpt lat="47.56006" lon="5.1301">
        <ele>296</ele>
        <time>2022-06-06T12:10:17Z</time>
      </trkpt>
      <trkpt lat="47.56041" lon="5.13025">
        <ele>294.6</ele>
        <time>2022-06-06T12:10:22Z</time>
      </trkpt>
      <trkpt lat="47.56055" lon="5.13032">
        <ele>293.4</ele>
        <time>2022-06-06T12:10:24Z</time>
      </trkpt>
      <trkpt lat="47.56078" lon="5.13042">
        <ele>292</ele>
        <time>2022-06-06T12:10:27Z</time>
      </trkpt>
      <trkpt lat="47.56086" lon="5.13043">
        <ele>291.4</ele>
        <time>2022-06-06T12:10:28Z</time>
      </trkpt>
      <trkpt lat="47.56095" lon="5.13043">
        <ele>291</ele>
        <time>2022-06-06T12:10:29Z</time>
      </trkpt>
      <trkpt lat="47.56109" lon="5.13039">
        <ele>290</ele>
        <time>2022-06-06T12:10:31Z</time>
      </trkpt>
      <trkpt lat="47.56116" lon="5.13035">
        <ele>289.8</ele>
        <time>2022-06-06T12:10:32Z</time>
      </trkpt>
      <trkpt lat="47.56123" lon="5.13031">
        <ele>289.4</ele>
        <time>2022-06-06T12:10:33Z</time>
      </trkpt>
      <trkpt lat="47.56136" lon="5.13019">
        <ele>288.8</ele>
        <time>2022-06-06T12:10:35Z</time>
      </trkpt>
      <trkpt lat="47.5616" lon="5.12993">
        <ele>288.2</ele>
        <time>2022-06-06T12:10:39Z</time>
      </trkpt>
      <trkpt lat="47.56177" lon="5.12973">
        <ele>287.8</ele>
        <time>2022-06-06T12:10:42Z</time>
      </trkpt>
      <trkpt lat="47.5622" lon="5.12919">
        <ele>286.8</ele>
        <time>2022-06-06T12:10:50Z</time>
      </trkpt>
      <trkpt lat="47.56235" lon="5.12898">
        <ele>286.4</ele>
        <time>2022-06-06T12:10:53Z</time>
      </trkpt>
      <trkpt lat="47.56265" lon="5.12857">
        <ele>286.2</ele>
        <time>2022-06-06T12:10:59Z</time>
      </trkpt>
      <trkpt lat="47.56305" lon="5.12803">
        <ele>285.8</ele>
        <time>2022-06-06T12:11:07Z</time>
      </trkpt>
      <trkpt lat="47.56329" lon="5.12767">
        <ele>285.2</ele>
        <time>2022-06-06T12:11:12Z</time>
      </trkpt>
      <trkpt lat="47.56346" lon="5.12734">
        <ele>284.8</ele>
        <time>2022-06-06T12:11:16Z</time>
      </trkpt>
      <trkpt lat="47.56363" lon="5.12687">
        <ele>284.2</ele>
        <time>2022-06-06T12:11:21Z</time>
      </trkpt>
      <trkpt lat="47.56374" lon="5.1266">
        <ele>283.4</ele>
        <time>2022-06-06T12:11:24Z</time>
      </trkpt>
      <trkpt lat="47.5638" lon="5.12642">
        <ele>283.2</ele>
        <time>2022-06-06T12:11:26Z</time>
      </trkpt>
      <trkpt lat="47.564" lon="5.12588">
        <ele>282.6</ele>
        <time>2022-06-06T12:11:32Z</time>
      </trkpt>
      <trkpt lat="47.56424" lon="5.12516">
        <ele>282.6</ele>
        <time>2022-06-06T12:11:40Z</time>
      </trkpt>
      <trkpt lat="47.56427" lon="5.12507">
        <ele>282.4</ele>
        <time>2022-06-06T12:11:41Z</time>
      </trkpt>
      <trkpt lat="47.56447" lon="5.12449">
        <ele>282.6</ele>
        <time>2022-06-06T12:11:48Z</time>
      </trkpt>
      <trkpt lat="47.56465" lon="5.12401">
        <ele>282.8</ele>
        <time>2022-06-06T12:11:54Z</time>
      </trkpt>
      <trkpt lat="47.56494" lon="5.12342">
        <ele>282.8</ele>
        <time>2022-06-06T12:12:02Z</time>
      </trkpt>
      <trkpt lat="47.56522" lon="5.12307">
        <ele>282.2</ele>
        <time>2022-06-06T12:12:08Z</time>
      </trkpt>
      <trkpt lat="47.56559" lon="5.12277">
        <ele>282.4</ele>
        <time>2022-06-06T12:12:15Z</time>
      </trkpt>
      <trkpt lat="47.56599" lon="5.12243">
        <ele>282.6</ele>
        <time>2022-06-06T12:12:23Z</time>
      </trkpt>
      <trkpt lat="47.56619" lon="5.12222">
        <ele>282.4</ele>
        <time>2022-06-06T12:12:28Z</time>
      </trkpt>
      <trkpt lat="47.56622" lon="5.12217">
        <ele>282.4</ele>
        <time>2022-06-06T12:12:29Z</time>
      </trkpt>
      <trkpt lat="47.5663" lon="5.12199">
        <ele>282.4</ele>
        <time>2022-06-06T12:12:34Z</time>
      </trkpt>
      <trkpt lat="47.56633" lon="5.12195">
        <ele>282.4</ele>
        <time>2022-06-06T12:12:38Z</time>
      </trkpt>
      <trkpt lat="47.56634" lon="5.12195">
        <ele>282.2</ele>
        <time>2022-06-06T12:12:44Z</time>
      </trkpt>
      <trkpt lat="47.56636" lon="5.12196">
        <ele>282.2</ele>
        <time>2022-06-06T12:12:57Z</time>
      </trkpt>
      <trkpt lat="47.5664" lon="5.12198">
        <ele>282.2</ele>
        <time>2022-06-06T12:12:59Z</time>
      </trkpt>
      <trkpt lat="47.56656" lon="5.12193">
        <ele>282.2</ele>
        <time>2022-06-06T12:13:03Z</time>
      </trkpt>
      <trkpt lat="47.56671" lon="5.1219">
        <ele>282.4</ele>
        <time>2022-06-06T12:13:06Z</time>
      </trkpt>
      <trkpt lat="47.56681" lon="5.12189">
        <ele>282.6</ele>
        <time>2022-06-06T12:13:08Z</time>
      </trkpt>
      <trkpt lat="47.56701" lon="5.12191">
        <ele>282.6</ele>
        <time>2022-06-06T12:13:12Z</time>
      </trkpt>
      <trkpt lat="47.56742" lon="5.12194">
        <ele>283.8</ele>
        <time>2022-06-06T12:13:20Z</time>
      </trkpt>
      <trkpt lat="47.56752" lon="5.12195">
        <ele>284.4</ele>
        <time>2022-06-06T12:13:22Z</time>
      </trkpt>
      <trkpt lat="47.56763" lon="5.12193">
        <ele>284.4</ele>
        <time>2022-06-06T12:13:24Z</time>
      </trkpt>
      <trkpt lat="47.56768" lon="5.12191">
        <ele>284.6</ele>
        <time>2022-06-06T12:13:25Z</time>
      </trkpt>
      <trkpt lat="47.56777" lon="5.12187">
        <ele>284.8</ele>
        <time>2022-06-06T12:13:27Z</time>
      </trkpt>
      <trkpt lat="47.56787" lon="5.12179">
        <ele>285</ele>
        <time>2022-06-06T12:13:29Z</time>
      </trkpt>
      <trkpt lat="47.56797" lon="5.12169">
        <ele>285</ele>
        <time>2022-06-06T12:13:31Z</time>
      </trkpt>
      <trkpt lat="47.56809" lon="5.12153">
        <ele>285</ele>
        <time>2022-06-06T12:13:34Z</time>
      </trkpt>
      <trkpt lat="47.56813" lon="5.12148">
        <ele>285</ele>
        <time>2022-06-06T12:13:35Z</time>
      </trkpt>
      <trkpt lat="47.56843" lon="5.12098">
        <ele>285.2</ele>
        <time>2022-06-06T12:13:43Z</time>
      </trkpt>
      <trkpt lat="47.56856" lon="5.12072">
        <ele>285.4</ele>
        <time>2022-06-06T12:13:47Z</time>
      </trkpt>
      <trkpt lat="47.56862" lon="5.12058">
        <ele>285.6</ele>
        <time>2022-06-06T12:13:49Z</time>
      </trkpt>
      <trkpt lat="47.56884" lon="5.12011">
        <ele>285.8</ele>
        <time>2022-06-06T12:13:56Z</time>
      </trkpt>
      <trkpt lat="47.56906" lon="5.11975">
        <ele>285.8</ele>
        <time>2022-06-06T12:14:02Z</time>
      </trkpt>
      <trkpt lat="47.56921" lon="5.11952">
        <ele>285.6</ele>
        <time>2022-06-06T12:14:06Z</time>
      </trkpt>
      <trkpt lat="47.56929" lon="5.11942">
        <ele>285.6</ele>
        <time>2022-06-06T12:14:08Z</time>
      </trkpt>
      <trkpt lat="47.56933" lon="5.11937">
        <ele>285.6</ele>
        <time>2022-06-06T12:14:09Z</time>
      </trkpt>
      <trkpt lat="47.56966" lon="5.11886">
        <ele>286.4</ele>
        <time>2022-06-06T12:14:18Z</time>
      </trkpt>
      <trkpt lat="47.56974" lon="5.11875">
        <ele>286.4</ele>
        <time>2022-06-06T12:14:20Z</time>
      </trkpt>
      <trkpt lat="47.56982" lon="5.11864">
        <ele>286.6</ele>
        <time>2022-06-06T12:14:22Z</time>
      </trkpt>
      <trkpt lat="47.56996" lon="5.1185">
        <ele>286.8</ele>
        <time>2022-06-06T12:14:25Z</time>
      </trkpt>
      <trkpt lat="47.57021" lon="5.11828">
        <ele>286.6</ele>
        <time>2022-06-06T12:14:30Z</time>
      </trkpt>
      <trkpt lat="47.57026" lon="5.11822">
        <ele>286.6</ele>
        <time>2022-06-06T12:14:31Z</time>
      </trkpt>
      <trkpt lat="47.5703" lon="5.11817">
        <ele>286.6</ele>
        <time>2022-06-06T12:14:32Z</time>
      </trkpt>
      <trkpt lat="47.57048" lon="5.11786">
        <ele>286.4</ele>
        <time>2022-06-06T12:14:37Z</time>
      </trkpt>
      <trkpt lat="47.57073" lon="5.11741">
        <ele>286.4</ele>
        <time>2022-06-06T12:14:44Z</time>
      </trkpt>
      <trkpt lat="47.57096" lon="5.117">
        <ele>287</ele>
        <time>2022-06-06T12:14:51Z</time>
      </trkpt>
      <trkpt lat="47.57104" lon="5.1169">
        <ele>287</ele>
        <time>2022-06-06T12:14:53Z</time>
      </trkpt>
      <trkpt lat="47.57111" lon="5.11679">
        <ele>287.6</ele>
        <time>2022-06-06T12:14:55Z</time>
      </trkpt>
      <trkpt lat="47.57125" lon="5.11656">
        <ele>288.2</ele>
        <time>2022-06-06T12:14:59Z</time>
      </trkpt>
      <trkpt lat="47.57134" lon="5.11647">
        <ele>288.4</ele>
        <time>2022-06-06T12:15:01Z</time>
      </trkpt>
      <trkpt lat="47.57146" lon="5.11629">
        <ele>288.6</ele>
        <time>2022-06-06T12:15:04Z</time>
      </trkpt>
      <trkpt lat="47.57154" lon="5.11621">
        <ele>288.6</ele>
        <time>2022-06-06T12:15:06Z</time>
      </trkpt>
      <trkpt lat="47.57167" lon="5.11609">
        <ele>288.8</ele>
        <time>2022-06-06T12:15:09Z</time>
      </trkpt>
      <trkpt lat="47.57177" lon="5.11603">
        <ele>289</ele>
        <time>2022-06-06T12:15:11Z</time>
      </trkpt>
      <trkpt lat="47.57191" lon="5.11596">
        <ele>289</ele>
        <time>2022-06-06T12:15:14Z</time>
      </trkpt>
      <trkpt lat="47.57195" lon="5.11594">
        <ele>289</ele>
        <time>2022-06-06T12:15:15Z</time>
      </trkpt>
      <trkpt lat="47.57229" lon="5.11586">
        <ele>289.2</ele>
        <time>2022-06-06T12:15:22Z</time>
      </trkpt>
      <trkpt lat="47.5725" lon="5.11579">
        <ele>289.2</ele>
        <time>2022-06-06T12:15:26Z</time>
      </trkpt>
      <trkpt lat="47.57261" lon="5.11576">
        <ele>289.2</ele>
        <time>2022-06-06T12:15:28Z</time>
      </trkpt>
      <trkpt lat="47.57282" lon="5.11572">
        <ele>288.8</ele>
        <time>2022-06-06T12:15:32Z</time>
      </trkpt>
      <trkpt lat="47.57291" lon="5.11571">
        <ele>288.4</ele>
        <time>2022-06-06T12:15:34Z</time>
      </trkpt>
      <trkpt lat="47.57302" lon="5.11569">
        <ele>288.2</ele>
        <time>2022-06-06T12:15:36Z</time>
      </trkpt>
      <trkpt lat="47.57314" lon="5.11564">
        <ele>288</ele>
        <time>2022-06-06T12:15:38Z</time>
      </trkpt>
      <trkpt lat="47.57319" lon="5.11562">
        <ele>288</ele>
        <time>2022-06-06T12:15:39Z</time>
      </trkpt>
      <trkpt lat="47.57324" lon="5.1156">
        <ele>288</ele>
        <time>2022-06-06T12:15:40Z</time>
      </trkpt>
      <trkpt lat="47.57338" lon="5.11551">
        <ele>287.8</ele>
        <time>2022-06-06T12:15:43Z</time>
      </trkpt>
      <trkpt lat="47.57365" lon="5.11535">
        <ele>288.2</ele>
        <time>2022-06-06T12:15:49Z</time>
      </trkpt>
      <trkpt lat="47.57368" lon="5.11532">
        <ele>288.2</ele>
        <time>2022-06-06T12:15:50Z</time>
      </trkpt>
      <trkpt lat="47.57373" lon="5.11523">
        <ele>288.4</ele>
        <time>2022-06-06T12:15:52Z</time>
      </trkpt>
      <trkpt lat="47.57375" lon="5.11517">
        <ele>288.4</ele>
        <time>2022-06-06T12:15:53Z</time>
      </trkpt>
      <trkpt lat="47.57386" lon="5.11477">
        <ele>288.6</ele>
        <time>2022-06-06T12:16:00Z</time>
      </trkpt>
      <trkpt lat="47.57389" lon="5.11468">
        <ele>288.6</ele>
        <time>2022-06-06T12:16:02Z</time>
      </trkpt>
      <trkpt lat="47.57396" lon="5.11453">
        <ele>289</ele>
        <time>2022-06-06T12:16:05Z</time>
      </trkpt>
      <trkpt lat="47.57406" lon="5.11434">
        <ele>289.8</ele>
        <time>2022-06-06T12:16:09Z</time>
      </trkpt>
      <trkpt lat="47.57419" lon="5.11403">
        <ele>291</ele>
        <time>2022-06-06T12:16:15Z</time>
      </trkpt>
      <trkpt lat="47.57421" lon="5.11398">
        <ele>291.2</ele>
        <time>2022-06-06T12:16:16Z</time>
      </trkpt>
      <trkpt lat="47.57435" lon="5.11372">
        <ele>291.8</ele>
        <time>2022-06-06T12:16:22Z</time>
      </trkpt>
      <trkpt lat="47.57438" lon="5.11368">
        <ele>292.2</ele>
        <time>2022-06-06T12:16:23Z</time>
      </trkpt>
      <trkpt lat="47.57444" lon="5.11348">
        <ele>293.2</ele>
        <time>2022-06-06T12:16:27Z</time>
      </trkpt>
      <trkpt lat="47.57449" lon="5.1133">
        <ele>294.2</ele>
        <time>2022-06-06T12:16:30Z</time>
      </trkpt>
      <trkpt lat="47.57452" lon="5.11318">
        <ele>294.8</ele>
        <time>2022-06-06T12:16:32Z</time>
      </trkpt>
      <trkpt lat="47.57456" lon="5.11303">
        <ele>294.8</ele>
        <time>2022-06-06T12:16:34Z</time>
      </trkpt>
      <trkpt lat="47.57461" lon="5.11284">
        <ele>295</ele>
        <time>2022-06-06T12:16:36Z</time>
      </trkpt>
      <trkpt lat="47.57466" lon="5.11268">
        <ele>295</ele>
        <time>2022-06-06T12:16:38Z</time>
      </trkpt>
      <trkpt lat="47.57469" lon="5.11256">
        <ele>295</ele>
        <time>2022-06-06T12:16:40Z</time>
      </trkpt>
      <trkpt lat="47.57471" lon="5.11249">
        <ele>295</ele>
        <time>2022-06-06T12:16:41Z</time>
      </trkpt>
      <trkpt lat="47.57474" lon="5.11241">
        <ele>295</ele>
        <time>2022-06-06T12:16:42Z</time>
      </trkpt>
      <trkpt lat="47.57477" lon="5.11227">
        <ele>295</ele>
        <time>2022-06-06T12:16:44Z</time>
      </trkpt>
      <trkpt lat="47.5748" lon="5.11222">
        <ele>295</ele>
        <time>2022-06-06T12:16:45Z</time>
      </trkpt>
      <trkpt lat="47.57483" lon="5.11217">
        <ele>295</ele>
        <time>2022-06-06T12:16:46Z</time>
      </trkpt>
      <trkpt lat="47.5749" lon="5.11196">
        <ele>295.2</ele>
        <time>2022-06-06T12:16:49Z</time>
      </trkpt>
      <trkpt lat="47.57497" lon="5.11186">
        <ele>295.2</ele>
        <time>2022-06-06T12:16:51Z</time>
      </trkpt>
      <trkpt lat="47.57498" lon="5.11181">
        <ele>295.4</ele>
        <time>2022-06-06T12:16:52Z</time>
      </trkpt>
      <trkpt lat="47.575" lon="5.11174">
        <ele>295.4</ele>
        <time>2022-06-06T12:16:53Z</time>
      </trkpt>
      <trkpt lat="47.57511" lon="5.11158">
        <ele>295.8</ele>
        <time>2022-06-06T12:16:57Z</time>
      </trkpt>
      <trkpt lat="47.5752" lon="5.11129">
        <ele>296.2</ele>
        <time>2022-06-06T12:17:01Z</time>
      </trkpt>
      <trkpt lat="47.57526" lon="5.11113">
        <ele>296.4</ele>
        <time>2022-06-06T12:17:03Z</time>
      </trkpt>
      <trkpt lat="47.57532" lon="5.11099">
        <ele>296.2</ele>
        <time>2022-06-06T12:17:05Z</time>
      </trkpt>
      <trkpt lat="47.57536" lon="5.11092">
        <ele>296.2</ele>
        <time>2022-06-06T12:17:06Z</time>
      </trkpt>
      <trkpt lat="47.57549" lon="5.11071">
        <ele>296</ele>
        <time>2022-06-06T12:17:09Z</time>
      </trkpt>
      <trkpt lat="47.57555" lon="5.11066">
        <ele>295.8</ele>
        <time>2022-06-06T12:17:10Z</time>
      </trkpt>
      <trkpt lat="47.57562" lon="5.11054">
        <ele>295.6</ele>
        <time>2022-06-06T12:17:12Z</time>
      </trkpt>
      <trkpt lat="47.57564" lon="5.11047">
        <ele>295.6</ele>
        <time>2022-06-06T12:17:13Z</time>
      </trkpt>
      <trkpt lat="47.57573" lon="5.11029">
        <ele>295.4</ele>
        <time>2022-06-06T12:17:16Z</time>
      </trkpt>
      <trkpt lat="47.5758" lon="5.11018">
        <ele>295.4</ele>
        <time>2022-06-06T12:17:18Z</time>
      </trkpt>
      <trkpt lat="47.57587" lon="5.11007">
        <ele>295.4</ele>
        <time>2022-06-06T12:17:20Z</time>
      </trkpt>
      <trkpt lat="47.57592" lon="5.10992">
        <ele>295.4</ele>
        <time>2022-06-06T12:17:22Z</time>
      </trkpt>
      <trkpt lat="47.57595" lon="5.10985">
        <ele>295.4</ele>
        <time>2022-06-06T12:17:23Z</time>
      </trkpt>
      <trkpt lat="47.57598" lon="5.1098">
        <ele>295.4</ele>
        <time>2022-06-06T12:17:24Z</time>
      </trkpt>
      <trkpt lat="47.57612" lon="5.10955">
        <ele>295.2</ele>
        <time>2022-06-06T12:17:28Z</time>
      </trkpt>
      <trkpt lat="47.5763" lon="5.1092">
        <ele>295.4</ele>
        <time>2022-06-06T12:17:33Z</time>
      </trkpt>
      <trkpt lat="47.57633" lon="5.10913">
        <ele>295.4</ele>
        <time>2022-06-06T12:17:34Z</time>
      </trkpt>
      <trkpt lat="47.57642" lon="5.10892">
        <ele>295.4</ele>
        <time>2022-06-06T12:17:37Z</time>
      </trkpt>
      <trkpt lat="47.57648" lon="5.10879">
        <ele>295.4</ele>
        <time>2022-06-06T12:17:39Z</time>
      </trkpt>
      <trkpt lat="47.57653" lon="5.10865">
        <ele>295.4</ele>
        <time>2022-06-06T12:17:41Z</time>
      </trkpt>
      <trkpt lat="47.57663" lon="5.10846">
        <ele>295.2</ele>
        <time>2022-06-06T12:17:44Z</time>
      </trkpt>
      <trkpt lat="47.57673" lon="5.10827">
        <ele>295.2</ele>
        <time>2022-06-06T12:17:47Z</time>
      </trkpt>
      <trkpt lat="47.5768" lon="5.10817">
        <ele>295.2</ele>
        <time>2022-06-06T12:17:49Z</time>
      </trkpt>
      <trkpt lat="47.57684" lon="5.10812">
        <ele>295.2</ele>
        <time>2022-06-06T12:17:50Z</time>
      </trkpt>
      <trkpt lat="47.57698" lon="5.1079">
        <ele>295.4</ele>
        <time>2022-06-06T12:17:54Z</time>
      </trkpt>
      <trkpt lat="47.57721" lon="5.10754">
        <ele>295.2</ele>
        <time>2022-06-06T12:17:59Z</time>
      </trkpt>
      <trkpt lat="47.57725" lon="5.10746">
        <ele>295</ele>
        <time>2022-06-06T12:18:00Z</time>
      </trkpt>
      <trkpt lat="47.57733" lon="5.10728">
        <ele>294.8</ele>
        <time>2022-06-06T12:18:03Z</time>
      </trkpt>
      <trkpt lat="47.57739" lon="5.10717">
        <ele>294.8</ele>
        <time>2022-06-06T12:18:05Z</time>
      </trkpt>
      <trkpt lat="47.57747" lon="5.10706">
        <ele>294.8</ele>
        <time>2022-06-06T12:18:07Z</time>
      </trkpt>
      <trkpt lat="47.57761" lon="5.1068">
        <ele>294.6</ele>
        <time>2022-06-06T12:18:11Z</time>
      </trkpt>
      <trkpt lat="47.57788" lon="5.10638">
        <ele>294.8</ele>
        <time>2022-06-06T12:18:18Z</time>
      </trkpt>
      <trkpt lat="47.57791" lon="5.10633">
        <ele>294.8</ele>
        <time>2022-06-06T12:18:19Z</time>
      </trkpt>
      <trkpt lat="47.57817" lon="5.10603">
        <ele>294.8</ele>
        <time>2022-06-06T12:18:24Z</time>
      </trkpt>
      <trkpt lat="47.57832" lon="5.10576">
        <ele>295</ele>
        <time>2022-06-06T12:18:29Z</time>
      </trkpt>
      <trkpt lat="47.57837" lon="5.10568">
        <ele>295.2</ele>
        <time>2022-06-06T12:18:30Z</time>
      </trkpt>
      <trkpt lat="47.57846" lon="5.10554">
        <ele>295.2</ele>
        <time>2022-06-06T12:18:32Z</time>
      </trkpt>
      <trkpt lat="47.57854" lon="5.10542">
        <ele>295.2</ele>
        <time>2022-06-06T12:18:34Z</time>
      </trkpt>
      <trkpt lat="47.57858" lon="5.10536">
        <ele>295.4</ele>
        <time>2022-06-06T12:18:35Z</time>
      </trkpt>
      <trkpt lat="47.57879" lon="5.10508">
        <ele>295.6</ele>
        <time>2022-06-06T12:18:40Z</time>
      </trkpt>
      <trkpt lat="47.57891" lon="5.10495">
        <ele>295.8</ele>
        <time>2022-06-06T12:18:43Z</time>
      </trkpt>
      <trkpt lat="47.57901" lon="5.10486">
        <ele>295.8</ele>
        <time>2022-06-06T12:18:45Z</time>
      </trkpt>
      <trkpt lat="47.57906" lon="5.10483">
        <ele>295.8</ele>
        <time>2022-06-06T12:18:46Z</time>
      </trkpt>
      <trkpt lat="47.5791" lon="5.10479">
        <ele>296</ele>
        <time>2022-06-06T12:18:47Z</time>
      </trkpt>
      <trkpt lat="47.57928" lon="5.10463">
        <ele>296</ele>
        <time>2022-06-06T12:18:51Z</time>
      </trkpt>
      <trkpt lat="47.57933" lon="5.10459">
        <ele>296</ele>
        <time>2022-06-06T12:18:52Z</time>
      </trkpt>
      <trkpt lat="47.57952" lon="5.1044">
        <ele>296.2</ele>
        <time>2022-06-06T12:18:56Z</time>
      </trkpt>
      <trkpt lat="47.57956" lon="5.10434">
        <ele>296.2</ele>
        <time>2022-06-06T12:18:57Z</time>
      </trkpt>
      <trkpt lat="47.57963" lon="5.10422">
        <ele>296</ele>
        <time>2022-06-06T12:18:59Z</time>
      </trkpt>
      <trkpt lat="47.57978" lon="5.10405">
        <ele>295.8</ele>
        <time>2022-06-06T12:19:02Z</time>
      </trkpt>
      <trkpt lat="47.57989" lon="5.10395">
        <ele>295.2</ele>
        <time>2022-06-06T12:19:04Z</time>
      </trkpt>
      <trkpt lat="47.58" lon="5.10385">
        <ele>294.6</ele>
        <time>2022-06-06T12:19:06Z</time>
      </trkpt>
      <trkpt lat="47.58004" lon="5.10382">
        <ele>294.4</ele>
        <time>2022-06-06T12:19:07Z</time>
      </trkpt>
      <trkpt lat="47.58009" lon="5.10378">
        <ele>294.2</ele>
        <time>2022-06-06T12:19:08Z</time>
      </trkpt>
      <trkpt lat="47.5802" lon="5.10372">
        <ele>293.8</ele>
        <time>2022-06-06T12:19:10Z</time>
      </trkpt>
      <trkpt lat="47.58024" lon="5.1037">
        <ele>293.6</ele>
        <time>2022-06-06T12:19:11Z</time>
      </trkpt>
      <trkpt lat="47.58028" lon="5.10367">
        <ele>293.6</ele>
        <time>2022-06-06T12:19:12Z</time>
      </trkpt>
      <trkpt lat="47.58035" lon="5.10361">
        <ele>293</ele>
        <time>2022-06-06T12:19:14Z</time>
      </trkpt>
      <trkpt lat="47.58048" lon="5.10348">
        <ele>292.4</ele>
        <time>2022-06-06T12:19:18Z</time>
      </trkpt>
      <trkpt lat="47.58064" lon="5.10329">
        <ele>292.2</ele>
        <time>2022-06-06T12:19:23Z</time>
      </trkpt>
      <trkpt lat="47.58081" lon="5.10307">
        <ele>292.4</ele>
        <time>2022-06-06T12:19:28Z</time>
      </trkpt>
      <trkpt lat="47.5809" lon="5.103">
        <ele>292.4</ele>
        <time>2022-06-06T12:19:31Z</time>
      </trkpt>
      <trkpt lat="47.58093" lon="5.10298">
        <ele>292.4</ele>
        <time>2022-06-06T12:19:32Z</time>
      </trkpt>
      <trkpt lat="47.58111" lon="5.10284">
        <ele>292.6</ele>
        <time>2022-06-06T12:19:38Z</time>
      </trkpt>
      <trkpt lat="47.58136" lon="5.10267">
        <ele>293</ele>
        <time>2022-06-06T12:19:43Z</time>
      </trkpt>
      <trkpt lat="47.58165" lon="5.10249">
        <ele>293.4</ele>
        <time>2022-06-06T12:19:50Z</time>
      </trkpt>
      <trkpt lat="47.58175" lon="5.10244">
        <ele>293.4</ele>
        <time>2022-06-06T12:19:52Z</time>
      </trkpt>
      <trkpt lat="47.58197" lon="5.10233">
        <ele>293.6</ele>
        <time>2022-06-06T12:19:56Z</time>
      </trkpt>
      <trkpt lat="47.58211" lon="5.10223">
        <ele>293.2</ele>
        <time>2022-06-06T12:19:59Z</time>
      </trkpt>
      <trkpt lat="47.58223" lon="5.10208">
        <ele>293</ele>
        <time>2022-06-06T12:20:02Z</time>
      </trkpt>
      <trkpt lat="47.58249" lon="5.10184">
        <ele>292.8</ele>
        <time>2022-06-06T12:20:08Z</time>
      </trkpt>
      <trkpt lat="47.58253" lon="5.1018">
        <ele>292.8</ele>
        <time>2022-06-06T12:20:09Z</time>
      </trkpt>
      <trkpt lat="47.5826" lon="5.10173">
        <ele>292.8</ele>
        <time>2022-06-06T12:20:11Z</time>
      </trkpt>
      <trkpt lat="47.58272" lon="5.10163">
        <ele>292.6</ele>
        <time>2022-06-06T12:20:14Z</time>
      </trkpt>
      <trkpt lat="47.58276" lon="5.10158">
        <ele>292.6</ele>
        <time>2022-06-06T12:20:15Z</time>
      </trkpt>
      <trkpt lat="47.58284" lon="5.10148">
        <ele>292.4</ele>
        <time>2022-06-06T12:20:17Z</time>
      </trkpt>
      <trkpt lat="47.58287" lon="5.10142">
        <ele>292.4</ele>
        <time>2022-06-06T12:20:18Z</time>
      </trkpt>
      <trkpt lat="47.5829" lon="5.10136">
        <ele>292.4</ele>
        <time>2022-06-06T12:20:19Z</time>
      </trkpt>
      <trkpt lat="47.58295" lon="5.10124">
        <ele>292.4</ele>
        <time>2022-06-06T12:20:21Z</time>
      </trkpt>
      <trkpt lat="47.583" lon="5.10101">
        <ele>292.6</ele>
        <time>2022-06-06T12:20:24Z</time>
      </trkpt>
      <trkpt lat="47.58302" lon="5.10094">
        <ele>292.8</ele>
        <time>2022-06-06T12:20:25Z</time>
      </trkpt>
      <trkpt lat="47.58305" lon="5.10057">
        <ele>293.2</ele>
        <time>2022-06-06T12:20:30Z</time>
      </trkpt>
      <trkpt lat="47.58306" lon="5.10051">
        <ele>293.4</ele>
        <time>2022-06-06T12:20:31Z</time>
      </trkpt>
      <trkpt lat="47.58309" lon="5.10039">
        <ele>293.4</ele>
        <time>2022-06-06T12:20:33Z</time>
      </trkpt>
      <trkpt lat="47.58311" lon="5.10032">
        <ele>293.6</ele>
        <time>2022-06-06T12:20:34Z</time>
      </trkpt>
      <trkpt lat="47.58313" lon="5.10026">
        <ele>293.6</ele>
        <time>2022-06-06T12:20:35Z</time>
      </trkpt>
      <trkpt lat="47.58322" lon="5.10007">
        <ele>293.8</ele>
        <time>2022-06-06T12:20:38Z</time>
      </trkpt>
      <trkpt lat="47.58326" lon="5.10001">
        <ele>293.8</ele>
        <time>2022-06-06T12:20:39Z</time>
      </trkpt>
      <trkpt lat="47.58343" lon="5.09983">
        <ele>293.6</ele>
        <time>2022-06-06T12:20:43Z</time>
      </trkpt>
      <trkpt lat="47.58351" lon="5.09975">
        <ele>293.4</ele>
        <time>2022-06-06T12:20:45Z</time>
      </trkpt>
      <trkpt lat="47.58367" lon="5.09957">
        <ele>293.2</ele>
        <time>2022-06-06T12:20:49Z</time>
      </trkpt>
      <trkpt lat="47.58375" lon="5.09948">
        <ele>293.2</ele>
        <time>2022-06-06T12:20:51Z</time>
      </trkpt>
      <trkpt lat="47.58386" lon="5.09936">
        <ele>292.8</ele>
        <time>2022-06-06T12:20:54Z</time>
      </trkpt>
      <trkpt lat="47.58401" lon="5.09924">
        <ele>292.8</ele>
        <time>2022-06-06T12:20:57Z</time>
      </trkpt>
      <trkpt lat="47.58434" lon="5.0989">
        <ele>293</ele>
        <time>2022-06-06T12:21:04Z</time>
      </trkpt>
      <trkpt lat="47.58439" lon="5.09888">
        <ele>293</ele>
        <time>2022-06-06T12:21:05Z</time>
      </trkpt>
      <trkpt lat="47.58447" lon="5.09881">
        <ele>293</ele>
        <time>2022-06-06T12:21:07Z</time>
      </trkpt>
      <trkpt lat="47.58451" lon="5.09877">
        <ele>293.2</ele>
        <time>2022-06-06T12:21:08Z</time>
      </trkpt>
      <trkpt lat="47.58479" lon="5.09853">
        <ele>293.8</ele>
        <time>2022-06-06T12:21:15Z</time>
      </trkpt>
      <trkpt lat="47.58486" lon="5.09847">
        <ele>294</ele>
        <time>2022-06-06T12:21:17Z</time>
      </trkpt>
      <trkpt lat="47.58494" lon="5.0984">
        <ele>294.4</ele>
        <time>2022-06-06T12:21:19Z</time>
      </trkpt>
      <trkpt lat="47.58499" lon="5.09835">
        <ele>294.4</ele>
        <time>2022-06-06T12:21:20Z</time>
      </trkpt>
      <trkpt lat="47.58517" lon="5.09821">
        <ele>294.6</ele>
        <time>2022-06-06T12:21:24Z</time>
      </trkpt>
      <trkpt lat="47.58521" lon="5.09815">
        <ele>294.6</ele>
        <time>2022-06-06T12:21:25Z</time>
      </trkpt>
      <trkpt lat="47.58525" lon="5.09808">
        <ele>294.6</ele>
        <time>2022-06-06T12:21:26Z</time>
      </trkpt>
      <trkpt lat="47.58536" lon="5.09796">
        <ele>294.6</ele>
        <time>2022-06-06T12:21:28Z</time>
      </trkpt>
      <trkpt lat="47.58541" lon="5.09789">
        <ele>294.6</ele>
        <time>2022-06-06T12:21:29Z</time>
      </trkpt>
      <trkpt lat="47.58546" lon="5.09784">
        <ele>294.6</ele>
        <time>2022-06-06T12:21:30Z</time>
      </trkpt>
      <trkpt lat="47.58555" lon="5.09776">
        <ele>294.6</ele>
        <time>2022-06-06T12:21:32Z</time>
      </trkpt>
      <trkpt lat="47.58565" lon="5.09769">
        <ele>294.8</ele>
        <time>2022-06-06T12:21:34Z</time>
      </trkpt>
      <trkpt lat="47.5857" lon="5.09764">
        <ele>294.8</ele>
        <time>2022-06-06T12:21:35Z</time>
      </trkpt>
      <trkpt lat="47.58586" lon="5.0975">
        <ele>295</ele>
        <time>2022-06-06T12:21:38Z</time>
      </trkpt>
      <trkpt lat="47.58592" lon="5.09745">
        <ele>295</ele>
        <time>2022-06-06T12:21:39Z</time>
      </trkpt>
      <trkpt lat="47.58614" lon="5.09724">
        <ele>294.8</ele>
        <time>2022-06-06T12:21:43Z</time>
      </trkpt>
      <trkpt lat="47.58647" lon="5.09702">
        <ele>295</ele>
        <time>2022-06-06T12:21:49Z</time>
      </trkpt>
      <trkpt lat="47.58652" lon="5.09698">
        <ele>295.2</ele>
        <time>2022-06-06T12:21:50Z</time>
      </trkpt>
      <trkpt lat="47.58659" lon="5.09693">
        <ele>295.2</ele>
        <time>2022-06-06T12:21:51Z</time>
      </trkpt>
      <trkpt lat="47.5867" lon="5.09681">
        <ele>295.4</ele>
        <time>2022-06-06T12:21:53Z</time>
      </trkpt>
      <trkpt lat="47.58675" lon="5.09676">
        <ele>295.4</ele>
        <time>2022-06-06T12:21:54Z</time>
      </trkpt>
      <trkpt lat="47.58681" lon="5.09672">
        <ele>295.4</ele>
        <time>2022-06-06T12:21:55Z</time>
      </trkpt>
      <trkpt lat="47.58708" lon="5.09652">
        <ele>295.4</ele>
        <time>2022-06-06T12:22:00Z</time>
      </trkpt>
      <trkpt lat="47.58741" lon="5.09635">
        <ele>295</ele>
        <time>2022-06-06T12:22:06Z</time>
      </trkpt>
      <trkpt lat="47.58782" lon="5.09624">
        <ele>294.4</ele>
        <time>2022-06-06T12:22:13Z</time>
      </trkpt>
      <trkpt lat="47.58794" lon="5.09624">
        <ele>294</ele>
        <time>2022-06-06T12:22:15Z</time>
      </trkpt>
      <trkpt lat="47.58806" lon="5.09619">
        <ele>293.8</ele>
        <time>2022-06-06T12:22:17Z</time>
      </trkpt>
      <trkpt lat="47.58811" lon="5.09615">
        <ele>293.8</ele>
        <time>2022-06-06T12:22:18Z</time>
      </trkpt>
      <trkpt lat="47.58817" lon="5.0961">
        <ele>293.8</ele>
        <time>2022-06-06T12:22:19Z</time>
      </trkpt>
      <trkpt lat="47.5883" lon="5.09591">
        <ele>293.6</ele>
        <time>2022-06-06T12:22:22Z</time>
      </trkpt>
      <trkpt lat="47.58837" lon="5.09576">
        <ele>293.6</ele>
        <time>2022-06-06T12:22:24Z</time>
      </trkpt>
      <trkpt lat="47.58845" lon="5.09553">
        <ele>293.8</ele>
        <time>2022-06-06T12:22:27Z</time>
      </trkpt>
      <trkpt lat="47.58856" lon="5.09525">
        <ele>294.2</ele>
        <time>2022-06-06T12:22:31Z</time>
      </trkpt>
      <trkpt lat="47.5886" lon="5.0952">
        <ele>294.4</ele>
        <time>2022-06-06T12:22:32Z</time>
      </trkpt>
      <trkpt lat="47.58874" lon="5.09504">
        <ele>294.6</ele>
        <time>2022-06-06T12:22:35Z</time>
      </trkpt>
      <trkpt lat="47.58889" lon="5.09487">
        <ele>294.8</ele>
        <time>2022-06-06T12:22:38Z</time>
      </trkpt>
      <trkpt lat="47.58898" lon="5.09476">
        <ele>294.6</ele>
        <time>2022-06-06T12:22:40Z</time>
      </trkpt>
      <trkpt lat="47.58905" lon="5.0946">
        <ele>294.6</ele>
        <time>2022-06-06T12:22:42Z</time>
      </trkpt>
      <trkpt lat="47.58908" lon="5.09441">
        <ele>294.4</ele>
        <time>2022-06-06T12:22:44Z</time>
      </trkpt>
      <trkpt lat="47.5891" lon="5.09422">
        <ele>294.4</ele>
        <time>2022-06-06T12:22:46Z</time>
      </trkpt>
      <trkpt lat="47.58911" lon="5.09404">
        <ele>294.4</ele>
        <time>2022-06-06T12:22:48Z</time>
      </trkpt>
      <trkpt lat="47.58915" lon="5.09385">
        <ele>294.4</ele>
        <time>2022-06-06T12:22:50Z</time>
      </trkpt>
      <trkpt lat="47.58917" lon="5.09378">
        <ele>294.4</ele>
        <time>2022-06-06T12:22:51Z</time>
      </trkpt>
      <trkpt lat="47.58923" lon="5.09362">
        <ele>294.2</ele>
        <time>2022-06-06T12:22:53Z</time>
      </trkpt>
      <trkpt lat="47.58934" lon="5.09339">
        <ele>294.2</ele>
        <time>2022-06-06T12:22:56Z</time>
      </trkpt>
      <trkpt lat="47.58938" lon="5.09332">
        <ele>294.2</ele>
        <time>2022-06-06T12:22:57Z</time>
      </trkpt>
      <trkpt lat="47.58954" lon="5.09308">
        <ele>294.2</ele>
        <time>2022-06-06T12:23:01Z</time>
      </trkpt>
      <trkpt lat="47.58959" lon="5.09304">
        <ele>294.2</ele>
        <time>2022-06-06T12:23:02Z</time>
      </trkpt>
      <trkpt lat="47.58972" lon="5.09288">
        <ele>294.4</ele>
        <time>2022-06-06T12:23:05Z</time>
      </trkpt>
      <trkpt lat="47.58981" lon="5.09276">
        <ele>294.4</ele>
        <time>2022-06-06T12:23:07Z</time>
      </trkpt>
      <trkpt lat="47.5899" lon="5.09265">
        <ele>294.4</ele>
        <time>2022-06-06T12:23:09Z</time>
      </trkpt>
      <trkpt lat="47.58998" lon="5.09252">
        <ele>294.6</ele>
        <time>2022-06-06T12:23:11Z</time>
      </trkpt>
      <trkpt lat="47.59032" lon="5.092">
        <ele>294.8</ele>
        <time>2022-06-06T12:23:19Z</time>
      </trkpt>
      <trkpt lat="47.59064" lon="5.09152">
        <ele>294.8</ele>
        <time>2022-06-06T12:23:27Z</time>
      </trkpt>
      <trkpt lat="47.59067" lon="5.09146">
        <ele>295</ele>
        <time>2022-06-06T12:23:28Z</time>
      </trkpt>
      <trkpt lat="47.59072" lon="5.09141">
        <ele>295</ele>
        <time>2022-06-06T12:23:29Z</time>
      </trkpt>
      <trkpt lat="47.59092" lon="5.09113">
        <ele>295.4</ele>
        <time>2022-06-06T12:23:34Z</time>
      </trkpt>
      <trkpt lat="47.59123" lon="5.09069">
        <ele>295.4</ele>
        <time>2022-06-06T12:23:42Z</time>
      </trkpt>
      <trkpt lat="47.5913" lon="5.09059">
        <ele>295.6</ele>
        <time>2022-06-06T12:23:44Z</time>
      </trkpt>
      <trkpt lat="47.59143" lon="5.09045">
        <ele>295.8</ele>
        <time>2022-06-06T12:23:47Z</time>
      </trkpt>
      <trkpt lat="47.59155" lon="5.09029">
        <ele>295.8</ele>
        <time>2022-06-06T12:23:50Z</time>
      </trkpt>
      <trkpt lat="47.59158" lon="5.09023">
        <ele>296</ele>
        <time>2022-06-06T12:23:51Z</time>
      </trkpt>
      <trkpt lat="47.59165" lon="5.09009">
        <ele>296.2</ele>
        <time>2022-06-06T12:23:53Z</time>
      </trkpt>
      <trkpt lat="47.59171" lon="5.08997">
        <ele>296.2</ele>
        <time>2022-06-06T12:23:55Z</time>
      </trkpt>
      <trkpt lat="47.5918" lon="5.08975">
        <ele>296</ele>
        <time>2022-06-06T12:23:58Z</time>
      </trkpt>
      <trkpt lat="47.592" lon="5.08922">
        <ele>295.8</ele>
        <time>2022-06-06T12:24:05Z</time>
      </trkpt>
      <trkpt lat="47.59213" lon="5.08894">
        <ele>296</ele>
        <time>2022-06-06T12:24:09Z</time>
      </trkpt>
      <trkpt lat="47.59219" lon="5.08879">
        <ele>295.8</ele>
        <time>2022-06-06T12:24:11Z</time>
      </trkpt>
      <trkpt lat="47.59232" lon="5.0885">
        <ele>296</ele>
        <time>2022-06-06T12:24:15Z</time>
      </trkpt>
      <trkpt lat="47.59237" lon="5.08834">
        <ele>296</ele>
        <time>2022-06-06T12:24:17Z</time>
      </trkpt>
      <trkpt lat="47.5925" lon="5.08783">
        <ele>296</ele>
        <time>2022-06-06T12:24:23Z</time>
      </trkpt>
      <trkpt lat="47.5926" lon="5.08728">
        <ele>296.6</ele>
        <time>2022-06-06T12:24:30Z</time>
      </trkpt>
      <trkpt lat="47.59261" lon="5.08721">
        <ele>296.6</ele>
        <time>2022-06-06T12:24:31Z</time>
      </trkpt>
      <trkpt lat="47.59263" lon="5.08714">
        <ele>296.8</ele>
        <time>2022-06-06T12:24:32Z</time>
      </trkpt>
      <trkpt lat="47.59267" lon="5.0871">
        <ele>297</ele>
        <time>2022-06-06T12:24:33Z</time>
      </trkpt>
      <trkpt lat="47.5929" lon="5.08697">
        <ele>298.2</ele>
        <time>2022-06-06T12:24:38Z</time>
      </trkpt>
      <trkpt lat="47.59304" lon="5.08692">
        <ele>299.2</ele>
        <time>2022-06-06T12:24:41Z</time>
      </trkpt>
      <trkpt lat="47.59335" lon="5.08678">
        <ele>299.8</ele>
        <time>2022-06-06T12:24:47Z</time>
      </trkpt>
      <trkpt lat="47.5936" lon="5.08648">
        <ele>299.8</ele>
        <time>2022-06-06T12:24:53Z</time>
      </trkpt>
      <trkpt lat="47.59389" lon="5.08601">
        <ele>299.6</ele>
        <time>2022-06-06T12:25:01Z</time>
      </trkpt>
      <trkpt lat="47.59422" lon="5.08538">
        <ele>299.4</ele>
        <time>2022-06-06T12:25:10Z</time>
      </trkpt>
      <trkpt lat="47.59449" lon="5.08492">
        <ele>298.8</ele>
        <time>2022-06-06T12:25:17Z</time>
      </trkpt>
      <trkpt lat="47.59475" lon="5.08457">
        <ele>298.2</ele>
        <time>2022-06-06T12:25:23Z</time>
      </trkpt>
      <trkpt lat="47.59486" lon="5.08451">
        <ele>298</ele>
        <time>2022-06-06T12:25:25Z</time>
      </trkpt>
      <trkpt lat="47.59497" lon="5.08449">
        <ele>297.8</ele>
        <time>2022-06-06T12:25:27Z</time>
      </trkpt>
      <trkpt lat="47.59519" lon="5.0846">
        <ele>297.4</ele>
        <time>2022-06-06T12:25:31Z</time>
      </trkpt>
      <trkpt lat="47.5956" lon="5.08489">
        <ele>297.4</ele>
        <time>2022-06-06T12:25:39Z</time>
      </trkpt>
      <trkpt lat="47.59588" lon="5.08518">
        <ele>297.8</ele>
        <time>2022-06-06T12:25:45Z</time>
      </trkpt>
      <trkpt lat="47.59593" lon="5.08522">
        <ele>297.8</ele>
        <time>2022-06-06T12:25:46Z</time>
      </trkpt>
      <trkpt lat="47.59604" lon="5.08527">
        <ele>297.8</ele>
        <time>2022-06-06T12:25:48Z</time>
      </trkpt>
      <trkpt lat="47.59609" lon="5.08528">
        <ele>297.8</ele>
        <time>2022-06-06T12:25:49Z</time>
      </trkpt>
      <trkpt lat="47.59635" lon="5.0853">
        <ele>297.4</ele>
        <time>2022-06-06T12:25:55Z</time>
      </trkpt>
      <trkpt lat="47.59643" lon="5.08531">
        <ele>297.4</ele>
        <time>2022-06-06T12:25:57Z</time>
      </trkpt>
      <trkpt lat="47.59661" lon="5.08527">
        <ele>297.2</ele>
        <time>2022-06-06T12:26:01Z</time>
      </trkpt>
      <trkpt lat="47.59667" lon="5.08526">
        <ele>297</ele>
        <time>2022-06-06T12:26:02Z</time>
      </trkpt>
      <trkpt lat="47.5969" lon="5.08516">
        <ele>297</ele>
        <time>2022-06-06T12:26:07Z</time>
      </trkpt>
      <trkpt lat="47.59694" lon="5.08515">
        <ele>297</ele>
        <time>2022-06-06T12:26:08Z</time>
      </trkpt>
      <trkpt lat="47.59719" lon="5.08506">
        <ele>297</ele>
        <time>2022-06-06T12:26:13Z</time>
      </trkpt>
      <trkpt lat="47.59723" lon="5.08504">
        <ele>297</ele>
        <time>2022-06-06T12:26:14Z</time>
      </trkpt>
      <trkpt lat="47.59729" lon="5.08502">
        <ele>297.2</ele>
        <time>2022-06-06T12:26:15Z</time>
      </trkpt>
      <trkpt lat="47.59755" lon="5.08496">
        <ele>297.4</ele>
        <time>2022-06-06T12:26:20Z</time>
      </trkpt>
      <trkpt lat="47.59775" lon="5.0849">
        <ele>297.8</ele>
        <time>2022-06-06T12:26:24Z</time>
      </trkpt>
      <trkpt lat="47.59795" lon="5.08481">
        <ele>298</ele>
        <time>2022-06-06T12:26:28Z</time>
      </trkpt>
      <trkpt lat="47.59805" lon="5.08475">
        <ele>298.2</ele>
        <time>2022-06-06T12:26:30Z</time>
      </trkpt>
      <trkpt lat="47.59823" lon="5.0846">
        <ele>298.6</ele>
        <time>2022-06-06T12:26:34Z</time>
      </trkpt>
      <trkpt lat="47.59827" lon="5.08457">
        <ele>298.6</ele>
        <time>2022-06-06T12:26:35Z</time>
      </trkpt>
      <trkpt lat="47.59842" lon="5.08442">
        <ele>299.2</ele>
        <time>2022-06-06T12:26:39Z</time>
      </trkpt>
      <trkpt lat="47.59847" lon="5.08433">
        <ele>299.2</ele>
        <time>2022-06-06T12:26:41Z</time>
      </trkpt>
      <trkpt lat="47.59862" lon="5.08411">
        <ele>299</ele>
        <time>2022-06-06T12:26:46Z</time>
      </trkpt>
      <trkpt lat="47.59868" lon="5.08404">
        <ele>298.8</ele>
        <time>2022-06-06T12:26:48Z</time>
      </trkpt>
      <trkpt lat="47.59885" lon="5.0838">
        <ele>298.6</ele>
        <time>2022-06-06T12:26:54Z</time>
      </trkpt>
      <trkpt lat="47.59898" lon="5.08363">
        <ele>298.6</ele>
        <time>2022-06-06T12:26:58Z</time>
      </trkpt>
      <trkpt lat="47.59904" lon="5.08353">
        <ele>298.4</ele>
        <time>2022-06-06T12:27:00Z</time>
      </trkpt>
      <trkpt lat="47.5991" lon="5.08344">
        <ele>298.2</ele>
        <time>2022-06-06T12:27:02Z</time>
      </trkpt>
      <trkpt lat="47.59919" lon="5.08328">
        <ele>298</ele>
        <time>2022-06-06T12:27:06Z</time>
      </trkpt>
      <trkpt lat="47.59933" lon="5.08295">
        <ele>298.2</ele>
        <time>2022-06-06T12:27:13Z</time>
      </trkpt>
      <trkpt lat="47.59935" lon="5.08279">
        <ele>298.4</ele>
        <time>2022-06-06T12:27:17Z</time>
      </trkpt>
      <trkpt lat="47.59925" lon="5.08253">
        <ele>298.4</ele>
        <time>2022-06-06T12:27:22Z</time>
      </trkpt>
      <trkpt lat="47.59911" lon="5.08223">
        <ele>298.2</ele>
        <time>2022-06-06T12:27:27Z</time>
      </trkpt>
      <trkpt lat="47.59909" lon="5.08218">
        <ele>298.2</ele>
        <time>2022-06-06T12:27:28Z</time>
      </trkpt>
      <trkpt lat="47.59897" lon="5.08189">
        <ele>297.8</ele>
        <time>2022-06-06T12:27:33Z</time>
      </trkpt>
      <trkpt lat="47.59887" lon="5.08173">
        <ele>297.8</ele>
        <time>2022-06-06T12:27:36Z</time>
      </trkpt>
      <trkpt lat="47.59883" lon="5.08168">
        <ele>297.8</ele>
        <time>2022-06-06T12:27:37Z</time>
      </trkpt>
      <trkpt lat="47.59867" lon="5.08147">
        <ele>298</ele>
        <time>2022-06-06T12:27:42Z</time>
      </trkpt>
      <trkpt lat="47.59845" lon="5.08117">
        <ele>298.8</ele>
        <time>2022-06-06T12:27:48Z</time>
      </trkpt>
      <trkpt lat="47.59817" lon="5.08076">
        <ele>299</ele>
        <time>2022-06-06T12:27:55Z</time>
      </trkpt>
      <trkpt lat="47.59814" lon="5.08072">
        <ele>299</ele>
        <time>2022-06-06T12:27:56Z</time>
      </trkpt>
      <trkpt lat="47.59793" lon="5.0804">
        <ele>298.4</ele>
        <time>2022-06-06T12:28:02Z</time>
      </trkpt>
      <trkpt lat="47.59789" lon="5.08034">
        <ele>298.4</ele>
        <time>2022-06-06T12:28:03Z</time>
      </trkpt>
      <trkpt lat="47.59781" lon="5.08023">
        <ele>298.4</ele>
        <time>2022-06-06T12:28:06Z</time>
      </trkpt>
      <trkpt lat="47.59775" lon="5.08009">
        <ele>299</ele>
        <time>2022-06-06T12:28:09Z</time>
      </trkpt>
      <trkpt lat="47.59773" lon="5.07999">
        <ele>299.4</ele>
        <time>2022-06-06T12:28:11Z</time>
      </trkpt>
      <trkpt lat="47.59774" lon="5.07968">
        <ele>300.6</ele>
        <time>2022-06-06T12:28:16Z</time>
      </trkpt>
      <trkpt lat="47.59774" lon="5.07955">
        <ele>300.6</ele>
        <time>2022-06-06T12:28:18Z</time>
      </trkpt>
      <trkpt lat="47.59774" lon="5.07925">
        <ele>300.8</ele>
        <time>2022-06-06T12:28:23Z</time>
      </trkpt>
      <trkpt lat="47.59774" lon="5.07907">
        <ele>301</ele>
        <time>2022-06-06T12:28:26Z</time>
      </trkpt>
      <trkpt lat="47.59772" lon="5.07874">
        <ele>301.6</ele>
        <time>2022-06-06T12:28:31Z</time>
      </trkpt>
      <trkpt lat="47.59771" lon="5.07862">
        <ele>301.8</ele>
        <time>2022-06-06T12:28:33Z</time>
      </trkpt>
      <trkpt lat="47.59772" lon="5.0781">
        <ele>302.2</ele>
        <time>2022-06-06T12:28:41Z</time>
      </trkpt>
      <trkpt lat="47.59778" lon="5.07755">
        <ele>302</ele>
        <time>2022-06-06T12:28:48Z</time>
      </trkpt>
      <trkpt lat="47.59783" lon="5.07715">
        <ele>301.6</ele>
        <time>2022-06-06T12:28:53Z</time>
      </trkpt>
      <trkpt lat="47.59787" lon="5.077">
        <ele>301.4</ele>
        <time>2022-06-06T12:28:55Z</time>
      </trkpt>
      <trkpt lat="47.59789" lon="5.07693">
        <ele>301.4</ele>
        <time>2022-06-06T12:28:56Z</time>
      </trkpt>
      <trkpt lat="47.59795" lon="5.07681">
        <ele>301.4</ele>
        <time>2022-06-06T12:28:58Z</time>
      </trkpt>
      <trkpt lat="47.59799" lon="5.07675">
        <ele>301.4</ele>
        <time>2022-06-06T12:28:59Z</time>
      </trkpt>
      <trkpt lat="47.59802" lon="5.07672">
        <ele>301.4</ele>
        <time>2022-06-06T12:29:00Z</time>
      </trkpt>
      <trkpt lat="47.59807" lon="5.0766">
        <ele>301.4</ele>
        <time>2022-06-06T12:29:02Z</time>
      </trkpt>
      <trkpt lat="47.59809" lon="5.07654">
        <ele>301.4</ele>
        <time>2022-06-06T12:29:03Z</time>
      </trkpt>
      <trkpt lat="47.59819" lon="5.07622">
        <ele>301.6</ele>
        <time>2022-06-06T12:29:08Z</time>
      </trkpt>
      <trkpt lat="47.59821" lon="5.07617">
        <ele>301.6</ele>
        <time>2022-06-06T12:29:09Z</time>
      </trkpt>
      <trkpt lat="47.59824" lon="5.07607">
        <ele>301.6</ele>
        <time>2022-06-06T12:29:11Z</time>
      </trkpt>
      <trkpt lat="47.59829" lon="5.07603">
        <ele>301.8</ele>
        <time>2022-06-06T12:29:13Z</time>
      </trkpt>
      <trkpt lat="47.59842" lon="5.07595">
        <ele>302.8</ele>
        <time>2022-06-06T12:29:17Z</time>
      </trkpt>
      <trkpt lat="47.59853" lon="5.07588">
        <ele>303.6</ele>
        <time>2022-06-06T12:29:20Z</time>
      </trkpt>
      <trkpt lat="47.59856" lon="5.07586">
        <ele>304</ele>
        <time>2022-06-06T12:29:21Z</time>
      </trkpt>
      <trkpt lat="47.59867" lon="5.07579">
        <ele>305.4</ele>
        <time>2022-06-06T12:29:24Z</time>
      </trkpt>
      <trkpt lat="47.59871" lon="5.07576">
        <ele>305.8</ele>
        <time>2022-06-06T12:29:25Z</time>
      </trkpt>
      <trkpt lat="47.5988" lon="5.0757">
        <ele>306.8</ele>
        <time>2022-06-06T12:29:28Z</time>
      </trkpt>
      <trkpt lat="47.5989" lon="5.07562">
        <ele>307.6</ele>
        <time>2022-06-06T12:29:31Z</time>
      </trkpt>
      <trkpt lat="47.59893" lon="5.0756">
        <ele>307.8</ele>
        <time>2022-06-06T12:29:32Z</time>
      </trkpt>
      <trkpt lat="47.59908" lon="5.07548">
        <ele>309</ele>
        <time>2022-06-06T12:29:37Z</time>
      </trkpt>
      <trkpt lat="47.59924" lon="5.07536">
        <ele>310.2</ele>
        <time>2022-06-06T12:29:42Z</time>
      </trkpt>
      <trkpt lat="47.59938" lon="5.07527">
        <ele>311.2</ele>
        <time>2022-06-06T12:29:46Z</time>
      </trkpt>
      <trkpt lat="47.59951" lon="5.07518">
        <ele>312.2</ele>
        <time>2022-06-06T12:29:50Z</time>
      </trkpt>
      <trkpt lat="47.59963" lon="5.0751">
        <ele>313.4</ele>
        <time>2022-06-06T12:29:54Z</time>
      </trkpt>
      <trkpt lat="47.5997" lon="5.07506">
        <ele>314.6</ele>
        <time>2022-06-06T12:29:56Z</time>
      </trkpt>
      <trkpt lat="47.59976" lon="5.07503">
        <ele>315</ele>
        <time>2022-06-06T12:29:58Z</time>
      </trkpt>
      <trkpt lat="47.59983" lon="5.07499">
        <ele>316</ele>
        <time>2022-06-06T12:30:00Z</time>
      </trkpt>
      <trkpt lat="47.59993" lon="5.07495">
        <ele>317.4</ele>
        <time>2022-06-06T12:30:03Z</time>
      </trkpt>
      <trkpt lat="47.59995" lon="5.07494">
        <ele>317.6</ele>
        <time>2022-06-06T12:30:04Z</time>
      </trkpt>
      <trkpt lat="47.60001" lon="5.07492">
        <ele>318.2</ele>
        <time>2022-06-06T12:30:06Z</time>
      </trkpt>
      <trkpt lat="47.60004" lon="5.07492">
        <ele>318.6</ele>
        <time>2022-06-06T12:30:07Z</time>
      </trkpt>
      <trkpt lat="47.60025" lon="5.07488">
        <ele>319.8</ele>
        <time>2022-06-06T12:30:13Z</time>
      </trkpt>
      <trkpt lat="47.60041" lon="5.07485">
        <ele>320.8</ele>
        <time>2022-06-06T12:30:18Z</time>
      </trkpt>
      <trkpt lat="47.60044" lon="5.07484">
        <ele>321.2</ele>
        <time>2022-06-06T12:30:19Z</time>
      </trkpt>
      <trkpt lat="47.60053" lon="5.07484">
        <ele>322</ele>
        <time>2022-06-06T12:30:22Z</time>
      </trkpt>
      <trkpt lat="47.60063" lon="5.07482">
        <ele>322.6</ele>
        <time>2022-06-06T12:30:25Z</time>
      </trkpt>
      <trkpt lat="47.60068" lon="5.07481">
        <ele>323</ele>
        <time>2022-06-06T12:30:27Z</time>
      </trkpt>
      <trkpt lat="47.60077" lon="5.0748">
        <ele>323.6</ele>
        <time>2022-06-06T12:30:30Z</time>
      </trkpt>
      <trkpt lat="47.60082" lon="5.07479">
        <ele>324.2</ele>
        <time>2022-06-06T12:30:32Z</time>
      </trkpt>
      <trkpt lat="47.60086" lon="5.07478">
        <ele>324.4</ele>
        <time>2022-06-06T12:30:33Z</time>
      </trkpt>
      <trkpt lat="47.6009" lon="5.07478">
        <ele>324.8</ele>
        <time>2022-06-06T12:30:35Z</time>
      </trkpt>
      <trkpt lat="47.60097" lon="5.07478">
        <ele>325.2</ele>
        <time>2022-06-06T12:30:37Z</time>
      </trkpt>
      <trkpt lat="47.60102" lon="5.07481">
        <ele>325.4</ele>
        <time>2022-06-06T12:30:39Z</time>
      </trkpt>
      <trkpt lat="47.60108" lon="5.07482">
        <ele>325.6</ele>
        <time>2022-06-06T12:30:41Z</time>
      </trkpt>
      <trkpt lat="47.60127" lon="5.07485">
        <ele>326</ele>
        <time>2022-06-06T12:30:48Z</time>
      </trkpt>
      <trkpt lat="47.6014" lon="5.07484">
        <ele>326.4</ele>
        <time>2022-06-06T12:30:53Z</time>
      </trkpt>
      <trkpt lat="47.60143" lon="5.07483">
        <ele>326.4</ele>
        <time>2022-06-06T12:30:54Z</time>
      </trkpt>
      <trkpt lat="47.60169" lon="5.0748">
        <ele>327.4</ele>
        <time>2022-06-06T12:31:03Z</time>
      </trkpt>
      <trkpt lat="47.60187" lon="5.07482">
        <ele>327.8</ele>
        <time>2022-06-06T12:31:09Z</time>
      </trkpt>
      <trkpt lat="47.6019" lon="5.07482">
        <ele>327.8</ele>
        <time>2022-06-06T12:31:10Z</time>
      </trkpt>
      <trkpt lat="47.60209" lon="5.07483">
        <ele>328.2</ele>
        <time>2022-06-06T12:31:17Z</time>
      </trkpt>
      <trkpt lat="47.60212" lon="5.07483">
        <ele>328.4</ele>
        <time>2022-06-06T12:31:18Z</time>
      </trkpt>
      <trkpt lat="47.60217" lon="5.07483">
        <ele>328.8</ele>
        <time>2022-06-06T12:31:20Z</time>
      </trkpt>
      <trkpt lat="47.60222" lon="5.07483">
        <ele>329.2</ele>
        <time>2022-06-06T12:31:22Z</time>
      </trkpt>
      <trkpt lat="47.60225" lon="5.07483">
        <ele>329.4</ele>
        <time>2022-06-06T12:31:23Z</time>
      </trkpt>
      <trkpt lat="47.60234" lon="5.07483">
        <ele>330.4</ele>
        <time>2022-06-06T12:31:27Z</time>
      </trkpt>
      <trkpt lat="47.60255" lon="5.07488">
        <ele>331.4</ele>
        <time>2022-06-06T12:31:33Z</time>
      </trkpt>
      <trkpt lat="47.60279" lon="5.07495">
        <ele>331.6</ele>
        <time>2022-06-06T12:31:38Z</time>
      </trkpt>
      <trkpt lat="47.60289" lon="5.07498">
        <ele>331.4</ele>
        <time>2022-06-06T12:31:40Z</time>
      </trkpt>
      <trkpt lat="47.60292" lon="5.07499">
        <ele>331.2</ele>
        <time>2022-06-06T12:31:41Z</time>
      </trkpt>
      <trkpt lat="47.6031" lon="5.07502">
        <ele>331</ele>
        <time>2022-06-06T12:31:44Z</time>
      </trkpt>
      <trkpt lat="47.60316" lon="5.07503">
        <ele>330.8</ele>
        <time>2022-06-06T12:31:45Z</time>
      </trkpt>
      <trkpt lat="47.60322" lon="5.07503">
        <ele>330.6</ele>
        <time>2022-06-06T12:31:46Z</time>
      </trkpt>
      <trkpt lat="47.60333" lon="5.07505">
        <ele>330.2</ele>
        <time>2022-06-06T12:31:48Z</time>
      </trkpt>
      <trkpt lat="47.60339" lon="5.07505">
        <ele>330</ele>
        <time>2022-06-06T12:31:49Z</time>
      </trkpt>
      <trkpt lat="47.6035" lon="5.07507">
        <ele>329.6</ele>
        <time>2022-06-06T12:31:51Z</time>
      </trkpt>
      <trkpt lat="47.60367" lon="5.07503">
        <ele>329.4</ele>
        <time>2022-06-06T12:31:54Z</time>
      </trkpt>
      <trkpt lat="47.60392" lon="5.07492">
        <ele>329.4</ele>
        <time>2022-06-06T12:31:59Z</time>
      </trkpt>
      <trkpt lat="47.60404" lon="5.07486">
        <ele>329.4</ele>
        <time>2022-06-06T12:32:01Z</time>
      </trkpt>
      <trkpt lat="47.60413" lon="5.07478">
        <ele>329.4</ele>
        <time>2022-06-06T12:32:03Z</time>
      </trkpt>
      <trkpt lat="47.60428" lon="5.07469">
        <ele>329.6</ele>
        <time>2022-06-06T12:32:06Z</time>
      </trkpt>
      <trkpt lat="47.60435" lon="5.0746">
        <ele>329.8</ele>
        <time>2022-06-06T12:32:08Z</time>
      </trkpt>
      <trkpt lat="47.60457" lon="5.07424">
        <ele>330.4</ele>
        <time>2022-06-06T12:32:15Z</time>
      </trkpt>
      <trkpt lat="47.60461" lon="5.07417">
        <ele>330.4</ele>
        <time>2022-06-06T12:32:16Z</time>
      </trkpt>
      <trkpt lat="47.60465" lon="5.07411">
        <ele>330.4</ele>
        <time>2022-06-06T12:32:17Z</time>
      </trkpt>
      <trkpt lat="47.60477" lon="5.07396">
        <ele>330.4</ele>
        <time>2022-06-06T12:32:20Z</time>
      </trkpt>
      <trkpt lat="47.60485" lon="5.07386">
        <ele>330.4</ele>
        <time>2022-06-06T12:32:22Z</time>
      </trkpt>
      <trkpt lat="47.60494" lon="5.07377">
        <ele>330.4</ele>
        <time>2022-06-06T12:32:25Z</time>
      </trkpt>
      <trkpt lat="47.60506" lon="5.07358">
        <ele>330.2</ele>
        <time>2022-06-06T12:32:28Z</time>
      </trkpt>
      <trkpt lat="47.60514" lon="5.07351">
        <ele>330.2</ele>
        <time>2022-06-06T12:32:30Z</time>
      </trkpt>
      <trkpt lat="47.60532" lon="5.07329">
        <ele>330.2</ele>
        <time>2022-06-06T12:32:35Z</time>
      </trkpt>
      <trkpt lat="47.60542" lon="5.07317">
        <ele>330.2</ele>
        <time>2022-06-06T12:32:37Z</time>
      </trkpt>
      <trkpt lat="47.60552" lon="5.07309">
        <ele>330.2</ele>
        <time>2022-06-06T12:32:39Z</time>
      </trkpt>
      <trkpt lat="47.60556" lon="5.07306">
        <ele>330</ele>
        <time>2022-06-06T12:32:40Z</time>
      </trkpt>
      <trkpt lat="47.60581" lon="5.07283">
        <ele>330</ele>
        <time>2022-06-06T12:32:45Z</time>
      </trkpt>
      <trkpt lat="47.60609" lon="5.07257">
        <ele>330</ele>
        <time>2022-06-06T12:32:53Z</time>
      </trkpt>
      <trkpt lat="47.60627" lon="5.07238">
        <ele>330</ele>
        <time>2022-06-06T12:32:59Z</time>
      </trkpt>
      <trkpt lat="47.60653" lon="5.07226">
        <ele>329.8</ele>
        <time>2022-06-06T12:33:06Z</time>
      </trkpt>
      <trkpt lat="47.60692" lon="5.07219">
        <ele>329.8</ele>
        <time>2022-06-06T12:33:14Z</time>
      </trkpt>
      <trkpt lat="47.60722" lon="5.07216">
        <ele>329.8</ele>
        <time>2022-06-06T12:33:19Z</time>
      </trkpt>
      <trkpt lat="47.60729" lon="5.07215">
        <ele>329.6</ele>
        <time>2022-06-06T12:33:20Z</time>
      </trkpt>
      <trkpt lat="47.60747" lon="5.07216">
        <ele>328.8</ele>
        <time>2022-06-06T12:33:23Z</time>
      </trkpt>
      <trkpt lat="47.60753" lon="5.07216">
        <ele>328.8</ele>
        <time>2022-06-06T12:33:24Z</time>
      </trkpt>
      <trkpt lat="47.60776" lon="5.07212">
        <ele>327.8</ele>
        <time>2022-06-06T12:33:28Z</time>
      </trkpt>
      <trkpt lat="47.60786" lon="5.07207">
        <ele>327.6</ele>
        <time>2022-06-06T12:33:30Z</time>
      </trkpt>
      <trkpt lat="47.60803" lon="5.07195">
        <ele>327.6</ele>
        <time>2022-06-06T12:33:35Z</time>
      </trkpt>
      <trkpt lat="47.60819" lon="5.07187">
        <ele>328.6</ele>
        <time>2022-06-06T12:33:39Z</time>
      </trkpt>
      <trkpt lat="47.60823" lon="5.07184">
        <ele>328.6</ele>
        <time>2022-06-06T12:33:40Z</time>
      </trkpt>
      <trkpt lat="47.60828" lon="5.07181">
        <ele>328.8</ele>
        <time>2022-06-06T12:33:41Z</time>
      </trkpt>
      <trkpt lat="47.60854" lon="5.07173">
        <ele>328.6</ele>
        <time>2022-06-06T12:33:46Z</time>
      </trkpt>
      <trkpt lat="47.60877" lon="5.07167">
        <ele>328.4</ele>
        <time>2022-06-06T12:33:50Z</time>
      </trkpt>
      <trkpt lat="47.6089" lon="5.07164">
        <ele>328.2</ele>
        <time>2022-06-06T12:33:52Z</time>
      </trkpt>
      <trkpt lat="47.60907" lon="5.07161">
        <ele>328</ele>
        <time>2022-06-06T12:33:55Z</time>
      </trkpt>
      <trkpt lat="47.60916" lon="5.07158">
        <ele>327.8</ele>
        <time>2022-06-06T12:33:57Z</time>
      </trkpt>
      <trkpt lat="47.6092" lon="5.07156">
        <ele>327.6</ele>
        <time>2022-06-06T12:33:58Z</time>
      </trkpt>
      <trkpt lat="47.60928" lon="5.07155">
        <ele>327.4</ele>
        <time>2022-06-06T12:34:00Z</time>
      </trkpt>
      <trkpt lat="47.60956" lon="5.0716">
        <ele>326.4</ele>
        <time>2022-06-06T12:34:04Z</time>
      </trkpt>
      <trkpt lat="47.60962" lon="5.0716">
        <ele>325.8</ele>
        <time>2022-06-06T12:34:05Z</time>
      </trkpt>
      <trkpt lat="47.60969" lon="5.07158">
        <ele>325</ele>
        <time>2022-06-06T12:34:06Z</time>
      </trkpt>
      <trkpt lat="47.60981" lon="5.07152">
        <ele>324</ele>
        <time>2022-06-06T12:34:08Z</time>
      </trkpt>
      <trkpt lat="47.60988" lon="5.07149">
        <ele>323.6</ele>
        <time>2022-06-06T12:34:09Z</time>
      </trkpt>
      <trkpt lat="47.61009" lon="5.07133">
        <ele>322</ele>
        <time>2022-06-06T12:34:12Z</time>
      </trkpt>
      <trkpt lat="47.61019" lon="5.07122">
        <ele>320.8</ele>
        <time>2022-06-06T12:34:14Z</time>
      </trkpt>
      <trkpt lat="47.61025" lon="5.07116">
        <ele>320.4</ele>
        <time>2022-06-06T12:34:15Z</time>
      </trkpt>
      <trkpt lat="47.6103" lon="5.07111">
        <ele>319.8</ele>
        <time>2022-06-06T12:34:16Z</time>
      </trkpt>
      <trkpt lat="47.61039" lon="5.07102">
        <ele>319.2</ele>
        <time>2022-06-06T12:34:18Z</time>
      </trkpt>
      <trkpt lat="47.61045" lon="5.07097">
        <ele>319.2</ele>
        <time>2022-06-06T12:34:19Z</time>
      </trkpt>
      <trkpt lat="47.61049" lon="5.07093">
        <ele>319</ele>
        <time>2022-06-06T12:34:20Z</time>
      </trkpt>
      <trkpt lat="47.61053" lon="5.07088">
        <ele>318.8</ele>
        <time>2022-06-06T12:34:21Z</time>
      </trkpt>
      <trkpt lat="47.61064" lon="5.07074">
        <ele>317.6</ele>
        <time>2022-06-06T12:34:24Z</time>
      </trkpt>
      <trkpt lat="47.61067" lon="5.0707">
        <ele>317.4</ele>
        <time>2022-06-06T12:34:25Z</time>
      </trkpt>
      <trkpt lat="47.61074" lon="5.0706">
        <ele>317.4</ele>
        <time>2022-06-06T12:34:27Z</time>
      </trkpt>
      <trkpt lat="47.61083" lon="5.07048">
        <ele>317.2</ele>
        <time>2022-06-06T12:34:30Z</time>
      </trkpt>
      <trkpt lat="47.61089" lon="5.0704">
        <ele>316.6</ele>
        <time>2022-06-06T12:34:32Z</time>
      </trkpt>
      <trkpt lat="47.61098" lon="5.0703">
        <ele>316.4</ele>
        <time>2022-06-06T12:34:35Z</time>
      </trkpt>
      <trkpt lat="47.61105" lon="5.07022">
        <ele>316</ele>
        <time>2022-06-06T12:34:37Z</time>
      </trkpt>
      <trkpt lat="47.61109" lon="5.07018">
        <ele>315.8</ele>
        <time>2022-06-06T12:34:38Z</time>
      </trkpt>
      <trkpt lat="47.61113" lon="5.07015">
        <ele>315.6</ele>
        <time>2022-06-06T12:34:39Z</time>
      </trkpt>
      <trkpt lat="47.61121" lon="5.07007">
        <ele>315.2</ele>
        <time>2022-06-06T12:34:41Z</time>
      </trkpt>
      <trkpt lat="47.61133" lon="5.06994">
        <ele>314.6</ele>
        <time>2022-06-06T12:34:45Z</time>
      </trkpt>
      <trkpt lat="47.61137" lon="5.06988">
        <ele>314.4</ele>
        <time>2022-06-06T12:34:47Z</time>
      </trkpt>
      <trkpt lat="47.61145" lon="5.06977">
        <ele>314</ele>
        <time>2022-06-06T12:34:52Z</time>
      </trkpt>
      <trkpt lat="47.61152" lon="5.0697">
        <ele>313.6</ele>
        <time>2022-06-06T12:34:57Z</time>
      </trkpt>
      <trkpt lat="47.61154" lon="5.0697">
        <ele>313.6</ele>
        <time>2022-06-06T12:34:58Z</time>
      </trkpt>
      <trkpt lat="47.61156" lon="5.0697">
        <ele>313.6</ele>
        <time>2022-06-06T12:34:59Z</time>
      </trkpt>
      <trkpt lat="47.61163" lon="5.06971">
        <ele>313.6</ele>
        <time>2022-06-06T12:35:02Z</time>
      </trkpt>
      <trkpt lat="47.61165" lon="5.06971">
        <ele>313.8</ele>
        <time>2022-06-06T12:35:03Z</time>
      </trkpt>
      <trkpt lat="47.61168" lon="5.0697">
        <ele>313.8</ele>
        <time>2022-06-06T12:35:04Z</time>
      </trkpt>
      <trkpt lat="47.61176" lon="5.06969">
        <ele>314.4</ele>
        <time>2022-06-06T12:35:08Z</time>
      </trkpt>
      <trkpt lat="47.61178" lon="5.06969">
        <ele>314.6</ele>
        <time>2022-06-06T12:35:09Z</time>
      </trkpt>
      <trkpt lat="47.61179" lon="5.06967">
        <ele>315</ele>
        <time>2022-06-06T12:35:10Z</time>
      </trkpt>
      <trkpt lat="47.61188" lon="5.06966">
        <ele>316</ele>
        <time>2022-06-06T12:35:13Z</time>
      </trkpt>
      <trkpt lat="47.61203" lon="5.0696">
        <ele>317.2</ele>
        <time>2022-06-06T12:35:18Z</time>
      </trkpt>
      <trkpt lat="47.61207" lon="5.06958">
        <ele>317.6</ele>
        <time>2022-06-06T12:35:19Z</time>
      </trkpt>
      <trkpt lat="47.61213" lon="5.06955">
        <ele>318.2</ele>
        <time>2022-06-06T12:35:21Z</time>
      </trkpt>
      <trkpt lat="47.61216" lon="5.06955">
        <ele>318.6</ele>
        <time>2022-06-06T12:35:22Z</time>
      </trkpt>
      <trkpt lat="47.61225" lon="5.06951">
        <ele>319</ele>
        <time>2022-06-06T12:35:25Z</time>
      </trkpt>
      <trkpt lat="47.61231" lon="5.06947">
        <ele>319.6</ele>
        <time>2022-06-06T12:35:27Z</time>
      </trkpt>
      <trkpt lat="47.61243" lon="5.06939">
        <ele>320.6</ele>
        <time>2022-06-06T12:35:32Z</time>
      </trkpt>
      <trkpt lat="47.6125" lon="5.06933">
        <ele>320.6</ele>
        <time>2022-06-06T12:35:34Z</time>
      </trkpt>
      <trkpt lat="47.61252" lon="5.0693">
        <ele>320.6</ele>
        <time>2022-06-06T12:35:35Z</time>
      </trkpt>
      <trkpt lat="47.6126" lon="5.06925">
        <ele>320.6</ele>
        <time>2022-06-06T12:35:38Z</time>
      </trkpt>
      <trkpt lat="47.61273" lon="5.06909">
        <ele>320</ele>
        <time>2022-06-06T12:35:46Z</time>
      </trkpt>
      <trkpt lat="47.61274" lon="5.06909">
        <ele>319.6</ele>
        <time>2022-06-06T12:35:51Z</time>
      </trkpt>
      <trkpt lat="47.61274" lon="5.06909">
        <ele>319.4</ele>
        <time>2022-06-06T12:35:59Z</time>
      </trkpt>
      <trkpt lat="47.61274" lon="5.06909">
        <ele>319.4</ele>
        <time>2022-06-06T12:36:00Z</time>
      </trkpt>
      <trkpt lat="47.61275" lon="5.06908">
        <ele>319.4</ele>
        <time>2022-06-06T12:36:06Z</time>
      </trkpt>
      <trkpt lat="47.61276" lon="5.06906">
        <ele>319.4</ele>
        <time>2022-06-06T12:36:09Z</time>
      </trkpt>
      <trkpt lat="47.61278" lon="5.06903">
        <ele>319.6</ele>
        <time>2022-06-06T12:36:16Z</time>
      </trkpt>
      <trkpt lat="47.6128" lon="5.06902">
        <ele>320.2</ele>
        <time>2022-06-06T12:36:24Z</time>
      </trkpt>
      <trkpt lat="47.61284" lon="5.06894">
        <ele>320</ele>
        <time>2022-06-06T12:36:29Z</time>
      </trkpt>
      <trkpt lat="47.61287" lon="5.06887">
        <ele>319.4</ele>
        <time>2022-06-06T12:36:33Z</time>
      </trkpt>
      <trkpt lat="47.61288" lon="5.06884">
        <ele>319.4</ele>
        <time>2022-06-06T12:36:34Z</time>
      </trkpt>
      <trkpt lat="47.6129" lon="5.06878">
        <ele>319.4</ele>
        <time>2022-06-06T12:36:36Z</time>
      </trkpt>
      <trkpt lat="47.61294" lon="5.06872">
        <ele>319.4</ele>
        <time>2022-06-06T12:36:39Z</time>
      </trkpt>
      <trkpt lat="47.61299" lon="5.0687">
        <ele>319.6</ele>
        <time>2022-06-06T12:36:40Z</time>
      </trkpt>
      <trkpt lat="47.61299" lon="5.06869">
        <ele>320</ele>
        <time>2022-06-06T12:36:45Z</time>
      </trkpt>
      <trkpt lat="47.61299" lon="5.06868">
        <ele>320.2</ele>
        <time>2022-06-06T12:36:46Z</time>
      </trkpt>
      <trkpt lat="47.61301" lon="5.06868">
        <ele>320.2</ele>
        <time>2022-06-06T12:36:51Z</time>
      </trkpt>
      <trkpt lat="47.61306" lon="5.06861">
        <ele>320</ele>
        <time>2022-06-06T12:36:58Z</time>
      </trkpt>
      <trkpt lat="47.61311" lon="5.06849">
        <ele>320.2</ele>
        <time>2022-06-06T12:37:01Z</time>
      </trkpt>
      <trkpt lat="47.61313" lon="5.06847">
        <ele>320.2</ele>
        <time>2022-06-06T12:37:02Z</time>
      </trkpt>
      <trkpt lat="47.61315" lon="5.06844">
        <ele>320.4</ele>
        <time>2022-06-06T12:37:03Z</time>
      </trkpt>
      <trkpt lat="47.61323" lon="5.06832">
        <ele>320.4</ele>
        <time>2022-06-06T12:37:07Z</time>
      </trkpt>
      <trkpt lat="47.61336" lon="5.06811">
        <ele>320.2</ele>
        <time>2022-06-06T12:37:13Z</time>
      </trkpt>
      <trkpt lat="47.61349" lon="5.06797">
        <ele>320</ele>
        <time>2022-06-06T12:37:17Z</time>
      </trkpt>
      <trkpt lat="47.61353" lon="5.0679">
        <ele>320</ele>
        <time>2022-06-06T12:37:19Z</time>
      </trkpt>
      <trkpt lat="47.61357" lon="5.06783">
        <ele>320</ele>
        <time>2022-06-06T12:37:21Z</time>
      </trkpt>
      <trkpt lat="47.61362" lon="5.06778">
        <ele>320.4</ele>
        <time>2022-06-06T12:37:24Z</time>
      </trkpt>
      <trkpt lat="47.61369" lon="5.06772">
        <ele>320.8</ele>
        <time>2022-06-06T12:37:26Z</time>
      </trkpt>
      <trkpt lat="47.61371" lon="5.06769">
        <ele>321</ele>
        <time>2022-06-06T12:37:27Z</time>
      </trkpt>
      <trkpt lat="47.61374" lon="5.06762">
        <ele>321.4</ele>
        <time>2022-06-06T12:37:29Z</time>
      </trkpt>
      <trkpt lat="47.6138" lon="5.06753">
        <ele>322</ele>
        <time>2022-06-06T12:37:31Z</time>
      </trkpt>
      <trkpt lat="47.61388" lon="5.06739">
        <ele>322.4</ele>
        <time>2022-06-06T12:37:34Z</time>
      </trkpt>
      <trkpt lat="47.61398" lon="5.06717">
        <ele>322.8</ele>
        <time>2022-06-06T12:37:39Z</time>
      </trkpt>
      <trkpt lat="47.61415" lon="5.06698">
        <ele>323</ele>
        <time>2022-06-06T12:37:45Z</time>
      </trkpt>
      <trkpt lat="47.61428" lon="5.06686">
        <ele>322.6</ele>
        <time>2022-06-06T12:37:49Z</time>
      </trkpt>
      <trkpt lat="47.6143" lon="5.06682">
        <ele>322.6</ele>
        <time>2022-06-06T12:37:50Z</time>
      </trkpt>
      <trkpt lat="47.61438" lon="5.06673">
        <ele>322.8</ele>
        <time>2022-06-06T12:37:53Z</time>
      </trkpt>
      <trkpt lat="47.61444" lon="5.06665">
        <ele>323</ele>
        <time>2022-06-06T12:37:56Z</time>
      </trkpt>
      <trkpt lat="47.61462" lon="5.06649">
        <ele>323.8</ele>
        <time>2022-06-06T12:38:01Z</time>
      </trkpt>
      <trkpt lat="47.61465" lon="5.06646">
        <ele>323.8</ele>
        <time>2022-06-06T12:38:02Z</time>
      </trkpt>
      <trkpt lat="47.61467" lon="5.06643">
        <ele>323.8</ele>
        <time>2022-06-06T12:38:03Z</time>
      </trkpt>
      <trkpt lat="47.61477" lon="5.06624">
        <ele>323.8</ele>
        <time>2022-06-06T12:38:08Z</time>
      </trkpt>
      <trkpt lat="47.6149" lon="5.066">
        <ele>323.8</ele>
        <time>2022-06-06T12:38:15Z</time>
      </trkpt>
      <trkpt lat="47.61493" lon="5.0659">
        <ele>324</ele>
        <time>2022-06-06T12:38:18Z</time>
      </trkpt>
      <trkpt lat="47.61496" lon="5.06588">
        <ele>324</ele>
        <time>2022-06-06T12:38:19Z</time>
      </trkpt>
      <trkpt lat="47.615" lon="5.06582">
        <ele>324</ele>
        <time>2022-06-06T12:38:21Z</time>
      </trkpt>
      <trkpt lat="47.61511" lon="5.06569">
        <ele>324</ele>
        <time>2022-06-06T12:38:25Z</time>
      </trkpt>
      <trkpt lat="47.61516" lon="5.06563">
        <ele>323.8</ele>
        <time>2022-06-06T12:38:30Z</time>
      </trkpt>
      <trkpt lat="47.61517" lon="5.06562">
        <ele>323.8</ele>
        <time>2022-06-06T12:38:31Z</time>
      </trkpt>
      <trkpt lat="47.6152" lon="5.06557">
        <ele>323.6</ele>
        <time>2022-06-06T12:38:34Z</time>
      </trkpt>
      <trkpt lat="47.61523" lon="5.06552">
        <ele>323.4</ele>
        <time>2022-06-06T12:38:36Z</time>
      </trkpt>
      <trkpt lat="47.61531" lon="5.06538">
        <ele>323.2</ele>
        <time>2022-06-06T12:38:39Z</time>
      </trkpt>
      <trkpt lat="47.61548" lon="5.06514">
        <ele>322.6</ele>
        <time>2022-06-06T12:38:45Z</time>
      </trkpt>
      <trkpt lat="47.61551" lon="5.06509">
        <ele>322.6</ele>
        <time>2022-06-06T12:38:46Z</time>
      </trkpt>
      <trkpt lat="47.61569" lon="5.06487">
        <ele>322.2</ele>
        <time>2022-06-06T12:38:51Z</time>
      </trkpt>
      <trkpt lat="47.61588" lon="5.06464">
        <ele>321.6</ele>
        <time>2022-06-06T12:38:57Z</time>
      </trkpt>
      <trkpt lat="47.61592" lon="5.06461">
        <ele>321.6</ele>
        <time>2022-06-06T12:38:58Z</time>
      </trkpt>
      <trkpt lat="47.61604" lon="5.06451">
        <ele>321.2</ele>
        <time>2022-06-06T12:39:01Z</time>
      </trkpt>
      <trkpt lat="47.6163" lon="5.06425">
        <ele>321</ele>
        <time>2022-06-06T12:39:07Z</time>
      </trkpt>
      <trkpt lat="47.61641" lon="5.06416">
        <ele>320.8</ele>
        <time>2022-06-06T12:39:09Z</time>
      </trkpt>
      <trkpt lat="47.61656" lon="5.06402">
        <ele>320.2</ele>
        <time>2022-06-06T12:39:11Z</time>
      </trkpt>
      <trkpt lat="47.61671" lon="5.06385">
        <ele>319.4</ele>
        <time>2022-06-06T12:39:14Z</time>
      </trkpt>
      <trkpt lat="47.61675" lon="5.0638">
        <ele>319</ele>
        <time>2022-06-06T12:39:15Z</time>
      </trkpt>
      <trkpt lat="47.6168" lon="5.06376">
        <ele>318.2</ele>
        <time>2022-06-06T12:39:16Z</time>
      </trkpt>
      <trkpt lat="47.61687" lon="5.06369">
        <ele>318</ele>
        <time>2022-06-06T12:39:17Z</time>
      </trkpt>
      <trkpt lat="47.61701" lon="5.06353">
        <ele>316.8</ele>
        <time>2022-06-06T12:39:20Z</time>
      </trkpt>
      <trkpt lat="47.61713" lon="5.06342">
        <ele>315.8</ele>
        <time>2022-06-06T12:39:23Z</time>
      </trkpt>
      <trkpt lat="47.6172" lon="5.06334">
        <ele>315.2</ele>
        <time>2022-06-06T12:39:25Z</time>
      </trkpt>
      <trkpt lat="47.61723" lon="5.06331">
        <ele>315</ele>
        <time>2022-06-06T12:39:26Z</time>
      </trkpt>
      <trkpt lat="47.61726" lon="5.06328">
        <ele>314.6</ele>
        <time>2022-06-06T12:39:27Z</time>
      </trkpt>
      <trkpt lat="47.61735" lon="5.06319">
        <ele>313.6</ele>
        <time>2022-06-06T12:39:30Z</time>
      </trkpt>
      <trkpt lat="47.61743" lon="5.0631">
        <ele>312.4</ele>
        <time>2022-06-06T12:39:33Z</time>
      </trkpt>
      <trkpt lat="47.61746" lon="5.06307">
        <ele>312</ele>
        <time>2022-06-06T12:39:34Z</time>
      </trkpt>
      <trkpt lat="47.61749" lon="5.06305">
        <ele>311.8</ele>
        <time>2022-06-06T12:39:35Z</time>
      </trkpt>
      <trkpt lat="47.61752" lon="5.06304">
        <ele>311.4</ele>
        <time>2022-06-06T12:39:36Z</time>
      </trkpt>
      <trkpt lat="47.61755" lon="5.06305">
        <ele>311.2</ele>
        <time>2022-06-06T12:39:37Z</time>
      </trkpt>
      <trkpt lat="47.61758" lon="5.06308">
        <ele>311</ele>
        <time>2022-06-06T12:39:38Z</time>
      </trkpt>
      <trkpt lat="47.61762" lon="5.06311">
        <ele>310.4</ele>
        <time>2022-06-06T12:39:39Z</time>
      </trkpt>
      <trkpt lat="47.61768" lon="5.06313">
        <ele>310.2</ele>
        <time>2022-06-06T12:39:40Z</time>
      </trkpt>
      <trkpt lat="47.61774" lon="5.06314">
        <ele>309.6</ele>
        <time>2022-06-06T12:39:41Z</time>
      </trkpt>
      <trkpt lat="47.61786" lon="5.06312">
        <ele>309</ele>
        <time>2022-06-06T12:39:43Z</time>
      </trkpt>
      <trkpt lat="47.61794" lon="5.06315">
        <ele>308.6</ele>
        <time>2022-06-06T12:39:45Z</time>
      </trkpt>
      <trkpt lat="47.618" lon="5.06322">
        <ele>308.2</ele>
        <time>2022-06-06T12:39:48Z</time>
      </trkpt>
      <trkpt lat="47.618" lon="5.06322">
        <ele>308</ele>
        <time>2022-06-06T12:39:50Z</time>
      </trkpt>
      <trkpt lat="47.618" lon="5.06322">
        <ele>308</ele>
        <time>2022-06-06T12:39:51Z</time>
      </trkpt>
      <trkpt lat="47.618" lon="5.06322">
        <ele>307.2</ele>
        <time>2022-06-06T12:40:10Z</time>
      </trkpt>
      <trkpt lat="47.618" lon="5.06322">
        <ele>307</ele>
        <time>2022-06-06T12:40:16Z</time>
      </trkpt>
      <trkpt lat="47.618" lon="5.06322">
        <ele>306.8</ele>
        <time>2022-06-06T12:40:29Z</time>
      </trkpt>
      <trkpt lat="47.618" lon="5.06322">
        <ele>307.4</ele>
        <time>2022-06-06T12:40:57Z</time>
      </trkpt>
      <trkpt lat="47.61802" lon="5.06325">
        <ele>307.4</ele>
        <time>2022-06-06T12:41:01Z</time>
      </trkpt>
      <trkpt lat="47.61804" lon="5.06326">
        <ele>307.4</ele>
        <time>2022-06-06T12:41:03Z</time>
      </trkpt>
      <trkpt lat="47.61806" lon="5.0633">
        <ele>307.4</ele>
        <time>2022-06-06T12:41:05Z</time>
      </trkpt>
      <trkpt lat="47.61808" lon="5.06342">
        <ele>307.2</ele>
        <time>2022-06-06T12:41:10Z</time>
      </trkpt>
      <trkpt lat="47.61816" lon="5.06364">
        <ele>306.8</ele>
        <time>2022-06-06T12:41:17Z</time>
      </trkpt>
      <trkpt lat="47.61821" lon="5.06378">
        <ele>306.6</ele>
        <time>2022-06-06T12:41:23Z</time>
      </trkpt>
      <trkpt lat="47.61822" lon="5.06379">
        <ele>306.6</ele>
        <time>2022-06-06T12:41:24Z</time>
      </trkpt>
      <trkpt lat="47.61823" lon="5.06381">
        <ele>306.6</ele>
        <time>2022-06-06T12:41:28Z</time>
      </trkpt>
      <trkpt lat="47.61825" lon="5.06384">
        <ele>306.6</ele>
        <time>2022-06-06T12:41:34Z</time>
      </trkpt>
      <trkpt lat="47.61825" lon="5.06384">
        <ele>306.8</ele>
        <time>2022-06-06T12:41:42Z</time>
      </trkpt>
      <trkpt lat="47.61825" lon="5.06384">
        <ele>306.6</ele>
        <time>2022-06-06T12:42:01Z</time>
      </trkpt>
      <trkpt lat="47.61827" lon="5.06384">
        <ele>306.6</ele>
        <time>2022-06-06T12:42:02Z</time>
      </trkpt>
      <trkpt lat="47.61827" lon="5.06385">
        <ele>306.6</ele>
        <time>2022-06-06T12:42:06Z</time>
      </trkpt>
      <trkpt lat="47.61827" lon="5.06385">
        <ele>306.6</ele>
        <time>2022-06-06T12:42:08Z</time>
      </trkpt>
      <trkpt lat="47.61829" lon="5.06386">
        <ele>306.6</ele>
        <time>2022-06-06T12:42:10Z</time>
      </trkpt>
      <trkpt lat="47.61832" lon="5.06389">
        <ele>306.8</ele>
        <time>2022-06-06T12:42:12Z</time>
      </trkpt>
      <trkpt lat="47.61833" lon="5.0639">
        <ele>306.8</ele>
        <time>2022-06-06T12:42:13Z</time>
      </trkpt>
      <trkpt lat="47.61841" lon="5.06399">
        <ele>306.8</ele>
        <time>2022-06-06T12:42:17Z</time>
      </trkpt>
      <trkpt lat="47.61859" lon="5.06417">
        <ele>307.4</ele>
        <time>2022-06-06T12:42:23Z</time>
      </trkpt>
      <trkpt lat="47.61878" lon="5.06434">
        <ele>307.6</ele>
        <time>2022-06-06T12:42:29Z</time>
      </trkpt>
      <trkpt lat="47.61896" lon="5.06456">
        <ele>307.4</ele>
        <time>2022-06-06T12:42:35Z</time>
      </trkpt>
      <trkpt lat="47.61903" lon="5.0649">
        <ele>306.8</ele>
        <time>2022-06-06T12:42:41Z</time>
      </trkpt>
      <trkpt lat="47.61908" lon="5.06503">
        <ele>306.6</ele>
        <time>2022-06-06T12:42:44Z</time>
      </trkpt>
      <trkpt lat="47.61911" lon="5.06504">
        <ele>306.6</ele>
        <time>2022-06-06T12:42:45Z</time>
      </trkpt>
      <trkpt lat="47.61914" lon="5.06503">
        <ele>306.8</ele>
        <time>2022-06-06T12:42:46Z</time>
      </trkpt>
      <trkpt lat="47.61925" lon="5.065">
        <ele>306.8</ele>
        <time>2022-06-06T12:42:49Z</time>
      </trkpt>
      <trkpt lat="47.61961" lon="5.065">
        <ele>308.4</ele>
        <time>2022-06-06T12:42:58Z</time>
      </trkpt>
      <trkpt lat="47.61986" lon="5.06504">
        <ele>309.6</ele>
        <time>2022-06-06T12:43:04Z</time>
      </trkpt>
      <trkpt lat="47.62005" lon="5.0651">
        <ele>309.8</ele>
        <time>2022-06-06T12:43:08Z</time>
      </trkpt>
      <trkpt lat="47.62038" lon="5.06522">
        <ele>310</ele>
        <time>2022-06-06T12:43:15Z</time>
      </trkpt>
      <trkpt lat="47.62083" lon="5.06551">
        <ele>309.4</ele>
        <time>2022-06-06T12:43:25Z</time>
      </trkpt>
      <trkpt lat="47.62123" lon="5.06579">
        <ele>309.2</ele>
        <time>2022-06-06T12:43:33Z</time>
      </trkpt>
      <trkpt lat="47.62163" lon="5.06598">
        <ele>309.2</ele>
        <time>2022-06-06T12:43:41Z</time>
      </trkpt>
      <trkpt lat="47.62174" lon="5.06601">
        <ele>309.2</ele>
        <time>2022-06-06T12:43:43Z</time>
      </trkpt>
      <trkpt lat="47.6222" lon="5.06603">
        <ele>309</ele>
        <time>2022-06-06T12:43:52Z</time>
      </trkpt>
      <trkpt lat="47.62259" lon="5.06595">
        <ele>309.2</ele>
        <time>2022-06-06T12:44:00Z</time>
      </trkpt>
      <trkpt lat="47.62303" lon="5.0658">
        <ele>309</ele>
        <time>2022-06-06T12:44:09Z</time>
      </trkpt>
      <trkpt lat="47.62347" lon="5.06558">
        <ele>308.8</ele>
        <time>2022-06-06T12:44:18Z</time>
      </trkpt>
      <trkpt lat="47.62365" lon="5.06546">
        <ele>308.8</ele>
        <time>2022-06-06T12:44:22Z</time>
      </trkpt>
      <trkpt lat="47.62386" lon="5.0653">
        <ele>308.8</ele>
        <time>2022-06-06T12:44:27Z</time>
      </trkpt>
      <trkpt lat="47.62407" lon="5.06512">
        <ele>308.8</ele>
        <time>2022-06-06T12:44:32Z</time>
      </trkpt>
      <trkpt lat="47.62421" lon="5.06506">
        <ele>308.8</ele>
        <time>2022-06-06T12:44:35Z</time>
      </trkpt>
      <trkpt lat="47.62427" lon="5.06506">
        <ele>308.8</ele>
        <time>2022-06-06T12:44:36Z</time>
      </trkpt>
      <trkpt lat="47.62435" lon="5.06507">
        <ele>309</ele>
        <time>2022-06-06T12:44:38Z</time>
      </trkpt>
      <trkpt lat="47.6244" lon="5.06509">
        <ele>309</ele>
        <time>2022-06-06T12:44:39Z</time>
      </trkpt>
      <trkpt lat="47.62453" lon="5.06514">
        <ele>309.2</ele>
        <time>2022-06-06T12:44:42Z</time>
      </trkpt>
      <trkpt lat="47.6246" lon="5.06518">
        <ele>309.6</ele>
        <time>2022-06-06T12:44:45Z</time>
      </trkpt>
      <trkpt lat="47.62466" lon="5.06521">
        <ele>309.8</ele>
        <time>2022-06-06T12:44:48Z</time>
      </trkpt>
      <trkpt lat="47.62473" lon="5.06521">
        <ele>309.8</ele>
        <time>2022-06-06T12:44:50Z</time>
      </trkpt>
      <trkpt lat="47.62501" lon="5.06509">
        <ele>309.8</ele>
        <time>2022-06-06T12:44:56Z</time>
      </trkpt>
      <trkpt lat="47.62545" lon="5.06493">
        <ele>309.2</ele>
        <time>2022-06-06T12:45:05Z</time>
      </trkpt>
      <trkpt lat="47.6257" lon="5.06472">
        <ele>309</ele>
        <time>2022-06-06T12:45:11Z</time>
      </trkpt>
      <trkpt lat="47.62579" lon="5.06463">
        <ele>308.8</ele>
        <time>2022-06-06T12:45:13Z</time>
      </trkpt>
      <trkpt lat="47.62595" lon="5.06438">
        <ele>308.8</ele>
        <time>2022-06-06T12:45:18Z</time>
      </trkpt>
      <trkpt lat="47.62601" lon="5.06426">
        <ele>308.6</ele>
        <time>2022-06-06T12:45:20Z</time>
      </trkpt>
      <trkpt lat="47.62608" lon="5.06414">
        <ele>308.4</ele>
        <time>2022-06-06T12:45:22Z</time>
      </trkpt>
      <trkpt lat="47.62612" lon="5.06407">
        <ele>308.4</ele>
        <time>2022-06-06T12:45:23Z</time>
      </trkpt>
      <trkpt lat="47.62615" lon="5.06402">
        <ele>308.4</ele>
        <time>2022-06-06T12:45:24Z</time>
      </trkpt>
      <trkpt lat="47.62643" lon="5.06343">
        <ele>308.4</ele>
        <time>2022-06-06T12:45:33Z</time>
      </trkpt>
      <trkpt lat="47.62658" lon="5.0629">
        <ele>308.8</ele>
        <time>2022-06-06T12:45:40Z</time>
      </trkpt>
      <trkpt lat="47.62673" lon="5.06218">
        <ele>309.4</ele>
        <time>2022-06-06T12:45:50Z</time>
      </trkpt>
      <trkpt lat="47.62677" lon="5.06194">
        <ele>309.6</ele>
        <time>2022-06-06T12:45:54Z</time>
      </trkpt>
      <trkpt lat="47.62682" lon="5.06178">
        <ele>309.8</ele>
        <time>2022-06-06T12:45:57Z</time>
      </trkpt>
      <trkpt lat="47.62684" lon="5.06175">
        <ele>310</ele>
        <time>2022-06-06T12:45:58Z</time>
      </trkpt>
      <trkpt lat="47.6269" lon="5.06172">
        <ele>310.2</ele>
        <time>2022-06-06T12:46:00Z</time>
      </trkpt>
      <trkpt lat="47.62696" lon="5.06176">
        <ele>310.4</ele>
        <time>2022-06-06T12:46:02Z</time>
      </trkpt>
      <trkpt lat="47.62697" lon="5.0618">
        <ele>310.6</ele>
        <time>2022-06-06T12:46:03Z</time>
      </trkpt>
      <trkpt lat="47.62701" lon="5.06191">
        <ele>311</ele>
        <time>2022-06-06T12:46:05Z</time>
      </trkpt>
      <trkpt lat="47.62703" lon="5.06199">
        <ele>311.4</ele>
        <time>2022-06-06T12:46:07Z</time>
      </trkpt>
      <trkpt lat="47.6271" lon="5.06217">
        <ele>311.8</ele>
        <time>2022-06-06T12:46:11Z</time>
      </trkpt>
      <trkpt lat="47.62712" lon="5.06222">
        <ele>312</ele>
        <time>2022-06-06T12:46:12Z</time>
      </trkpt>
      <trkpt lat="47.62725" lon="5.06252">
        <ele>313</ele>
        <time>2022-06-06T12:46:19Z</time>
      </trkpt>
      <trkpt lat="47.62728" lon="5.06258">
        <ele>313</ele>
        <time>2022-06-06T12:46:20Z</time>
      </trkpt>
      <trkpt lat="47.62745" lon="5.0629">
        <ele>313.8</ele>
        <time>2022-06-06T12:46:28Z</time>
      </trkpt>
      <trkpt lat="47.62756" lon="5.06307">
        <ele>314</ele>
        <time>2022-06-06T12:46:32Z</time>
      </trkpt>
      <trkpt lat="47.62767" lon="5.0632">
        <ele>314.4</ele>
        <time>2022-06-06T12:46:36Z</time>
      </trkpt>
      <trkpt lat="47.62787" lon="5.06343">
        <ele>315</ele>
        <time>2022-06-06T12:46:42Z</time>
      </trkpt>
      <trkpt lat="47.62796" lon="5.06354">
        <ele>315.6</ele>
        <time>2022-06-06T12:46:45Z</time>
      </trkpt>
      <trkpt lat="47.62823" lon="5.06389">
        <ele>315.8</ele>
        <time>2022-06-06T12:46:53Z</time>
      </trkpt>
      <trkpt lat="47.6284" lon="5.06407">
        <ele>315.8</ele>
        <time>2022-06-06T12:46:57Z</time>
      </trkpt>
      <trkpt lat="47.62846" lon="5.06416">
        <ele>315.8</ele>
        <time>2022-06-06T12:46:59Z</time>
      </trkpt>
      <trkpt lat="47.62875" lon="5.06455">
        <ele>315.8</ele>
        <time>2022-06-06T12:47:08Z</time>
      </trkpt>
      <trkpt lat="47.62888" lon="5.06474">
        <ele>315.4</ele>
        <time>2022-06-06T12:47:12Z</time>
      </trkpt>
      <trkpt lat="47.62899" lon="5.06486">
        <ele>315.4</ele>
        <time>2022-06-06T12:47:15Z</time>
      </trkpt>
      <trkpt lat="47.62928" lon="5.06516">
        <ele>315.4</ele>
        <time>2022-06-06T12:47:22Z</time>
      </trkpt>
      <trkpt lat="47.62932" lon="5.06519">
        <ele>315.4</ele>
        <time>2022-06-06T12:47:23Z</time>
      </trkpt>
      <trkpt lat="47.62969" lon="5.06553">
        <ele>315.6</ele>
        <time>2022-06-06T12:47:32Z</time>
      </trkpt>
      <trkpt lat="47.6302" lon="5.0659">
        <ele>315.4</ele>
        <time>2022-06-06T12:47:42Z</time>
      </trkpt>
      <trkpt lat="47.63071" lon="5.06624">
        <ele>315.2</ele>
        <time>2022-06-06T12:47:51Z</time>
      </trkpt>
      <trkpt lat="47.63077" lon="5.06627">
        <ele>315.2</ele>
        <time>2022-06-06T12:47:52Z</time>
      </trkpt>
      <trkpt lat="47.63121" lon="5.06657">
        <ele>315</ele>
        <time>2022-06-06T12:48:00Z</time>
      </trkpt>
      <trkpt lat="47.63159" lon="5.06683">
        <ele>314.8</ele>
        <time>2022-06-06T12:48:07Z</time>
      </trkpt>
      <trkpt lat="47.6321" lon="5.06717">
        <ele>314.6</ele>
        <time>2022-06-06T12:48:16Z</time>
      </trkpt>
      <trkpt lat="47.63226" lon="5.06729">
        <ele>314.6</ele>
        <time>2022-06-06T12:48:19Z</time>
      </trkpt>
      <trkpt lat="47.63263" lon="5.06758">
        <ele>314.6</ele>
        <time>2022-06-06T12:48:26Z</time>
      </trkpt>
      <trkpt lat="47.63306" lon="5.06807">
        <ele>315.2</ele>
        <time>2022-06-06T12:48:35Z</time>
      </trkpt>
      <trkpt lat="47.6335" lon="5.06858">
        <ele>315.6</ele>
        <time>2022-06-06T12:48:44Z</time>
      </trkpt>
      <trkpt lat="47.634" lon="5.06906">
        <ele>316</ele>
        <time>2022-06-06T12:48:54Z</time>
      </trkpt>
      <trkpt lat="47.63436" lon="5.06928">
        <ele>316.2</ele>
        <time>2022-06-06T12:49:00Z</time>
      </trkpt>
      <trkpt lat="47.63441" lon="5.06931">
        <ele>316.4</ele>
        <time>2022-06-06T12:49:01Z</time>
      </trkpt>
      <trkpt lat="47.6349" lon="5.06958">
        <ele>316.4</ele>
        <time>2022-06-06T12:49:09Z</time>
      </trkpt>
      <trkpt lat="47.63541" lon="5.06995">
        <ele>316</ele>
        <time>2022-06-06T12:49:18Z</time>
      </trkpt>
      <trkpt lat="47.63547" lon="5.07">
        <ele>315.8</ele>
        <time>2022-06-06T12:49:19Z</time>
      </trkpt>
      <trkpt lat="47.63596" lon="5.0704">
        <ele>315.6</ele>
        <time>2022-06-06T12:49:28Z</time>
      </trkpt>
      <trkpt lat="47.63602" lon="5.07044">
        <ele>315.6</ele>
        <time>2022-06-06T12:49:29Z</time>
      </trkpt>
      <trkpt lat="47.63653" lon="5.07083">
        <ele>315.8</ele>
        <time>2022-06-06T12:49:39Z</time>
      </trkpt>
      <trkpt lat="47.63703" lon="5.07125">
        <ele>316.2</ele>
        <time>2022-06-06T12:49:49Z</time>
      </trkpt>
      <trkpt lat="47.63742" lon="5.07168">
        <ele>315.4</ele>
        <time>2022-06-06T12:49:57Z</time>
      </trkpt>
      <trkpt lat="47.63747" lon="5.07173">
        <ele>315.2</ele>
        <time>2022-06-06T12:49:58Z</time>
      </trkpt>
      <trkpt lat="47.63757" lon="5.07184">
        <ele>314.8</ele>
        <time>2022-06-06T12:50:00Z</time>
      </trkpt>
      <trkpt lat="47.63767" lon="5.07193">
        <ele>314.8</ele>
        <time>2022-06-06T12:50:02Z</time>
      </trkpt>
      <trkpt lat="47.63805" lon="5.07227">
        <ele>314.4</ele>
        <time>2022-06-06T12:50:09Z</time>
      </trkpt>
      <trkpt lat="47.63848" lon="5.07247">
        <ele>314.6</ele>
        <time>2022-06-06T12:50:17Z</time>
      </trkpt>
      <trkpt lat="47.63877" lon="5.07269">
        <ele>316.2</ele>
        <time>2022-06-06T12:50:22Z</time>
      </trkpt>
      <trkpt lat="47.63889" lon="5.07277">
        <ele>317</ele>
        <time>2022-06-06T12:50:24Z</time>
      </trkpt>
      <trkpt lat="47.63903" lon="5.07287">
        <ele>317.4</ele>
        <time>2022-06-06T12:50:26Z</time>
      </trkpt>
      <trkpt lat="47.63931" lon="5.07306">
        <ele>318.2</ele>
        <time>2022-06-06T12:50:31Z</time>
      </trkpt>
      <trkpt lat="47.63934" lon="5.07309">
        <ele>318.4</ele>
        <time>2022-06-06T12:50:32Z</time>
      </trkpt>
      <trkpt lat="47.6394" lon="5.07312">
        <ele>318.6</ele>
        <time>2022-06-06T12:50:33Z</time>
      </trkpt>
      <trkpt lat="47.6395" lon="5.07318">
        <ele>318.8</ele>
        <time>2022-06-06T12:50:35Z</time>
      </trkpt>
      <trkpt lat="47.6396" lon="5.07324">
        <ele>319</ele>
        <time>2022-06-06T12:50:37Z</time>
      </trkpt>
      <trkpt lat="47.63966" lon="5.07328">
        <ele>319.6</ele>
        <time>2022-06-06T12:50:38Z</time>
      </trkpt>
      <trkpt lat="47.63974" lon="5.07332">
        <ele>320.2</ele>
        <time>2022-06-06T12:50:40Z</time>
      </trkpt>
      <trkpt lat="47.63991" lon="5.07339">
        <ele>320.6</ele>
        <time>2022-06-06T12:50:43Z</time>
      </trkpt>
      <trkpt lat="47.64" lon="5.07343">
        <ele>321</ele>
        <time>2022-06-06T12:50:45Z</time>
      </trkpt>
      <trkpt lat="47.64029" lon="5.07355">
        <ele>321.4</ele>
        <time>2022-06-06T12:50:50Z</time>
      </trkpt>
      <trkpt lat="47.64053" lon="5.07359">
        <ele>321.8</ele>
        <time>2022-06-06T12:50:54Z</time>
      </trkpt>
      <trkpt lat="47.64093" lon="5.07361">
        <ele>321.6</ele>
        <time>2022-06-06T12:51:00Z</time>
      </trkpt>
      <trkpt lat="47.64117" lon="5.07368">
        <ele>321.4</ele>
        <time>2022-06-06T12:51:04Z</time>
      </trkpt>
      <trkpt lat="47.64123" lon="5.07369">
        <ele>321.2</ele>
        <time>2022-06-06T12:51:05Z</time>
      </trkpt>
      <trkpt lat="47.64134" lon="5.07368">
        <ele>321</ele>
        <time>2022-06-06T12:51:07Z</time>
      </trkpt>
      <trkpt lat="47.64158" lon="5.07371">
        <ele>320.6</ele>
        <time>2022-06-06T12:51:10Z</time>
      </trkpt>
      <trkpt lat="47.64196" lon="5.07368">
        <ele>319.8</ele>
        <time>2022-06-06T12:51:16Z</time>
      </trkpt>
      <trkpt lat="47.64204" lon="5.07369">
        <ele>319.8</ele>
        <time>2022-06-06T12:51:17Z</time>
      </trkpt>
      <trkpt lat="47.6421" lon="5.07368">
        <ele>319.8</ele>
        <time>2022-06-06T12:51:18Z</time>
      </trkpt>
      <trkpt lat="47.64227" lon="5.07366">
        <ele>319.6</ele>
        <time>2022-06-06T12:51:21Z</time>
      </trkpt>
      <trkpt lat="47.64262" lon="5.07362">
        <ele>319.6</ele>
        <time>2022-06-06T12:51:27Z</time>
      </trkpt>
      <trkpt lat="47.6429" lon="5.07362">
        <ele>320.2</ele>
        <time>2022-06-06T12:51:33Z</time>
      </trkpt>
      <trkpt lat="47.64294" lon="5.07363">
        <ele>320.2</ele>
        <time>2022-06-06T12:51:34Z</time>
      </trkpt>
      <trkpt lat="47.64299" lon="5.07364">
        <ele>320.6</ele>
        <time>2022-06-06T12:51:35Z</time>
      </trkpt>
      <trkpt lat="47.64303" lon="5.07365">
        <ele>320.6</ele>
        <time>2022-06-06T12:51:36Z</time>
      </trkpt>
      <trkpt lat="47.64312" lon="5.07368">
        <ele>321.2</ele>
        <time>2022-06-06T12:51:39Z</time>
      </trkpt>
      <trkpt lat="47.64321" lon="5.07373">
        <ele>321.8</ele>
        <time>2022-06-06T12:51:41Z</time>
      </trkpt>
      <trkpt lat="47.64334" lon="5.07381">
        <ele>322</ele>
        <time>2022-06-06T12:51:44Z</time>
      </trkpt>
      <trkpt lat="47.64341" lon="5.07385">
        <ele>322</ele>
        <time>2022-06-06T12:51:45Z</time>
      </trkpt>
      <trkpt lat="47.64352" lon="5.07398">
        <ele>322</ele>
        <time>2022-06-06T12:51:47Z</time>
      </trkpt>
      <trkpt lat="47.64356" lon="5.07405">
        <ele>322</ele>
        <time>2022-06-06T12:51:48Z</time>
      </trkpt>
      <trkpt lat="47.6436" lon="5.07412">
        <ele>321.8</ele>
        <time>2022-06-06T12:51:49Z</time>
      </trkpt>
      <trkpt lat="47.64364" lon="5.07428">
        <ele>321</ele>
        <time>2022-06-06T12:51:51Z</time>
      </trkpt>
      <trkpt lat="47.64361" lon="5.07447">
        <ele>320.8</ele>
        <time>2022-06-06T12:51:53Z</time>
      </trkpt>
      <trkpt lat="47.64358" lon="5.07456">
        <ele>320.6</ele>
        <time>2022-06-06T12:51:54Z</time>
      </trkpt>
      <trkpt lat="47.64346" lon="5.07486">
        <ele>319.2</ele>
        <time>2022-06-06T12:51:58Z</time>
      </trkpt>
      <trkpt lat="47.64339" lon="5.07501">
        <ele>318</ele>
        <time>2022-06-06T12:52:00Z</time>
      </trkpt>
      <trkpt lat="47.64337" lon="5.07507">
        <ele>318</ele>
        <time>2022-06-06T12:52:01Z</time>
      </trkpt>
      <trkpt lat="47.64326" lon="5.07539">
        <ele>317.4</ele>
        <time>2022-06-06T12:52:06Z</time>
      </trkpt>
      <trkpt lat="47.64319" lon="5.07559">
        <ele>317.4</ele>
        <time>2022-06-06T12:52:09Z</time>
      </trkpt>
      <trkpt lat="47.64316" lon="5.07572">
        <ele>317.2</ele>
        <time>2022-06-06T12:52:11Z</time>
      </trkpt>
      <trkpt lat="47.64316" lon="5.07579">
        <ele>317</ele>
        <time>2022-06-06T12:52:12Z</time>
      </trkpt>
      <trkpt lat="47.64316" lon="5.07584">
        <ele>316.8</ele>
        <time>2022-06-06T12:52:13Z</time>
      </trkpt>
      <trkpt lat="47.64319" lon="5.07604">
        <ele>316.6</ele>
        <time>2022-06-06T12:52:16Z</time>
      </trkpt>
      <trkpt lat="47.64322" lon="5.07623">
        <ele>316.4</ele>
        <time>2022-06-06T12:52:19Z</time>
      </trkpt>
      <trkpt lat="47.64322" lon="5.07643">
        <ele>316.2</ele>
        <time>2022-06-06T12:52:22Z</time>
      </trkpt>
      <trkpt lat="47.64322" lon="5.07649">
        <ele>316.2</ele>
        <time>2022-06-06T12:52:23Z</time>
      </trkpt>
      <trkpt lat="47.64323" lon="5.07663">
        <ele>316.2</ele>
        <time>2022-06-06T12:52:25Z</time>
      </trkpt>
      <trkpt lat="47.64322" lon="5.07681">
        <ele>316.2</ele>
        <time>2022-06-06T12:52:28Z</time>
      </trkpt>
      <trkpt lat="47.64322" lon="5.0769">
        <ele>316.2</ele>
        <time>2022-06-06T12:52:29Z</time>
      </trkpt>
      <trkpt lat="47.64317" lon="5.07742">
        <ele>316.6</ele>
        <time>2022-06-06T12:52:37Z</time>
      </trkpt>
      <trkpt lat="47.64317" lon="5.07748">
        <ele>316.8</ele>
        <time>2022-06-06T12:52:38Z</time>
      </trkpt>
      <trkpt lat="47.64313" lon="5.07781">
        <ele>317.4</ele>
        <time>2022-06-06T12:52:43Z</time>
      </trkpt>
      <trkpt lat="47.64312" lon="5.07785">
        <ele>317.6</ele>
        <time>2022-06-06T12:52:44Z</time>
      </trkpt>
      <trkpt lat="47.6431" lon="5.07792">
        <ele>317.8</ele>
        <time>2022-06-06T12:52:45Z</time>
      </trkpt>
      <trkpt lat="47.64305" lon="5.07807">
        <ele>318.2</ele>
        <time>2022-06-06T12:52:48Z</time>
      </trkpt>
      <trkpt lat="47.64302" lon="5.07812">
        <ele>318.4</ele>
        <time>2022-06-06T12:52:49Z</time>
      </trkpt>
      <trkpt lat="47.64289" lon="5.07841">
        <ele>319.4</ele>
        <time>2022-06-06T12:52:56Z</time>
      </trkpt>
      <trkpt lat="47.64288" lon="5.07851">
        <ele>319.6</ele>
        <time>2022-06-06T12:52:58Z</time>
      </trkpt>
      <trkpt lat="47.64289" lon="5.07855">
        <ele>319.6</ele>
        <time>2022-06-06T12:52:59Z</time>
      </trkpt>
      <trkpt lat="47.64303" lon="5.07878">
        <ele>320</ele>
        <time>2022-06-06T12:53:04Z</time>
      </trkpt>
      <trkpt lat="47.64326" lon="5.07905">
        <ele>319.4</ele>
        <time>2022-06-06T12:53:10Z</time>
      </trkpt>
      <trkpt lat="47.64347" lon="5.07915">
        <ele>319.2</ele>
        <time>2022-06-06T12:53:14Z</time>
      </trkpt>
      <trkpt lat="47.64379" lon="5.07928">
        <ele>318.8</ele>
        <time>2022-06-06T12:53:21Z</time>
      </trkpt>
      <trkpt lat="47.64384" lon="5.07929">
        <ele>318.8</ele>
        <time>2022-06-06T12:53:22Z</time>
      </trkpt>
      <trkpt lat="47.64404" lon="5.07929">
        <ele>318.8</ele>
        <time>2022-06-06T12:53:26Z</time>
      </trkpt>
      <trkpt lat="47.64413" lon="5.07928">
        <ele>318.8</ele>
        <time>2022-06-06T12:53:28Z</time>
      </trkpt>
      <trkpt lat="47.64428" lon="5.07927">
        <ele>318.8</ele>
        <time>2022-06-06T12:53:31Z</time>
      </trkpt>
      <trkpt lat="47.64432" lon="5.07927">
        <ele>318.8</ele>
        <time>2022-06-06T12:53:32Z</time>
      </trkpt>
      <trkpt lat="47.64437" lon="5.07928">
        <ele>318.8</ele>
        <time>2022-06-06T12:53:33Z</time>
      </trkpt>
      <trkpt lat="47.64458" lon="5.07938">
        <ele>318.8</ele>
        <time>2022-06-06T12:53:38Z</time>
      </trkpt>
      <trkpt lat="47.64491" lon="5.07966">
        <ele>318.8</ele>
        <time>2022-06-06T12:53:45Z</time>
      </trkpt>
      <trkpt lat="47.64524" lon="5.07996">
        <ele>318.6</ele>
        <time>2022-06-06T12:53:52Z</time>
      </trkpt>
      <trkpt lat="47.64554" lon="5.08037">
        <ele>318.8</ele>
        <time>2022-06-06T12:53:59Z</time>
      </trkpt>
      <trkpt lat="47.64572" lon="5.08061">
        <ele>319</ele>
        <time>2022-06-06T12:54:03Z</time>
      </trkpt>
      <trkpt lat="47.64582" lon="5.08067">
        <ele>319.2</ele>
        <time>2022-06-06T12:54:05Z</time>
      </trkpt>
      <trkpt lat="47.64594" lon="5.08068">
        <ele>319.2</ele>
        <time>2022-06-06T12:54:07Z</time>
      </trkpt>
      <trkpt lat="47.64605" lon="5.08066">
        <ele>319.4</ele>
        <time>2022-06-06T12:54:09Z</time>
      </trkpt>
      <trkpt lat="47.64636" lon="5.0805">
        <ele>319.6</ele>
        <time>2022-06-06T12:54:15Z</time>
      </trkpt>
      <trkpt lat="47.6469" lon="5.08017">
        <ele>320.2</ele>
        <time>2022-06-06T12:54:25Z</time>
      </trkpt>
      <trkpt lat="47.64722" lon="5.08002">
        <ele>320.6</ele>
        <time>2022-06-06T12:54:31Z</time>
      </trkpt>
      <trkpt lat="47.64732" lon="5.07998">
        <ele>320.6</ele>
        <time>2022-06-06T12:54:33Z</time>
      </trkpt>
      <trkpt lat="47.64773" lon="5.07974">
        <ele>320.6</ele>
        <time>2022-06-06T12:54:41Z</time>
      </trkpt>
      <trkpt lat="47.64812" lon="5.0795">
        <ele>320.8</ele>
        <time>2022-06-06T12:54:49Z</time>
      </trkpt>
      <trkpt lat="47.64861" lon="5.07919">
        <ele>321.6</ele>
        <time>2022-06-06T12:54:59Z</time>
      </trkpt>
      <trkpt lat="47.64894" lon="5.07884">
        <ele>322.6</ele>
        <time>2022-06-06T12:55:07Z</time>
      </trkpt>
      <trkpt lat="47.64898" lon="5.07879">
        <ele>322.6</ele>
        <time>2022-06-06T12:55:08Z</time>
      </trkpt>
      <trkpt lat="47.64943" lon="5.07823">
        <ele>323.4</ele>
        <time>2022-06-06T12:55:19Z</time>
      </trkpt>
      <trkpt lat="47.64947" lon="5.07818">
        <ele>323.4</ele>
        <time>2022-06-06T12:55:20Z</time>
      </trkpt>
      <trkpt lat="47.6499" lon="5.07765">
        <ele>323.6</ele>
        <time>2022-06-06T12:55:30Z</time>
      </trkpt>
      <trkpt lat="47.64997" lon="5.07756">
        <ele>323.6</ele>
        <time>2022-06-06T12:55:32Z</time>
      </trkpt>
      <trkpt lat="47.65025" lon="5.07717">
        <ele>323.6</ele>
        <time>2022-06-06T12:55:39Z</time>
      </trkpt>
      <trkpt lat="47.65047" lon="5.07687">
        <ele>323.8</ele>
        <time>2022-06-06T12:55:44Z</time>
      </trkpt>
      <trkpt lat="47.65069" lon="5.07655">
        <ele>324.2</ele>
        <time>2022-06-06T12:55:52Z</time>
      </trkpt>
      <trkpt lat="47.65075" lon="5.07645">
        <ele>324.2</ele>
        <time>2022-06-06T12:55:54Z</time>
      </trkpt>
      <trkpt lat="47.6509" lon="5.07633">
        <ele>324.4</ele>
        <time>2022-06-06T12:55:58Z</time>
      </trkpt>
      <trkpt lat="47.65107" lon="5.07619">
        <ele>324.8</ele>
        <time>2022-06-06T12:56:03Z</time>
      </trkpt>
      <trkpt lat="47.65116" lon="5.07609">
        <ele>325.4</ele>
        <time>2022-06-06T12:56:06Z</time>
      </trkpt>
      <trkpt lat="47.65127" lon="5.07593">
        <ele>325.8</ele>
        <time>2022-06-06T12:56:10Z</time>
      </trkpt>
      <trkpt lat="47.65139" lon="5.0758">
        <ele>326</ele>
        <time>2022-06-06T12:56:14Z</time>
      </trkpt>
      <trkpt lat="47.65161" lon="5.07561">
        <ele>326</ele>
        <time>2022-06-06T12:56:20Z</time>
      </trkpt>
      <trkpt lat="47.65172" lon="5.07552">
        <ele>326</ele>
        <time>2022-06-06T12:56:23Z</time>
      </trkpt>
      <trkpt lat="47.65187" lon="5.0754">
        <ele>326.2</ele>
        <time>2022-06-06T12:56:26Z</time>
      </trkpt>
      <trkpt lat="47.65198" lon="5.07532">
        <ele>326.4</ele>
        <time>2022-06-06T12:56:29Z</time>
      </trkpt>
      <trkpt lat="47.6521" lon="5.07526">
        <ele>326.8</ele>
        <time>2022-06-06T12:56:33Z</time>
      </trkpt>
      <trkpt lat="47.65218" lon="5.07524">
        <ele>327</ele>
        <time>2022-06-06T12:56:34Z</time>
      </trkpt>
      <trkpt lat="47.65238" lon="5.07532">
        <ele>327.6</ele>
        <time>2022-06-06T12:56:40Z</time>
      </trkpt>
      <trkpt lat="47.65247" lon="5.07548">
        <ele>328.2</ele>
        <time>2022-06-06T12:56:44Z</time>
      </trkpt>
      <trkpt lat="47.65247" lon="5.07548">
        <ele>328.4</ele>
        <time>2022-06-06T12:56:45Z</time>
      </trkpt>
      <trkpt lat="47.6526" lon="5.07569">
        <ele>329.4</ele>
        <time>2022-06-06T12:56:49Z</time>
      </trkpt>
      <trkpt lat="47.65263" lon="5.07573">
        <ele>329.8</ele>
        <time>2022-06-06T12:56:50Z</time>
      </trkpt>
      <trkpt lat="47.65271" lon="5.07584">
        <ele>330.6</ele>
        <time>2022-06-06T12:56:53Z</time>
      </trkpt>
      <trkpt lat="47.65276" lon="5.07592">
        <ele>331</ele>
        <time>2022-06-06T12:56:55Z</time>
      </trkpt>
      <trkpt lat="47.6528" lon="5.076">
        <ele>331.6</ele>
        <time>2022-06-06T12:56:57Z</time>
      </trkpt>
      <trkpt lat="47.65288" lon="5.07617">
        <ele>332.6</ele>
        <time>2022-06-06T12:57:01Z</time>
      </trkpt>
      <trkpt lat="47.653" lon="5.07644">
        <ele>333.6</ele>
        <time>2022-06-06T12:57:06Z</time>
      </trkpt>
      <trkpt lat="47.65302" lon="5.0765">
        <ele>333.8</ele>
        <time>2022-06-06T12:57:07Z</time>
      </trkpt>
      <trkpt lat="47.65306" lon="5.07662">
        <ele>334</ele>
        <time>2022-06-06T12:57:09Z</time>
      </trkpt>
      <trkpt lat="47.65316" lon="5.07675">
        <ele>334</ele>
        <time>2022-06-06T12:57:12Z</time>
      </trkpt>
      <trkpt lat="47.65332" lon="5.07673">
        <ele>334.2</ele>
        <time>2022-06-06T12:57:15Z</time>
      </trkpt>
      <trkpt lat="47.65336" lon="5.0767">
        <ele>334.4</ele>
        <time>2022-06-06T12:57:16Z</time>
      </trkpt>
      <trkpt lat="47.65352" lon="5.07653">
        <ele>334.4</ele>
        <time>2022-06-06T12:57:21Z</time>
      </trkpt>
      <trkpt lat="47.65355" lon="5.07651">
        <ele>334.8</ele>
        <time>2022-06-06T12:57:22Z</time>
      </trkpt>
      <trkpt lat="47.65369" lon="5.07642">
        <ele>335.8</ele>
        <time>2022-06-06T12:57:27Z</time>
      </trkpt>
      <trkpt lat="47.65383" lon="5.07641">
        <ele>337</ele>
        <time>2022-06-06T12:57:32Z</time>
      </trkpt>
      <trkpt lat="47.65389" lon="5.07639">
        <ele>337.4</ele>
        <time>2022-06-06T12:57:34Z</time>
      </trkpt>
      <trkpt lat="47.65401" lon="5.07644">
        <ele>338</ele>
        <time>2022-06-06T12:57:39Z</time>
      </trkpt>
      <trkpt lat="47.65412" lon="5.07654">
        <ele>339</ele>
        <time>2022-06-06T12:57:42Z</time>
      </trkpt>
      <trkpt lat="47.65421" lon="5.07664">
        <ele>339.6</ele>
        <time>2022-06-06T12:57:46Z</time>
      </trkpt>
      <trkpt lat="47.65423" lon="5.07667">
        <ele>340.2</ele>
        <time>2022-06-06T12:57:47Z</time>
      </trkpt>
      <trkpt lat="47.65428" lon="5.0768">
        <ele>341.2</ele>
        <time>2022-06-06T12:57:51Z</time>
      </trkpt>
      <trkpt lat="47.65431" lon="5.07695">
        <ele>342.2</ele>
        <time>2022-06-06T12:57:55Z</time>
      </trkpt>
      <trkpt lat="47.65433" lon="5.07703">
        <ele>342.6</ele>
        <time>2022-06-06T12:57:57Z</time>
      </trkpt>
      <trkpt lat="47.65438" lon="5.0772">
        <ele>343.4</ele>
        <time>2022-06-06T12:58:02Z</time>
      </trkpt>
      <trkpt lat="47.6544" lon="5.07727">
        <ele>343.8</ele>
        <time>2022-06-06T12:58:04Z</time>
      </trkpt>
      <trkpt lat="47.65444" lon="5.07737">
        <ele>344.6</ele>
        <time>2022-06-06T12:58:07Z</time>
      </trkpt>
      <trkpt lat="47.65448" lon="5.07751">
        <ele>345.4</ele>
        <time>2022-06-06T12:58:11Z</time>
      </trkpt>
      <trkpt lat="47.6545" lon="5.07762">
        <ele>345.8</ele>
        <time>2022-06-06T12:58:14Z</time>
      </trkpt>
      <trkpt lat="47.6545" lon="5.07766">
        <ele>346.2</ele>
        <time>2022-06-06T12:58:15Z</time>
      </trkpt>
      <trkpt lat="47.65454" lon="5.07779">
        <ele>347.2</ele>
        <time>2022-06-06T12:58:19Z</time>
      </trkpt>
      <trkpt lat="47.6546" lon="5.07802">
        <ele>348.2</ele>
        <time>2022-06-06T12:58:26Z</time>
      </trkpt>
      <trkpt lat="47.65462" lon="5.07809">
        <ele>348.8</ele>
        <time>2022-06-06T12:58:28Z</time>
      </trkpt>
      <trkpt lat="47.65465" lon="5.07819">
        <ele>349.6</ele>
        <time>2022-06-06T12:58:31Z</time>
      </trkpt>
      <trkpt lat="47.65469" lon="5.07838">
        <ele>350.6</ele>
        <time>2022-06-06T12:58:36Z</time>
      </trkpt>
      <trkpt lat="47.65471" lon="5.07845">
        <ele>351.2</ele>
        <time>2022-06-06T12:58:38Z</time>
      </trkpt>
      <trkpt lat="47.65475" lon="5.07858">
        <ele>351.8</ele>
        <time>2022-06-06T12:58:42Z</time>
      </trkpt>
      <trkpt lat="47.65481" lon="5.07878">
        <ele>352.8</ele>
        <time>2022-06-06T12:58:48Z</time>
      </trkpt>
      <trkpt lat="47.65482" lon="5.07882">
        <ele>352.8</ele>
        <time>2022-06-06T12:58:49Z</time>
      </trkpt>
      <trkpt lat="47.65493" lon="5.07905">
        <ele>354</ele>
        <time>2022-06-06T12:58:57Z</time>
      </trkpt>
      <trkpt lat="47.65495" lon="5.07908">
        <ele>354</ele>
        <time>2022-06-06T12:58:58Z</time>
      </trkpt>
      <trkpt lat="47.65502" lon="5.0792">
        <ele>355</ele>
        <time>2022-06-06T12:59:02Z</time>
      </trkpt>
      <trkpt lat="47.65508" lon="5.07932">
        <ele>355.6</ele>
        <time>2022-06-06T12:59:06Z</time>
      </trkpt>
      <trkpt lat="47.65512" lon="5.07937">
        <ele>356.2</ele>
        <time>2022-06-06T12:59:08Z</time>
      </trkpt>
      <trkpt lat="47.65525" lon="5.07956">
        <ele>357.2</ele>
        <time>2022-06-06T12:59:15Z</time>
      </trkpt>
      <trkpt lat="47.65529" lon="5.07962">
        <ele>357.4</ele>
        <time>2022-06-06T12:59:17Z</time>
      </trkpt>
      <trkpt lat="47.65537" lon="5.07974">
        <ele>358.4</ele>
        <time>2022-06-06T12:59:21Z</time>
      </trkpt>
      <trkpt lat="47.65546" lon="5.07988">
        <ele>359</ele>
        <time>2022-06-06T12:59:26Z</time>
      </trkpt>
      <trkpt lat="47.6555" lon="5.07993">
        <ele>359.4</ele>
        <time>2022-06-06T12:59:28Z</time>
      </trkpt>
      <trkpt lat="47.65559" lon="5.08008">
        <ele>360.4</ele>
        <time>2022-06-06T12:59:33Z</time>
      </trkpt>
      <trkpt lat="47.65563" lon="5.08014">
        <ele>361</ele>
        <time>2022-06-06T12:59:35Z</time>
      </trkpt>
      <trkpt lat="47.65567" lon="5.0802">
        <ele>361.4</ele>
        <time>2022-06-06T12:59:37Z</time>
      </trkpt>
      <trkpt lat="47.6557" lon="5.08026">
        <ele>361.6</ele>
        <time>2022-06-06T12:59:39Z</time>
      </trkpt>
      <trkpt lat="47.65578" lon="5.08038">
        <ele>362.2</ele>
        <time>2022-06-06T12:59:43Z</time>
      </trkpt>
      <trkpt lat="47.65585" lon="5.08049">
        <ele>362.8</ele>
        <time>2022-06-06T12:59:47Z</time>
      </trkpt>
      <trkpt lat="47.65592" lon="5.0806">
        <ele>363.6</ele>
        <time>2022-06-06T12:59:51Z</time>
      </trkpt>
      <trkpt lat="47.65594" lon="5.08062">
        <ele>363.8</ele>
        <time>2022-06-06T12:59:52Z</time>
      </trkpt>
      <trkpt lat="47.65607" lon="5.08077">
        <ele>364.8</ele>
        <time>2022-06-06T12:59:58Z</time>
      </trkpt>
      <trkpt lat="47.65609" lon="5.0808">
        <ele>364.8</ele>
        <time>2022-06-06T12:59:59Z</time>
      </trkpt>
      <trkpt lat="47.65622" lon="5.08102">
        <ele>365.2</ele>
        <time>2022-06-06T13:00:06Z</time>
      </trkpt>
      <trkpt lat="47.65637" lon="5.08122">
        <ele>365.8</ele>
        <time>2022-06-06T13:00:13Z</time>
      </trkpt>
      <trkpt lat="47.65642" lon="5.08131">
        <ele>366</ele>
        <time>2022-06-06T13:00:16Z</time>
      </trkpt>
      <trkpt lat="47.65653" lon="5.08149">
        <ele>366.4</ele>
        <time>2022-06-06T13:00:22Z</time>
      </trkpt>
      <trkpt lat="47.65671" lon="5.08177">
        <ele>367</ele>
        <time>2022-06-06T13:00:31Z</time>
      </trkpt>
      <trkpt lat="47.65692" lon="5.08207">
        <ele>367.6</ele>
        <time>2022-06-06T13:00:41Z</time>
      </trkpt>
      <trkpt lat="47.6571" lon="5.08233">
        <ele>368</ele>
        <time>2022-06-06T13:00:50Z</time>
      </trkpt>
      <trkpt lat="47.65716" lon="5.08242">
        <ele>368.2</ele>
        <time>2022-06-06T13:00:53Z</time>
      </trkpt>
      <trkpt lat="47.65735" lon="5.08265">
        <ele>369</ele>
        <time>2022-06-06T13:01:02Z</time>
      </trkpt>
      <trkpt lat="47.65737" lon="5.08268">
        <ele>369</ele>
        <time>2022-06-06T13:01:03Z</time>
      </trkpt>
      <trkpt lat="47.65752" lon="5.0828">
        <ele>369.6</ele>
        <time>2022-06-06T13:01:09Z</time>
      </trkpt>
      <trkpt lat="47.65759" lon="5.08286">
        <ele>370.2</ele>
        <time>2022-06-06T13:01:12Z</time>
      </trkpt>
      <trkpt lat="47.65774" lon="5.08298">
        <ele>370.8</ele>
        <time>2022-06-06T13:01:18Z</time>
      </trkpt>
      <trkpt lat="47.65787" lon="5.08309">
        <ele>371.2</ele>
        <time>2022-06-06T13:01:23Z</time>
      </trkpt>
      <trkpt lat="47.65793" lon="5.08314">
        <ele>371.4</ele>
        <time>2022-06-06T13:01:25Z</time>
      </trkpt>
      <trkpt lat="47.65798" lon="5.08319">
        <ele>371.6</ele>
        <time>2022-06-06T13:01:27Z</time>
      </trkpt>
      <trkpt lat="47.65807" lon="5.08327">
        <ele>372.2</ele>
        <time>2022-06-06T13:01:30Z</time>
      </trkpt>
      <trkpt lat="47.65823" lon="5.08335">
        <ele>373</ele>
        <time>2022-06-06T13:01:35Z</time>
      </trkpt>
      <trkpt lat="47.65829" lon="5.08337">
        <ele>373.4</ele>
        <time>2022-06-06T13:01:37Z</time>
      </trkpt>
      <trkpt lat="47.65845" lon="5.08342">
        <ele>374.4</ele>
        <time>2022-06-06T13:01:42Z</time>
      </trkpt>
      <trkpt lat="47.65851" lon="5.08342">
        <ele>374.6</ele>
        <time>2022-06-06T13:01:44Z</time>
      </trkpt>
      <trkpt lat="47.65867" lon="5.08345">
        <ele>375.8</ele>
        <time>2022-06-06T13:01:49Z</time>
      </trkpt>
      <trkpt lat="47.6589" lon="5.0835">
        <ele>376.8</ele>
        <time>2022-06-06T13:01:56Z</time>
      </trkpt>
      <trkpt lat="47.65906" lon="5.08354">
        <ele>377.8</ele>
        <time>2022-06-06T13:02:01Z</time>
      </trkpt>
      <trkpt lat="47.65909" lon="5.08354">
        <ele>378.2</ele>
        <time>2022-06-06T13:02:02Z</time>
      </trkpt>
      <trkpt lat="47.65922" lon="5.08355">
        <ele>379.4</ele>
        <time>2022-06-06T13:02:06Z</time>
      </trkpt>
      <trkpt lat="47.65936" lon="5.08358">
        <ele>380.4</ele>
        <time>2022-06-06T13:02:11Z</time>
      </trkpt>
      <trkpt lat="47.65939" lon="5.08358">
        <ele>380.4</ele>
        <time>2022-06-06T13:02:12Z</time>
      </trkpt>
      <trkpt lat="47.65954" lon="5.08361">
        <ele>381.4</ele>
        <time>2022-06-06T13:02:17Z</time>
      </trkpt>
      <trkpt lat="47.65967" lon="5.08364">
        <ele>382.6</ele>
        <time>2022-06-06T13:02:21Z</time>
      </trkpt>
      <trkpt lat="47.65984" lon="5.08368">
        <ele>383.6</ele>
        <time>2022-06-06T13:02:27Z</time>
      </trkpt>
      <trkpt lat="47.66003" lon="5.08369">
        <ele>385</ele>
        <time>2022-06-06T13:02:34Z</time>
      </trkpt>
      <trkpt lat="47.66007" lon="5.0837">
        <ele>385.2</ele>
        <time>2022-06-06T13:02:36Z</time>
      </trkpt>
      <trkpt lat="47.66012" lon="5.08371">
        <ele>386</ele>
        <time>2022-06-06T13:02:39Z</time>
      </trkpt>
      <trkpt lat="47.66019" lon="5.08372">
        <ele>386.6</ele>
        <time>2022-06-06T13:02:42Z</time>
      </trkpt>
      <trkpt lat="47.66024" lon="5.08372">
        <ele>386.8</ele>
        <time>2022-06-06T13:02:44Z</time>
      </trkpt>
      <trkpt lat="47.66035" lon="5.08372">
        <ele>387.8</ele>
        <time>2022-06-06T13:02:48Z</time>
      </trkpt>
      <trkpt lat="47.66042" lon="5.0837">
        <ele>388.2</ele>
        <time>2022-06-06T13:02:50Z</time>
      </trkpt>
      <trkpt lat="47.66054" lon="5.08365">
        <ele>388.2</ele>
        <time>2022-06-06T13:02:53Z</time>
      </trkpt>
      <trkpt lat="47.66066" lon="5.08359">
        <ele>389.4</ele>
        <time>2022-06-06T13:02:57Z</time>
      </trkpt>
      <trkpt lat="47.66069" lon="5.08358">
        <ele>389.4</ele>
        <time>2022-06-06T13:02:58Z</time>
      </trkpt>
      <trkpt lat="47.66091" lon="5.08346">
        <ele>390.6</ele>
        <time>2022-06-06T13:03:04Z</time>
      </trkpt>
      <trkpt lat="47.66101" lon="5.08339">
        <ele>391</ele>
        <time>2022-06-06T13:03:07Z</time>
      </trkpt>
      <trkpt lat="47.66108" lon="5.08334">
        <ele>392</ele>
        <time>2022-06-06T13:03:10Z</time>
      </trkpt>
      <trkpt lat="47.66115" lon="5.08328">
        <ele>392.4</ele>
        <time>2022-06-06T13:03:13Z</time>
      </trkpt>
      <trkpt lat="47.66124" lon="5.08319">
        <ele>393.2</ele>
        <time>2022-06-06T13:03:17Z</time>
      </trkpt>
      <trkpt lat="47.66132" lon="5.08311">
        <ele>394.4</ele>
        <time>2022-06-06T13:03:21Z</time>
      </trkpt>
      <trkpt lat="47.66138" lon="5.08306">
        <ele>395.2</ele>
        <time>2022-06-06T13:03:24Z</time>
      </trkpt>
      <trkpt lat="47.66142" lon="5.08301">
        <ele>395.2</ele>
        <time>2022-06-06T13:03:26Z</time>
      </trkpt>
      <trkpt lat="47.66146" lon="5.08296">
        <ele>395.8</ele>
        <time>2022-06-06T13:03:28Z</time>
      </trkpt>
      <trkpt lat="47.66152" lon="5.08294">
        <ele>396.6</ele>
        <time>2022-06-06T13:03:31Z</time>
      </trkpt>
      <trkpt lat="47.66156" lon="5.08293">
        <ele>396.8</ele>
        <time>2022-06-06T13:03:33Z</time>
      </trkpt>
      <trkpt lat="47.66167" lon="5.0829">
        <ele>397.6</ele>
        <time>2022-06-06T13:03:38Z</time>
      </trkpt>
      <trkpt lat="47.66169" lon="5.0829">
        <ele>397.6</ele>
        <time>2022-06-06T13:03:39Z</time>
      </trkpt>
      <trkpt lat="47.66177" lon="5.08289">
        <ele>398.6</ele>
        <time>2022-06-06T13:03:43Z</time>
      </trkpt>
      <trkpt lat="47.66182" lon="5.0829">
        <ele>399</ele>
        <time>2022-06-06T13:03:46Z</time>
      </trkpt>
      <trkpt lat="47.66186" lon="5.0829">
        <ele>399.8</ele>
        <time>2022-06-06T13:03:48Z</time>
      </trkpt>
      <trkpt lat="47.66196" lon="5.08288">
        <ele>400.8</ele>
        <time>2022-06-06T13:03:53Z</time>
      </trkpt>
      <trkpt lat="47.66199" lon="5.08287">
        <ele>400.8</ele>
        <time>2022-06-06T13:03:54Z</time>
      </trkpt>
      <trkpt lat="47.66217" lon="5.08284">
        <ele>401.8</ele>
        <time>2022-06-06T13:04:02Z</time>
      </trkpt>
      <trkpt lat="47.66228" lon="5.08282">
        <ele>403</ele>
        <time>2022-06-06T13:04:07Z</time>
      </trkpt>
      <trkpt lat="47.66238" lon="5.0828">
        <ele>403.4</ele>
        <time>2022-06-06T13:04:12Z</time>
      </trkpt>
      <trkpt lat="47.6624" lon="5.0828">
        <ele>403.6</ele>
        <time>2022-06-06T13:04:13Z</time>
      </trkpt>
      <trkpt lat="47.66246" lon="5.08279">
        <ele>404</ele>
        <time>2022-06-06T13:04:16Z</time>
      </trkpt>
      <trkpt lat="47.66256" lon="5.08279">
        <ele>404.8</ele>
        <time>2022-06-06T13:04:21Z</time>
      </trkpt>
      <trkpt lat="47.6626" lon="5.08279">
        <ele>405</ele>
        <time>2022-06-06T13:04:23Z</time>
      </trkpt>
      <trkpt lat="47.66278" lon="5.0828">
        <ele>405.8</ele>
        <time>2022-06-06T13:04:30Z</time>
      </trkpt>
      <trkpt lat="47.66283" lon="5.08279">
        <ele>406.2</ele>
        <time>2022-06-06T13:04:32Z</time>
      </trkpt>
      <trkpt lat="47.66303" lon="5.0828">
        <ele>407</ele>
        <time>2022-06-06T13:04:40Z</time>
      </trkpt>
      <trkpt lat="47.66312" lon="5.08282">
        <ele>407.2</ele>
        <time>2022-06-06T13:04:44Z</time>
      </trkpt>
      <trkpt lat="47.66322" lon="5.08285">
        <ele>407.6</ele>
        <time>2022-06-06T13:04:48Z</time>
      </trkpt>
      <trkpt lat="47.66338" lon="5.08288">
        <ele>408.2</ele>
        <time>2022-06-06T13:04:54Z</time>
      </trkpt>
      <trkpt lat="47.66341" lon="5.08288">
        <ele>408.2</ele>
        <time>2022-06-06T13:04:55Z</time>
      </trkpt>
      <trkpt lat="47.66358" lon="5.08291">
        <ele>408.4</ele>
        <time>2022-06-06T13:05:02Z</time>
      </trkpt>
      <trkpt lat="47.66369" lon="5.08293">
        <ele>409.2</ele>
        <time>2022-06-06T13:05:07Z</time>
      </trkpt>
      <trkpt lat="47.66371" lon="5.08294">
        <ele>409.6</ele>
        <time>2022-06-06T13:05:08Z</time>
      </trkpt>
      <trkpt lat="47.66384" lon="5.08298">
        <ele>410.4</ele>
        <time>2022-06-06T13:05:13Z</time>
      </trkpt>
      <trkpt lat="47.66393" lon="5.083">
        <ele>410.8</ele>
        <time>2022-06-06T13:05:16Z</time>
      </trkpt>
      <trkpt lat="47.66416" lon="5.08303">
        <ele>411.2</ele>
        <time>2022-06-06T13:05:24Z</time>
      </trkpt>
      <trkpt lat="47.66427" lon="5.08305">
        <ele>411.4</ele>
        <time>2022-06-06T13:05:28Z</time>
      </trkpt>
      <trkpt lat="47.66443" lon="5.08306">
        <ele>411.8</ele>
        <time>2022-06-06T13:05:33Z</time>
      </trkpt>
      <trkpt lat="47.6646" lon="5.0831">
        <ele>412.2</ele>
        <time>2022-06-06T13:05:39Z</time>
      </trkpt>
      <trkpt lat="47.6647" lon="5.08311">
        <ele>412.6</ele>
        <time>2022-06-06T13:05:42Z</time>
      </trkpt>
      <trkpt lat="47.66477" lon="5.08312">
        <ele>412.6</ele>
        <time>2022-06-06T13:05:44Z</time>
      </trkpt>
      <trkpt lat="47.66488" lon="5.08314">
        <ele>412.8</ele>
        <time>2022-06-06T13:05:47Z</time>
      </trkpt>
      <trkpt lat="47.66522" lon="5.08319">
        <ele>413.6</ele>
        <time>2022-06-06T13:05:56Z</time>
      </trkpt>
      <trkpt lat="47.66549" lon="5.08324">
        <ele>414</ele>
        <time>2022-06-06T13:06:04Z</time>
      </trkpt>
      <trkpt lat="47.66556" lon="5.08335">
        <ele>414.6</ele>
        <time>2022-06-06T13:06:08Z</time>
      </trkpt>
      <trkpt lat="47.66556" lon="5.08337">
        <ele>414.8</ele>
        <time>2022-06-06T13:06:09Z</time>
      </trkpt>
      <trkpt lat="47.66556" lon="5.08344">
        <ele>415</ele>
        <time>2022-06-06T13:06:12Z</time>
      </trkpt>
      <trkpt lat="47.66556" lon="5.08347">
        <ele>415</ele>
        <time>2022-06-06T13:06:13Z</time>
      </trkpt>
      <trkpt lat="47.66553" lon="5.0836">
        <ele>415</ele>
        <time>2022-06-06T13:06:18Z</time>
      </trkpt>
      <trkpt lat="47.66552" lon="5.08363">
        <ele>415</ele>
        <time>2022-06-06T13:06:19Z</time>
      </trkpt>
      <trkpt lat="47.6655" lon="5.08374">
        <ele>415.2</ele>
        <time>2022-06-06T13:06:23Z</time>
      </trkpt>
      <trkpt lat="47.6655" lon="5.08374">
        <ele>415.4</ele>
        <time>2022-06-06T13:06:24Z</time>
      </trkpt>
      <trkpt lat="47.6655" lon="5.08374">
        <ele>415.8</ele>
        <time>2022-06-06T13:06:28Z</time>
      </trkpt>
      <trkpt lat="47.6655" lon="5.08374">
        <ele>416</ele>
        <time>2022-06-06T13:06:39Z</time>
      </trkpt>
      <trkpt lat="47.6655" lon="5.08374">
        <ele>416.2</ele>
        <time>2022-06-06T13:06:44Z</time>
      </trkpt>
      <trkpt lat="47.6655" lon="5.08374">
        <ele>416.4</ele>
        <time>2022-06-06T13:07:13Z</time>
      </trkpt>
      <trkpt lat="47.6655" lon="5.08374">
        <ele>416.4</ele>
        <time>2022-06-06T13:07:36Z</time>
      </trkpt>
      <trkpt lat="47.6655" lon="5.08374">
        <ele>416.6</ele>
        <time>2022-06-06T13:07:38Z</time>
      </trkpt>
      <trkpt lat="47.66548" lon="5.08377">
        <ele>416.6</ele>
        <time>2022-06-06T13:08:00Z</time>
      </trkpt>
      <trkpt lat="47.66548" lon="5.08382">
        <ele>416.6</ele>
        <time>2022-06-06T13:08:02Z</time>
      </trkpt>
      <trkpt lat="47.66546" lon="5.084">
        <ele>416.4</ele>
        <time>2022-06-06T13:08:08Z</time>
      </trkpt>
      <trkpt lat="47.66546" lon="5.08401">
        <ele>416.4</ele>
        <time>2022-06-06T13:08:12Z</time>
      </trkpt>
      <trkpt lat="47.66547" lon="5.08399">
        <ele>416.4</ele>
        <time>2022-06-06T13:08:20Z</time>
      </trkpt>
      <trkpt lat="47.66546" lon="5.08398">
        <ele>416.2</ele>
        <time>2022-06-06T13:08:28Z</time>
      </trkpt>
      <trkpt lat="47.66546" lon="5.08399">
        <ele>416.4</ele>
        <time>2022-06-06T13:08:36Z</time>
      </trkpt>
      <trkpt lat="47.66544" lon="5.08401">
        <ele>416.6</ele>
        <time>2022-06-06T13:08:38Z</time>
      </trkpt>
      <trkpt lat="47.66542" lon="5.08405">
        <ele>416.6</ele>
        <time>2022-06-06T13:08:41Z</time>
      </trkpt>
      <trkpt lat="47.66542" lon="5.08408">
        <ele>416.6</ele>
        <time>2022-06-06T13:08:46Z</time>
      </trkpt>
      <trkpt lat="47.66539" lon="5.08404">
        <ele>417.2</ele>
        <time>2022-06-06T13:09:00Z</time>
      </trkpt>
      <trkpt lat="47.66539" lon="5.08403">
        <ele>416.8</ele>
        <time>2022-06-06T13:09:08Z</time>
      </trkpt>
      <trkpt lat="47.66539" lon="5.08403">
        <ele>417.4</ele>
        <time>2022-06-06T13:09:29Z</time>
      </trkpt>
      <trkpt lat="47.6654" lon="5.08406">
        <ele>417.2</ele>
        <time>2022-06-06T13:09:46Z</time>
      </trkpt>
      <trkpt lat="47.66541" lon="5.08408">
        <ele>417.2</ele>
        <time>2022-06-06T13:09:48Z</time>
      </trkpt>
      <trkpt lat="47.66543" lon="5.08411">
        <ele>417.2</ele>
        <time>2022-06-06T13:09:54Z</time>
      </trkpt>
      <trkpt lat="47.66543" lon="5.08413">
        <ele>417.2</ele>
        <time>2022-06-06T13:09:59Z</time>
      </trkpt>
      <trkpt lat="47.66543" lon="5.08416">
        <ele>417.2</ele>
        <time>2022-06-06T13:10:02Z</time>
      </trkpt>
      <trkpt lat="47.66544" lon="5.08422">
        <ele>417.2</ele>
        <time>2022-06-06T13:10:05Z</time>
      </trkpt>
      <trkpt lat="47.66546" lon="5.08441">
        <ele>417.4</ele>
        <time>2022-06-06T13:10:10Z</time>
      </trkpt>
      <trkpt lat="47.66548" lon="5.08461">
        <ele>417.2</ele>
        <time>2022-06-06T13:10:14Z</time>
      </trkpt>
      <trkpt lat="47.66559" lon="5.08491">
        <ele>417.4</ele>
        <time>2022-06-06T13:10:20Z</time>
      </trkpt>
      <trkpt lat="47.66567" lon="5.08516">
        <ele>417.6</ele>
        <time>2022-06-06T13:10:25Z</time>
      </trkpt>
      <trkpt lat="47.66571" lon="5.08559">
        <ele>418</ele>
        <time>2022-06-06T13:10:31Z</time>
      </trkpt>
      <trkpt lat="47.66576" lon="5.08588">
        <ele>418</ele>
        <time>2022-06-06T13:10:35Z</time>
      </trkpt>
      <trkpt lat="47.66581" lon="5.086">
        <ele>418.2</ele>
        <time>2022-06-06T13:10:37Z</time>
      </trkpt>
      <trkpt lat="47.66587" lon="5.08616">
        <ele>418.2</ele>
        <time>2022-06-06T13:10:40Z</time>
      </trkpt>
      <trkpt lat="47.6659" lon="5.08628">
        <ele>418.2</ele>
        <time>2022-06-06T13:10:42Z</time>
      </trkpt>
      <trkpt lat="47.66592" lon="5.08633">
        <ele>418</ele>
        <time>2022-06-06T13:10:43Z</time>
      </trkpt>
      <trkpt lat="47.66594" lon="5.08645">
        <ele>418</ele>
        <time>2022-06-06T13:10:45Z</time>
      </trkpt>
      <trkpt lat="47.66597" lon="5.08658">
        <ele>417.8</ele>
        <time>2022-06-06T13:10:47Z</time>
      </trkpt>
      <trkpt lat="47.66599" lon="5.08665">
        <ele>417.8</ele>
        <time>2022-06-06T13:10:48Z</time>
      </trkpt>
      <trkpt lat="47.66611" lon="5.08712">
        <ele>417.6</ele>
        <time>2022-06-06T13:10:55Z</time>
      </trkpt>
      <trkpt lat="47.66616" lon="5.08754">
        <ele>417.4</ele>
        <time>2022-06-06T13:11:01Z</time>
      </trkpt>
      <trkpt lat="47.66617" lon="5.08761">
        <ele>417.4</ele>
        <time>2022-06-06T13:11:02Z</time>
      </trkpt>
      <trkpt lat="47.66618" lon="5.08771">
        <ele>417.2</ele>
        <time>2022-06-06T13:11:03Z</time>
      </trkpt>
      <trkpt lat="47.66621" lon="5.08786">
        <ele>417.2</ele>
        <time>2022-06-06T13:11:05Z</time>
      </trkpt>
      <trkpt lat="47.66623" lon="5.08795">
        <ele>417.2</ele>
        <time>2022-06-06T13:11:06Z</time>
      </trkpt>
      <trkpt lat="47.66631" lon="5.08846">
        <ele>416.4</ele>
        <time>2022-06-06T13:11:12Z</time>
      </trkpt>
      <trkpt lat="47.66632" lon="5.08853">
        <ele>416.2</ele>
        <time>2022-06-06T13:11:13Z</time>
      </trkpt>
      <trkpt lat="47.66641" lon="5.08888">
        <ele>415.2</ele>
        <time>2022-06-06T13:11:18Z</time>
      </trkpt>
      <trkpt lat="47.66643" lon="5.08896">
        <ele>414.8</ele>
        <time>2022-06-06T13:11:19Z</time>
      </trkpt>
      <trkpt lat="47.66648" lon="5.08909">
        <ele>414.6</ele>
        <time>2022-06-06T13:11:21Z</time>
      </trkpt>
      <trkpt lat="47.66653" lon="5.08922">
        <ele>414</ele>
        <time>2022-06-06T13:11:23Z</time>
      </trkpt>
      <trkpt lat="47.66656" lon="5.0893">
        <ele>413.8</ele>
        <time>2022-06-06T13:11:24Z</time>
      </trkpt>
      <trkpt lat="47.66673" lon="5.08991">
        <ele>412.8</ele>
        <time>2022-06-06T13:11:32Z</time>
      </trkpt>
      <trkpt lat="47.66677" lon="5.09008">
        <ele>412.4</ele>
        <time>2022-06-06T13:11:34Z</time>
      </trkpt>
      <trkpt lat="47.66688" lon="5.0905">
        <ele>411.6</ele>
        <time>2022-06-06T13:11:39Z</time>
      </trkpt>
      <trkpt lat="47.66694" lon="5.09069">
        <ele>411.2</ele>
        <time>2022-06-06T13:11:41Z</time>
      </trkpt>
      <trkpt lat="47.66715" lon="5.09131">
        <ele>410.6</ele>
        <time>2022-06-06T13:11:48Z</time>
      </trkpt>
      <trkpt lat="47.66735" lon="5.09186">
        <ele>410.4</ele>
        <time>2022-06-06T13:11:54Z</time>
      </trkpt>
      <trkpt lat="47.66742" lon="5.09204">
        <ele>410.2</ele>
        <time>2022-06-06T13:11:56Z</time>
      </trkpt>
      <trkpt lat="47.66773" lon="5.09275">
        <ele>409.6</ele>
        <time>2022-06-06T13:12:04Z</time>
      </trkpt>
      <trkpt lat="47.6679" lon="5.09315">
        <ele>409.2</ele>
        <time>2022-06-06T13:12:08Z</time>
      </trkpt>
      <trkpt lat="47.66805" lon="5.09357">
        <ele>408.2</ele>
        <time>2022-06-06T13:12:12Z</time>
      </trkpt>
      <trkpt lat="47.66825" lon="5.09415">
        <ele>407</ele>
        <time>2022-06-06T13:12:17Z</time>
      </trkpt>
      <trkpt lat="47.66832" lon="5.0944">
        <ele>406.6</ele>
        <time>2022-06-06T13:12:19Z</time>
      </trkpt>
      <trkpt lat="47.66841" lon="5.09481">
        <ele>405.8</ele>
        <time>2022-06-06T13:12:22Z</time>
      </trkpt>
      <trkpt lat="47.66847" lon="5.09506">
        <ele>404.4</ele>
        <time>2022-06-06T13:12:24Z</time>
      </trkpt>
      <trkpt lat="47.66857" lon="5.09545">
        <ele>403.6</ele>
        <time>2022-06-06T13:12:27Z</time>
      </trkpt>
      <trkpt lat="47.66863" lon="5.09569">
        <ele>402.2</ele>
        <time>2022-06-06T13:12:29Z</time>
      </trkpt>
      <trkpt lat="47.6687" lon="5.0959">
        <ele>401</ele>
        <time>2022-06-06T13:12:31Z</time>
      </trkpt>
      <trkpt lat="47.66877" lon="5.09608">
        <ele>399.4</ele>
        <time>2022-06-06T13:12:33Z</time>
      </trkpt>
      <trkpt lat="47.66886" lon="5.09627">
        <ele>398</ele>
        <time>2022-06-06T13:12:35Z</time>
      </trkpt>
      <trkpt lat="47.66895" lon="5.09648">
        <ele>396.6</ele>
        <time>2022-06-06T13:12:37Z</time>
      </trkpt>
      <trkpt lat="47.669" lon="5.09658">
        <ele>395.8</ele>
        <time>2022-06-06T13:12:38Z</time>
      </trkpt>
      <trkpt lat="47.66905" lon="5.09666">
        <ele>395.4</ele>
        <time>2022-06-06T13:12:39Z</time>
      </trkpt>
      <trkpt lat="47.66908" lon="5.09672">
        <ele>394.2</ele>
        <time>2022-06-06T13:12:40Z</time>
      </trkpt>
      <trkpt lat="47.66918" lon="5.09688">
        <ele>392.8</ele>
        <time>2022-06-06T13:12:42Z</time>
      </trkpt>
      <trkpt lat="47.66925" lon="5.09703">
        <ele>390.2</ele>
        <time>2022-06-06T13:12:44Z</time>
      </trkpt>
      <trkpt lat="47.66928" lon="5.09711">
        <ele>389.6</ele>
        <time>2022-06-06T13:12:45Z</time>
      </trkpt>
      <trkpt lat="47.6693" lon="5.0972">
        <ele>388</ele>
        <time>2022-06-06T13:12:46Z</time>
      </trkpt>
      <trkpt lat="47.66932" lon="5.09729">
        <ele>386.8</ele>
        <time>2022-06-06T13:12:47Z</time>
      </trkpt>
      <trkpt lat="47.66933" lon="5.09748">
        <ele>384.4</ele>
        <time>2022-06-06T13:12:49Z</time>
      </trkpt>
      <trkpt lat="47.66936" lon="5.09767">
        <ele>382.2</ele>
        <time>2022-06-06T13:12:51Z</time>
      </trkpt>
      <trkpt lat="47.66941" lon="5.09786">
        <ele>380</ele>
        <time>2022-06-06T13:12:53Z</time>
      </trkpt>
      <trkpt lat="47.66943" lon="5.09795">
        <ele>378.2</ele>
        <time>2022-06-06T13:12:55Z</time>
      </trkpt>
      <trkpt lat="47.66949" lon="5.09815">
        <ele>377</ele>
        <time>2022-06-06T13:12:56Z</time>
      </trkpt>
      <trkpt lat="47.66954" lon="5.09834">
        <ele>375.4</ele>
        <time>2022-06-06T13:12:58Z</time>
      </trkpt>
      <trkpt lat="47.66955" lon="5.09843">
        <ele>374.8</ele>
        <time>2022-06-06T13:12:59Z</time>
      </trkpt>
      <trkpt lat="47.66955" lon="5.09854">
        <ele>373.8</ele>
        <time>2022-06-06T13:13:00Z</time>
      </trkpt>
      <trkpt lat="47.66954" lon="5.09865">
        <ele>373.2</ele>
        <time>2022-06-06T13:13:01Z</time>
      </trkpt>
      <trkpt lat="47.66954" lon="5.09878">
        <ele>372</ele>
        <time>2022-06-06T13:13:02Z</time>
      </trkpt>
      <trkpt lat="47.66953" lon="5.09892">
        <ele>370.4</ele>
        <time>2022-06-06T13:13:03Z</time>
      </trkpt>
      <trkpt lat="47.66953" lon="5.09917">
        <ele>368.8</ele>
        <time>2022-06-06T13:13:05Z</time>
      </trkpt>
      <trkpt lat="47.66954" lon="5.0994">
        <ele>367.2</ele>
        <time>2022-06-06T13:13:07Z</time>
      </trkpt>
      <trkpt lat="47.66958" lon="5.0996">
        <ele>365.4</ele>
        <time>2022-06-06T13:13:09Z</time>
      </trkpt>
      <trkpt lat="47.66961" lon="5.0998">
        <ele>364</ele>
        <time>2022-06-06T13:13:11Z</time>
      </trkpt>
      <trkpt lat="47.66962" lon="5.0999">
        <ele>362.6</ele>
        <time>2022-06-06T13:13:12Z</time>
      </trkpt>
      <trkpt lat="47.66964" lon="5.10011">
        <ele>361</ele>
        <time>2022-06-06T13:13:14Z</time>
      </trkpt>
      <trkpt lat="47.66967" lon="5.10032">
        <ele>359.4</ele>
        <time>2022-06-06T13:13:16Z</time>
      </trkpt>
      <trkpt lat="47.66972" lon="5.10054">
        <ele>358.4</ele>
        <time>2022-06-06T13:13:18Z</time>
      </trkpt>
      <trkpt lat="47.66978" lon="5.10087">
        <ele>357</ele>
        <time>2022-06-06T13:13:21Z</time>
      </trkpt>
      <trkpt lat="47.66981" lon="5.10096">
        <ele>356.6</ele>
        <time>2022-06-06T13:13:22Z</time>
      </trkpt>
      <trkpt lat="47.66984" lon="5.10113">
        <ele>355.8</ele>
        <time>2022-06-06T13:13:24Z</time>
      </trkpt>
      <trkpt lat="47.66988" lon="5.10138">
        <ele>354.6</ele>
        <time>2022-06-06T13:13:27Z</time>
      </trkpt>
      <trkpt lat="47.6699" lon="5.10146">
        <ele>354.2</ele>
        <time>2022-06-06T13:13:28Z</time>
      </trkpt>
      <trkpt lat="47.66991" lon="5.10153">
        <ele>353.4</ele>
        <time>2022-06-06T13:13:29Z</time>
      </trkpt>
      <trkpt lat="47.66992" lon="5.10167">
        <ele>352.2</ele>
        <time>2022-06-06T13:13:31Z</time>
      </trkpt>
      <trkpt lat="47.66993" lon="5.1018">
        <ele>350.8</ele>
        <time>2022-06-06T13:13:33Z</time>
      </trkpt>
      <trkpt lat="47.66992" lon="5.10186">
        <ele>350.2</ele>
        <time>2022-06-06T13:13:34Z</time>
      </trkpt>
      <trkpt lat="47.66989" lon="5.10198">
        <ele>349.6</ele>
        <time>2022-06-06T13:13:36Z</time>
      </trkpt>
      <trkpt lat="47.66984" lon="5.10216">
        <ele>348.2</ele>
        <time>2022-06-06T13:13:39Z</time>
      </trkpt>
      <trkpt lat="47.66977" lon="5.10237">
        <ele>347.8</ele>
        <time>2022-06-06T13:13:42Z</time>
      </trkpt>
      <trkpt lat="47.66969" lon="5.10265">
        <ele>347.2</ele>
        <time>2022-06-06T13:13:46Z</time>
      </trkpt>
      <trkpt lat="47.66965" lon="5.10276">
        <ele>346.8</ele>
        <time>2022-06-06T13:13:48Z</time>
      </trkpt>
      <trkpt lat="47.66948" lon="5.1028">
        <ele>346.4</ele>
        <time>2022-06-06T13:13:52Z</time>
      </trkpt>
      <trkpt lat="47.66944" lon="5.10281">
        <ele>346.4</ele>
        <time>2022-06-06T13:13:53Z</time>
      </trkpt>
      <trkpt lat="47.66935" lon="5.10282">
        <ele>346.2</ele>
        <time>2022-06-06T13:13:55Z</time>
      </trkpt>
      <trkpt lat="47.66927" lon="5.10283">
        <ele>345.8</ele>
        <time>2022-06-06T13:13:57Z</time>
      </trkpt>
      <trkpt lat="47.66918" lon="5.1028">
        <ele>345.6</ele>
        <time>2022-06-06T13:13:59Z</time>
      </trkpt>
      <trkpt lat="47.66908" lon="5.10277">
        <ele>345.4</ele>
        <time>2022-06-06T13:14:01Z</time>
      </trkpt>
      <trkpt lat="47.66903" lon="5.10277">
        <ele>345.2</ele>
        <time>2022-06-06T13:14:02Z</time>
      </trkpt>
      <trkpt lat="47.66898" lon="5.10276">
        <ele>345.2</ele>
        <time>2022-06-06T13:14:03Z</time>
      </trkpt>
      <trkpt lat="47.66887" lon="5.10276">
        <ele>344.6</ele>
        <time>2022-06-06T13:14:05Z</time>
      </trkpt>
      <trkpt lat="47.66875" lon="5.10276">
        <ele>344.2</ele>
        <time>2022-06-06T13:14:07Z</time>
      </trkpt>
      <trkpt lat="47.66869" lon="5.10276">
        <ele>344.2</ele>
        <time>2022-06-06T13:14:08Z</time>
      </trkpt>
      <trkpt lat="47.66845" lon="5.10276">
        <ele>343.6</ele>
        <time>2022-06-06T13:14:12Z</time>
      </trkpt>
      <trkpt lat="47.66823" lon="5.10275">
        <ele>343</ele>
        <time>2022-06-06T13:14:16Z</time>
      </trkpt>
      <trkpt lat="47.66778" lon="5.10272">
        <ele>342.4</ele>
        <time>2022-06-06T13:14:25Z</time>
      </trkpt>
      <trkpt lat="47.66765" lon="5.10274">
        <ele>342.4</ele>
        <time>2022-06-06T13:14:28Z</time>
      </trkpt>
      <trkpt lat="47.66755" lon="5.10275">
        <ele>342.4</ele>
        <time>2022-06-06T13:14:30Z</time>
      </trkpt>
      <trkpt lat="47.66751" lon="5.10276">
        <ele>342.4</ele>
        <time>2022-06-06T13:14:31Z</time>
      </trkpt>
      <trkpt lat="47.66727" lon="5.10282">
        <ele>342.8</ele>
        <time>2022-06-06T13:14:37Z</time>
      </trkpt>
      <trkpt lat="47.66715" lon="5.10285">
        <ele>343</ele>
        <time>2022-06-06T13:14:40Z</time>
      </trkpt>
      <trkpt lat="47.6669" lon="5.103">
        <ele>343.8</ele>
        <time>2022-06-06T13:14:47Z</time>
      </trkpt>
      <trkpt lat="47.66678" lon="5.10312">
        <ele>344.4</ele>
        <time>2022-06-06T13:14:51Z</time>
      </trkpt>
      <trkpt lat="47.66662" lon="5.10325">
        <ele>345.2</ele>
        <time>2022-06-06T13:14:56Z</time>
      </trkpt>
      <trkpt lat="47.66655" lon="5.10328">
        <ele>345.4</ele>
        <time>2022-06-06T13:14:58Z</time>
      </trkpt>
      <trkpt lat="47.66633" lon="5.10336">
        <ele>346.2</ele>
        <time>2022-06-06T13:15:05Z</time>
      </trkpt>
      <trkpt lat="47.66603" lon="5.10347">
        <ele>345.8</ele>
        <time>2022-06-06T13:15:12Z</time>
      </trkpt>
      <trkpt lat="47.66586" lon="5.10353">
        <ele>345.6</ele>
        <time>2022-06-06T13:15:15Z</time>
      </trkpt>
      <trkpt lat="47.66574" lon="5.1036">
        <ele>345.4</ele>
        <time>2022-06-06T13:15:17Z</time>
      </trkpt>
      <trkpt lat="47.66561" lon="5.10371">
        <ele>344.4</ele>
        <time>2022-06-06T13:15:19Z</time>
      </trkpt>
      <trkpt lat="47.66549" lon="5.10388">
        <ele>344</ele>
        <time>2022-06-06T13:15:21Z</time>
      </trkpt>
      <trkpt lat="47.6654" lon="5.10406">
        <ele>343.2</ele>
        <time>2022-06-06T13:15:23Z</time>
      </trkpt>
      <trkpt lat="47.66526" lon="5.10432">
        <ele>342.2</ele>
        <time>2022-06-06T13:15:26Z</time>
      </trkpt>
      <trkpt lat="47.66522" lon="5.1044">
        <ele>341.8</ele>
        <time>2022-06-06T13:15:27Z</time>
      </trkpt>
      <trkpt lat="47.66512" lon="5.10468">
        <ele>341.2</ele>
        <time>2022-06-06T13:15:31Z</time>
      </trkpt>
      <trkpt lat="47.66501" lon="5.10502">
        <ele>341.8</ele>
        <time>2022-06-06T13:15:37Z</time>
      </trkpt>
      <trkpt lat="47.66494" lon="5.10528">
        <ele>343.2</ele>
        <time>2022-06-06T13:15:42Z</time>
      </trkpt>
      <trkpt lat="47.66491" lon="5.10538">
        <ele>343.8</ele>
        <time>2022-06-06T13:15:44Z</time>
      </trkpt>
      <trkpt lat="47.66489" lon="5.10547">
        <ele>344.6</ele>
        <time>2022-06-06T13:15:46Z</time>
      </trkpt>
      <trkpt lat="47.66487" lon="5.10561">
        <ele>345.6</ele>
        <time>2022-06-06T13:15:49Z</time>
      </trkpt>
      <trkpt lat="47.66484" lon="5.10576">
        <ele>346.4</ele>
        <time>2022-06-06T13:15:52Z</time>
      </trkpt>
      <trkpt lat="47.66483" lon="5.1058">
        <ele>346.8</ele>
        <time>2022-06-06T13:15:53Z</time>
      </trkpt>
      <trkpt lat="47.66474" lon="5.10609">
        <ele>347.8</ele>
        <time>2022-06-06T13:15:59Z</time>
      </trkpt>
      <trkpt lat="47.66472" lon="5.10613">
        <ele>348</ele>
        <time>2022-06-06T13:16:00Z</time>
      </trkpt>
      <trkpt lat="47.66465" lon="5.10632">
        <ele>349.2</ele>
        <time>2022-06-06T13:16:04Z</time>
      </trkpt>
      <trkpt lat="47.66459" lon="5.10646">
        <ele>349.6</ele>
        <time>2022-06-06T13:16:07Z</time>
      </trkpt>
      <trkpt lat="47.66455" lon="5.1066">
        <ele>350.4</ele>
        <time>2022-06-06T13:16:10Z</time>
      </trkpt>
      <trkpt lat="47.66449" lon="5.10676">
        <ele>351.8</ele>
        <time>2022-06-06T13:16:14Z</time>
      </trkpt>
      <trkpt lat="47.66446" lon="5.10683">
        <ele>352.2</ele>
        <time>2022-06-06T13:16:16Z</time>
      </trkpt>
      <trkpt lat="47.66444" lon="5.10689">
        <ele>353.2</ele>
        <time>2022-06-06T13:16:18Z</time>
      </trkpt>
      <trkpt lat="47.6644" lon="5.10699">
        <ele>354.4</ele>
        <time>2022-06-06T13:16:21Z</time>
      </trkpt>
      <trkpt lat="47.66438" lon="5.10708">
        <ele>355.2</ele>
        <time>2022-06-06T13:16:24Z</time>
      </trkpt>
      <trkpt lat="47.66436" lon="5.10711">
        <ele>355.6</ele>
        <time>2022-06-06T13:16:25Z</time>
      </trkpt>
      <trkpt lat="47.66434" lon="5.10722">
        <ele>357.2</ele>
        <time>2022-06-06T13:16:29Z</time>
      </trkpt>
      <trkpt lat="47.66432" lon="5.10724">
        <ele>357.4</ele>
        <time>2022-06-06T13:16:30Z</time>
      </trkpt>
      <trkpt lat="47.66429" lon="5.10731">
        <ele>358.8</ele>
        <time>2022-06-06T13:16:33Z</time>
      </trkpt>
      <trkpt lat="47.66428" lon="5.10734">
        <ele>359.2</ele>
        <time>2022-06-06T13:16:34Z</time>
      </trkpt>
      <trkpt lat="47.66426" lon="5.10739">
        <ele>360.2</ele>
        <time>2022-06-06T13:16:36Z</time>
      </trkpt>
      <trkpt lat="47.66425" lon="5.10746">
        <ele>361</ele>
        <time>2022-06-06T13:16:39Z</time>
      </trkpt>
      <trkpt lat="47.66424" lon="5.10748">
        <ele>361.4</ele>
        <time>2022-06-06T13:16:40Z</time>
      </trkpt>
      <trkpt lat="47.66422" lon="5.10755">
        <ele>362.6</ele>
        <time>2022-06-06T13:16:43Z</time>
      </trkpt>
      <trkpt lat="47.6642" lon="5.10763">
        <ele>363.6</ele>
        <time>2022-06-06T13:16:46Z</time>
      </trkpt>
      <trkpt lat="47.66419" lon="5.10765">
        <ele>364</ele>
        <time>2022-06-06T13:16:47Z</time>
      </trkpt>
      <trkpt lat="47.66417" lon="5.1077">
        <ele>364.6</ele>
        <time>2022-06-06T13:16:49Z</time>
      </trkpt>
      <trkpt lat="47.66415" lon="5.10774">
        <ele>365.2</ele>
        <time>2022-06-06T13:16:51Z</time>
      </trkpt>
      <trkpt lat="47.66414" lon="5.10777">
        <ele>365.4</ele>
        <time>2022-06-06T13:16:52Z</time>
      </trkpt>
      <trkpt lat="47.66413" lon="5.10779">
        <ele>365.8</ele>
        <time>2022-06-06T13:16:53Z</time>
      </trkpt>
      <trkpt lat="47.66413" lon="5.10781">
        <ele>366.4</ele>
        <time>2022-06-06T13:16:54Z</time>
      </trkpt>
      <trkpt lat="47.6641" lon="5.10787">
        <ele>367</ele>
        <time>2022-06-06T13:16:57Z</time>
      </trkpt>
      <trkpt lat="47.66409" lon="5.10789">
        <ele>367.2</ele>
        <time>2022-06-06T13:16:58Z</time>
      </trkpt>
      <trkpt lat="47.66408" lon="5.10794">
        <ele>367.8</ele>
        <time>2022-06-06T13:17:00Z</time>
      </trkpt>
      <trkpt lat="47.66405" lon="5.108">
        <ele>368.4</ele>
        <time>2022-06-06T13:17:03Z</time>
      </trkpt>
      <trkpt lat="47.66404" lon="5.10805">
        <ele>369</ele>
        <time>2022-06-06T13:17:05Z</time>
      </trkpt>
      <trkpt lat="47.66403" lon="5.10812">
        <ele>369.6</ele>
        <time>2022-06-06T13:17:08Z</time>
      </trkpt>
      <trkpt lat="47.66402" lon="5.10814">
        <ele>370.2</ele>
        <time>2022-06-06T13:17:09Z</time>
      </trkpt>
      <trkpt lat="47.664" lon="5.10818">
        <ele>370.8</ele>
        <time>2022-06-06T13:17:11Z</time>
      </trkpt>
      <trkpt lat="47.66398" lon="5.10823">
        <ele>371.4</ele>
        <time>2022-06-06T13:17:14Z</time>
      </trkpt>
      <trkpt lat="47.66394" lon="5.10834">
        <ele>372.6</ele>
        <time>2022-06-06T13:17:19Z</time>
      </trkpt>
      <trkpt lat="47.6639" lon="5.10842">
        <ele>373.4</ele>
        <time>2022-06-06T13:17:23Z</time>
      </trkpt>
      <trkpt lat="47.66389" lon="5.10844">
        <ele>373.6</ele>
        <time>2022-06-06T13:17:24Z</time>
      </trkpt>
      <trkpt lat="47.66388" lon="5.10845">
        <ele>374</ele>
        <time>2022-06-06T13:17:25Z</time>
      </trkpt>
      <trkpt lat="47.66387" lon="5.10847">
        <ele>374</ele>
        <time>2022-06-06T13:17:26Z</time>
      </trkpt>
      <trkpt lat="47.66383" lon="5.10852">
        <ele>374.8</ele>
        <time>2022-06-06T13:17:29Z</time>
      </trkpt>
      <trkpt lat="47.66382" lon="5.10856">
        <ele>375.2</ele>
        <time>2022-06-06T13:17:31Z</time>
      </trkpt>
      <trkpt lat="47.66379" lon="5.10862">
        <ele>376</ele>
        <time>2022-06-06T13:17:34Z</time>
      </trkpt>
      <trkpt lat="47.66377" lon="5.10866">
        <ele>376.6</ele>
        <time>2022-06-06T13:17:36Z</time>
      </trkpt>
      <trkpt lat="47.66375" lon="5.1087">
        <ele>377</ele>
        <time>2022-06-06T13:17:38Z</time>
      </trkpt>
      <trkpt lat="47.66372" lon="5.10876">
        <ele>377.6</ele>
        <time>2022-06-06T13:17:41Z</time>
      </trkpt>
      <trkpt lat="47.66371" lon="5.1088">
        <ele>378.2</ele>
        <time>2022-06-06T13:17:43Z</time>
      </trkpt>
      <trkpt lat="47.6637" lon="5.10882">
        <ele>378.2</ele>
        <time>2022-06-06T13:17:44Z</time>
      </trkpt>
      <trkpt lat="47.66366" lon="5.10886">
        <ele>379</ele>
        <time>2022-06-06T13:17:47Z</time>
      </trkpt>
      <trkpt lat="47.66364" lon="5.1089">
        <ele>379.4</ele>
        <time>2022-06-06T13:17:49Z</time>
      </trkpt>
      <trkpt lat="47.66363" lon="5.10892">
        <ele>379.8</ele>
        <time>2022-06-06T13:17:50Z</time>
      </trkpt>
      <trkpt lat="47.66362" lon="5.10894">
        <ele>379.8</ele>
        <time>2022-06-06T13:17:51Z</time>
      </trkpt>
      <trkpt lat="47.66361" lon="5.10895">
        <ele>380.2</ele>
        <time>2022-06-06T13:17:52Z</time>
      </trkpt>
      <trkpt lat="47.66357" lon="5.10902">
        <ele>381.2</ele>
        <time>2022-06-06T13:17:56Z</time>
      </trkpt>
      <trkpt lat="47.66354" lon="5.10905">
        <ele>381.6</ele>
        <time>2022-06-06T13:17:58Z</time>
      </trkpt>
      <trkpt lat="47.66347" lon="5.1091">
        <ele>382.4</ele>
        <time>2022-06-06T13:18:02Z</time>
      </trkpt>
      <trkpt lat="47.66341" lon="5.10916">
        <ele>383.4</ele>
        <time>2022-06-06T13:18:06Z</time>
      </trkpt>
      <trkpt lat="47.66339" lon="5.10917">
        <ele>383.8</ele>
        <time>2022-06-06T13:18:07Z</time>
      </trkpt>
      <trkpt lat="47.66333" lon="5.10922">
        <ele>384.6</ele>
        <time>2022-06-06T13:18:11Z</time>
      </trkpt>
      <trkpt lat="47.66332" lon="5.10923">
        <ele>384.8</ele>
        <time>2022-06-06T13:18:12Z</time>
      </trkpt>
      <trkpt lat="47.66325" lon="5.10929">
        <ele>385.8</ele>
        <time>2022-06-06T13:18:17Z</time>
      </trkpt>
      <trkpt lat="47.66323" lon="5.10931">
        <ele>386.4</ele>
        <time>2022-06-06T13:18:19Z</time>
      </trkpt>
      <trkpt lat="47.66319" lon="5.10935">
        <ele>387</ele>
        <time>2022-06-06T13:18:22Z</time>
      </trkpt>
      <trkpt lat="47.66316" lon="5.10936">
        <ele>387.6</ele>
        <time>2022-06-06T13:18:25Z</time>
      </trkpt>
      <trkpt lat="47.66313" lon="5.10938">
        <ele>387.8</ele>
        <time>2022-06-06T13:18:27Z</time>
      </trkpt>
      <trkpt lat="47.66312" lon="5.10938">
        <ele>388.2</ele>
        <time>2022-06-06T13:18:28Z</time>
      </trkpt>
      <trkpt lat="47.66308" lon="5.1094">
        <ele>388.4</ele>
        <time>2022-06-06T13:18:30Z</time>
      </trkpt>
      <trkpt lat="47.66305" lon="5.10942">
        <ele>389.2</ele>
        <time>2022-06-06T13:18:33Z</time>
      </trkpt>
      <trkpt lat="47.66299" lon="5.10945">
        <ele>390</ele>
        <time>2022-06-06T13:18:36Z</time>
      </trkpt>
      <trkpt lat="47.66298" lon="5.10946">
        <ele>390.2</ele>
        <time>2022-06-06T13:18:37Z</time>
      </trkpt>
      <trkpt lat="47.66294" lon="5.10947">
        <ele>391</ele>
        <time>2022-06-06T13:18:40Z</time>
      </trkpt>
      <trkpt lat="47.66293" lon="5.10948">
        <ele>391.6</ele>
        <time>2022-06-06T13:18:42Z</time>
      </trkpt>
      <trkpt lat="47.66292" lon="5.10949">
        <ele>391.8</ele>
        <time>2022-06-06T13:18:43Z</time>
      </trkpt>
      <trkpt lat="47.6629" lon="5.10949">
        <ele>393</ele>
        <time>2022-06-06T13:18:47Z</time>
      </trkpt>
      <trkpt lat="47.66288" lon="5.10949">
        <ele>393.6</ele>
        <time>2022-06-06T13:18:49Z</time>
      </trkpt>
      <trkpt lat="47.66287" lon="5.1095">
        <ele>393.8</ele>
        <time>2022-06-06T13:18:50Z</time>
      </trkpt>
      <trkpt lat="47.66286" lon="5.10951">
        <ele>394</ele>
        <time>2022-06-06T13:18:51Z</time>
      </trkpt>
      <trkpt lat="47.66284" lon="5.10953">
        <ele>395</ele>
        <time>2022-06-06T13:18:55Z</time>
      </trkpt>
      <trkpt lat="47.66282" lon="5.10953">
        <ele>395.2</ele>
        <time>2022-06-06T13:18:56Z</time>
      </trkpt>
      <trkpt lat="47.66279" lon="5.10953">
        <ele>396.2</ele>
        <time>2022-06-06T13:18:59Z</time>
      </trkpt>
      <trkpt lat="47.66268" lon="5.10953">
        <ele>397.4</ele>
        <time>2022-06-06T13:19:03Z</time>
      </trkpt>
      <trkpt lat="47.66265" lon="5.10952">
        <ele>398</ele>
        <time>2022-06-06T13:19:05Z</time>
      </trkpt>
      <trkpt lat="47.66263" lon="5.10951">
        <ele>399</ele>
        <time>2022-06-06T13:19:07Z</time>
      </trkpt>
      <trkpt lat="47.6626" lon="5.10951">
        <ele>400</ele>
        <time>2022-06-06T13:19:11Z</time>
      </trkpt>
      <trkpt lat="47.66258" lon="5.1095">
        <ele>400.2</ele>
        <time>2022-06-06T13:19:12Z</time>
      </trkpt>
      <trkpt lat="47.66256" lon="5.10948">
        <ele>401</ele>
        <time>2022-06-06T13:19:14Z</time>
      </trkpt>
      <trkpt lat="47.66254" lon="5.10946">
        <ele>402.2</ele>
        <time>2022-06-06T13:19:18Z</time>
      </trkpt>
      <trkpt lat="47.66252" lon="5.10943">
        <ele>402.8</ele>
        <time>2022-06-06T13:19:20Z</time>
      </trkpt>
      <trkpt lat="47.66246" lon="5.1094">
        <ele>403.4</ele>
        <time>2022-06-06T13:19:23Z</time>
      </trkpt>
      <trkpt lat="47.66242" lon="5.10937">
        <ele>404</ele>
        <time>2022-06-06T13:19:26Z</time>
      </trkpt>
      <trkpt lat="47.66239" lon="5.10933">
        <ele>404.4</ele>
        <time>2022-06-06T13:19:28Z</time>
      </trkpt>
      <trkpt lat="47.66232" lon="5.1093">
        <ele>405</ele>
        <time>2022-06-06T13:19:30Z</time>
      </trkpt>
      <trkpt lat="47.66227" lon="5.10927">
        <ele>405.6</ele>
        <time>2022-06-06T13:19:31Z</time>
      </trkpt>
      <trkpt lat="47.66223" lon="5.10925">
        <ele>406.6</ele>
        <time>2022-06-06T13:19:35Z</time>
      </trkpt>
      <trkpt lat="47.66219" lon="5.10923">
        <ele>407.4</ele>
        <time>2022-06-06T13:19:38Z</time>
      </trkpt>
      <trkpt lat="47.66215" lon="5.10922">
        <ele>407.8</ele>
        <time>2022-06-06T13:19:40Z</time>
      </trkpt>
      <trkpt lat="47.66208" lon="5.10917">
        <ele>408.6</ele>
        <time>2022-06-06T13:19:44Z</time>
      </trkpt>
      <trkpt lat="47.66206" lon="5.10915">
        <ele>409</ele>
        <time>2022-06-06T13:19:45Z</time>
      </trkpt>
      <trkpt lat="47.66204" lon="5.10913">
        <ele>409.2</ele>
        <time>2022-06-06T13:19:46Z</time>
      </trkpt>
      <trkpt lat="47.66197" lon="5.10908">
        <ele>410</ele>
        <time>2022-06-06T13:19:49Z</time>
      </trkpt>
      <trkpt lat="47.66195" lon="5.10908">
        <ele>410</ele>
        <time>2022-06-06T13:19:50Z</time>
      </trkpt>
      <trkpt lat="47.66189" lon="5.10906">
        <ele>411</ele>
        <time>2022-06-06T13:19:54Z</time>
      </trkpt>
      <trkpt lat="47.66177" lon="5.10913">
        <ele>412.2</ele>
        <time>2022-06-06T13:19:59Z</time>
      </trkpt>
      <trkpt lat="47.66169" lon="5.10922">
        <ele>413.2</ele>
        <time>2022-06-06T13:20:04Z</time>
      </trkpt>
      <trkpt lat="47.66167" lon="5.10926">
        <ele>413.8</ele>
        <time>2022-06-06T13:20:06Z</time>
      </trkpt>
      <trkpt lat="47.66167" lon="5.10928">
        <ele>414.2</ele>
        <time>2022-06-06T13:20:07Z</time>
      </trkpt>
      <trkpt lat="47.66166" lon="5.1093">
        <ele>414.4</ele>
        <time>2022-06-06T13:20:08Z</time>
      </trkpt>
      <trkpt lat="47.66165" lon="5.10931">
        <ele>414.6</ele>
        <time>2022-06-06T13:20:09Z</time>
      </trkpt>
      <trkpt lat="47.66158" lon="5.10937">
        <ele>415.2</ele>
        <time>2022-06-06T13:20:12Z</time>
      </trkpt>
      <trkpt lat="47.66157" lon="5.1094">
        <ele>415.4</ele>
        <time>2022-06-06T13:20:13Z</time>
      </trkpt>
      <trkpt lat="47.66152" lon="5.1095">
        <ele>416.4</ele>
        <time>2022-06-06T13:20:16Z</time>
      </trkpt>
      <trkpt lat="47.66151" lon="5.10952">
        <ele>416.4</ele>
        <time>2022-06-06T13:20:17Z</time>
      </trkpt>
      <trkpt lat="47.6615" lon="5.10954">
        <ele>416.6</ele>
        <time>2022-06-06T13:20:18Z</time>
      </trkpt>
      <trkpt lat="47.66145" lon="5.10966">
        <ele>417.6</ele>
        <time>2022-06-06T13:20:23Z</time>
      </trkpt>
      <trkpt lat="47.66143" lon="5.10968">
        <ele>417.6</ele>
        <time>2022-06-06T13:20:24Z</time>
      </trkpt>
      <trkpt lat="47.66141" lon="5.10971">
        <ele>418.6</ele>
        <time>2022-06-06T13:20:27Z</time>
      </trkpt>
      <trkpt lat="47.6614" lon="5.10974">
        <ele>419.2</ele>
        <time>2022-06-06T13:20:29Z</time>
      </trkpt>
      <trkpt lat="47.66138" lon="5.10977">
        <ele>419.6</ele>
        <time>2022-06-06T13:20:31Z</time>
      </trkpt>
      <trkpt lat="47.66138" lon="5.10979">
        <ele>419.6</ele>
        <time>2022-06-06T13:20:32Z</time>
      </trkpt>
      <trkpt lat="47.66135" lon="5.10986">
        <ele>420.4</ele>
        <time>2022-06-06T13:20:35Z</time>
      </trkpt>
      <trkpt lat="47.66134" lon="5.10988">
        <ele>420.6</ele>
        <time>2022-06-06T13:20:36Z</time>
      </trkpt>
      <trkpt lat="47.66133" lon="5.1099">
        <ele>420.8</ele>
        <time>2022-06-06T13:20:37Z</time>
      </trkpt>
      <trkpt lat="47.66131" lon="5.10997">
        <ele>421.6</ele>
        <time>2022-06-06T13:20:42Z</time>
      </trkpt>
      <trkpt lat="47.6613" lon="5.11">
        <ele>422</ele>
        <time>2022-06-06T13:20:44Z</time>
      </trkpt>
      <trkpt lat="47.66129" lon="5.11006">
        <ele>423</ele>
        <time>2022-06-06T13:20:48Z</time>
      </trkpt>
      <trkpt lat="47.6612" lon="5.11013">
        <ele>424.2</ele>
        <time>2022-06-06T13:20:53Z</time>
      </trkpt>
      <trkpt lat="47.66108" lon="5.11015">
        <ele>425.2</ele>
        <time>2022-06-06T13:20:57Z</time>
      </trkpt>
      <trkpt lat="47.66101" lon="5.11014">
        <ele>426.2</ele>
        <time>2022-06-06T13:21:01Z</time>
      </trkpt>
      <trkpt lat="47.66099" lon="5.11014">
        <ele>426.4</ele>
        <time>2022-06-06T13:21:02Z</time>
      </trkpt>
      <trkpt lat="47.66092" lon="5.11015">
        <ele>427.4</ele>
        <time>2022-06-06T13:21:06Z</time>
      </trkpt>
      <trkpt lat="47.66091" lon="5.11015">
        <ele>427.6</ele>
        <time>2022-06-06T13:21:07Z</time>
      </trkpt>
      <trkpt lat="47.66083" lon="5.11014">
        <ele>428.4</ele>
        <time>2022-06-06T13:21:11Z</time>
      </trkpt>
      <trkpt lat="47.6608" lon="5.11014">
        <ele>428.8</ele>
        <time>2022-06-06T13:21:13Z</time>
      </trkpt>
      <trkpt lat="47.6607" lon="5.11012">
        <ele>429.4</ele>
        <time>2022-06-06T13:21:18Z</time>
      </trkpt>
      <trkpt lat="47.66063" lon="5.11012">
        <ele>429.8</ele>
        <time>2022-06-06T13:21:22Z</time>
      </trkpt>
      <trkpt lat="47.66042" lon="5.11013">
        <ele>430.6</ele>
        <time>2022-06-06T13:21:32Z</time>
      </trkpt>
      <trkpt lat="47.6603" lon="5.11018">
        <ele>431.4</ele>
        <time>2022-06-06T13:21:38Z</time>
      </trkpt>
      <trkpt lat="47.66026" lon="5.1102">
        <ele>431.6</ele>
        <time>2022-06-06T13:21:40Z</time>
      </trkpt>
      <trkpt lat="47.66009" lon="5.11029">
        <ele>432.4</ele>
        <time>2022-06-06T13:21:48Z</time>
      </trkpt>
      <trkpt lat="47.66007" lon="5.11031">
        <ele>432.4</ele>
        <time>2022-06-06T13:21:49Z</time>
      </trkpt>
      <trkpt lat="47.66" lon="5.11035">
        <ele>432.6</ele>
        <time>2022-06-06T13:21:52Z</time>
      </trkpt>
      <trkpt lat="47.65982" lon="5.11046">
        <ele>433.4</ele>
        <time>2022-06-06T13:22:00Z</time>
      </trkpt>
      <trkpt lat="47.6598" lon="5.11048">
        <ele>433.6</ele>
        <time>2022-06-06T13:22:01Z</time>
      </trkpt>
      <trkpt lat="47.65965" lon="5.11058">
        <ele>434.4</ele>
        <time>2022-06-06T13:22:08Z</time>
      </trkpt>
      <trkpt lat="47.65962" lon="5.11059">
        <ele>434.6</ele>
        <time>2022-06-06T13:22:09Z</time>
      </trkpt>
      <trkpt lat="47.65945" lon="5.11064">
        <ele>435.6</ele>
        <time>2022-06-06T13:22:16Z</time>
      </trkpt>
      <trkpt lat="47.6594" lon="5.11065">
        <ele>435.8</ele>
        <time>2022-06-06T13:22:18Z</time>
      </trkpt>
      <trkpt lat="47.65924" lon="5.11071">
        <ele>436.8</ele>
        <time>2022-06-06T13:22:25Z</time>
      </trkpt>
      <trkpt lat="47.65915" lon="5.11074">
        <ele>437.6</ele>
        <time>2022-06-06T13:22:29Z</time>
      </trkpt>
      <trkpt lat="47.65911" lon="5.11076">
        <ele>438</ele>
        <time>2022-06-06T13:22:31Z</time>
      </trkpt>
      <trkpt lat="47.65899" lon="5.11083">
        <ele>438.8</ele>
        <time>2022-06-06T13:22:36Z</time>
      </trkpt>
      <trkpt lat="47.65895" lon="5.11086">
        <ele>439.2</ele>
        <time>2022-06-06T13:22:38Z</time>
      </trkpt>
      <trkpt lat="47.65884" lon="5.11095">
        <ele>440.4</ele>
        <time>2022-06-06T13:22:43Z</time>
      </trkpt>
      <trkpt lat="47.65871" lon="5.11107">
        <ele>441.4</ele>
        <time>2022-06-06T13:22:49Z</time>
      </trkpt>
      <trkpt lat="47.65867" lon="5.11111">
        <ele>441.6</ele>
        <time>2022-06-06T13:22:51Z</time>
      </trkpt>
      <trkpt lat="47.65855" lon="5.11123">
        <ele>442.4</ele>
        <time>2022-06-06T13:22:57Z</time>
      </trkpt>
      <trkpt lat="47.65853" lon="5.11125">
        <ele>442.6</ele>
        <time>2022-06-06T13:22:58Z</time>
      </trkpt>
      <trkpt lat="47.65841" lon="5.1114">
        <ele>443.6</ele>
        <time>2022-06-06T13:23:04Z</time>
      </trkpt>
      <trkpt lat="47.65833" lon="5.1115">
        <ele>444.4</ele>
        <time>2022-06-06T13:23:08Z</time>
      </trkpt>
      <trkpt lat="47.65829" lon="5.11153">
        <ele>444.6</ele>
        <time>2022-06-06T13:23:10Z</time>
      </trkpt>
      <trkpt lat="47.65819" lon="5.11162">
        <ele>445.8</ele>
        <time>2022-06-06T13:23:15Z</time>
      </trkpt>
      <trkpt lat="47.65817" lon="5.11164">
        <ele>446</ele>
        <time>2022-06-06T13:23:16Z</time>
      </trkpt>
      <trkpt lat="47.65809" lon="5.1117">
        <ele>446.2</ele>
        <time>2022-06-06T13:23:20Z</time>
      </trkpt>
      <trkpt lat="47.65806" lon="5.11171">
        <ele>446.6</ele>
        <time>2022-06-06T13:23:21Z</time>
      </trkpt>
      <trkpt lat="47.65804" lon="5.11172">
        <ele>446.8</ele>
        <time>2022-06-06T13:23:22Z</time>
      </trkpt>
      <trkpt lat="47.6579" lon="5.11182">
        <ele>447.8</ele>
        <time>2022-06-06T13:23:28Z</time>
      </trkpt>
      <trkpt lat="47.65786" lon="5.11186">
        <ele>448</ele>
        <time>2022-06-06T13:23:30Z</time>
      </trkpt>
      <trkpt lat="47.65773" lon="5.11196">
        <ele>449</ele>
        <time>2022-06-06T13:23:36Z</time>
      </trkpt>
      <trkpt lat="47.65761" lon="5.11209">
        <ele>450.2</ele>
        <time>2022-06-06T13:23:42Z</time>
      </trkpt>
      <trkpt lat="47.65753" lon="5.11219">
        <ele>451.2</ele>
        <time>2022-06-06T13:23:46Z</time>
      </trkpt>
      <trkpt lat="47.65747" lon="5.11228">
        <ele>452.4</ele>
        <time>2022-06-06T13:23:50Z</time>
      </trkpt>
      <trkpt lat="47.65744" lon="5.11233">
        <ele>452.8</ele>
        <time>2022-06-06T13:23:52Z</time>
      </trkpt>
      <trkpt lat="47.65738" lon="5.11242">
        <ele>453.6</ele>
        <time>2022-06-06T13:23:56Z</time>
      </trkpt>
      <trkpt lat="47.65733" lon="5.11252">
        <ele>454.8</ele>
        <time>2022-06-06T13:24:00Z</time>
      </trkpt>
      <trkpt lat="47.65732" lon="5.11255">
        <ele>454.8</ele>
        <time>2022-06-06T13:24:01Z</time>
      </trkpt>
      <trkpt lat="47.65726" lon="5.11263">
        <ele>455.8</ele>
        <time>2022-06-06T13:24:05Z</time>
      </trkpt>
      <trkpt lat="47.65724" lon="5.11268">
        <ele>456.6</ele>
        <time>2022-06-06T13:24:07Z</time>
      </trkpt>
      <trkpt lat="47.65721" lon="5.11273">
        <ele>457</ele>
        <time>2022-06-06T13:24:09Z</time>
      </trkpt>
      <trkpt lat="47.6572" lon="5.11278">
        <ele>457.4</ele>
        <time>2022-06-06T13:24:11Z</time>
      </trkpt>
      <trkpt lat="47.65717" lon="5.11283">
        <ele>457.8</ele>
        <time>2022-06-06T13:24:13Z</time>
      </trkpt>
      <trkpt lat="47.65716" lon="5.11285">
        <ele>458</ele>
        <time>2022-06-06T13:24:14Z</time>
      </trkpt>
      <trkpt lat="47.65713" lon="5.11292">
        <ele>458.2</ele>
        <time>2022-06-06T13:24:17Z</time>
      </trkpt>
      <trkpt lat="47.6571" lon="5.11295">
        <ele>458.6</ele>
        <time>2022-06-06T13:24:19Z</time>
      </trkpt>
      <trkpt lat="47.6571" lon="5.11297">
        <ele>458.6</ele>
        <time>2022-06-06T13:24:20Z</time>
      </trkpt>
      <trkpt lat="47.65705" lon="5.11307">
        <ele>459</ele>
        <time>2022-06-06T13:24:24Z</time>
      </trkpt>
      <trkpt lat="47.657" lon="5.1132">
        <ele>459.4</ele>
        <time>2022-06-06T13:24:29Z</time>
      </trkpt>
      <trkpt lat="47.65694" lon="5.11342">
        <ele>459.8</ele>
        <time>2022-06-06T13:24:37Z</time>
      </trkpt>
      <trkpt lat="47.65693" lon="5.11346">
        <ele>459.8</ele>
        <time>2022-06-06T13:24:38Z</time>
      </trkpt>
      <trkpt lat="47.65679" lon="5.11374">
        <ele>460.2</ele>
        <time>2022-06-06T13:24:47Z</time>
      </trkpt>
      <trkpt lat="47.65662" lon="5.11396">
        <ele>460.8</ele>
        <time>2022-06-06T13:24:56Z</time>
      </trkpt>
      <trkpt lat="47.6566" lon="5.11398">
        <ele>460.8</ele>
        <time>2022-06-06T13:24:57Z</time>
      </trkpt>
      <trkpt lat="47.65643" lon="5.11413">
        <ele>461.6</ele>
        <time>2022-06-06T13:25:05Z</time>
      </trkpt>
      <trkpt lat="47.65634" lon="5.1142">
        <ele>462</ele>
        <time>2022-06-06T13:25:09Z</time>
      </trkpt>
      <trkpt lat="47.6562" lon="5.11428">
        <ele>462.2</ele>
        <time>2022-06-06T13:25:14Z</time>
      </trkpt>
      <trkpt lat="47.65595" lon="5.11445">
        <ele>463</ele>
        <time>2022-06-06T13:25:22Z</time>
      </trkpt>
      <trkpt lat="47.65586" lon="5.11451">
        <ele>463.2</ele>
        <time>2022-06-06T13:25:25Z</time>
      </trkpt>
      <trkpt lat="47.65567" lon="5.11463">
        <ele>464</ele>
        <time>2022-06-06T13:25:31Z</time>
      </trkpt>
      <trkpt lat="47.65557" lon="5.1147">
        <ele>464.2</ele>
        <time>2022-06-06T13:25:34Z</time>
      </trkpt>
      <trkpt lat="47.6554" lon="5.11481">
        <ele>464.4</ele>
        <time>2022-06-06T13:25:39Z</time>
      </trkpt>
      <trkpt lat="47.65521" lon="5.11495">
        <ele>464.6</ele>
        <time>2022-06-06T13:25:44Z</time>
      </trkpt>
      <trkpt lat="47.65513" lon="5.115">
        <ele>464.6</ele>
        <time>2022-06-06T13:25:46Z</time>
      </trkpt>
      <trkpt lat="47.65479" lon="5.11524">
        <ele>464.8</ele>
        <time>2022-06-06T13:25:54Z</time>
      </trkpt>
      <trkpt lat="47.65458" lon="5.11537">
        <ele>465</ele>
        <time>2022-06-06T13:25:59Z</time>
      </trkpt>
      <trkpt lat="47.65451" lon="5.11541">
        <ele>465</ele>
        <time>2022-06-06T13:26:01Z</time>
      </trkpt>
      <trkpt lat="47.65444" lon="5.11547">
        <ele>465</ele>
        <time>2022-06-06T13:26:03Z</time>
      </trkpt>
      <trkpt lat="47.6544" lon="5.1155">
        <ele>465.2</ele>
        <time>2022-06-06T13:26:04Z</time>
      </trkpt>
      <trkpt lat="47.65432" lon="5.11556">
        <ele>465.6</ele>
        <time>2022-06-06T13:26:06Z</time>
      </trkpt>
      <trkpt lat="47.65429" lon="5.1156">
        <ele>465.6</ele>
        <time>2022-06-06T13:26:07Z</time>
      </trkpt>
      <trkpt lat="47.65401" lon="5.11583">
        <ele>465.6</ele>
        <time>2022-06-06T13:26:14Z</time>
      </trkpt>
      <trkpt lat="47.65388" lon="5.11593">
        <ele>465.8</ele>
        <time>2022-06-06T13:26:17Z</time>
      </trkpt>
      <trkpt lat="47.6538" lon="5.11599">
        <ele>466.2</ele>
        <time>2022-06-06T13:26:19Z</time>
      </trkpt>
      <trkpt lat="47.65376" lon="5.11603">
        <ele>466.4</ele>
        <time>2022-06-06T13:26:20Z</time>
      </trkpt>
      <trkpt lat="47.65372" lon="5.11606">
        <ele>466.4</ele>
        <time>2022-06-06T13:26:21Z</time>
      </trkpt>
      <trkpt lat="47.65339" lon="5.1163">
        <ele>467</ele>
        <time>2022-06-06T13:26:29Z</time>
      </trkpt>
      <trkpt lat="47.65327" lon="5.11638">
        <ele>467.4</ele>
        <time>2022-06-06T13:26:32Z</time>
      </trkpt>
      <trkpt lat="47.65308" lon="5.11651">
        <ele>467.8</ele>
        <time>2022-06-06T13:26:37Z</time>
      </trkpt>
      <trkpt lat="47.65304" lon="5.11653">
        <ele>468</ele>
        <time>2022-06-06T13:26:38Z</time>
      </trkpt>
      <trkpt lat="47.6529" lon="5.11661">
        <ele>468.6</ele>
        <time>2022-06-06T13:26:42Z</time>
      </trkpt>
      <trkpt lat="47.6528" lon="5.11667">
        <ele>469</ele>
        <time>2022-06-06T13:26:45Z</time>
      </trkpt>
      <trkpt lat="47.65258" lon="5.11677">
        <ele>469.4</ele>
        <time>2022-06-06T13:26:51Z</time>
      </trkpt>
      <trkpt lat="47.65247" lon="5.11683">
        <ele>469.6</ele>
        <time>2022-06-06T13:26:54Z</time>
      </trkpt>
      <trkpt lat="47.65237" lon="5.11687">
        <ele>469.6</ele>
        <time>2022-06-06T13:26:57Z</time>
      </trkpt>
      <trkpt lat="47.65219" lon="5.11696">
        <ele>469.6</ele>
        <time>2022-06-06T13:27:03Z</time>
      </trkpt>
      <trkpt lat="47.65209" lon="5.11701">
        <ele>469.4</ele>
        <time>2022-06-06T13:27:07Z</time>
      </trkpt>
      <trkpt lat="47.65204" lon="5.11701">
        <ele>469.4</ele>
        <time>2022-06-06T13:27:12Z</time>
      </trkpt>
      <trkpt lat="47.65204" lon="5.11701">
        <ele>469.6</ele>
        <time>2022-06-06T13:27:52Z</time>
      </trkpt>
      <trkpt lat="47.65202" lon="5.11701">
        <ele>469.6</ele>
        <time>2022-06-06T13:28:34Z</time>
      </trkpt>
      <trkpt lat="47.65197" lon="5.11701">
        <ele>469.4</ele>
        <time>2022-06-06T13:28:40Z</time>
      </trkpt>
      <trkpt lat="47.65195" lon="5.11703">
        <ele>469</ele>
        <time>2022-06-06T13:29:02Z</time>
      </trkpt>
      <trkpt lat="47.65184" lon="5.11708">
        <ele>469</ele>
        <time>2022-06-06T13:29:08Z</time>
      </trkpt>
      <trkpt lat="47.65168" lon="5.11717">
        <ele>469</ele>
        <time>2022-06-06T13:29:13Z</time>
      </trkpt>
      <trkpt lat="47.65159" lon="5.11724">
        <ele>468.6</ele>
        <time>2022-06-06T13:29:16Z</time>
      </trkpt>
      <trkpt lat="47.65145" lon="5.11732">
        <ele>468.4</ele>
        <time>2022-06-06T13:29:20Z</time>
      </trkpt>
      <trkpt lat="47.65115" lon="5.11751">
        <ele>468</ele>
        <time>2022-06-06T13:29:28Z</time>
      </trkpt>
      <trkpt lat="47.6511" lon="5.11755">
        <ele>468</ele>
        <time>2022-06-06T13:29:29Z</time>
      </trkpt>
      <trkpt lat="47.65091" lon="5.11768">
        <ele>467.6</ele>
        <time>2022-06-06T13:29:33Z</time>
      </trkpt>
      <trkpt lat="47.65075" lon="5.11777">
        <ele>467</ele>
        <time>2022-06-06T13:29:36Z</time>
      </trkpt>
      <trkpt lat="47.65063" lon="5.11782">
        <ele>466.6</ele>
        <time>2022-06-06T13:29:38Z</time>
      </trkpt>
      <trkpt lat="47.65057" lon="5.11784">
        <ele>466.4</ele>
        <time>2022-06-06T13:29:39Z</time>
      </trkpt>
      <trkpt lat="47.65038" lon="5.11788">
        <ele>466</ele>
        <time>2022-06-06T13:29:42Z</time>
      </trkpt>
      <trkpt lat="47.65018" lon="5.11792">
        <ele>465.2</ele>
        <time>2022-06-06T13:29:45Z</time>
      </trkpt>
      <trkpt lat="47.64987" lon="5.11799">
        <ele>464.2</ele>
        <time>2022-06-06T13:29:50Z</time>
      </trkpt>
      <trkpt lat="47.64933" lon="5.11811">
        <ele>463.6</ele>
        <time>2022-06-06T13:29:59Z</time>
      </trkpt>
      <trkpt lat="47.64927" lon="5.11813">
        <ele>463.6</ele>
        <time>2022-06-06T13:30:00Z</time>
      </trkpt>
      <trkpt lat="47.64874" lon="5.11825">
        <ele>464.2</ele>
        <time>2022-06-06T13:30:09Z</time>
      </trkpt>
      <trkpt lat="47.6483" lon="5.11833">
        <ele>464.6</ele>
        <time>2022-06-06T13:30:17Z</time>
      </trkpt>
      <trkpt lat="47.64815" lon="5.11839">
        <ele>464.8</ele>
        <time>2022-06-06T13:30:20Z</time>
      </trkpt>
      <trkpt lat="47.64804" lon="5.11842">
        <ele>465</ele>
        <time>2022-06-06T13:30:22Z</time>
      </trkpt>
      <trkpt lat="47.64789" lon="5.11845">
        <ele>465.2</ele>
        <time>2022-06-06T13:30:25Z</time>
      </trkpt>
      <trkpt lat="47.64762" lon="5.11851">
        <ele>465.4</ele>
        <time>2022-06-06T13:30:30Z</time>
      </trkpt>
      <trkpt lat="47.64726" lon="5.11859">
        <ele>466</ele>
        <time>2022-06-06T13:30:37Z</time>
      </trkpt>
      <trkpt lat="47.6471" lon="5.11862">
        <ele>466.2</ele>
        <time>2022-06-06T13:30:40Z</time>
      </trkpt>
      <trkpt lat="47.64687" lon="5.11869">
        <ele>466.8</ele>
        <time>2022-06-06T13:30:45Z</time>
      </trkpt>
      <trkpt lat="47.6468" lon="5.11878">
        <ele>467</ele>
        <time>2022-06-06T13:30:47Z</time>
      </trkpt>
      <trkpt lat="47.64678" lon="5.11885">
        <ele>467</ele>
        <time>2022-06-06T13:30:48Z</time>
      </trkpt>
      <trkpt lat="47.64667" lon="5.11935">
        <ele>467</ele>
        <time>2022-06-06T13:30:54Z</time>
      </trkpt>
      <trkpt lat="47.64657" lon="5.11984">
        <ele>466.2</ele>
        <time>2022-06-06T13:30:59Z</time>
      </trkpt>
      <trkpt lat="47.64646" lon="5.12041">
        <ele>465</ele>
        <time>2022-06-06T13:31:04Z</time>
      </trkpt>
      <trkpt lat="47.64644" lon="5.12053">
        <ele>464.8</ele>
        <time>2022-06-06T13:31:05Z</time>
      </trkpt>
      <trkpt lat="47.64635" lon="5.1209">
        <ele>463.6</ele>
        <time>2022-06-06T13:31:08Z</time>
      </trkpt>
      <trkpt lat="47.64627" lon="5.12123">
        <ele>462.2</ele>
        <time>2022-06-06T13:31:11Z</time>
      </trkpt>
      <trkpt lat="47.64625" lon="5.12134">
        <ele>461.8</ele>
        <time>2022-06-06T13:31:12Z</time>
      </trkpt>
      <trkpt lat="47.6462" lon="5.12155">
        <ele>461.2</ele>
        <time>2022-06-06T13:31:14Z</time>
      </trkpt>
      <trkpt lat="47.64612" lon="5.12193">
        <ele>461</ele>
        <time>2022-06-06T13:31:18Z</time>
      </trkpt>
      <trkpt lat="47.64599" lon="5.12245">
        <ele>461.6</ele>
        <time>2022-06-06T13:31:24Z</time>
      </trkpt>
      <trkpt lat="47.64593" lon="5.12268">
        <ele>462.4</ele>
        <time>2022-06-06T13:31:27Z</time>
      </trkpt>
      <trkpt lat="47.64586" lon="5.12302">
        <ele>463.2</ele>
        <time>2022-06-06T13:31:31Z</time>
      </trkpt>
      <trkpt lat="47.64584" lon="5.1231">
        <ele>463.4</ele>
        <time>2022-06-06T13:31:32Z</time>
      </trkpt>
      <trkpt lat="47.64578" lon="5.12321">
        <ele>463.8</ele>
        <time>2022-06-06T13:31:34Z</time>
      </trkpt>
      <trkpt lat="47.64574" lon="5.12324">
        <ele>464</ele>
        <time>2022-06-06T13:31:35Z</time>
      </trkpt>
      <trkpt lat="47.64559" lon="5.12327">
        <ele>464.4</ele>
        <time>2022-06-06T13:31:38Z</time>
      </trkpt>
      <trkpt lat="47.64546" lon="5.12332">
        <ele>465.2</ele>
        <time>2022-06-06T13:31:41Z</time>
      </trkpt>
      <trkpt lat="47.64542" lon="5.12334">
        <ele>465.6</ele>
        <time>2022-06-06T13:31:42Z</time>
      </trkpt>
      <trkpt lat="47.64524" lon="5.1234">
        <ele>466.8</ele>
        <time>2022-06-06T13:31:46Z</time>
      </trkpt>
      <trkpt lat="47.64517" lon="5.12343">
        <ele>467.8</ele>
        <time>2022-06-06T13:31:48Z</time>
      </trkpt>
      <trkpt lat="47.64509" lon="5.12346">
        <ele>468</ele>
        <time>2022-06-06T13:31:50Z</time>
      </trkpt>
      <trkpt lat="47.64496" lon="5.1235">
        <ele>468.8</ele>
        <time>2022-06-06T13:31:53Z</time>
      </trkpt>
      <trkpt lat="47.64473" lon="5.12358">
        <ele>469.8</ele>
        <time>2022-06-06T13:31:59Z</time>
      </trkpt>
      <trkpt lat="47.64468" lon="5.1236">
        <ele>470.4</ele>
        <time>2022-06-06T13:32:00Z</time>
      </trkpt>
      <trkpt lat="47.64453" lon="5.12365">
        <ele>471.4</ele>
        <time>2022-06-06T13:32:04Z</time>
      </trkpt>
      <trkpt lat="47.64435" lon="5.12372">
        <ele>472.2</ele>
        <time>2022-06-06T13:32:09Z</time>
      </trkpt>
      <trkpt lat="47.64427" lon="5.12375">
        <ele>472.4</ele>
        <time>2022-06-06T13:32:11Z</time>
      </trkpt>
      <trkpt lat="47.64399" lon="5.12385">
        <ele>473.6</ele>
        <time>2022-06-06T13:32:18Z</time>
      </trkpt>
      <trkpt lat="47.64391" lon="5.12387">
        <ele>473.8</ele>
        <time>2022-06-06T13:32:20Z</time>
      </trkpt>
      <trkpt lat="47.64367" lon="5.12396">
        <ele>474.6</ele>
        <time>2022-06-06T13:32:26Z</time>
      </trkpt>
      <trkpt lat="47.64352" lon="5.12401">
        <ele>474.8</ele>
        <time>2022-06-06T13:32:30Z</time>
      </trkpt>
      <trkpt lat="47.64309" lon="5.12415">
        <ele>475.4</ele>
        <time>2022-06-06T13:32:40Z</time>
      </trkpt>
      <trkpt lat="47.64293" lon="5.12417">
        <ele>475.4</ele>
        <time>2022-06-06T13:32:43Z</time>
      </trkpt>
      <trkpt lat="47.64274" lon="5.12415">
        <ele>475.4</ele>
        <time>2022-06-06T13:32:47Z</time>
      </trkpt>
      <trkpt lat="47.64228" lon="5.12415">
        <ele>475</ele>
        <time>2022-06-06T13:32:56Z</time>
      </trkpt>
      <trkpt lat="47.64205" lon="5.12417">
        <ele>474.2</ele>
        <time>2022-06-06T13:33:00Z</time>
      </trkpt>
      <trkpt lat="47.64198" lon="5.12421">
        <ele>474</ele>
        <time>2022-06-06T13:33:01Z</time>
      </trkpt>
      <trkpt lat="47.64186" lon="5.12428">
        <ele>473.4</ele>
        <time>2022-06-06T13:33:03Z</time>
      </trkpt>
      <trkpt lat="47.64179" lon="5.12432">
        <ele>473.2</ele>
        <time>2022-06-06T13:33:04Z</time>
      </trkpt>
      <trkpt lat="47.64165" lon="5.12437">
        <ele>473</ele>
        <time>2022-06-06T13:33:06Z</time>
      </trkpt>
      <trkpt lat="47.64143" lon="5.12441">
        <ele>471.8</ele>
        <time>2022-06-06T13:33:09Z</time>
      </trkpt>
      <trkpt lat="47.64127" lon="5.12442">
        <ele>471.2</ele>
        <time>2022-06-06T13:33:12Z</time>
      </trkpt>
      <trkpt lat="47.64111" lon="5.12443">
        <ele>471</ele>
        <time>2022-06-06T13:33:16Z</time>
      </trkpt>
      <trkpt lat="47.64106" lon="5.12443">
        <ele>471</ele>
        <time>2022-06-06T13:33:17Z</time>
      </trkpt>
      <trkpt lat="47.64102" lon="5.12442">
        <ele>471.2</ele>
        <time>2022-06-06T13:33:18Z</time>
      </trkpt>
      <trkpt lat="47.64093" lon="5.12442">
        <ele>471.4</ele>
        <time>2022-06-06T13:33:20Z</time>
      </trkpt>
      <trkpt lat="47.64085" lon="5.12443">
        <ele>471.6</ele>
        <time>2022-06-06T13:33:22Z</time>
      </trkpt>
      <trkpt lat="47.64072" lon="5.12444">
        <ele>472.8</ele>
        <time>2022-06-06T13:33:25Z</time>
      </trkpt>
      <trkpt lat="47.64063" lon="5.12445">
        <ele>473</ele>
        <time>2022-06-06T13:33:27Z</time>
      </trkpt>
      <trkpt lat="47.64054" lon="5.12446">
        <ele>473.4</ele>
        <time>2022-06-06T13:33:29Z</time>
      </trkpt>
      <trkpt lat="47.64029" lon="5.12448">
        <ele>474</ele>
        <time>2022-06-06T13:33:35Z</time>
      </trkpt>
      <trkpt lat="47.64021" lon="5.12448">
        <ele>474.6</ele>
        <time>2022-06-06T13:33:37Z</time>
      </trkpt>
      <trkpt lat="47.63995" lon="5.12448">
        <ele>475.2</ele>
        <time>2022-06-06T13:33:43Z</time>
      </trkpt>
      <trkpt lat="47.63988" lon="5.12448">
        <ele>475.4</ele>
        <time>2022-06-06T13:33:45Z</time>
      </trkpt>
      <trkpt lat="47.63979" lon="5.12448">
        <ele>475.6</ele>
        <time>2022-06-06T13:33:47Z</time>
      </trkpt>
      <trkpt lat="47.63963" lon="5.12449">
        <ele>476</ele>
        <time>2022-06-06T13:33:51Z</time>
      </trkpt>
      <trkpt lat="47.63945" lon="5.12446">
        <ele>476.2</ele>
        <time>2022-06-06T13:33:57Z</time>
      </trkpt>
      <trkpt lat="47.63923" lon="5.12445">
        <ele>476</ele>
        <time>2022-06-06T13:34:03Z</time>
      </trkpt>
      <trkpt lat="47.63901" lon="5.12443">
        <ele>476</ele>
        <time>2022-06-06T13:34:08Z</time>
      </trkpt>
      <trkpt lat="47.63871" lon="5.12448">
        <ele>476.2</ele>
        <time>2022-06-06T13:34:15Z</time>
      </trkpt>
      <trkpt lat="47.63838" lon="5.12453">
        <ele>476.2</ele>
        <time>2022-06-06T13:34:23Z</time>
      </trkpt>
      <trkpt lat="47.63816" lon="5.12456">
        <ele>476.4</ele>
        <time>2022-06-06T13:34:29Z</time>
      </trkpt>
      <trkpt lat="47.63805" lon="5.12457">
        <ele>476.6</ele>
        <time>2022-06-06T13:34:32Z</time>
      </trkpt>
      <trkpt lat="47.63797" lon="5.12456">
        <ele>476.8</ele>
        <time>2022-06-06T13:34:34Z</time>
      </trkpt>
      <trkpt lat="47.63789" lon="5.12456">
        <ele>477.2</ele>
        <time>2022-06-06T13:34:36Z</time>
      </trkpt>
      <trkpt lat="47.63775" lon="5.12457">
        <ele>477.6</ele>
        <time>2022-06-06T13:34:40Z</time>
      </trkpt>
      <trkpt lat="47.6374" lon="5.12459">
        <ele>477.8</ele>
        <time>2022-06-06T13:34:45Z</time>
      </trkpt>
      <trkpt lat="47.63727" lon="5.12459">
        <ele>477.8</ele>
        <time>2022-06-06T13:34:47Z</time>
      </trkpt>
      <trkpt lat="47.63716" lon="5.12458">
        <ele>477.8</ele>
        <time>2022-06-06T13:34:49Z</time>
      </trkpt>
      <trkpt lat="47.63709" lon="5.12459">
        <ele>477.6</ele>
        <time>2022-06-06T13:34:50Z</time>
      </trkpt>
      <trkpt lat="47.63675" lon="5.12468">
        <ele>477</ele>
        <time>2022-06-06T13:34:56Z</time>
      </trkpt>
      <trkpt lat="47.63662" lon="5.12468">
        <ele>476.6</ele>
        <time>2022-06-06T13:34:58Z</time>
      </trkpt>
      <trkpt lat="47.63649" lon="5.12471">
        <ele>475.6</ele>
        <time>2022-06-06T13:35:00Z</time>
      </trkpt>
      <trkpt lat="47.63625" lon="5.12473">
        <ele>474.6</ele>
        <time>2022-06-06T13:35:04Z</time>
      </trkpt>
      <trkpt lat="47.6361" lon="5.12475">
        <ele>474</ele>
        <time>2022-06-06T13:35:07Z</time>
      </trkpt>
      <trkpt lat="47.63598" lon="5.12475">
        <ele>473.4</ele>
        <time>2022-06-06T13:35:09Z</time>
      </trkpt>
      <trkpt lat="47.6359" lon="5.12476">
        <ele>473.2</ele>
        <time>2022-06-06T13:35:11Z</time>
      </trkpt>
      <trkpt lat="47.63584" lon="5.12476">
        <ele>473.2</ele>
        <time>2022-06-06T13:35:12Z</time>
      </trkpt>
      <trkpt lat="47.63579" lon="5.12476">
        <ele>472.8</ele>
        <time>2022-06-06T13:35:13Z</time>
      </trkpt>
      <trkpt lat="47.63567" lon="5.12477">
        <ele>472.6</ele>
        <time>2022-06-06T13:35:16Z</time>
      </trkpt>
      <trkpt lat="47.63545" lon="5.12478">
        <ele>472.6</ele>
        <time>2022-06-06T13:35:20Z</time>
      </trkpt>
      <trkpt lat="47.63541" lon="5.12478">
        <ele>472.6</ele>
        <time>2022-06-06T13:35:21Z</time>
      </trkpt>
      <trkpt lat="47.63522" lon="5.12483">
        <ele>473</ele>
        <time>2022-06-06T13:35:25Z</time>
      </trkpt>
      <trkpt lat="47.63493" lon="5.12483">
        <ele>473.2</ele>
        <time>2022-06-06T13:35:30Z</time>
      </trkpt>
      <trkpt lat="47.6348" lon="5.12481">
        <ele>473.2</ele>
        <time>2022-06-06T13:35:34Z</time>
      </trkpt>
      <trkpt lat="47.63449" lon="5.12485">
        <ele>473.6</ele>
        <time>2022-06-06T13:35:40Z</time>
      </trkpt>
      <trkpt lat="47.63425" lon="5.12484">
        <ele>474</ele>
        <time>2022-06-06T13:35:46Z</time>
      </trkpt>
      <trkpt lat="47.63402" lon="5.12482">
        <ele>474.2</ele>
        <time>2022-06-06T13:35:53Z</time>
      </trkpt>
      <trkpt lat="47.63385" lon="5.12481">
        <ele>474</ele>
        <time>2022-06-06T13:35:59Z</time>
      </trkpt>
      <trkpt lat="47.63366" lon="5.12477">
        <ele>474</ele>
        <time>2022-06-06T13:36:04Z</time>
      </trkpt>
      <trkpt lat="47.63343" lon="5.12474">
        <ele>473.8</ele>
        <time>2022-06-06T13:36:09Z</time>
      </trkpt>
      <trkpt lat="47.63336" lon="5.12473">
        <ele>473.8</ele>
        <time>2022-06-06T13:36:11Z</time>
      </trkpt>
      <trkpt lat="47.63322" lon="5.12469">
        <ele>473.8</ele>
        <time>2022-06-06T13:36:15Z</time>
      </trkpt>
      <trkpt lat="47.63319" lon="5.12469">
        <ele>474</ele>
        <time>2022-06-06T13:36:16Z</time>
      </trkpt>
      <trkpt lat="47.63298" lon="5.12467">
        <ele>474.4</ele>
        <time>2022-06-06T13:36:22Z</time>
      </trkpt>
      <trkpt lat="47.63284" lon="5.12462">
        <ele>474.4</ele>
        <time>2022-06-06T13:36:27Z</time>
      </trkpt>
      <trkpt lat="47.63274" lon="5.1246">
        <ele>474.4</ele>
        <time>2022-06-06T13:36:29Z</time>
      </trkpt>
      <trkpt lat="47.63253" lon="5.12462">
        <ele>474</ele>
        <time>2022-06-06T13:36:36Z</time>
      </trkpt>
      <trkpt lat="47.63241" lon="5.12458">
        <ele>473.8</ele>
        <time>2022-06-06T13:36:41Z</time>
      </trkpt>
      <trkpt lat="47.63224" lon="5.12456">
        <ele>473.8</ele>
        <time>2022-06-06T13:36:47Z</time>
      </trkpt>
      <trkpt lat="47.63205" lon="5.12446">
        <ele>473.6</ele>
        <time>2022-06-06T13:36:53Z</time>
      </trkpt>
      <trkpt lat="47.63188" lon="5.12437">
        <ele>473.2</ele>
        <time>2022-06-06T13:36:59Z</time>
      </trkpt>
      <trkpt lat="47.6317" lon="5.12431">
        <ele>473</ele>
        <time>2022-06-06T13:37:03Z</time>
      </trkpt>
      <trkpt lat="47.63168" lon="5.1243">
        <ele>472.8</ele>
        <time>2022-06-06T13:37:04Z</time>
      </trkpt>
      <trkpt lat="47.63152" lon="5.12421">
        <ele>472.2</ele>
        <time>2022-06-06T13:37:09Z</time>
      </trkpt>
      <trkpt lat="47.63147" lon="5.12418">
        <ele>472</ele>
        <time>2022-06-06T13:37:10Z</time>
      </trkpt>
      <trkpt lat="47.63127" lon="5.12406">
        <ele>471.8</ele>
        <time>2022-06-06T13:37:15Z</time>
      </trkpt>
      <trkpt lat="47.63105" lon="5.12394">
        <ele>471.6</ele>
        <time>2022-06-06T13:37:22Z</time>
      </trkpt>
      <trkpt lat="47.63093" lon="5.12385">
        <ele>471</ele>
        <time>2022-06-06T13:37:26Z</time>
      </trkpt>
      <trkpt lat="47.6308" lon="5.12382">
        <ele>470.6</ele>
        <time>2022-06-06T13:37:29Z</time>
      </trkpt>
      <trkpt lat="47.63049" lon="5.12366">
        <ele>470.2</ele>
        <time>2022-06-06T13:37:35Z</time>
      </trkpt>
      <trkpt lat="47.63033" lon="5.12352">
        <ele>469.8</ele>
        <time>2022-06-06T13:37:38Z</time>
      </trkpt>
      <trkpt lat="47.63028" lon="5.12349">
        <ele>469.6</ele>
        <time>2022-06-06T13:37:40Z</time>
      </trkpt>
      <trkpt lat="47.63012" lon="5.12343">
        <ele>469</ele>
        <time>2022-06-06T13:37:45Z</time>
      </trkpt>
      <trkpt lat="47.62996" lon="5.12333">
        <ele>468.8</ele>
        <time>2022-06-06T13:37:49Z</time>
      </trkpt>
      <trkpt lat="47.62992" lon="5.1233">
        <ele>468.8</ele>
        <time>2022-06-06T13:37:50Z</time>
      </trkpt>
      <trkpt lat="47.62966" lon="5.12315">
        <ele>468.2</ele>
        <time>2022-06-06T13:37:57Z</time>
      </trkpt>
      <trkpt lat="47.62932" lon="5.12293">
        <ele>468</ele>
        <time>2022-06-06T13:38:04Z</time>
      </trkpt>
      <trkpt lat="47.62895" lon="5.12267">
        <ele>467.8</ele>
        <time>2022-06-06T13:38:11Z</time>
      </trkpt>
      <trkpt lat="47.62886" lon="5.1226">
        <ele>467.6</ele>
        <time>2022-06-06T13:38:13Z</time>
      </trkpt>
      <trkpt lat="47.62848" lon="5.12237">
        <ele>466.6</ele>
        <time>2022-06-06T13:38:21Z</time>
      </trkpt>
      <trkpt lat="47.62835" lon="5.12229">
        <ele>466.4</ele>
        <time>2022-06-06T13:38:24Z</time>
      </trkpt>
      <trkpt lat="47.6281" lon="5.12212">
        <ele>466.2</ele>
        <time>2022-06-06T13:38:30Z</time>
      </trkpt>
      <trkpt lat="47.62789" lon="5.122">
        <ele>466.2</ele>
        <time>2022-06-06T13:38:35Z</time>
      </trkpt>
      <trkpt lat="47.62749" lon="5.12173">
        <ele>466.4</ele>
        <time>2022-06-06T13:38:43Z</time>
      </trkpt>
      <trkpt lat="47.62735" lon="5.12164">
        <ele>466.4</ele>
        <time>2022-06-06T13:38:46Z</time>
      </trkpt>
      <trkpt lat="47.62717" lon="5.12153">
        <ele>466.4</ele>
        <time>2022-06-06T13:38:50Z</time>
      </trkpt>
      <trkpt lat="47.62687" lon="5.12134">
        <ele>466.4</ele>
        <time>2022-06-06T13:38:56Z</time>
      </trkpt>
      <trkpt lat="47.62648" lon="5.1211">
        <ele>466.4</ele>
        <time>2022-06-06T13:39:03Z</time>
      </trkpt>
      <trkpt lat="47.62645" lon="5.12108">
        <ele>466.2</ele>
        <time>2022-06-06T13:39:04Z</time>
      </trkpt>
      <trkpt lat="47.62617" lon="5.12088">
        <ele>465.8</ele>
        <time>2022-06-06T13:39:10Z</time>
      </trkpt>
      <trkpt lat="47.62591" lon="5.12071">
        <ele>465.6</ele>
        <time>2022-06-06T13:39:15Z</time>
      </trkpt>
      <trkpt lat="47.62586" lon="5.12068">
        <ele>465.4</ele>
        <time>2022-06-06T13:39:16Z</time>
      </trkpt>
      <trkpt lat="47.62549" lon="5.12047">
        <ele>465</ele>
        <time>2022-06-06T13:39:22Z</time>
      </trkpt>
      <trkpt lat="47.6252" lon="5.12028">
        <ele>464.4</ele>
        <time>2022-06-06T13:39:27Z</time>
      </trkpt>
      <trkpt lat="47.62513" lon="5.12024">
        <ele>464.2</ele>
        <time>2022-06-06T13:39:28Z</time>
      </trkpt>
      <trkpt lat="47.62469" lon="5.12">
        <ele>463</ele>
        <time>2022-06-06T13:39:34Z</time>
      </trkpt>
      <trkpt lat="47.62424" lon="5.11977">
        <ele>462</ele>
        <time>2022-06-06T13:39:40Z</time>
      </trkpt>
      <trkpt lat="47.62405" lon="5.11967">
        <ele>461.2</ele>
        <time>2022-06-06T13:39:43Z</time>
      </trkpt>
      <trkpt lat="47.62389" lon="5.1196">
        <ele>461</ele>
        <time>2022-06-06T13:39:45Z</time>
      </trkpt>
      <trkpt lat="47.62373" lon="5.11953">
        <ele>460.8</ele>
        <time>2022-06-06T13:39:47Z</time>
      </trkpt>
      <trkpt lat="47.6236" lon="5.11949">
        <ele>460.6</ele>
        <time>2022-06-06T13:39:49Z</time>
      </trkpt>
      <trkpt lat="47.62338" lon="5.11948">
        <ele>459.4</ele>
        <time>2022-06-06T13:39:52Z</time>
      </trkpt>
      <trkpt lat="47.62331" lon="5.11948">
        <ele>459.2</ele>
        <time>2022-06-06T13:39:53Z</time>
      </trkpt>
      <trkpt lat="47.62324" lon="5.1195">
        <ele>459</ele>
        <time>2022-06-06T13:39:54Z</time>
      </trkpt>
      <trkpt lat="47.62297" lon="5.11955">
        <ele>458.4</ele>
        <time>2022-06-06T13:39:58Z</time>
      </trkpt>
      <trkpt lat="47.62278" lon="5.11958">
        <ele>457.8</ele>
        <time>2022-06-06T13:40:01Z</time>
      </trkpt>
      <trkpt lat="47.62272" lon="5.11959">
        <ele>457.8</ele>
        <time>2022-06-06T13:40:02Z</time>
      </trkpt>
      <trkpt lat="47.62252" lon="5.11961">
        <ele>457.4</ele>
        <time>2022-06-06T13:40:05Z</time>
      </trkpt>
      <trkpt lat="47.62246" lon="5.11962">
        <ele>457.4</ele>
        <time>2022-06-06T13:40:06Z</time>
      </trkpt>
      <trkpt lat="47.62217" lon="5.11967">
        <ele>457.2</ele>
        <time>2022-06-06T13:40:10Z</time>
      </trkpt>
      <trkpt lat="47.6221" lon="5.11969">
        <ele>457.2</ele>
        <time>2022-06-06T13:40:11Z</time>
      </trkpt>
      <trkpt lat="47.62171" lon="5.11986">
        <ele>457.2</ele>
        <time>2022-06-06T13:40:16Z</time>
      </trkpt>
      <trkpt lat="47.62145" lon="5.11997">
        <ele>456.4</ele>
        <time>2022-06-06T13:40:19Z</time>
      </trkpt>
      <trkpt lat="47.62138" lon="5.11998">
        <ele>456.2</ele>
        <time>2022-06-06T13:40:20Z</time>
      </trkpt>
      <trkpt lat="47.6213" lon="5.11997">
        <ele>455.6</ele>
        <time>2022-06-06T13:40:21Z</time>
      </trkpt>
      <trkpt lat="47.62119" lon="5.11993">
        <ele>455</ele>
        <time>2022-06-06T13:40:23Z</time>
      </trkpt>
      <trkpt lat="47.62115" lon="5.11991">
        <ele>454.6</ele>
        <time>2022-06-06T13:40:24Z</time>
      </trkpt>
      <trkpt lat="47.62101" lon="5.11992">
        <ele>454</ele>
        <time>2022-06-06T13:40:28Z</time>
      </trkpt>
      <trkpt lat="47.62094" lon="5.11998">
        <ele>453.8</ele>
        <time>2022-06-06T13:40:30Z</time>
      </trkpt>
      <trkpt lat="47.62083" lon="5.12008">
        <ele>453.4</ele>
        <time>2022-06-06T13:40:33Z</time>
      </trkpt>
      <trkpt lat="47.62059" lon="5.12033">
        <ele>453.4</ele>
        <time>2022-06-06T13:40:39Z</time>
      </trkpt>
      <trkpt lat="47.62051" lon="5.12042">
        <ele>453.4</ele>
        <time>2022-06-06T13:40:41Z</time>
      </trkpt>
      <trkpt lat="47.62018" lon="5.12079">
        <ele>453.8</ele>
        <time>2022-06-06T13:40:50Z</time>
      </trkpt>
      <trkpt lat="47.61993" lon="5.12106">
        <ele>454.6</ele>
        <time>2022-06-06T13:40:57Z</time>
      </trkpt>
      <trkpt lat="47.6199" lon="5.12111">
        <ele>454.6</ele>
        <time>2022-06-06T13:40:58Z</time>
      </trkpt>
      <trkpt lat="47.61977" lon="5.12129">
        <ele>455</ele>
        <time>2022-06-06T13:41:02Z</time>
      </trkpt>
      <trkpt lat="47.6197" lon="5.12138">
        <ele>455.6</ele>
        <time>2022-06-06T13:41:04Z</time>
      </trkpt>
      <trkpt lat="47.61964" lon="5.1215">
        <ele>456</ele>
        <time>2022-06-06T13:41:06Z</time>
      </trkpt>
      <trkpt lat="47.61961" lon="5.12155">
        <ele>456</ele>
        <time>2022-06-06T13:41:07Z</time>
      </trkpt>
      <trkpt lat="47.61937" lon="5.12198">
        <ele>456.6</ele>
        <time>2022-06-06T13:41:15Z</time>
      </trkpt>
      <trkpt lat="47.61917" lon="5.12236">
        <ele>457</ele>
        <time>2022-06-06T13:41:22Z</time>
      </trkpt>
      <trkpt lat="47.61906" lon="5.12259">
        <ele>457.2</ele>
        <time>2022-06-06T13:41:26Z</time>
      </trkpt>
      <trkpt lat="47.61876" lon="5.12325">
        <ele>457.8</ele>
        <time>2022-06-06T13:41:36Z</time>
      </trkpt>
      <trkpt lat="47.61864" lon="5.12352">
        <ele>458</ele>
        <time>2022-06-06T13:41:40Z</time>
      </trkpt>
      <trkpt lat="47.61851" lon="5.12378">
        <ele>458.4</ele>
        <time>2022-06-06T13:41:44Z</time>
      </trkpt>
      <trkpt lat="47.61827" lon="5.1243">
        <ele>458.8</ele>
        <time>2022-06-06T13:41:52Z</time>
      </trkpt>
      <trkpt lat="47.61821" lon="5.12444">
        <ele>459</ele>
        <time>2022-06-06T13:41:54Z</time>
      </trkpt>
      <trkpt lat="47.61808" lon="5.12468">
        <ele>459.4</ele>
        <time>2022-06-06T13:41:58Z</time>
      </trkpt>
      <trkpt lat="47.61806" lon="5.12476">
        <ele>459.4</ele>
        <time>2022-06-06T13:41:59Z</time>
      </trkpt>
      <trkpt lat="47.61801" lon="5.12493">
        <ele>459.6</ele>
        <time>2022-06-06T13:42:01Z</time>
      </trkpt>
      <trkpt lat="47.61794" lon="5.12508">
        <ele>459.6</ele>
        <time>2022-06-06T13:42:03Z</time>
      </trkpt>
      <trkpt lat="47.61792" lon="5.12516">
        <ele>459.8</ele>
        <time>2022-06-06T13:42:04Z</time>
      </trkpt>
      <trkpt lat="47.61785" lon="5.12528">
        <ele>459.8</ele>
        <time>2022-06-06T13:42:06Z</time>
      </trkpt>
      <trkpt lat="47.61782" lon="5.12535">
        <ele>459.8</ele>
        <time>2022-06-06T13:42:07Z</time>
      </trkpt>
      <trkpt lat="47.61771" lon="5.12556">
        <ele>459.8</ele>
        <time>2022-06-06T13:42:10Z</time>
      </trkpt>
      <trkpt lat="47.6176" lon="5.12575">
        <ele>460</ele>
        <time>2022-06-06T13:42:13Z</time>
      </trkpt>
      <trkpt lat="47.61741" lon="5.12614">
        <ele>460</ele>
        <time>2022-06-06T13:42:19Z</time>
      </trkpt>
      <trkpt lat="47.61738" lon="5.12619">
        <ele>460</ele>
        <time>2022-06-06T13:42:20Z</time>
      </trkpt>
      <trkpt lat="47.61732" lon="5.12635">
        <ele>460</ele>
        <time>2022-06-06T13:42:22Z</time>
      </trkpt>
      <trkpt lat="47.61726" lon="5.12649">
        <ele>460</ele>
        <time>2022-06-06T13:42:24Z</time>
      </trkpt>
      <trkpt lat="47.61709" lon="5.12684">
        <ele>459.8</ele>
        <time>2022-06-06T13:42:30Z</time>
      </trkpt>
      <trkpt lat="47.61705" lon="5.1269">
        <ele>459.8</ele>
        <time>2022-06-06T13:42:31Z</time>
      </trkpt>
      <trkpt lat="47.61702" lon="5.12704">
        <ele>459.8</ele>
        <time>2022-06-06T13:42:33Z</time>
      </trkpt>
      <trkpt lat="47.61687" lon="5.12766">
        <ele>459.2</ele>
        <time>2022-06-06T13:42:41Z</time>
      </trkpt>
      <trkpt lat="47.61682" lon="5.12781">
        <ele>459</ele>
        <time>2022-06-06T13:42:43Z</time>
      </trkpt>
      <trkpt lat="47.61678" lon="5.12795">
        <ele>458.8</ele>
        <time>2022-06-06T13:42:45Z</time>
      </trkpt>
      <trkpt lat="47.61674" lon="5.128">
        <ele>458.8</ele>
        <time>2022-06-06T13:42:46Z</time>
      </trkpt>
      <trkpt lat="47.61671" lon="5.12803">
        <ele>458.6</ele>
        <time>2022-06-06T13:42:47Z</time>
      </trkpt>
      <trkpt lat="47.61663" lon="5.12806">
        <ele>458.4</ele>
        <time>2022-06-06T13:42:49Z</time>
      </trkpt>
      <trkpt lat="47.61657" lon="5.12808">
        <ele>458</ele>
        <time>2022-06-06T13:42:51Z</time>
      </trkpt>
      <trkpt lat="47.61652" lon="5.12814">
        <ele>457.8</ele>
        <time>2022-06-06T13:42:53Z</time>
      </trkpt>
      <trkpt lat="47.61635" lon="5.12846">
        <ele>457.8</ele>
        <time>2022-06-06T13:43:00Z</time>
      </trkpt>
      <trkpt lat="47.61627" lon="5.12865">
        <ele>457.8</ele>
        <time>2022-06-06T13:43:03Z</time>
      </trkpt>
      <trkpt lat="47.61625" lon="5.12872">
        <ele>457.8</ele>
        <time>2022-06-06T13:43:04Z</time>
      </trkpt>
      <trkpt lat="47.61618" lon="5.12883">
        <ele>457.8</ele>
        <time>2022-06-06T13:43:06Z</time>
      </trkpt>
      <trkpt lat="47.61609" lon="5.12897">
        <ele>457.8</ele>
        <time>2022-06-06T13:43:08Z</time>
      </trkpt>
      <trkpt lat="47.61599" lon="5.12919">
        <ele>457.4</ele>
        <time>2022-06-06T13:43:11Z</time>
      </trkpt>
      <trkpt lat="47.61591" lon="5.12931">
        <ele>456.8</ele>
        <time>2022-06-06T13:43:13Z</time>
      </trkpt>
      <trkpt lat="47.61581" lon="5.12951">
        <ele>456.6</ele>
        <time>2022-06-06T13:43:16Z</time>
      </trkpt>
      <trkpt lat="47.61575" lon="5.12963">
        <ele>456.4</ele>
        <time>2022-06-06T13:43:18Z</time>
      </trkpt>
      <trkpt lat="47.61564" lon="5.12995">
        <ele>455.8</ele>
        <time>2022-06-06T13:43:23Z</time>
      </trkpt>
      <trkpt lat="47.61564" lon="5.13004">
        <ele>455.8</ele>
        <time>2022-06-06T13:43:24Z</time>
      </trkpt>
      <trkpt lat="47.61559" lon="5.1303">
        <ele>455.6</ele>
        <time>2022-06-06T13:43:28Z</time>
      </trkpt>
      <trkpt lat="47.61541" lon="5.13071">
        <ele>455.8</ele>
        <time>2022-06-06T13:43:34Z</time>
      </trkpt>
      <trkpt lat="47.61534" lon="5.13082">
        <ele>455.8</ele>
        <time>2022-06-06T13:43:36Z</time>
      </trkpt>
      <trkpt lat="47.61527" lon="5.13094">
        <ele>456</ele>
        <time>2022-06-06T13:43:38Z</time>
      </trkpt>
      <trkpt lat="47.61524" lon="5.131">
        <ele>456</ele>
        <time>2022-06-06T13:43:39Z</time>
      </trkpt>
      <trkpt lat="47.61495" lon="5.13136">
        <ele>456.2</ele>
        <time>2022-06-06T13:43:46Z</time>
      </trkpt>
      <trkpt lat="47.6149" lon="5.13139">
        <ele>456.2</ele>
        <time>2022-06-06T13:43:47Z</time>
      </trkpt>
      <trkpt lat="47.61487" lon="5.13142">
        <ele>456.2</ele>
        <time>2022-06-06T13:43:48Z</time>
      </trkpt>
      <trkpt lat="47.61466" lon="5.13158">
        <ele>456.2</ele>
        <time>2022-06-06T13:43:52Z</time>
      </trkpt>
      <trkpt lat="47.61435" lon="5.1318">
        <ele>455.8</ele>
        <time>2022-06-06T13:43:58Z</time>
      </trkpt>
      <trkpt lat="47.61424" lon="5.13186">
        <ele>455.6</ele>
        <time>2022-06-06T13:44:00Z</time>
      </trkpt>
      <trkpt lat="47.61387" lon="5.13201">
        <ele>455</ele>
        <time>2022-06-06T13:44:07Z</time>
      </trkpt>
      <trkpt lat="47.61375" lon="5.13207">
        <ele>454.8</ele>
        <time>2022-06-06T13:44:09Z</time>
      </trkpt>
      <trkpt lat="47.61357" lon="5.13212">
        <ele>454.6</ele>
        <time>2022-06-06T13:44:12Z</time>
      </trkpt>
      <trkpt lat="47.61352" lon="5.13213">
        <ele>454.4</ele>
        <time>2022-06-06T13:44:13Z</time>
      </trkpt>
      <trkpt lat="47.61333" lon="5.13217">
        <ele>454</ele>
        <time>2022-06-06T13:44:16Z</time>
      </trkpt>
      <trkpt lat="47.61315" lon="5.13224">
        <ele>453.6</ele>
        <time>2022-06-06T13:44:19Z</time>
      </trkpt>
      <trkpt lat="47.61296" lon="5.13232">
        <ele>453.2</ele>
        <time>2022-06-06T13:44:22Z</time>
      </trkpt>
      <trkpt lat="47.61289" lon="5.13235">
        <ele>453.2</ele>
        <time>2022-06-06T13:44:23Z</time>
      </trkpt>
      <trkpt lat="47.61272" lon="5.13249">
        <ele>453</ele>
        <time>2022-06-06T13:44:26Z</time>
      </trkpt>
      <trkpt lat="47.61249" lon="5.1328">
        <ele>452.4</ele>
        <time>2022-06-06T13:44:31Z</time>
      </trkpt>
      <trkpt lat="47.61244" lon="5.13286">
        <ele>452.4</ele>
        <time>2022-06-06T13:44:32Z</time>
      </trkpt>
      <trkpt lat="47.61239" lon="5.13293">
        <ele>452.2</ele>
        <time>2022-06-06T13:44:33Z</time>
      </trkpt>
      <trkpt lat="47.61222" lon="5.13318">
        <ele>452.2</ele>
        <time>2022-06-06T13:44:37Z</time>
      </trkpt>
      <trkpt lat="47.61212" lon="5.1333">
        <ele>452.2</ele>
        <time>2022-06-06T13:44:39Z</time>
      </trkpt>
      <trkpt lat="47.61177" lon="5.13381">
        <ele>451.4</ele>
        <time>2022-06-06T13:44:47Z</time>
      </trkpt>
      <trkpt lat="47.61172" lon="5.13387">
        <ele>451.4</ele>
        <time>2022-06-06T13:44:48Z</time>
      </trkpt>
      <trkpt lat="47.61159" lon="5.13402">
        <ele>451.2</ele>
        <time>2022-06-06T13:44:51Z</time>
      </trkpt>
      <trkpt lat="47.61155" lon="5.13408">
        <ele>451.2</ele>
        <time>2022-06-06T13:44:52Z</time>
      </trkpt>
      <trkpt lat="47.61132" lon="5.13444">
        <ele>451</ele>
        <time>2022-06-06T13:44:58Z</time>
      </trkpt>
      <trkpt lat="47.61129" lon="5.13451">
        <ele>450.8</ele>
        <time>2022-06-06T13:44:59Z</time>
      </trkpt>
      <trkpt lat="47.6112" lon="5.13474">
        <ele>450.6</ele>
        <time>2022-06-06T13:45:02Z</time>
      </trkpt>
      <trkpt lat="47.61114" lon="5.1349">
        <ele>450.4</ele>
        <time>2022-06-06T13:45:04Z</time>
      </trkpt>
      <trkpt lat="47.61111" lon="5.13499">
        <ele>450.4</ele>
        <time>2022-06-06T13:45:05Z</time>
      </trkpt>
      <trkpt lat="47.61104" lon="5.13516">
        <ele>450.2</ele>
        <time>2022-06-06T13:45:07Z</time>
      </trkpt>
      <trkpt lat="47.61099" lon="5.1354">
        <ele>450</ele>
        <time>2022-06-06T13:45:10Z</time>
      </trkpt>
      <trkpt lat="47.61098" lon="5.13557">
        <ele>450</ele>
        <time>2022-06-06T13:45:12Z</time>
      </trkpt>
      <trkpt lat="47.61094" lon="5.13573">
        <ele>450</ele>
        <time>2022-06-06T13:45:14Z</time>
      </trkpt>
      <trkpt lat="47.61091" lon="5.13592">
        <ele>450</ele>
        <time>2022-06-06T13:45:16Z</time>
      </trkpt>
      <trkpt lat="47.61087" lon="5.13608">
        <ele>450</ele>
        <time>2022-06-06T13:45:18Z</time>
      </trkpt>
      <trkpt lat="47.61084" lon="5.1363">
        <ele>450</ele>
        <time>2022-06-06T13:45:20Z</time>
      </trkpt>
      <trkpt lat="47.61082" lon="5.13653">
        <ele>450</ele>
        <time>2022-06-06T13:45:22Z</time>
      </trkpt>
      <trkpt lat="47.61082" lon="5.13666">
        <ele>449.8</ele>
        <time>2022-06-06T13:45:24Z</time>
      </trkpt>
      <trkpt lat="47.61076" lon="5.13685">
        <ele>449.6</ele>
        <time>2022-06-06T13:45:26Z</time>
      </trkpt>
      <trkpt lat="47.61074" lon="5.13696">
        <ele>449.6</ele>
        <time>2022-06-06T13:45:27Z</time>
      </trkpt>
      <trkpt lat="47.6107" lon="5.13717">
        <ele>449.4</ele>
        <time>2022-06-06T13:45:29Z</time>
      </trkpt>
      <trkpt lat="47.61068" lon="5.13726">
        <ele>449.4</ele>
        <time>2022-06-06T13:45:30Z</time>
      </trkpt>
      <trkpt lat="47.61064" lon="5.13734">
        <ele>449.2</ele>
        <time>2022-06-06T13:45:31Z</time>
      </trkpt>
      <trkpt lat="47.61054" lon="5.13766">
        <ele>449</ele>
        <time>2022-06-06T13:45:34Z</time>
      </trkpt>
      <trkpt lat="47.61049" lon="5.13783">
        <ele>448.8</ele>
        <time>2022-06-06T13:45:36Z</time>
      </trkpt>
      <trkpt lat="47.61044" lon="5.13812">
        <ele>448.6</ele>
        <time>2022-06-06T13:45:39Z</time>
      </trkpt>
      <trkpt lat="47.61037" lon="5.13827">
        <ele>448.4</ele>
        <time>2022-06-06T13:45:41Z</time>
      </trkpt>
      <trkpt lat="47.61028" lon="5.13841">
        <ele>448.2</ele>
        <time>2022-06-06T13:45:43Z</time>
      </trkpt>
      <trkpt lat="47.61022" lon="5.13856">
        <ele>448</ele>
        <time>2022-06-06T13:45:45Z</time>
      </trkpt>
      <trkpt lat="47.61016" lon="5.13869">
        <ele>447.6</ele>
        <time>2022-06-06T13:45:47Z</time>
      </trkpt>
      <trkpt lat="47.61007" lon="5.13881">
        <ele>447.2</ele>
        <time>2022-06-06T13:45:49Z</time>
      </trkpt>
      <trkpt lat="47.61003" lon="5.13885">
        <ele>447</ele>
        <time>2022-06-06T13:45:50Z</time>
      </trkpt>
      <trkpt lat="47.60993" lon="5.13897">
        <ele>446.8</ele>
        <time>2022-06-06T13:45:52Z</time>
      </trkpt>
      <trkpt lat="47.60986" lon="5.13907">
        <ele>446.4</ele>
        <time>2022-06-06T13:45:54Z</time>
      </trkpt>
      <trkpt lat="47.60973" lon="5.13919">
        <ele>446.2</ele>
        <time>2022-06-06T13:45:57Z</time>
      </trkpt>
      <trkpt lat="47.60968" lon="5.13924">
        <ele>446.2</ele>
        <time>2022-06-06T13:45:58Z</time>
      </trkpt>
      <trkpt lat="47.60939" lon="5.13953">
        <ele>445.2</ele>
        <time>2022-06-06T13:46:04Z</time>
      </trkpt>
      <trkpt lat="47.60934" lon="5.13959">
        <ele>445</ele>
        <time>2022-06-06T13:46:05Z</time>
      </trkpt>
      <trkpt lat="47.60914" lon="5.13979">
        <ele>444.6</ele>
        <time>2022-06-06T13:46:09Z</time>
      </trkpt>
      <trkpt lat="47.60909" lon="5.13984">
        <ele>444.4</ele>
        <time>2022-06-06T13:46:10Z</time>
      </trkpt>
      <trkpt lat="47.60899" lon="5.13996">
        <ele>444</ele>
        <time>2022-06-06T13:46:12Z</time>
      </trkpt>
      <trkpt lat="47.60888" lon="5.14008">
        <ele>443.6</ele>
        <time>2022-06-06T13:46:14Z</time>
      </trkpt>
      <trkpt lat="47.60884" lon="5.14015">
        <ele>443.4</ele>
        <time>2022-06-06T13:46:15Z</time>
      </trkpt>
      <trkpt lat="47.6088" lon="5.14021">
        <ele>443.2</ele>
        <time>2022-06-06T13:46:16Z</time>
      </trkpt>
      <trkpt lat="47.60869" lon="5.14033">
        <ele>442.8</ele>
        <time>2022-06-06T13:46:18Z</time>
      </trkpt>
      <trkpt lat="47.60863" lon="5.14041">
        <ele>442.8</ele>
        <time>2022-06-06T13:46:19Z</time>
      </trkpt>
      <trkpt lat="47.60854" lon="5.14058">
        <ele>442.4</ele>
        <time>2022-06-06T13:46:21Z</time>
      </trkpt>
      <trkpt lat="47.60839" lon="5.14091">
        <ele>441.8</ele>
        <time>2022-06-06T13:46:24Z</time>
      </trkpt>
      <trkpt lat="47.60825" lon="5.14123">
        <ele>440.6</ele>
        <time>2022-06-06T13:46:27Z</time>
      </trkpt>
      <trkpt lat="47.6082" lon="5.14135">
        <ele>439.8</ele>
        <time>2022-06-06T13:46:28Z</time>
      </trkpt>
      <trkpt lat="47.60818" lon="5.14146">
        <ele>439.4</ele>
        <time>2022-06-06T13:46:29Z</time>
      </trkpt>
      <trkpt lat="47.60812" lon="5.14173">
        <ele>438.6</ele>
        <time>2022-06-06T13:46:31Z</time>
      </trkpt>
      <trkpt lat="47.60809" lon="5.14183">
        <ele>437.8</ele>
        <time>2022-06-06T13:46:32Z</time>
      </trkpt>
      <trkpt lat="47.60801" lon="5.142">
        <ele>436.4</ele>
        <time>2022-06-06T13:46:34Z</time>
      </trkpt>
      <trkpt lat="47.608" lon="5.14208">
        <ele>435.6</ele>
        <time>2022-06-06T13:46:35Z</time>
      </trkpt>
      <trkpt lat="47.60797" lon="5.14214">
        <ele>435.2</ele>
        <time>2022-06-06T13:46:36Z</time>
      </trkpt>
      <trkpt lat="47.60792" lon="5.14221">
        <ele>434.6</ele>
        <time>2022-06-06T13:46:37Z</time>
      </trkpt>
      <trkpt lat="47.60783" lon="5.14241">
        <ele>433.4</ele>
        <time>2022-06-06T13:46:39Z</time>
      </trkpt>
      <trkpt lat="47.60778" lon="5.1425">
        <ele>433.2</ele>
        <time>2022-06-06T13:46:40Z</time>
      </trkpt>
      <trkpt lat="47.60774" lon="5.14259">
        <ele>432.2</ele>
        <time>2022-06-06T13:46:41Z</time>
      </trkpt>
      <trkpt lat="47.60761" lon="5.1429">
        <ele>430.6</ele>
        <time>2022-06-06T13:46:44Z</time>
      </trkpt>
      <trkpt lat="47.60753" lon="5.14309">
        <ele>429.8</ele>
        <time>2022-06-06T13:46:46Z</time>
      </trkpt>
      <trkpt lat="47.60745" lon="5.14328">
        <ele>429.4</ele>
        <time>2022-06-06T13:46:48Z</time>
      </trkpt>
      <trkpt lat="47.60733" lon="5.14354">
        <ele>428.6</ele>
        <time>2022-06-06T13:46:51Z</time>
      </trkpt>
      <trkpt lat="47.60731" lon="5.14362">
        <ele>428.4</ele>
        <time>2022-06-06T13:46:52Z</time>
      </trkpt>
      <trkpt lat="47.6073" lon="5.1437">
        <ele>428</ele>
        <time>2022-06-06T13:46:53Z</time>
      </trkpt>
      <trkpt lat="47.60732" lon="5.14389">
        <ele>427.4</ele>
        <time>2022-06-06T13:46:55Z</time>
      </trkpt>
      <trkpt lat="47.60736" lon="5.1441">
        <ele>426.6</ele>
        <time>2022-06-06T13:46:57Z</time>
      </trkpt>
      <trkpt lat="47.60738" lon="5.14449">
        <ele>425.8</ele>
        <time>2022-06-06T13:47:01Z</time>
      </trkpt>
      <trkpt lat="47.60738" lon="5.14458">
        <ele>425.6</ele>
        <time>2022-06-06T13:47:02Z</time>
      </trkpt>
      <trkpt lat="47.6074" lon="5.1448">
        <ele>424.8</ele>
        <time>2022-06-06T13:47:05Z</time>
      </trkpt>
      <trkpt lat="47.6074" lon="5.14485">
        <ele>424.4</ele>
        <time>2022-06-06T13:47:06Z</time>
      </trkpt>
      <trkpt lat="47.6074" lon="5.14487">
        <ele>424.2</ele>
        <time>2022-06-06T13:47:07Z</time>
      </trkpt>
      <trkpt lat="47.60741" lon="5.14488">
        <ele>423.8</ele>
        <time>2022-06-06T13:47:08Z</time>
      </trkpt>
      <trkpt lat="47.60741" lon="5.14488">
        <ele>423.2</ele>
        <time>2022-06-06T13:47:09Z</time>
      </trkpt>
      <trkpt lat="47.60741" lon="5.14488">
        <ele>422</ele>
        <time>2022-06-06T13:47:11Z</time>
      </trkpt>
      <trkpt lat="47.60741" lon="5.14488">
        <ele>421</ele>
        <time>2022-06-06T13:47:16Z</time>
      </trkpt>
      <trkpt lat="47.60741" lon="5.14488">
        <ele>420.6</ele>
        <time>2022-06-06T13:47:25Z</time>
      </trkpt>
      <trkpt lat="47.60741" lon="5.14488">
        <ele>420.2</ele>
        <time>2022-06-06T13:47:36Z</time>
      </trkpt>
      <trkpt lat="47.60741" lon="5.14488">
        <ele>420.2</ele>
        <time>2022-06-06T13:47:47Z</time>
      </trkpt>
      <trkpt lat="47.60741" lon="5.14488">
        <ele>420.2</ele>
        <time>2022-06-06T13:47:55Z</time>
      </trkpt>
      <trkpt lat="47.60741" lon="5.14488">
        <ele>420.2</ele>
        <time>2022-06-06T13:48:09Z</time>
      </trkpt>
      <trkpt lat="47.60741" lon="5.14488">
        <ele>420.2</ele>
        <time>2022-06-06T13:48:11Z</time>
      </trkpt>
      <trkpt lat="47.60741" lon="5.14492">
        <ele>420.4</ele>
        <time>2022-06-06T13:48:26Z</time>
      </trkpt>
      <trkpt lat="47.60741" lon="5.14495">
        <ele>420.4</ele>
        <time>2022-06-06T13:48:27Z</time>
      </trkpt>
      <trkpt lat="47.60742" lon="5.14507">
        <ele>420.4</ele>
        <time>2022-06-06T13:48:30Z</time>
      </trkpt>
      <trkpt lat="47.60742" lon="5.14517">
        <ele>420.2</ele>
        <time>2022-06-06T13:48:32Z</time>
      </trkpt>
      <trkpt lat="47.60743" lon="5.14551">
        <ele>419</ele>
        <time>2022-06-06T13:48:38Z</time>
      </trkpt>
      <trkpt lat="47.60744" lon="5.14557">
        <ele>418.8</ele>
        <time>2022-06-06T13:48:39Z</time>
      </trkpt>
      <trkpt lat="47.60745" lon="5.14588">
        <ele>417.6</ele>
        <time>2022-06-06T13:48:43Z</time>
      </trkpt>
      <trkpt lat="47.60745" lon="5.14596">
        <ele>417.4</ele>
        <time>2022-06-06T13:48:44Z</time>
      </trkpt>
      <trkpt lat="47.60745" lon="5.14605">
        <ele>416.6</ele>
        <time>2022-06-06T13:48:45Z</time>
      </trkpt>
      <trkpt lat="47.60745" lon="5.14612">
        <ele>416.4</ele>
        <time>2022-06-06T13:48:46Z</time>
      </trkpt>
      <trkpt lat="47.60744" lon="5.14629">
        <ele>415.4</ele>
        <time>2022-06-06T13:48:48Z</time>
      </trkpt>
      <trkpt lat="47.60743" lon="5.14636">
        <ele>415.2</ele>
        <time>2022-06-06T13:48:49Z</time>
      </trkpt>
      <trkpt lat="47.6074" lon="5.14651">
        <ele>414</ele>
        <time>2022-06-06T13:48:51Z</time>
      </trkpt>
      <trkpt lat="47.60738" lon="5.14658">
        <ele>412.8</ele>
        <time>2022-06-06T13:48:52Z</time>
      </trkpt>
      <trkpt lat="47.60732" lon="5.14672">
        <ele>411.6</ele>
        <time>2022-06-06T13:48:54Z</time>
      </trkpt>
      <trkpt lat="47.60726" lon="5.14686">
        <ele>410.4</ele>
        <time>2022-06-06T13:48:56Z</time>
      </trkpt>
      <trkpt lat="47.60717" lon="5.1471">
        <ele>408.8</ele>
        <time>2022-06-06T13:48:59Z</time>
      </trkpt>
      <trkpt lat="47.60707" lon="5.14731">
        <ele>407.6</ele>
        <time>2022-06-06T13:49:02Z</time>
      </trkpt>
      <trkpt lat="47.60703" lon="5.14738">
        <ele>407</ele>
        <time>2022-06-06T13:49:03Z</time>
      </trkpt>
      <trkpt lat="47.607" lon="5.14745">
        <ele>406.6</ele>
        <time>2022-06-06T13:49:04Z</time>
      </trkpt>
      <trkpt lat="47.60692" lon="5.1476">
        <ele>405.2</ele>
        <time>2022-06-06T13:49:06Z</time>
      </trkpt>
      <trkpt lat="47.60681" lon="5.1478">
        <ele>404</ele>
        <time>2022-06-06T13:49:09Z</time>
      </trkpt>
      <trkpt lat="47.60674" lon="5.14792">
        <ele>403.6</ele>
        <time>2022-06-06T13:49:11Z</time>
      </trkpt>
      <trkpt lat="47.60669" lon="5.14804">
        <ele>402.8</ele>
        <time>2022-06-06T13:49:13Z</time>
      </trkpt>
      <trkpt lat="47.60664" lon="5.14817">
        <ele>401.2</ele>
        <time>2022-06-06T13:49:15Z</time>
      </trkpt>
      <trkpt lat="47.60661" lon="5.14824">
        <ele>400.8</ele>
        <time>2022-06-06T13:49:16Z</time>
      </trkpt>
      <trkpt lat="47.60659" lon="5.14831">
        <ele>400.2</ele>
        <time>2022-06-06T13:49:17Z</time>
      </trkpt>
      <trkpt lat="47.60658" lon="5.14836">
        <ele>399.8</ele>
        <time>2022-06-06T13:49:18Z</time>
      </trkpt>
      <trkpt lat="47.60655" lon="5.14851">
        <ele>398.6</ele>
        <time>2022-06-06T13:49:20Z</time>
      </trkpt>
      <trkpt lat="47.60655" lon="5.14856">
        <ele>398</ele>
        <time>2022-06-06T13:49:21Z</time>
      </trkpt>
      <trkpt lat="47.60652" lon="5.14869">
        <ele>397.4</ele>
        <time>2022-06-06T13:49:23Z</time>
      </trkpt>
      <trkpt lat="47.6065" lon="5.14883">
        <ele>396</ele>
        <time>2022-06-06T13:49:25Z</time>
      </trkpt>
      <trkpt lat="47.60651" lon="5.14901">
        <ele>393.8</ele>
        <time>2022-06-06T13:49:28Z</time>
      </trkpt>
      <trkpt lat="47.60652" lon="5.14913">
        <ele>392.6</ele>
        <time>2022-06-06T13:49:30Z</time>
      </trkpt>
      <trkpt lat="47.60651" lon="5.14937">
        <ele>391.4</ele>
        <time>2022-06-06T13:49:33Z</time>
      </trkpt>
      <trkpt lat="47.6065" lon="5.14956">
        <ele>391</ele>
        <time>2022-06-06T13:49:36Z</time>
      </trkpt>
      <trkpt lat="47.6065" lon="5.14964">
        <ele>389.8</ele>
        <time>2022-06-06T13:49:37Z</time>
      </trkpt>
      <trkpt lat="47.6065" lon="5.1497">
        <ele>389</ele>
        <time>2022-06-06T13:49:38Z</time>
      </trkpt>
      <trkpt lat="47.6065" lon="5.14977">
        <ele>388.8</ele>
        <time>2022-06-06T13:49:39Z</time>
      </trkpt>
      <trkpt lat="47.60651" lon="5.14982">
        <ele>388.4</ele>
        <time>2022-06-06T13:49:40Z</time>
      </trkpt>
      <trkpt lat="47.60651" lon="5.15002">
        <ele>387.6</ele>
        <time>2022-06-06T13:49:43Z</time>
      </trkpt>
      <trkpt lat="47.60651" lon="5.1501">
        <ele>387</ele>
        <time>2022-06-06T13:49:44Z</time>
      </trkpt>
      <trkpt lat="47.60651" lon="5.15018">
        <ele>386.6</ele>
        <time>2022-06-06T13:49:45Z</time>
      </trkpt>
      <trkpt lat="47.60651" lon="5.15026">
        <ele>385.6</ele>
        <time>2022-06-06T13:49:46Z</time>
      </trkpt>
      <trkpt lat="47.60651" lon="5.15046">
        <ele>384.2</ele>
        <time>2022-06-06T13:49:48Z</time>
      </trkpt>
      <trkpt lat="47.60651" lon="5.15054">
        <ele>383.6</ele>
        <time>2022-06-06T13:49:49Z</time>
      </trkpt>
      <trkpt lat="47.6065" lon="5.15066">
        <ele>382.8</ele>
        <time>2022-06-06T13:49:50Z</time>
      </trkpt>
      <trkpt lat="47.6065" lon="5.15073">
        <ele>381.8</ele>
        <time>2022-06-06T13:49:51Z</time>
      </trkpt>
      <trkpt lat="47.60649" lon="5.15092">
        <ele>380.8</ele>
        <time>2022-06-06T13:49:53Z</time>
      </trkpt>
      <trkpt lat="47.60649" lon="5.1511">
        <ele>379.6</ele>
        <time>2022-06-06T13:49:55Z</time>
      </trkpt>
      <trkpt lat="47.60648" lon="5.15144">
        <ele>378.2</ele>
        <time>2022-06-06T13:49:58Z</time>
      </trkpt>
      <trkpt lat="47.60646" lon="5.15158">
        <ele>377.8</ele>
        <time>2022-06-06T13:49:59Z</time>
      </trkpt>
      <trkpt lat="47.60644" lon="5.15167">
        <ele>377.2</ele>
        <time>2022-06-06T13:50:00Z</time>
      </trkpt>
      <trkpt lat="47.60641" lon="5.15178">
        <ele>376.8</ele>
        <time>2022-06-06T13:50:01Z</time>
      </trkpt>
      <trkpt lat="47.60635" lon="5.152">
        <ele>375.6</ele>
        <time>2022-06-06T13:50:03Z</time>
      </trkpt>
      <trkpt lat="47.60633" lon="5.1521">
        <ele>375.2</ele>
        <time>2022-06-06T13:50:04Z</time>
      </trkpt>
      <trkpt lat="47.60632" lon="5.15222">
        <ele>374.8</ele>
        <time>2022-06-06T13:50:05Z</time>
      </trkpt>
      <trkpt lat="47.60632" lon="5.15231">
        <ele>374.2</ele>
        <time>2022-06-06T13:50:06Z</time>
      </trkpt>
      <trkpt lat="47.60634" lon="5.15242">
        <ele>373</ele>
        <time>2022-06-06T13:50:07Z</time>
      </trkpt>
      <trkpt lat="47.6064" lon="5.15265">
        <ele>371.6</ele>
        <time>2022-06-06T13:50:09Z</time>
      </trkpt>
      <trkpt lat="47.60645" lon="5.15275">
        <ele>371</ele>
        <time>2022-06-06T13:50:10Z</time>
      </trkpt>
      <trkpt lat="47.60652" lon="5.15287">
        <ele>370.4</ele>
        <time>2022-06-06T13:50:11Z</time>
      </trkpt>
      <trkpt lat="47.60664" lon="5.153">
        <ele>369</ele>
        <time>2022-06-06T13:50:13Z</time>
      </trkpt>
      <trkpt lat="47.6067" lon="5.15309">
        <ele>368</ele>
        <time>2022-06-06T13:50:14Z</time>
      </trkpt>
      <trkpt lat="47.60675" lon="5.15326">
        <ele>366.4</ele>
        <time>2022-06-06T13:50:16Z</time>
      </trkpt>
      <trkpt lat="47.60675" lon="5.1535">
        <ele>364.8</ele>
        <time>2022-06-06T13:50:18Z</time>
      </trkpt>
      <trkpt lat="47.60675" lon="5.1536">
        <ele>364.4</ele>
        <time>2022-06-06T13:50:19Z</time>
      </trkpt>
      <trkpt lat="47.60676" lon="5.15372">
        <ele>364</ele>
        <time>2022-06-06T13:50:20Z</time>
      </trkpt>
      <trkpt lat="47.60677" lon="5.15385">
        <ele>363.6</ele>
        <time>2022-06-06T13:50:21Z</time>
      </trkpt>
      <trkpt lat="47.60681" lon="5.15397">
        <ele>363</ele>
        <time>2022-06-06T13:50:22Z</time>
      </trkpt>
      <trkpt lat="47.60686" lon="5.15409">
        <ele>361.6</ele>
        <time>2022-06-06T13:50:23Z</time>
      </trkpt>
      <trkpt lat="47.60699" lon="5.15433">
        <ele>359.8</ele>
        <time>2022-06-06T13:50:25Z</time>
      </trkpt>
      <trkpt lat="47.60713" lon="5.15455">
        <ele>358.2</ele>
        <time>2022-06-06T13:50:27Z</time>
      </trkpt>
      <trkpt lat="47.60728" lon="5.15475">
        <ele>356.2</ele>
        <time>2022-06-06T13:50:29Z</time>
      </trkpt>
      <trkpt lat="47.60743" lon="5.15494">
        <ele>355</ele>
        <time>2022-06-06T13:50:31Z</time>
      </trkpt>
      <trkpt lat="47.60753" lon="5.15506">
        <ele>353.8</ele>
        <time>2022-06-06T13:50:32Z</time>
      </trkpt>
      <trkpt lat="47.60765" lon="5.15521">
        <ele>352.4</ele>
        <time>2022-06-06T13:50:34Z</time>
      </trkpt>
      <trkpt lat="47.60772" lon="5.1553">
        <ele>352</ele>
        <time>2022-06-06T13:50:35Z</time>
      </trkpt>
      <trkpt lat="47.60777" lon="5.15537">
        <ele>351</ele>
        <time>2022-06-06T13:50:36Z</time>
      </trkpt>
      <trkpt lat="47.60782" lon="5.15545">
        <ele>350.2</ele>
        <time>2022-06-06T13:50:37Z</time>
      </trkpt>
      <trkpt lat="47.60788" lon="5.15558">
        <ele>349.6</ele>
        <time>2022-06-06T13:50:38Z</time>
      </trkpt>
      <trkpt lat="47.6079" lon="5.15568">
        <ele>348.6</ele>
        <time>2022-06-06T13:50:39Z</time>
      </trkpt>
      <trkpt lat="47.60791" lon="5.1558">
        <ele>348.2</ele>
        <time>2022-06-06T13:50:40Z</time>
      </trkpt>
      <trkpt lat="47.60792" lon="5.15592">
        <ele>347.2</ele>
        <time>2022-06-06T13:50:41Z</time>
      </trkpt>
      <trkpt lat="47.60792" lon="5.15609">
        <ele>345.8</ele>
        <time>2022-06-06T13:50:43Z</time>
      </trkpt>
      <trkpt lat="47.60793" lon="5.15616">
        <ele>345.4</ele>
        <time>2022-06-06T13:50:44Z</time>
      </trkpt>
      <trkpt lat="47.60794" lon="5.15622">
        <ele>344.4</ele>
        <time>2022-06-06T13:50:45Z</time>
      </trkpt>
      <trkpt lat="47.60796" lon="5.15627">
        <ele>343.2</ele>
        <time>2022-06-06T13:50:46Z</time>
      </trkpt>
      <trkpt lat="47.608" lon="5.15633">
        <ele>342.4</ele>
        <time>2022-06-06T13:50:47Z</time>
      </trkpt>
      <trkpt lat="47.60804" lon="5.15638">
        <ele>341.4</ele>
        <time>2022-06-06T13:50:48Z</time>
      </trkpt>
      <trkpt lat="47.60814" lon="5.15648">
        <ele>340.2</ele>
        <time>2022-06-06T13:50:50Z</time>
      </trkpt>
      <trkpt lat="47.60824" lon="5.15658">
        <ele>339.4</ele>
        <time>2022-06-06T13:50:52Z</time>
      </trkpt>
      <trkpt lat="47.6083" lon="5.15663">
        <ele>339.2</ele>
        <time>2022-06-06T13:50:53Z</time>
      </trkpt>
      <trkpt lat="47.60848" lon="5.15674">
        <ele>338</ele>
        <time>2022-06-06T13:50:56Z</time>
      </trkpt>
      <trkpt lat="47.60859" lon="5.15682">
        <ele>337.4</ele>
        <time>2022-06-06T13:50:58Z</time>
      </trkpt>
      <trkpt lat="47.60871" lon="5.15691">
        <ele>337</ele>
        <time>2022-06-06T13:51:00Z</time>
      </trkpt>
      <trkpt lat="47.60887" lon="5.15705">
        <ele>336</ele>
        <time>2022-06-06T13:51:03Z</time>
      </trkpt>
      <trkpt lat="47.60897" lon="5.15714">
        <ele>335.4</ele>
        <time>2022-06-06T13:51:05Z</time>
      </trkpt>
      <trkpt lat="47.60914" lon="5.15725">
        <ele>334.8</ele>
        <time>2022-06-06T13:51:08Z</time>
      </trkpt>
      <trkpt lat="47.60921" lon="5.15724">
        <ele>334.8</ele>
        <time>2022-06-06T13:51:09Z</time>
      </trkpt>
      <trkpt lat="47.60927" lon="5.15721">
        <ele>334.6</ele>
        <time>2022-06-06T13:51:10Z</time>
      </trkpt>
      <trkpt lat="47.60942" lon="5.1571">
        <ele>334</ele>
        <time>2022-06-06T13:51:13Z</time>
      </trkpt>
      <trkpt lat="47.60961" lon="5.15689">
        <ele>334</ele>
        <time>2022-06-06T13:51:18Z</time>
      </trkpt>
      <trkpt lat="47.60964" lon="5.15684">
        <ele>333.8</ele>
        <time>2022-06-06T13:51:19Z</time>
      </trkpt>
      <trkpt lat="47.60979" lon="5.15652">
        <ele>332.8</ele>
        <time>2022-06-06T13:51:25Z</time>
      </trkpt>
      <trkpt lat="47.60984" lon="5.15643">
        <ele>332.2</ele>
        <time>2022-06-06T13:51:27Z</time>
      </trkpt>
      <trkpt lat="47.60986" lon="5.15639">
        <ele>331.8</ele>
        <time>2022-06-06T13:51:28Z</time>
      </trkpt>
      <trkpt lat="47.60997" lon="5.15623">
        <ele>330.6</ele>
        <time>2022-06-06T13:51:32Z</time>
      </trkpt>
      <trkpt lat="47.61" lon="5.1562">
        <ele>330.4</ele>
        <time>2022-06-06T13:51:33Z</time>
      </trkpt>
      <trkpt lat="47.61011" lon="5.1561">
        <ele>329.6</ele>
        <time>2022-06-06T13:51:37Z</time>
      </trkpt>
      <trkpt lat="47.61014" lon="5.15608">
        <ele>329.2</ele>
        <time>2022-06-06T13:51:38Z</time>
      </trkpt>
      <trkpt lat="47.6102" lon="5.15606">
        <ele>328.2</ele>
        <time>2022-06-06T13:51:40Z</time>
      </trkpt>
      <trkpt lat="47.61027" lon="5.15601">
        <ele>327.2</ele>
        <time>2022-06-06T13:51:42Z</time>
      </trkpt>
      <trkpt lat="47.6103" lon="5.15599">
        <ele>327</ele>
        <time>2022-06-06T13:51:43Z</time>
      </trkpt>
      <trkpt lat="47.61042" lon="5.15593">
        <ele>326</ele>
        <time>2022-06-06T13:51:46Z</time>
      </trkpt>
      <trkpt lat="47.61051" lon="5.15592">
        <ele>325</ele>
        <time>2022-06-06T13:51:49Z</time>
      </trkpt>
      <trkpt lat="47.61069" lon="5.15595">
        <ele>323.6</ele>
        <time>2022-06-06T13:51:54Z</time>
      </trkpt>
      <trkpt lat="47.61088" lon="5.15605">
        <ele>322.2</ele>
        <time>2022-06-06T13:51:58Z</time>
      </trkpt>
      <trkpt lat="47.61091" lon="5.15609">
        <ele>321.8</ele>
        <time>2022-06-06T13:51:59Z</time>
      </trkpt>
      <trkpt lat="47.61092" lon="5.15613">
        <ele>321.2</ele>
        <time>2022-06-06T13:52:00Z</time>
      </trkpt>
      <trkpt lat="47.61094" lon="5.15618">
        <ele>321.2</ele>
        <time>2022-06-06T13:52:01Z</time>
      </trkpt>
      <trkpt lat="47.61099" lon="5.15633">
        <ele>320.4</ele>
        <time>2022-06-06T13:52:04Z</time>
      </trkpt>
      <trkpt lat="47.611" lon="5.15637">
        <ele>320.2</ele>
        <time>2022-06-06T13:52:05Z</time>
      </trkpt>
      <trkpt lat="47.61105" lon="5.15649">
        <ele>319.6</ele>
        <time>2022-06-06T13:52:09Z</time>
      </trkpt>
      <trkpt lat="47.61107" lon="5.1564">
        <ele>319.4</ele>
        <time>2022-06-06T13:52:12Z</time>
      </trkpt>
      <trkpt lat="47.61108" lon="5.15637">
        <ele>319.2</ele>
        <time>2022-06-06T13:52:14Z</time>
      </trkpt>
      <trkpt lat="47.6111" lon="5.15637">
        <ele>319</ele>
        <time>2022-06-06T13:52:16Z</time>
      </trkpt>
      <trkpt lat="47.6111" lon="5.15639">
        <ele>319</ele>
        <time>2022-06-06T13:52:21Z</time>
      </trkpt>
      <trkpt lat="47.61109" lon="5.15642">
        <ele>319</ele>
        <time>2022-06-06T13:52:24Z</time>
      </trkpt>
      <trkpt lat="47.6111" lon="5.15642">
        <ele>319</ele>
        <time>2022-06-06T13:52:27Z</time>
      </trkpt>
      <trkpt lat="47.61107" lon="5.15638">
        <ele>318.8</ele>
        <time>2022-06-06T13:52:32Z</time>
      </trkpt>
      <trkpt lat="47.61107" lon="5.15638">
        <ele>318.8</ele>
        <time>2022-06-06T13:52:33Z</time>
      </trkpt>
      <trkpt lat="47.61104" lon="5.15643">
        <ele>318.6</ele>
        <time>2022-06-06T13:52:39Z</time>
      </trkpt>
      <trkpt lat="47.61103" lon="5.15646">
        <ele>318.6</ele>
        <time>2022-06-06T13:52:40Z</time>
      </trkpt>
      <trkpt lat="47.61105" lon="5.1566">
        <ele>318.6</ele>
        <time>2022-06-06T13:52:43Z</time>
      </trkpt>
      <trkpt lat="47.61118" lon="5.15698">
        <ele>318.4</ele>
        <time>2022-06-06T13:52:50Z</time>
      </trkpt>
      <trkpt lat="47.61131" lon="5.15723">
        <ele>318</ele>
        <time>2022-06-06T13:52:55Z</time>
      </trkpt>
      <trkpt lat="47.61133" lon="5.15726">
        <ele>318</ele>
        <time>2022-06-06T13:52:56Z</time>
      </trkpt>
      <trkpt lat="47.61158" lon="5.15737">
        <ele>317.8</ele>
        <time>2022-06-06T13:53:03Z</time>
      </trkpt>
      <trkpt lat="47.61176" lon="5.15748">
        <ele>318.2</ele>
        <time>2022-06-06T13:53:08Z</time>
      </trkpt>
      <trkpt lat="47.61193" lon="5.15754">
        <ele>318.4</ele>
        <time>2022-06-06T13:53:12Z</time>
      </trkpt>
      <trkpt lat="47.61218" lon="5.15762">
        <ele>318.6</ele>
        <time>2022-06-06T13:53:19Z</time>
      </trkpt>
      <trkpt lat="47.6123" lon="5.15767">
        <ele>319.4</ele>
        <time>2022-06-06T13:53:23Z</time>
      </trkpt>
      <trkpt lat="47.61242" lon="5.15773">
        <ele>320.2</ele>
        <time>2022-06-06T13:53:27Z</time>
      </trkpt>
      <trkpt lat="47.61248" lon="5.15775">
        <ele>320.6</ele>
        <time>2022-06-06T13:53:29Z</time>
      </trkpt>
      <trkpt lat="47.61264" lon="5.15778">
        <ele>321.4</ele>
        <time>2022-06-06T13:53:34Z</time>
      </trkpt>
      <trkpt lat="47.61267" lon="5.15778">
        <ele>321.6</ele>
        <time>2022-06-06T13:53:35Z</time>
      </trkpt>
      <trkpt lat="47.61287" lon="5.15782">
        <ele>322.8</ele>
        <time>2022-06-06T13:53:41Z</time>
      </trkpt>
      <trkpt lat="47.61294" lon="5.15784">
        <ele>323</ele>
        <time>2022-06-06T13:53:43Z</time>
      </trkpt>
      <trkpt lat="47.61313" lon="5.15786">
        <ele>323.8</ele>
        <time>2022-06-06T13:53:49Z</time>
      </trkpt>
      <trkpt lat="47.61318" lon="5.15786">
        <ele>324</ele>
        <time>2022-06-06T13:53:51Z</time>
      </trkpt>
      <trkpt lat="47.61331" lon="5.15785">
        <ele>325</ele>
        <time>2022-06-06T13:53:56Z</time>
      </trkpt>
      <trkpt lat="47.61338" lon="5.15785">
        <ele>326</ele>
        <time>2022-06-06T13:53:59Z</time>
      </trkpt>
      <trkpt lat="47.61341" lon="5.15785">
        <ele>326.2</ele>
        <time>2022-06-06T13:54:00Z</time>
      </trkpt>
      <trkpt lat="47.61343" lon="5.15785">
        <ele>326.8</ele>
        <time>2022-06-06T13:54:01Z</time>
      </trkpt>
      <trkpt lat="47.61347" lon="5.15786">
        <ele>327.4</ele>
        <time>2022-06-06T13:54:03Z</time>
      </trkpt>
      <trkpt lat="47.61356" lon="5.15793">
        <ele>328.2</ele>
        <time>2022-06-06T13:54:07Z</time>
      </trkpt>
      <trkpt lat="47.61358" lon="5.15799">
        <ele>328.6</ele>
        <time>2022-06-06T13:54:09Z</time>
      </trkpt>
      <trkpt lat="47.61364" lon="5.15814">
        <ele>330.2</ele>
        <time>2022-06-06T13:54:14Z</time>
      </trkpt>
      <trkpt lat="47.61367" lon="5.15824">
        <ele>331.2</ele>
        <time>2022-06-06T13:54:17Z</time>
      </trkpt>
      <trkpt lat="47.61372" lon="5.1584">
        <ele>332.4</ele>
        <time>2022-06-06T13:54:22Z</time>
      </trkpt>
      <trkpt lat="47.61374" lon="5.15846">
        <ele>333.2</ele>
        <time>2022-06-06T13:54:24Z</time>
      </trkpt>
      <trkpt lat="47.61376" lon="5.15852">
        <ele>333.8</ele>
        <time>2022-06-06T13:54:26Z</time>
      </trkpt>
      <trkpt lat="47.61383" lon="5.15866">
        <ele>335</ele>
        <time>2022-06-06T13:54:31Z</time>
      </trkpt>
      <trkpt lat="47.61391" lon="5.15876">
        <ele>336.2</ele>
        <time>2022-06-06T13:54:36Z</time>
      </trkpt>
      <trkpt lat="47.61399" lon="5.15885">
        <ele>337.4</ele>
        <time>2022-06-06T13:54:40Z</time>
      </trkpt>
      <trkpt lat="47.614" lon="5.15887">
        <ele>337.6</ele>
        <time>2022-06-06T13:54:41Z</time>
      </trkpt>
      <trkpt lat="47.6141" lon="5.15898">
        <ele>338.4</ele>
        <time>2022-06-06T13:54:46Z</time>
      </trkpt>
      <trkpt lat="47.61417" lon="5.15905">
        <ele>339.2</ele>
        <time>2022-06-06T13:54:50Z</time>
      </trkpt>
      <trkpt lat="47.61419" lon="5.15907">
        <ele>339.4</ele>
        <time>2022-06-06T13:54:51Z</time>
      </trkpt>
      <trkpt lat="47.61429" lon="5.15917">
        <ele>340.4</ele>
        <time>2022-06-06T13:54:57Z</time>
      </trkpt>
      <trkpt lat="47.61431" lon="5.15918">
        <ele>340.8</ele>
        <time>2022-06-06T13:54:58Z</time>
      </trkpt>
      <trkpt lat="47.61439" lon="5.15926">
        <ele>341.4</ele>
        <time>2022-06-06T13:55:03Z</time>
      </trkpt>
      <trkpt lat="47.6144" lon="5.15927">
        <ele>341.6</ele>
        <time>2022-06-06T13:55:04Z</time>
      </trkpt>
      <trkpt lat="47.61455" lon="5.15936">
        <ele>342.6</ele>
        <time>2022-06-06T13:55:11Z</time>
      </trkpt>
      <trkpt lat="47.61457" lon="5.15937">
        <ele>342.8</ele>
        <time>2022-06-06T13:55:12Z</time>
      </trkpt>
      <trkpt lat="47.61466" lon="5.15942">
        <ele>344</ele>
        <time>2022-06-06T13:55:16Z</time>
      </trkpt>
      <trkpt lat="47.61472" lon="5.15946">
        <ele>344.4</ele>
        <time>2022-06-06T13:55:19Z</time>
      </trkpt>
      <trkpt lat="47.61476" lon="5.15949">
        <ele>345.2</ele>
        <time>2022-06-06T13:55:21Z</time>
      </trkpt>
      <trkpt lat="47.61491" lon="5.15957">
        <ele>346.2</ele>
        <time>2022-06-06T13:55:27Z</time>
      </trkpt>
      <trkpt lat="47.61493" lon="5.15958">
        <ele>346.4</ele>
        <time>2022-06-06T13:55:28Z</time>
      </trkpt>
      <trkpt lat="47.61501" lon="5.15963">
        <ele>347.6</ele>
        <time>2022-06-06T13:55:32Z</time>
      </trkpt>
      <trkpt lat="47.61503" lon="5.15965">
        <ele>347.6</ele>
        <time>2022-06-06T13:55:33Z</time>
      </trkpt>
      <trkpt lat="47.61506" lon="5.15968">
        <ele>348.2</ele>
        <time>2022-06-06T13:55:35Z</time>
      </trkpt>
      <trkpt lat="47.61511" lon="5.15971">
        <ele>348.6</ele>
        <time>2022-06-06T13:55:37Z</time>
      </trkpt>
      <trkpt lat="47.61521" lon="5.15983">
        <ele>349.6</ele>
        <time>2022-06-06T13:55:43Z</time>
      </trkpt>
      <trkpt lat="47.61529" lon="5.15993">
        <ele>350.8</ele>
        <time>2022-06-06T13:55:48Z</time>
      </trkpt>
      <trkpt lat="47.61534" lon="5.16001">
        <ele>351</ele>
        <time>2022-06-06T13:55:51Z</time>
      </trkpt>
      <trkpt lat="47.61541" lon="5.1601">
        <ele>352</ele>
        <time>2022-06-06T13:55:55Z</time>
      </trkpt>
      <trkpt lat="47.6155" lon="5.16021">
        <ele>352.8</ele>
        <time>2022-06-06T13:56:00Z</time>
      </trkpt>
      <trkpt lat="47.61552" lon="5.16023">
        <ele>353.2</ele>
        <time>2022-06-06T13:56:01Z</time>
      </trkpt>
      <trkpt lat="47.61561" lon="5.16035">
        <ele>353.8</ele>
        <time>2022-06-06T13:56:06Z</time>
      </trkpt>
      <trkpt lat="47.61567" lon="5.16042">
        <ele>354.2</ele>
        <time>2022-06-06T13:56:09Z</time>
      </trkpt>
      <trkpt lat="47.61576" lon="5.16053">
        <ele>354.8</ele>
        <time>2022-06-06T13:56:14Z</time>
      </trkpt>
      <trkpt lat="47.61581" lon="5.1606">
        <ele>355.2</ele>
        <time>2022-06-06T13:56:16Z</time>
      </trkpt>
      <trkpt lat="47.61587" lon="5.1607">
        <ele>356.2</ele>
        <time>2022-06-06T13:56:20Z</time>
      </trkpt>
      <trkpt lat="47.61589" lon="5.16073">
        <ele>356.2</ele>
        <time>2022-06-06T13:56:21Z</time>
      </trkpt>
      <trkpt lat="47.61599" lon="5.16094">
        <ele>356.8</ele>
        <time>2022-06-06T13:56:27Z</time>
      </trkpt>
      <trkpt lat="47.61605" lon="5.16108">
        <ele>357.4</ele>
        <time>2022-06-06T13:56:31Z</time>
      </trkpt>
      <trkpt lat="47.61611" lon="5.16123">
        <ele>357.8</ele>
        <time>2022-06-06T13:56:35Z</time>
      </trkpt>
      <trkpt lat="47.61619" lon="5.16143">
        <ele>358.4</ele>
        <time>2022-06-06T13:56:40Z</time>
      </trkpt>
      <trkpt lat="47.61624" lon="5.16155">
        <ele>359</ele>
        <time>2022-06-06T13:56:43Z</time>
      </trkpt>
      <trkpt lat="47.6163" lon="5.1617">
        <ele>359.4</ele>
        <time>2022-06-06T13:56:47Z</time>
      </trkpt>
      <trkpt lat="47.61634" lon="5.16183">
        <ele>360</ele>
        <time>2022-06-06T13:56:50Z</time>
      </trkpt>
      <trkpt lat="47.61643" lon="5.16212">
        <ele>360.4</ele>
        <time>2022-06-06T13:56:57Z</time>
      </trkpt>
      <trkpt lat="47.61648" lon="5.16225">
        <ele>361</ele>
        <time>2022-06-06T13:57:00Z</time>
      </trkpt>
      <trkpt lat="47.61657" lon="5.16249">
        <ele>361.8</ele>
        <time>2022-06-06T13:57:06Z</time>
      </trkpt>
      <trkpt lat="47.61658" lon="5.16253">
        <ele>361.8</ele>
        <time>2022-06-06T13:57:07Z</time>
      </trkpt>
      <trkpt lat="47.61659" lon="5.16256">
        <ele>362</ele>
        <time>2022-06-06T13:57:08Z</time>
      </trkpt>
      <trkpt lat="47.61668" lon="5.16281">
        <ele>362.8</ele>
        <time>2022-06-06T13:57:14Z</time>
      </trkpt>
      <trkpt lat="47.61673" lon="5.16291">
        <ele>363.2</ele>
        <time>2022-06-06T13:57:17Z</time>
      </trkpt>
      <trkpt lat="47.61681" lon="5.16302">
        <ele>363.8</ele>
        <time>2022-06-06T13:57:21Z</time>
      </trkpt>
      <trkpt lat="47.61687" lon="5.16309">
        <ele>364.6</ele>
        <time>2022-06-06T13:57:24Z</time>
      </trkpt>
      <trkpt lat="47.61694" lon="5.16316">
        <ele>365</ele>
        <time>2022-06-06T13:57:27Z</time>
      </trkpt>
      <trkpt lat="47.61704" lon="5.16326">
        <ele>366.4</ele>
        <time>2022-06-06T13:57:32Z</time>
      </trkpt>
      <trkpt lat="47.61706" lon="5.16328">
        <ele>366.8</ele>
        <time>2022-06-06T13:57:33Z</time>
      </trkpt>
      <trkpt lat="47.61713" lon="5.16337">
        <ele>367.4</ele>
        <time>2022-06-06T13:57:37Z</time>
      </trkpt>
      <trkpt lat="47.61718" lon="5.16343">
        <ele>368.8</ele>
        <time>2022-06-06T13:57:40Z</time>
      </trkpt>
      <trkpt lat="47.6172" lon="5.16344">
        <ele>369.2</ele>
        <time>2022-06-06T13:57:41Z</time>
      </trkpt>
      <trkpt lat="47.61722" lon="5.16347">
        <ele>369.8</ele>
        <time>2022-06-06T13:57:42Z</time>
      </trkpt>
      <trkpt lat="47.61726" lon="5.16351">
        <ele>371</ele>
        <time>2022-06-06T13:57:45Z</time>
      </trkpt>
      <trkpt lat="47.61727" lon="5.16353">
        <ele>371.2</ele>
        <time>2022-06-06T13:57:46Z</time>
      </trkpt>
      <trkpt lat="47.6173" lon="5.16359">
        <ele>372.4</ele>
        <time>2022-06-06T13:57:49Z</time>
      </trkpt>
      <trkpt lat="47.61734" lon="5.16364">
        <ele>373</ele>
        <time>2022-06-06T13:57:52Z</time>
      </trkpt>
      <trkpt lat="47.61736" lon="5.16366">
        <ele>373.6</ele>
        <time>2022-06-06T13:57:54Z</time>
      </trkpt>
      <trkpt lat="47.61739" lon="5.1637">
        <ele>374.4</ele>
        <time>2022-06-06T13:57:57Z</time>
      </trkpt>
      <trkpt lat="47.6174" lon="5.16371">
        <ele>375</ele>
        <time>2022-06-06T13:57:58Z</time>
      </trkpt>
      <trkpt lat="47.61741" lon="5.16373">
        <ele>375.2</ele>
        <time>2022-06-06T13:57:59Z</time>
      </trkpt>
      <trkpt lat="47.61743" lon="5.16377">
        <ele>376</ele>
        <time>2022-06-06T13:58:02Z</time>
      </trkpt>
      <trkpt lat="47.61746" lon="5.16381">
        <ele>377.2</ele>
        <time>2022-06-06T13:58:05Z</time>
      </trkpt>
      <trkpt lat="47.61746" lon="5.16383">
        <ele>377.4</ele>
        <time>2022-06-06T13:58:06Z</time>
      </trkpt>
      <trkpt lat="47.61748" lon="5.16387">
        <ele>377.8</ele>
        <time>2022-06-06T13:58:08Z</time>
      </trkpt>
      <trkpt lat="47.6175" lon="5.16394">
        <ele>378.4</ele>
        <time>2022-06-06T13:58:11Z</time>
      </trkpt>
      <trkpt lat="47.6175" lon="5.16396">
        <ele>378.6</ele>
        <time>2022-06-06T13:58:12Z</time>
      </trkpt>
      <trkpt lat="47.61753" lon="5.16402">
        <ele>379.8</ele>
        <time>2022-06-06T13:58:16Z</time>
      </trkpt>
      <trkpt lat="47.61752" lon="5.16406">
        <ele>380.2</ele>
        <time>2022-06-06T13:58:18Z</time>
      </trkpt>
      <trkpt lat="47.61753" lon="5.16412">
        <ele>380.8</ele>
        <time>2022-06-06T13:58:21Z</time>
      </trkpt>
      <trkpt lat="47.61754" lon="5.1642">
        <ele>381</ele>
        <time>2022-06-06T13:58:24Z</time>
      </trkpt>
      <trkpt lat="47.61755" lon="5.16422">
        <ele>381.2</ele>
        <time>2022-06-06T13:58:25Z</time>
      </trkpt>
      <trkpt lat="47.61755" lon="5.1643">
        <ele>382</ele>
        <time>2022-06-06T13:58:28Z</time>
      </trkpt>
      <trkpt lat="47.61756" lon="5.16434">
        <ele>382.2</ele>
        <time>2022-06-06T13:58:30Z</time>
      </trkpt>
      <trkpt lat="47.61757" lon="5.16442">
        <ele>382.8</ele>
        <time>2022-06-06T13:58:33Z</time>
      </trkpt>
      <trkpt lat="47.61756" lon="5.16445">
        <ele>383</ele>
        <time>2022-06-06T13:58:34Z</time>
      </trkpt>
      <trkpt lat="47.61756" lon="5.16448">
        <ele>383</ele>
        <time>2022-06-06T13:58:35Z</time>
      </trkpt>
      <trkpt lat="47.61757" lon="5.16455">
        <ele>383.6</ele>
        <time>2022-06-06T13:58:38Z</time>
      </trkpt>
      <trkpt lat="47.61757" lon="5.16458">
        <ele>383.8</ele>
        <time>2022-06-06T13:58:39Z</time>
      </trkpt>
      <trkpt lat="47.61757" lon="5.16462">
        <ele>384.2</ele>
        <time>2022-06-06T13:58:41Z</time>
      </trkpt>
      <trkpt lat="47.61759" lon="5.16467">
        <ele>384.6</ele>
        <time>2022-06-06T13:58:43Z</time>
      </trkpt>
      <trkpt lat="47.61759" lon="5.16469">
        <ele>384.8</ele>
        <time>2022-06-06T13:58:44Z</time>
      </trkpt>
      <trkpt lat="47.61762" lon="5.16475">
        <ele>385.2</ele>
        <time>2022-06-06T13:58:46Z</time>
      </trkpt>
      <trkpt lat="47.61761" lon="5.16482">
        <ele>386</ele>
        <time>2022-06-06T13:58:49Z</time>
      </trkpt>
      <trkpt lat="47.6176" lon="5.16485">
        <ele>386.2</ele>
        <time>2022-06-06T13:58:50Z</time>
      </trkpt>
      <trkpt lat="47.61764" lon="5.16496">
        <ele>386.8</ele>
        <time>2022-06-06T13:58:54Z</time>
      </trkpt>
      <trkpt lat="47.61764" lon="5.16498">
        <ele>387</ele>
        <time>2022-06-06T13:58:55Z</time>
      </trkpt>
      <trkpt lat="47.61764" lon="5.16502">
        <ele>387.6</ele>
        <time>2022-06-06T13:58:57Z</time>
      </trkpt>
      <trkpt lat="47.61765" lon="5.16504">
        <ele>387.8</ele>
        <time>2022-06-06T13:58:58Z</time>
      </trkpt>
      <trkpt lat="47.61766" lon="5.1651">
        <ele>388.2</ele>
        <time>2022-06-06T13:59:01Z</time>
      </trkpt>
      <trkpt lat="47.61766" lon="5.16516">
        <ele>388.8</ele>
        <time>2022-06-06T13:59:06Z</time>
      </trkpt>
      <trkpt lat="47.61767" lon="5.16519">
        <ele>389.2</ele>
        <time>2022-06-06T13:59:08Z</time>
      </trkpt>
      <trkpt lat="47.61767" lon="5.16528">
        <ele>390</ele>
        <time>2022-06-06T13:59:13Z</time>
      </trkpt>
      <trkpt lat="47.61769" lon="5.16532">
        <ele>390.2</ele>
        <time>2022-06-06T13:59:15Z</time>
      </trkpt>
      <trkpt lat="47.61771" lon="5.16537">
        <ele>390.4</ele>
        <time>2022-06-06T13:59:17Z</time>
      </trkpt>
      <trkpt lat="47.61772" lon="5.16543">
        <ele>390.8</ele>
        <time>2022-06-06T13:59:19Z</time>
      </trkpt>
      <trkpt lat="47.61773" lon="5.16545">
        <ele>390.8</ele>
        <time>2022-06-06T13:59:20Z</time>
      </trkpt>
      <trkpt lat="47.61775" lon="5.16554">
        <ele>391.2</ele>
        <time>2022-06-06T13:59:22Z</time>
      </trkpt>
      <trkpt lat="47.61776" lon="5.16562">
        <ele>391.6</ele>
        <time>2022-06-06T13:59:25Z</time>
      </trkpt>
      <trkpt lat="47.61778" lon="5.16567">
        <ele>392</ele>
        <time>2022-06-06T13:59:27Z</time>
      </trkpt>
      <trkpt lat="47.61781" lon="5.16584">
        <ele>392.4</ele>
        <time>2022-06-06T13:59:31Z</time>
      </trkpt>
      <trkpt lat="47.61782" lon="5.16596">
        <ele>393</ele>
        <time>2022-06-06T13:59:34Z</time>
      </trkpt>
      <trkpt lat="47.61784" lon="5.16603">
        <ele>393.4</ele>
        <time>2022-06-06T13:59:36Z</time>
      </trkpt>
      <trkpt lat="47.61788" lon="5.16618">
        <ele>394.4</ele>
        <time>2022-06-06T13:59:41Z</time>
      </trkpt>
      <trkpt lat="47.61789" lon="5.16621">
        <ele>395</ele>
        <time>2022-06-06T13:59:43Z</time>
      </trkpt>
      <trkpt lat="47.61792" lon="5.16629">
        <ele>395.6</ele>
        <time>2022-06-06T13:59:46Z</time>
      </trkpt>
      <trkpt lat="47.61793" lon="5.16635">
        <ele>395.8</ele>
        <time>2022-06-06T13:59:48Z</time>
      </trkpt>
      <trkpt lat="47.61793" lon="5.16637">
        <ele>396</ele>
        <time>2022-06-06T13:59:49Z</time>
      </trkpt>
      <trkpt lat="47.61793" lon="5.16639">
        <ele>396.2</ele>
        <time>2022-06-06T13:59:50Z</time>
      </trkpt>
      <trkpt lat="47.61792" lon="5.16646">
        <ele>396.6</ele>
        <time>2022-06-06T13:59:53Z</time>
      </trkpt>
      <trkpt lat="47.61791" lon="5.16648">
        <ele>397</ele>
        <time>2022-06-06T13:59:54Z</time>
      </trkpt>
      <trkpt lat="47.61792" lon="5.1666">
        <ele>397.6</ele>
        <time>2022-06-06T13:59:58Z</time>
      </trkpt>
      <trkpt lat="47.61792" lon="5.16663">
        <ele>397.8</ele>
        <time>2022-06-06T13:59:59Z</time>
      </trkpt>
      <trkpt lat="47.61793" lon="5.1667">
        <ele>398</ele>
        <time>2022-06-06T14:00:01Z</time>
      </trkpt>
      <trkpt lat="47.61799" lon="5.16701">
        <ele>398.8</ele>
        <time>2022-06-06T14:00:08Z</time>
      </trkpt>
      <trkpt lat="47.61802" lon="5.16728">
        <ele>399.2</ele>
        <time>2022-06-06T14:00:15Z</time>
      </trkpt>
      <trkpt lat="47.61802" lon="5.16732">
        <ele>399.4</ele>
        <time>2022-06-06T14:00:16Z</time>
      </trkpt>
      <trkpt lat="47.61801" lon="5.16738">
        <ele>399.6</ele>
        <time>2022-06-06T14:00:18Z</time>
      </trkpt>
      <trkpt lat="47.61802" lon="5.16742">
        <ele>399.6</ele>
        <time>2022-06-06T14:00:19Z</time>
      </trkpt>
      <trkpt lat="47.61803" lon="5.16746">
        <ele>399.8</ele>
        <time>2022-06-06T14:00:20Z</time>
      </trkpt>
      <trkpt lat="47.61806" lon="5.1677">
        <ele>400</ele>
        <time>2022-06-06T14:00:26Z</time>
      </trkpt>
      <trkpt lat="47.61806" lon="5.16777">
        <ele>400</ele>
        <time>2022-06-06T14:00:28Z</time>
      </trkpt>
      <trkpt lat="47.61806" lon="5.16788">
        <ele>400.2</ele>
        <time>2022-06-06T14:00:31Z</time>
      </trkpt>
      <trkpt lat="47.61806" lon="5.16814">
        <ele>400.6</ele>
        <time>2022-06-06T14:00:38Z</time>
      </trkpt>
      <trkpt lat="47.61805" lon="5.16819">
        <ele>400.6</ele>
        <time>2022-06-06T14:00:39Z</time>
      </trkpt>
      <trkpt lat="47.61806" lon="5.16838">
        <ele>400.8</ele>
        <time>2022-06-06T14:00:42Z</time>
      </trkpt>
      <trkpt lat="47.61806" lon="5.16846">
        <ele>400.8</ele>
        <time>2022-06-06T14:00:44Z</time>
      </trkpt>
      <trkpt lat="47.61809" lon="5.16867">
        <ele>401</ele>
        <time>2022-06-06T14:00:48Z</time>
      </trkpt>
      <trkpt lat="47.6181" lon="5.16884">
        <ele>401.2</ele>
        <time>2022-06-06T14:00:51Z</time>
      </trkpt>
      <trkpt lat="47.61809" lon="5.16887">
        <ele>401.4</ele>
        <time>2022-06-06T14:00:52Z</time>
      </trkpt>
      <trkpt lat="47.61808" lon="5.16889">
        <ele>401.4</ele>
        <time>2022-06-06T14:00:53Z</time>
      </trkpt>
      <trkpt lat="47.61808" lon="5.16894">
        <ele>401.6</ele>
        <time>2022-06-06T14:00:54Z</time>
      </trkpt>
      <trkpt lat="47.61807" lon="5.16905">
        <ele>401.6</ele>
        <time>2022-06-06T14:00:57Z</time>
      </trkpt>
      <trkpt lat="47.61809" lon="5.16909">
        <ele>401.8</ele>
        <time>2022-06-06T14:00:58Z</time>
      </trkpt>
      <trkpt lat="47.6181" lon="5.16915">
        <ele>401.8</ele>
        <time>2022-06-06T14:01:00Z</time>
      </trkpt>
      <trkpt lat="47.6181" lon="5.16917">
        <ele>402</ele>
        <time>2022-06-06T14:01:01Z</time>
      </trkpt>
      <trkpt lat="47.6181" lon="5.16924">
        <ele>402.2</ele>
        <time>2022-06-06T14:01:03Z</time>
      </trkpt>
      <trkpt lat="47.6181" lon="5.16928">
        <ele>402.2</ele>
        <time>2022-06-06T14:01:04Z</time>
      </trkpt>
      <trkpt lat="47.61811" lon="5.16936">
        <ele>402.2</ele>
        <time>2022-06-06T14:01:06Z</time>
      </trkpt>
      <trkpt lat="47.61812" lon="5.16939">
        <ele>402.2</ele>
        <time>2022-06-06T14:01:07Z</time>
      </trkpt>
      <trkpt lat="47.61814" lon="5.1696">
        <ele>402.8</ele>
        <time>2022-06-06T14:01:12Z</time>
      </trkpt>
      <trkpt lat="47.61813" lon="5.16981">
        <ele>403</ele>
        <time>2022-06-06T14:01:16Z</time>
      </trkpt>
      <trkpt lat="47.61813" lon="5.16985">
        <ele>403</ele>
        <time>2022-06-06T14:01:17Z</time>
      </trkpt>
      <trkpt lat="47.61813" lon="5.16997">
        <ele>403.2</ele>
        <time>2022-06-06T14:01:19Z</time>
      </trkpt>
      <trkpt lat="47.61816" lon="5.17009">
        <ele>403.4</ele>
        <time>2022-06-06T14:01:21Z</time>
      </trkpt>
      <trkpt lat="47.6182" lon="5.17027">
        <ele>403.6</ele>
        <time>2022-06-06T14:01:24Z</time>
      </trkpt>
      <trkpt lat="47.61821" lon="5.17063">
        <ele>404.2</ele>
        <time>2022-06-06T14:01:30Z</time>
      </trkpt>
      <trkpt lat="47.61821" lon="5.1709">
        <ele>404.8</ele>
        <time>2022-06-06T14:01:35Z</time>
      </trkpt>
      <trkpt lat="47.6182" lon="5.17093">
        <ele>405</ele>
        <time>2022-06-06T14:01:36Z</time>
      </trkpt>
      <trkpt lat="47.61816" lon="5.17101">
        <ele>405.2</ele>
        <time>2022-06-06T14:01:38Z</time>
      </trkpt>
      <trkpt lat="47.61816" lon="5.17106">
        <ele>405.4</ele>
        <time>2022-06-06T14:01:39Z</time>
      </trkpt>
      <trkpt lat="47.61821" lon="5.17146">
        <ele>405.8</ele>
        <time>2022-06-06T14:01:45Z</time>
      </trkpt>
      <trkpt lat="47.61821" lon="5.17154">
        <ele>406</ele>
        <time>2022-06-06T14:01:47Z</time>
      </trkpt>
      <trkpt lat="47.61826" lon="5.1718">
        <ele>406.6</ele>
        <time>2022-06-06T14:01:51Z</time>
      </trkpt>
      <trkpt lat="47.61832" lon="5.17208">
        <ele>407.4</ele>
        <time>2022-06-06T14:01:56Z</time>
      </trkpt>
      <trkpt lat="47.61832" lon="5.17214">
        <ele>407.4</ele>
        <time>2022-06-06T14:01:57Z</time>
      </trkpt>
      <trkpt lat="47.61829" lon="5.1722">
        <ele>407.8</ele>
        <time>2022-06-06T14:01:58Z</time>
      </trkpt>
      <trkpt lat="47.61831" lon="5.17231">
        <ele>408.2</ele>
        <time>2022-06-06T14:02:00Z</time>
      </trkpt>
      <trkpt lat="47.61833" lon="5.1724">
        <ele>408.6</ele>
        <time>2022-06-06T14:02:02Z</time>
      </trkpt>
      <trkpt lat="47.61832" lon="5.17244">
        <ele>409</ele>
        <time>2022-06-06T14:02:03Z</time>
      </trkpt>
      <trkpt lat="47.61833" lon="5.17247">
        <ele>409</ele>
        <time>2022-06-06T14:02:04Z</time>
      </trkpt>
      <trkpt lat="47.61835" lon="5.1726">
        <ele>409.6</ele>
        <time>2022-06-06T14:02:06Z</time>
      </trkpt>
      <trkpt lat="47.61836" lon="5.17263">
        <ele>409.8</ele>
        <time>2022-06-06T14:02:07Z</time>
      </trkpt>
      <trkpt lat="47.61838" lon="5.17271">
        <ele>410.4</ele>
        <time>2022-06-06T14:02:09Z</time>
      </trkpt>
      <trkpt lat="47.61842" lon="5.1728">
        <ele>410.4</ele>
        <time>2022-06-06T14:02:11Z</time>
      </trkpt>
      <trkpt lat="47.61844" lon="5.17287">
        <ele>410.8</ele>
        <time>2022-06-06T14:02:12Z</time>
      </trkpt>
      <trkpt lat="47.61843" lon="5.17292">
        <ele>410.8</ele>
        <time>2022-06-06T14:02:13Z</time>
      </trkpt>
      <trkpt lat="47.61848" lon="5.17305">
        <ele>411.2</ele>
        <time>2022-06-06T14:02:16Z</time>
      </trkpt>
      <trkpt lat="47.61852" lon="5.17318">
        <ele>412</ele>
        <time>2022-06-06T14:02:19Z</time>
      </trkpt>
      <trkpt lat="47.61851" lon="5.17328">
        <ele>412.4</ele>
        <time>2022-06-06T14:02:21Z</time>
      </trkpt>
      <trkpt lat="47.61856" lon="5.17344">
        <ele>413</ele>
        <time>2022-06-06T14:02:24Z</time>
      </trkpt>
      <trkpt lat="47.61859" lon="5.17349">
        <ele>413.4</ele>
        <time>2022-06-06T14:02:25Z</time>
      </trkpt>
      <trkpt lat="47.61863" lon="5.1736">
        <ele>414.2</ele>
        <time>2022-06-06T14:02:28Z</time>
      </trkpt>
      <trkpt lat="47.61869" lon="5.17375">
        <ele>415</ele>
        <time>2022-06-06T14:02:32Z</time>
      </trkpt>
      <trkpt lat="47.61874" lon="5.17381">
        <ele>415.4</ele>
        <time>2022-06-06T14:02:34Z</time>
      </trkpt>
      <trkpt lat="47.61875" lon="5.17386">
        <ele>416</ele>
        <time>2022-06-06T14:02:36Z</time>
      </trkpt>
      <trkpt lat="47.61877" lon="5.1739">
        <ele>416.4</ele>
        <time>2022-06-06T14:02:38Z</time>
      </trkpt>
      <trkpt lat="47.61884" lon="5.17401">
        <ele>417.6</ele>
        <time>2022-06-06T14:02:44Z</time>
      </trkpt>
      <trkpt lat="47.61885" lon="5.17403">
        <ele>418</ele>
        <time>2022-06-06T14:02:45Z</time>
      </trkpt>
      <trkpt lat="47.61887" lon="5.17405">
        <ele>418.2</ele>
        <time>2022-06-06T14:02:47Z</time>
      </trkpt>
      <trkpt lat="47.61889" lon="5.17407">
        <ele>418.8</ele>
        <time>2022-06-06T14:02:49Z</time>
      </trkpt>
      <trkpt lat="47.61889" lon="5.17409">
        <ele>418.8</ele>
        <time>2022-06-06T14:02:50Z</time>
      </trkpt>
      <trkpt lat="47.6189" lon="5.1741">
        <ele>419</ele>
        <time>2022-06-06T14:02:51Z</time>
      </trkpt>
      <trkpt lat="47.61892" lon="5.17416">
        <ele>420</ele>
        <time>2022-06-06T14:02:56Z</time>
      </trkpt>
      <trkpt lat="47.61896" lon="5.17419">
        <ele>421.2</ele>
        <time>2022-06-06T14:03:00Z</time>
      </trkpt>
      <trkpt lat="47.61896" lon="5.17419">
        <ele>421.4</ele>
        <time>2022-06-06T14:03:02Z</time>
      </trkpt>
      <trkpt lat="47.61898" lon="5.17421">
        <ele>422.2</ele>
        <time>2022-06-06T14:03:04Z</time>
      </trkpt>
      <trkpt lat="47.61902" lon="5.17424">
        <ele>423.4</ele>
        <time>2022-06-06T14:03:07Z</time>
      </trkpt>
      <trkpt lat="47.61904" lon="5.17426">
        <ele>423.4</ele>
        <time>2022-06-06T14:03:08Z</time>
      </trkpt>
      <trkpt lat="47.61914" lon="5.17433">
        <ele>424.4</ele>
        <time>2022-06-06T14:03:13Z</time>
      </trkpt>
      <trkpt lat="47.61916" lon="5.17435">
        <ele>424.6</ele>
        <time>2022-06-06T14:03:14Z</time>
      </trkpt>
      <trkpt lat="47.61919" lon="5.17436">
        <ele>424.6</ele>
        <time>2022-06-06T14:03:15Z</time>
      </trkpt>
      <trkpt lat="47.61927" lon="5.17442">
        <ele>425.4</ele>
        <time>2022-06-06T14:03:20Z</time>
      </trkpt>
      <trkpt lat="47.61933" lon="5.17446">
        <ele>426</ele>
        <time>2022-06-06T14:03:23Z</time>
      </trkpt>
      <trkpt lat="47.61949" lon="5.17459">
        <ele>426.6</ele>
        <time>2022-06-06T14:03:30Z</time>
      </trkpt>
      <trkpt lat="47.61964" lon="5.17466">
        <ele>427.2</ele>
        <time>2022-06-06T14:03:37Z</time>
      </trkpt>
      <trkpt lat="47.61979" lon="5.17482">
        <ele>427.2</ele>
        <time>2022-06-06T14:03:45Z</time>
      </trkpt>
      <trkpt lat="47.6199" lon="5.17499">
        <ele>427.4</ele>
        <time>2022-06-06T14:03:51Z</time>
      </trkpt>
      <trkpt lat="47.61992" lon="5.17501">
        <ele>427.4</ele>
        <time>2022-06-06T14:03:52Z</time>
      </trkpt>
      <trkpt lat="47.62001" lon="5.1752">
        <ele>427.8</ele>
        <time>2022-06-06T14:03:58Z</time>
      </trkpt>
      <trkpt lat="47.62008" lon="5.17541">
        <ele>428.2</ele>
        <time>2022-06-06T14:04:04Z</time>
      </trkpt>
      <trkpt lat="47.62016" lon="5.17563">
        <ele>428.6</ele>
        <time>2022-06-06T14:04:09Z</time>
      </trkpt>
      <trkpt lat="47.62017" lon="5.17572">
        <ele>428.6</ele>
        <time>2022-06-06T14:04:11Z</time>
      </trkpt>
      <trkpt lat="47.62017" lon="5.176">
        <ele>429</ele>
        <time>2022-06-06T14:04:17Z</time>
      </trkpt>
      <trkpt lat="47.62016" lon="5.17621">
        <ele>429.4</ele>
        <time>2022-06-06T14:04:23Z</time>
      </trkpt>
      <trkpt lat="47.62013" lon="5.17632">
        <ele>429.4</ele>
        <time>2022-06-06T14:04:26Z</time>
      </trkpt>
      <trkpt lat="47.62015" lon="5.17641">
        <ele>429.4</ele>
        <time>2022-06-06T14:04:28Z</time>
      </trkpt>
      <trkpt lat="47.62023" lon="5.17662">
        <ele>429.6</ele>
        <time>2022-06-06T14:04:32Z</time>
      </trkpt>
      <trkpt lat="47.62024" lon="5.17666">
        <ele>429.8</ele>
        <time>2022-06-06T14:04:33Z</time>
      </trkpt>
      <trkpt lat="47.62028" lon="5.17679">
        <ele>429.8</ele>
        <time>2022-06-06T14:04:36Z</time>
      </trkpt>
      <trkpt lat="47.6203" lon="5.17681">
        <ele>430</ele>
        <time>2022-06-06T14:04:37Z</time>
      </trkpt>
      <trkpt lat="47.6203" lon="5.17684">
        <ele>430.2</ele>
        <time>2022-06-06T14:04:38Z</time>
      </trkpt>
      <trkpt lat="47.62028" lon="5.17696">
        <ele>430.2</ele>
        <time>2022-06-06T14:04:41Z</time>
      </trkpt>
      <trkpt lat="47.62028" lon="5.17702">
        <ele>430.2</ele>
        <time>2022-06-06T14:04:42Z</time>
      </trkpt>
      <trkpt lat="47.62026" lon="5.17719">
        <ele>430.2</ele>
        <time>2022-06-06T14:04:46Z</time>
      </trkpt>
      <trkpt lat="47.62029" lon="5.1774">
        <ele>430.2</ele>
        <time>2022-06-06T14:04:50Z</time>
      </trkpt>
      <trkpt lat="47.62039" lon="5.17768">
        <ele>430.6</ele>
        <time>2022-06-06T14:04:57Z</time>
      </trkpt>
      <trkpt lat="47.62039" lon="5.17771">
        <ele>430.6</ele>
        <time>2022-06-06T14:04:58Z</time>
      </trkpt>
      <trkpt lat="47.62037" lon="5.17778">
        <ele>430.6</ele>
        <time>2022-06-06T14:05:00Z</time>
      </trkpt>
      <trkpt lat="47.62037" lon="5.17778">
        <ele>430.6</ele>
        <time>2022-06-06T14:05:06Z</time>
      </trkpt>
      <trkpt lat="47.62039" lon="5.17787">
        <ele>430.2</ele>
        <time>2022-06-06T14:05:23Z</time>
      </trkpt>
      <trkpt lat="47.62039" lon="5.17789">
        <ele>430.2</ele>
        <time>2022-06-06T14:05:24Z</time>
      </trkpt>
      <trkpt lat="47.62041" lon="5.17798">
        <ele>430</ele>
        <time>2022-06-06T14:05:27Z</time>
      </trkpt>
      <trkpt lat="47.62041" lon="5.17801">
        <ele>430</ele>
        <time>2022-06-06T14:05:28Z</time>
      </trkpt>
      <trkpt lat="47.62041" lon="5.17808">
        <ele>430.2</ele>
        <time>2022-06-06T14:05:31Z</time>
      </trkpt>
      <trkpt lat="47.6204" lon="5.17811">
        <ele>430.2</ele>
        <time>2022-06-06T14:05:32Z</time>
      </trkpt>
      <trkpt lat="47.62038" lon="5.17817">
        <ele>430.2</ele>
        <time>2022-06-06T14:05:34Z</time>
      </trkpt>
      <trkpt lat="47.62033" lon="5.17824">
        <ele>430.4</ele>
        <time>2022-06-06T14:05:37Z</time>
      </trkpt>
      <trkpt lat="47.62018" lon="5.1783">
        <ele>430.4</ele>
        <time>2022-06-06T14:05:43Z</time>
      </trkpt>
      <trkpt lat="47.62002" lon="5.17838">
        <ele>430.4</ele>
        <time>2022-06-06T14:05:47Z</time>
      </trkpt>
      <trkpt lat="47.61986" lon="5.17854">
        <ele>430</ele>
        <time>2022-06-06T14:05:52Z</time>
      </trkpt>
      <trkpt lat="47.61983" lon="5.17858">
        <ele>430</ele>
        <time>2022-06-06T14:05:53Z</time>
      </trkpt>
      <trkpt lat="47.61966" lon="5.17876">
        <ele>429.6</ele>
        <time>2022-06-06T14:05:59Z</time>
      </trkpt>
      <trkpt lat="47.6194" lon="5.17906">
        <ele>430</ele>
        <time>2022-06-06T14:06:08Z</time>
      </trkpt>
      <trkpt lat="47.61924" lon="5.17936">
        <ele>430.4</ele>
        <time>2022-06-06T14:06:15Z</time>
      </trkpt>
      <trkpt lat="47.61916" lon="5.17946">
        <ele>430.8</ele>
        <time>2022-06-06T14:06:18Z</time>
      </trkpt>
      <trkpt lat="47.61903" lon="5.17956">
        <ele>431.4</ele>
        <time>2022-06-06T14:06:22Z</time>
      </trkpt>
      <trkpt lat="47.61895" lon="5.17961">
        <ele>432</ele>
        <time>2022-06-06T14:06:24Z</time>
      </trkpt>
      <trkpt lat="47.61877" lon="5.17969">
        <ele>432.8</ele>
        <time>2022-06-06T14:06:29Z</time>
      </trkpt>
      <trkpt lat="47.61874" lon="5.1797">
        <ele>433</ele>
        <time>2022-06-06T14:06:30Z</time>
      </trkpt>
      <trkpt lat="47.61852" lon="5.17981">
        <ele>434</ele>
        <time>2022-06-06T14:06:36Z</time>
      </trkpt>
      <trkpt lat="47.61849" lon="5.17982">
        <ele>434.4</ele>
        <time>2022-06-06T14:06:37Z</time>
      </trkpt>
      <trkpt lat="47.61837" lon="5.17988">
        <ele>434.8</ele>
        <time>2022-06-06T14:06:40Z</time>
      </trkpt>
      <trkpt lat="47.61827" lon="5.17994">
        <ele>435.2</ele>
        <time>2022-06-06T14:06:43Z</time>
      </trkpt>
      <trkpt lat="47.61815" lon="5.18001">
        <ele>435.8</ele>
        <time>2022-06-06T14:06:46Z</time>
      </trkpt>
      <trkpt lat="47.618" lon="5.18009">
        <ele>436.2</ele>
        <time>2022-06-06T14:06:50Z</time>
      </trkpt>
      <trkpt lat="47.61789" lon="5.18015">
        <ele>436.4</ele>
        <time>2022-06-06T14:06:53Z</time>
      </trkpt>
      <trkpt lat="47.61767" lon="5.18029">
        <ele>437.2</ele>
        <time>2022-06-06T14:06:59Z</time>
      </trkpt>
      <trkpt lat="47.61755" lon="5.18035">
        <ele>437.8</ele>
        <time>2022-06-06T14:07:02Z</time>
      </trkpt>
      <trkpt lat="47.61752" lon="5.18037">
        <ele>438.2</ele>
        <time>2022-06-06T14:07:03Z</time>
      </trkpt>
      <trkpt lat="47.61749" lon="5.18039">
        <ele>438.2</ele>
        <time>2022-06-06T14:07:04Z</time>
      </trkpt>
      <trkpt lat="47.61734" lon="5.18049">
        <ele>438.8</ele>
        <time>2022-06-06T14:07:08Z</time>
      </trkpt>
      <trkpt lat="47.61718" lon="5.18059">
        <ele>439.4</ele>
        <time>2022-06-06T14:07:12Z</time>
      </trkpt>
      <trkpt lat="47.6171" lon="5.18065">
        <ele>439.6</ele>
        <time>2022-06-06T14:07:14Z</time>
      </trkpt>
      <trkpt lat="47.61703" lon="5.18069">
        <ele>439.8</ele>
        <time>2022-06-06T14:07:16Z</time>
      </trkpt>
      <trkpt lat="47.61698" lon="5.18072">
        <ele>439.8</ele>
        <time>2022-06-06T14:07:17Z</time>
      </trkpt>
      <trkpt lat="47.61674" lon="5.18086">
        <ele>440.4</ele>
        <time>2022-06-06T14:07:23Z</time>
      </trkpt>
      <trkpt lat="47.61671" lon="5.18088">
        <ele>440.4</ele>
        <time>2022-06-06T14:07:24Z</time>
      </trkpt>
      <trkpt lat="47.61659" lon="5.18095">
        <ele>440.6</ele>
        <time>2022-06-06T14:07:27Z</time>
      </trkpt>
      <trkpt lat="47.61651" lon="5.18098">
        <ele>440.6</ele>
        <time>2022-06-06T14:07:29Z</time>
      </trkpt>
      <trkpt lat="47.61643" lon="5.18103">
        <ele>440.8</ele>
        <time>2022-06-06T14:07:31Z</time>
      </trkpt>
      <trkpt lat="47.6164" lon="5.18105">
        <ele>441</ele>
        <time>2022-06-06T14:07:32Z</time>
      </trkpt>
      <trkpt lat="47.61631" lon="5.18108">
        <ele>441.4</ele>
        <time>2022-06-06T14:07:34Z</time>
      </trkpt>
      <trkpt lat="47.61611" lon="5.18122">
        <ele>442</ele>
        <time>2022-06-06T14:07:39Z</time>
      </trkpt>
      <trkpt lat="47.61607" lon="5.18125">
        <ele>442</ele>
        <time>2022-06-06T14:07:40Z</time>
      </trkpt>
      <trkpt lat="47.61602" lon="5.18128">
        <ele>442</ele>
        <time>2022-06-06T14:07:41Z</time>
      </trkpt>
      <trkpt lat="47.6158" lon="5.18147">
        <ele>442.2</ele>
        <time>2022-06-06T14:07:46Z</time>
      </trkpt>
      <trkpt lat="47.61541" lon="5.1818">
        <ele>442.2</ele>
        <time>2022-06-06T14:07:54Z</time>
      </trkpt>
      <trkpt lat="47.61521" lon="5.182">
        <ele>442.2</ele>
        <time>2022-06-06T14:07:58Z</time>
      </trkpt>
      <trkpt lat="47.6151" lon="5.18212">
        <ele>442</ele>
        <time>2022-06-06T14:08:00Z</time>
      </trkpt>
      <trkpt lat="47.61467" lon="5.1825">
        <ele>440.8</ele>
        <time>2022-06-06T14:08:08Z</time>
      </trkpt>
      <trkpt lat="47.61462" lon="5.18255">
        <ele>440.2</ele>
        <time>2022-06-06T14:08:09Z</time>
      </trkpt>
      <trkpt lat="47.61433" lon="5.18286">
        <ele>439</ele>
        <time>2022-06-06T14:08:15Z</time>
      </trkpt>
      <trkpt lat="47.61429" lon="5.1829">
        <ele>439</ele>
        <time>2022-06-06T14:08:16Z</time>
      </trkpt>
      <trkpt lat="47.61394" lon="5.18323">
        <ele>438</ele>
        <time>2022-06-06T14:08:22Z</time>
      </trkpt>
      <trkpt lat="47.61365" lon="5.18351">
        <ele>436.6</ele>
        <time>2022-06-06T14:08:27Z</time>
      </trkpt>
      <trkpt lat="47.6136" lon="5.18355">
        <ele>436.2</ele>
        <time>2022-06-06T14:08:28Z</time>
      </trkpt>
      <trkpt lat="47.61353" lon="5.18361">
        <ele>436</ele>
        <time>2022-06-06T14:08:29Z</time>
      </trkpt>
      <trkpt lat="47.61344" lon="5.1837">
        <ele>435.4</ele>
        <time>2022-06-06T14:08:31Z</time>
      </trkpt>
      <trkpt lat="47.61324" lon="5.18386">
        <ele>434.4</ele>
        <time>2022-06-06T14:08:35Z</time>
      </trkpt>
      <trkpt lat="47.6132" lon="5.1839">
        <ele>434.2</ele>
        <time>2022-06-06T14:08:36Z</time>
      </trkpt>
      <trkpt lat="47.61302" lon="5.18407">
        <ele>434</ele>
        <time>2022-06-06T14:08:40Z</time>
      </trkpt>
      <trkpt lat="47.61293" lon="5.18417">
        <ele>434</ele>
        <time>2022-06-06T14:08:42Z</time>
      </trkpt>
      <trkpt lat="47.61274" lon="5.18435">
        <ele>433.8</ele>
        <time>2022-06-06T14:08:46Z</time>
      </trkpt>
      <trkpt lat="47.6126" lon="5.1845">
        <ele>433.8</ele>
        <time>2022-06-06T14:08:49Z</time>
      </trkpt>
      <trkpt lat="47.61218" lon="5.18499">
        <ele>433.4</ele>
        <time>2022-06-06T14:08:58Z</time>
      </trkpt>
      <trkpt lat="47.61214" lon="5.18505">
        <ele>433.2</ele>
        <time>2022-06-06T14:08:59Z</time>
      </trkpt>
      <trkpt lat="47.61192" lon="5.18535">
        <ele>432.8</ele>
        <time>2022-06-06T14:09:05Z</time>
      </trkpt>
      <trkpt lat="47.61175" lon="5.18558">
        <ele>432</ele>
        <time>2022-06-06T14:09:10Z</time>
      </trkpt>
      <trkpt lat="47.61173" lon="5.18563">
        <ele>432</ele>
        <time>2022-06-06T14:09:11Z</time>
      </trkpt>
      <trkpt lat="47.61151" lon="5.18592">
        <ele>431.6</ele>
        <time>2022-06-06T14:09:18Z</time>
      </trkpt>
      <trkpt lat="47.61131" lon="5.18618">
        <ele>431.4</ele>
        <time>2022-06-06T14:09:23Z</time>
      </trkpt>
      <trkpt lat="47.61118" lon="5.18636">
        <ele>431</ele>
        <time>2022-06-06T14:09:26Z</time>
      </trkpt>
      <trkpt lat="47.61109" lon="5.18649">
        <ele>430.8</ele>
        <time>2022-06-06T14:09:28Z</time>
      </trkpt>
      <trkpt lat="47.61082" lon="5.18695">
        <ele>430.4</ele>
        <time>2022-06-06T14:09:34Z</time>
      </trkpt>
      <trkpt lat="47.61072" lon="5.18713">
        <ele>430</ele>
        <time>2022-06-06T14:09:36Z</time>
      </trkpt>
      <trkpt lat="47.61067" lon="5.18721">
        <ele>429.6</ele>
        <time>2022-06-06T14:09:37Z</time>
      </trkpt>
      <trkpt lat="47.61055" lon="5.18738">
        <ele>428.8</ele>
        <time>2022-06-06T14:09:39Z</time>
      </trkpt>
      <trkpt lat="47.61038" lon="5.18769">
        <ele>427.2</ele>
        <time>2022-06-06T14:09:42Z</time>
      </trkpt>
      <trkpt lat="47.61027" lon="5.18792">
        <ele>426.2</ele>
        <time>2022-06-06T14:09:44Z</time>
      </trkpt>
      <trkpt lat="47.61021" lon="5.18803">
        <ele>426</ele>
        <time>2022-06-06T14:09:45Z</time>
      </trkpt>
      <trkpt lat="47.60997" lon="5.18848">
        <ele>424.8</ele>
        <time>2022-06-06T14:09:49Z</time>
      </trkpt>
      <trkpt lat="47.60992" lon="5.1886">
        <ele>424.6</ele>
        <time>2022-06-06T14:09:50Z</time>
      </trkpt>
      <trkpt lat="47.60987" lon="5.18871">
        <ele>423.2</ele>
        <time>2022-06-06T14:09:51Z</time>
      </trkpt>
      <trkpt lat="47.60975" lon="5.18894">
        <ele>421.8</ele>
        <time>2022-06-06T14:09:53Z</time>
      </trkpt>
      <trkpt lat="47.60963" lon="5.18918">
        <ele>420.6</ele>
        <time>2022-06-06T14:09:55Z</time>
      </trkpt>
      <trkpt lat="47.60956" lon="5.1893">
        <ele>419.6</ele>
        <time>2022-06-06T14:09:56Z</time>
      </trkpt>
      <trkpt lat="47.6095" lon="5.18941">
        <ele>418.2</ele>
        <time>2022-06-06T14:09:57Z</time>
      </trkpt>
      <trkpt lat="47.60943" lon="5.18953">
        <ele>416.8</ele>
        <time>2022-06-06T14:09:58Z</time>
      </trkpt>
      <trkpt lat="47.60929" lon="5.18975">
        <ele>415</ele>
        <time>2022-06-06T14:10:00Z</time>
      </trkpt>
      <trkpt lat="47.60914" lon="5.18998">
        <ele>412.8</ele>
        <time>2022-06-06T14:10:02Z</time>
      </trkpt>
      <trkpt lat="47.609" lon="5.19024">
        <ele>410.6</ele>
        <time>2022-06-06T14:10:04Z</time>
      </trkpt>
      <trkpt lat="47.60893" lon="5.19037">
        <ele>409.2</ele>
        <time>2022-06-06T14:10:05Z</time>
      </trkpt>
      <trkpt lat="47.60881" lon="5.19065">
        <ele>407.4</ele>
        <time>2022-06-06T14:10:07Z</time>
      </trkpt>
      <trkpt lat="47.60868" lon="5.19093">
        <ele>405.4</ele>
        <time>2022-06-06T14:10:09Z</time>
      </trkpt>
      <trkpt lat="47.60853" lon="5.19118">
        <ele>403.6</ele>
        <time>2022-06-06T14:10:11Z</time>
      </trkpt>
      <trkpt lat="47.60846" lon="5.1913">
        <ele>403.2</ele>
        <time>2022-06-06T14:10:12Z</time>
      </trkpt>
      <trkpt lat="47.60838" lon="5.19142">
        <ele>402.6</ele>
        <time>2022-06-06T14:10:13Z</time>
      </trkpt>
      <trkpt lat="47.60818" lon="5.19179">
        <ele>400.6</ele>
        <time>2022-06-06T14:10:16Z</time>
      </trkpt>
      <trkpt lat="47.60805" lon="5.19202">
        <ele>399.2</ele>
        <time>2022-06-06T14:10:18Z</time>
      </trkpt>
      <trkpt lat="47.60793" lon="5.19224">
        <ele>397.6</ele>
        <time>2022-06-06T14:10:20Z</time>
      </trkpt>
      <trkpt lat="47.60782" lon="5.19246">
        <ele>396.8</ele>
        <time>2022-06-06T14:10:22Z</time>
      </trkpt>
      <trkpt lat="47.60777" lon="5.19256">
        <ele>396.4</ele>
        <time>2022-06-06T14:10:23Z</time>
      </trkpt>
      <trkpt lat="47.60749" lon="5.19303">
        <ele>395.4</ele>
        <time>2022-06-06T14:10:28Z</time>
      </trkpt>
      <trkpt lat="47.60739" lon="5.19322">
        <ele>394.6</ele>
        <time>2022-06-06T14:10:30Z</time>
      </trkpt>
      <trkpt lat="47.60728" lon="5.19339">
        <ele>394</ele>
        <time>2022-06-06T14:10:32Z</time>
      </trkpt>
      <trkpt lat="47.60711" lon="5.19366">
        <ele>393</ele>
        <time>2022-06-06T14:10:35Z</time>
      </trkpt>
      <trkpt lat="47.60706" lon="5.19375">
        <ele>392.6</ele>
        <time>2022-06-06T14:10:36Z</time>
      </trkpt>
      <trkpt lat="47.60689" lon="5.19401">
        <ele>391.8</ele>
        <time>2022-06-06T14:10:39Z</time>
      </trkpt>
      <trkpt lat="47.60649" lon="5.19462">
        <ele>390.8</ele>
        <time>2022-06-06T14:10:46Z</time>
      </trkpt>
      <trkpt lat="47.60644" lon="5.19471">
        <ele>390.6</ele>
        <time>2022-06-06T14:10:47Z</time>
      </trkpt>
      <trkpt lat="47.60625" lon="5.19497">
        <ele>389.4</ele>
        <time>2022-06-06T14:10:50Z</time>
      </trkpt>
      <trkpt lat="47.60619" lon="5.19506">
        <ele>389.2</ele>
        <time>2022-06-06T14:10:51Z</time>
      </trkpt>
      <trkpt lat="47.60607" lon="5.19524">
        <ele>388.6</ele>
        <time>2022-06-06T14:10:53Z</time>
      </trkpt>
      <trkpt lat="47.60601" lon="5.19533">
        <ele>388</ele>
        <time>2022-06-06T14:10:54Z</time>
      </trkpt>
      <trkpt lat="47.60595" lon="5.19542">
        <ele>387.6</ele>
        <time>2022-06-06T14:10:55Z</time>
      </trkpt>
      <trkpt lat="47.60582" lon="5.19559">
        <ele>386.8</ele>
        <time>2022-06-06T14:10:57Z</time>
      </trkpt>
      <trkpt lat="47.60568" lon="5.19575">
        <ele>385.6</ele>
        <time>2022-06-06T14:10:59Z</time>
      </trkpt>
      <trkpt lat="47.60548" lon="5.19602">
        <ele>384.4</ele>
        <time>2022-06-06T14:11:02Z</time>
      </trkpt>
      <trkpt lat="47.60534" lon="5.1962">
        <ele>383.6</ele>
        <time>2022-06-06T14:11:04Z</time>
      </trkpt>
      <trkpt lat="47.60527" lon="5.19629">
        <ele>383.4</ele>
        <time>2022-06-06T14:11:05Z</time>
      </trkpt>
      <trkpt lat="47.60506" lon="5.19656">
        <ele>382</ele>
        <time>2022-06-06T14:11:08Z</time>
      </trkpt>
      <trkpt lat="47.60499" lon="5.19663">
        <ele>381.8</ele>
        <time>2022-06-06T14:11:09Z</time>
      </trkpt>
      <trkpt lat="47.60493" lon="5.19667">
        <ele>380.8</ele>
        <time>2022-06-06T14:11:10Z</time>
      </trkpt>
      <trkpt lat="47.60486" lon="5.19668">
        <ele>380.2</ele>
        <time>2022-06-06T14:11:11Z</time>
      </trkpt>
      <trkpt lat="47.60479" lon="5.19666">
        <ele>379.8</ele>
        <time>2022-06-06T14:11:12Z</time>
      </trkpt>
      <trkpt lat="47.60474" lon="5.19662">
        <ele>379.4</ele>
        <time>2022-06-06T14:11:13Z</time>
      </trkpt>
      <trkpt lat="47.60464" lon="5.19653">
        <ele>377.6</ele>
        <time>2022-06-06T14:11:15Z</time>
      </trkpt>
      <trkpt lat="47.60458" lon="5.1965">
        <ele>377.2</ele>
        <time>2022-06-06T14:11:16Z</time>
      </trkpt>
      <trkpt lat="47.60448" lon="5.19644">
        <ele>376.4</ele>
        <time>2022-06-06T14:11:18Z</time>
      </trkpt>
      <trkpt lat="47.60437" lon="5.19642">
        <ele>376</ele>
        <time>2022-06-06T14:11:20Z</time>
      </trkpt>
      <trkpt lat="47.60425" lon="5.19649">
        <ele>375.8</ele>
        <time>2022-06-06T14:11:22Z</time>
      </trkpt>
      <trkpt lat="47.6042" lon="5.19656">
        <ele>375.8</ele>
        <time>2022-06-06T14:11:23Z</time>
      </trkpt>
      <trkpt lat="47.6041" lon="5.19671">
        <ele>375.4</ele>
        <time>2022-06-06T14:11:25Z</time>
      </trkpt>
      <trkpt lat="47.60393" lon="5.19696">
        <ele>375</ele>
        <time>2022-06-06T14:11:28Z</time>
      </trkpt>
      <trkpt lat="47.60387" lon="5.19705">
        <ele>374.6</ele>
        <time>2022-06-06T14:11:29Z</time>
      </trkpt>
      <trkpt lat="47.60382" lon="5.19715">
        <ele>374.2</ele>
        <time>2022-06-06T14:11:30Z</time>
      </trkpt>
      <trkpt lat="47.60378" lon="5.19726">
        <ele>373.4</ele>
        <time>2022-06-06T14:11:31Z</time>
      </trkpt>
      <trkpt lat="47.60376" lon="5.19738">
        <ele>373</ele>
        <time>2022-06-06T14:11:32Z</time>
      </trkpt>
      <trkpt lat="47.60374" lon="5.19761">
        <ele>372</ele>
        <time>2022-06-06T14:11:34Z</time>
      </trkpt>
      <trkpt lat="47.60373" lon="5.1977">
        <ele>370.8</ele>
        <time>2022-06-06T14:11:35Z</time>
      </trkpt>
      <trkpt lat="47.60372" lon="5.19778">
        <ele>370</ele>
        <time>2022-06-06T14:11:36Z</time>
      </trkpt>
      <trkpt lat="47.60371" lon="5.19785">
        <ele>369.8</ele>
        <time>2022-06-06T14:11:37Z</time>
      </trkpt>
      <trkpt lat="47.60369" lon="5.19791">
        <ele>369.4</ele>
        <time>2022-06-06T14:11:38Z</time>
      </trkpt>
      <trkpt lat="47.60361" lon="5.19796">
        <ele>369</ele>
        <time>2022-06-06T14:11:40Z</time>
      </trkpt>
      <trkpt lat="47.60356" lon="5.19795">
        <ele>368.8</ele>
        <time>2022-06-06T14:11:41Z</time>
      </trkpt>
      <trkpt lat="47.60352" lon="5.19793">
        <ele>368.4</ele>
        <time>2022-06-06T14:11:42Z</time>
      </trkpt>
      <trkpt lat="47.60328" lon="5.19779">
        <ele>367.8</ele>
        <time>2022-06-06T14:11:47Z</time>
      </trkpt>
      <trkpt lat="47.60306" lon="5.19764">
        <ele>367.6</ele>
        <time>2022-06-06T14:11:51Z</time>
      </trkpt>
      <trkpt lat="47.603" lon="5.19759">
        <ele>367.6</ele>
        <time>2022-06-06T14:11:52Z</time>
      </trkpt>
      <trkpt lat="47.60295" lon="5.19754">
        <ele>367.6</ele>
        <time>2022-06-06T14:11:53Z</time>
      </trkpt>
      <trkpt lat="47.60268" lon="5.19712">
        <ele>367</ele>
        <time>2022-06-06T14:11:59Z</time>
      </trkpt>
      <trkpt lat="47.60264" lon="5.19704">
        <ele>366.6</ele>
        <time>2022-06-06T14:12:00Z</time>
      </trkpt>
      <trkpt lat="47.60238" lon="5.19657">
        <ele>365.8</ele>
        <time>2022-06-06T14:12:06Z</time>
      </trkpt>
      <trkpt lat="47.60233" lon="5.19649">
        <ele>365.4</ele>
        <time>2022-06-06T14:12:07Z</time>
      </trkpt>
      <trkpt lat="47.60211" lon="5.19609">
        <ele>364.2</ele>
        <time>2022-06-06T14:12:12Z</time>
      </trkpt>
      <trkpt lat="47.60203" lon="5.19592">
        <ele>363.8</ele>
        <time>2022-06-06T14:12:14Z</time>
      </trkpt>
      <trkpt lat="47.60192" lon="5.19566">
        <ele>363</ele>
        <time>2022-06-06T14:12:17Z</time>
      </trkpt>
      <trkpt lat="47.60183" lon="5.19539">
        <ele>362.4</ele>
        <time>2022-06-06T14:12:20Z</time>
      </trkpt>
      <trkpt lat="47.60177" lon="5.19521">
        <ele>362</ele>
        <time>2022-06-06T14:12:22Z</time>
      </trkpt>
      <trkpt lat="47.6017" lon="5.19504">
        <ele>361.4</ele>
        <time>2022-06-06T14:12:24Z</time>
      </trkpt>
      <trkpt lat="47.60166" lon="5.19497">
        <ele>361</ele>
        <time>2022-06-06T14:12:25Z</time>
      </trkpt>
      <trkpt lat="47.60162" lon="5.19491">
        <ele>361</ele>
        <time>2022-06-06T14:12:26Z</time>
      </trkpt>
      <trkpt lat="47.60157" lon="5.19486">
        <ele>360.8</ele>
        <time>2022-06-06T14:12:27Z</time>
      </trkpt>
      <trkpt lat="47.60151" lon="5.19482">
        <ele>360.8</ele>
        <time>2022-06-06T14:12:28Z</time>
      </trkpt>
      <trkpt lat="47.60145" lon="5.1948">
        <ele>360.6</ele>
        <time>2022-06-06T14:12:29Z</time>
      </trkpt>
      <trkpt lat="47.60139" lon="5.19479">
        <ele>360.4</ele>
        <time>2022-06-06T14:12:30Z</time>
      </trkpt>
      <trkpt lat="47.60125" lon="5.19482">
        <ele>360.2</ele>
        <time>2022-06-06T14:12:32Z</time>
      </trkpt>
      <trkpt lat="47.60118" lon="5.19484">
        <ele>360.2</ele>
        <time>2022-06-06T14:12:33Z</time>
      </trkpt>
      <trkpt lat="47.60111" lon="5.19488">
        <ele>359.8</ele>
        <time>2022-06-06T14:12:34Z</time>
      </trkpt>
      <trkpt lat="47.60097" lon="5.19496">
        <ele>359.4</ele>
        <time>2022-06-06T14:12:36Z</time>
      </trkpt>
      <trkpt lat="47.6006" lon="5.19519">
        <ele>358.4</ele>
        <time>2022-06-06T14:12:41Z</time>
      </trkpt>
      <trkpt lat="47.60053" lon="5.19524">
        <ele>358.2</ele>
        <time>2022-06-06T14:12:42Z</time>
      </trkpt>
      <trkpt lat="47.60036" lon="5.19534">
        <ele>357.4</ele>
        <time>2022-06-06T14:12:44Z</time>
      </trkpt>
      <trkpt lat="47.59999" lon="5.1956">
        <ele>356.8</ele>
        <time>2022-06-06T14:12:49Z</time>
      </trkpt>
      <trkpt lat="47.59992" lon="5.19567">
        <ele>356.6</ele>
        <time>2022-06-06T14:12:50Z</time>
      </trkpt>
      <trkpt lat="47.59986" lon="5.19575">
        <ele>356.4</ele>
        <time>2022-06-06T14:12:51Z</time>
      </trkpt>
      <trkpt lat="47.59981" lon="5.19583">
        <ele>356.4</ele>
        <time>2022-06-06T14:12:52Z</time>
      </trkpt>
      <trkpt lat="47.59969" lon="5.19605">
        <ele>356.2</ele>
        <time>2022-06-06T14:12:54Z</time>
      </trkpt>
      <trkpt lat="47.59948" lon="5.19646">
        <ele>355.2</ele>
        <time>2022-06-06T14:12:58Z</time>
      </trkpt>
      <trkpt lat="47.59933" lon="5.19675">
        <ele>354.2</ele>
        <time>2022-06-06T14:13:01Z</time>
      </trkpt>
      <trkpt lat="47.59927" lon="5.19684">
        <ele>353.8</ele>
        <time>2022-06-06T14:13:02Z</time>
      </trkpt>
      <trkpt lat="47.59901" lon="5.19715">
        <ele>352.6</ele>
        <time>2022-06-06T14:13:06Z</time>
      </trkpt>
      <trkpt lat="47.59874" lon="5.19745">
        <ele>351.6</ele>
        <time>2022-06-06T14:13:10Z</time>
      </trkpt>
      <trkpt lat="47.59847" lon="5.1978">
        <ele>350.4</ele>
        <time>2022-06-06T14:13:14Z</time>
      </trkpt>
      <trkpt lat="47.5983" lon="5.19806">
        <ele>349.2</ele>
        <time>2022-06-06T14:13:17Z</time>
      </trkpt>
      <trkpt lat="47.59814" lon="5.19826">
        <ele>348.6</ele>
        <time>2022-06-06T14:13:20Z</time>
      </trkpt>
      <trkpt lat="47.5981" lon="5.19833">
        <ele>348.2</ele>
        <time>2022-06-06T14:13:21Z</time>
      </trkpt>
      <trkpt lat="47.59808" lon="5.1984">
        <ele>348</ele>
        <time>2022-06-06T14:13:22Z</time>
      </trkpt>
      <trkpt lat="47.59806" lon="5.19847">
        <ele>347.8</ele>
        <time>2022-06-06T14:13:23Z</time>
      </trkpt>
      <trkpt lat="47.59809" lon="5.19854">
        <ele>347</ele>
        <time>2022-06-06T14:13:25Z</time>
      </trkpt>
      <trkpt lat="47.59812" lon="5.19856">
        <ele>346.8</ele>
        <time>2022-06-06T14:13:26Z</time>
      </trkpt>
      <trkpt lat="47.59825" lon="5.19855">
        <ele>346</ele>
        <time>2022-06-06T14:13:30Z</time>
      </trkpt>
      <trkpt lat="47.59849" lon="5.19861">
        <ele>346.2</ele>
        <time>2022-06-06T14:13:37Z</time>
      </trkpt>
      <trkpt lat="47.59862" lon="5.19874">
        <ele>347.6</ele>
        <time>2022-06-06T14:13:42Z</time>
      </trkpt>
      <trkpt lat="47.59869" lon="5.19882">
        <ele>348.6</ele>
        <time>2022-06-06T14:13:45Z</time>
      </trkpt>
      <trkpt lat="47.59879" lon="5.19894">
        <ele>349.6</ele>
        <time>2022-06-06T14:13:49Z</time>
      </trkpt>
      <trkpt lat="47.59881" lon="5.19897">
        <ele>349.8</ele>
        <time>2022-06-06T14:13:50Z</time>
      </trkpt>
      <trkpt lat="47.59896" lon="5.19914">
        <ele>350.8</ele>
        <time>2022-06-06T14:13:56Z</time>
      </trkpt>
      <trkpt lat="47.59898" lon="5.19917">
        <ele>351</ele>
        <time>2022-06-06T14:13:57Z</time>
      </trkpt>
      <trkpt lat="47.59913" lon="5.19932">
        <ele>352</ele>
        <time>2022-06-06T14:14:03Z</time>
      </trkpt>
      <trkpt lat="47.59923" lon="5.19942">
        <ele>352.8</ele>
        <time>2022-06-06T14:14:07Z</time>
      </trkpt>
      <trkpt lat="47.59925" lon="5.19946">
        <ele>353.2</ele>
        <time>2022-06-06T14:14:08Z</time>
      </trkpt>
      <trkpt lat="47.59934" lon="5.19957">
        <ele>354.2</ele>
        <time>2022-06-06T14:14:12Z</time>
      </trkpt>
      <trkpt lat="47.59944" lon="5.19967">
        <ele>355</ele>
        <time>2022-06-06T14:14:16Z</time>
      </trkpt>
      <trkpt lat="47.59946" lon="5.1997">
        <ele>355.2</ele>
        <time>2022-06-06T14:14:17Z</time>
      </trkpt>
      <trkpt lat="47.59956" lon="5.19981">
        <ele>356.4</ele>
        <time>2022-06-06T14:14:21Z</time>
      </trkpt>
      <trkpt lat="47.59966" lon="5.19992">
        <ele>357</ele>
        <time>2022-06-06T14:14:25Z</time>
      </trkpt>
      <trkpt lat="47.59971" lon="5.19997">
        <ele>357.4</ele>
        <time>2022-06-06T14:14:27Z</time>
      </trkpt>
      <trkpt lat="47.59981" lon="5.20008">
        <ele>358.6</ele>
        <time>2022-06-06T14:14:31Z</time>
      </trkpt>
      <trkpt lat="47.59983" lon="5.20011">
        <ele>358.6</ele>
        <time>2022-06-06T14:14:32Z</time>
      </trkpt>
      <trkpt lat="47.59996" lon="5.20029">
        <ele>359.8</ele>
        <time>2022-06-06T14:14:38Z</time>
      </trkpt>
      <trkpt lat="47.59998" lon="5.20033">
        <ele>359.8</ele>
        <time>2022-06-06T14:14:39Z</time>
      </trkpt>
      <trkpt lat="47.59998" lon="5.20055">
        <ele>360.4</ele>
        <time>2022-06-06T14:14:44Z</time>
      </trkpt>
      <trkpt lat="47.59995" lon="5.2007">
        <ele>360.8</ele>
        <time>2022-06-06T14:14:47Z</time>
      </trkpt>
      <trkpt lat="47.5999" lon="5.20094">
        <ele>361.2</ele>
        <time>2022-06-06T14:14:52Z</time>
      </trkpt>
      <trkpt lat="47.59984" lon="5.20125">
        <ele>361.8</ele>
        <time>2022-06-06T14:14:58Z</time>
      </trkpt>
      <trkpt lat="47.59981" lon="5.20136">
        <ele>362</ele>
        <time>2022-06-06T14:15:00Z</time>
      </trkpt>
      <trkpt lat="47.59972" lon="5.20175">
        <ele>362.6</ele>
        <time>2022-06-06T14:15:07Z</time>
      </trkpt>
      <trkpt lat="47.59967" lon="5.20189">
        <ele>362.8</ele>
        <time>2022-06-06T14:15:10Z</time>
      </trkpt>
      <trkpt lat="47.59959" lon="5.20204">
        <ele>363</ele>
        <time>2022-06-06T14:15:13Z</time>
      </trkpt>
      <trkpt lat="47.59936" lon="5.20246">
        <ele>363.4</ele>
        <time>2022-06-06T14:15:21Z</time>
      </trkpt>
      <trkpt lat="47.59933" lon="5.2025">
        <ele>363.4</ele>
        <time>2022-06-06T14:15:22Z</time>
      </trkpt>
      <trkpt lat="47.59909" lon="5.20269">
        <ele>364</ele>
        <time>2022-06-06T14:15:28Z</time>
      </trkpt>
      <trkpt lat="47.59901" lon="5.20275">
        <ele>364.6</ele>
        <time>2022-06-06T14:15:30Z</time>
      </trkpt>
      <trkpt lat="47.59877" lon="5.20291">
        <ele>365.2</ele>
        <time>2022-06-06T14:15:36Z</time>
      </trkpt>
      <trkpt lat="47.5987" lon="5.20298">
        <ele>365.2</ele>
        <time>2022-06-06T14:15:38Z</time>
      </trkpt>
      <trkpt lat="47.5986" lon="5.20305">
        <ele>366</ele>
        <time>2022-06-06T14:15:41Z</time>
      </trkpt>
      <trkpt lat="47.59855" lon="5.20308">
        <ele>366.2</ele>
        <time>2022-06-06T14:15:42Z</time>
      </trkpt>
      <trkpt lat="47.59848" lon="5.20313">
        <ele>366.8</ele>
        <time>2022-06-06T14:15:44Z</time>
      </trkpt>
      <trkpt lat="47.59837" lon="5.20319">
        <ele>367.2</ele>
        <time>2022-06-06T14:15:47Z</time>
      </trkpt>
      <trkpt lat="47.59822" lon="5.20327">
        <ele>367.8</ele>
        <time>2022-06-06T14:15:51Z</time>
      </trkpt>
      <trkpt lat="47.59809" lon="5.20335">
        <ele>368.4</ele>
        <time>2022-06-06T14:15:54Z</time>
      </trkpt>
      <trkpt lat="47.59797" lon="5.20345">
        <ele>368.6</ele>
        <time>2022-06-06T14:15:57Z</time>
      </trkpt>
      <trkpt lat="47.59773" lon="5.20361">
        <ele>369</ele>
        <time>2022-06-06T14:16:02Z</time>
      </trkpt>
      <trkpt lat="47.59769" lon="5.20365">
        <ele>369</ele>
        <time>2022-06-06T14:16:03Z</time>
      </trkpt>
      <trkpt lat="47.5975" lon="5.2038">
        <ele>368.8</ele>
        <time>2022-06-06T14:16:07Z</time>
      </trkpt>
      <trkpt lat="47.59739" lon="5.20387">
        <ele>368.4</ele>
        <time>2022-06-06T14:16:09Z</time>
      </trkpt>
      <trkpt lat="47.59713" lon="5.2041">
        <ele>367.2</ele>
        <time>2022-06-06T14:16:14Z</time>
      </trkpt>
      <trkpt lat="47.59704" lon="5.20419">
        <ele>366.8</ele>
        <time>2022-06-06T14:16:16Z</time>
      </trkpt>
      <trkpt lat="47.59686" lon="5.20436">
        <ele>366</ele>
        <time>2022-06-06T14:16:20Z</time>
      </trkpt>
      <trkpt lat="47.59665" lon="5.20456">
        <ele>365</ele>
        <time>2022-06-06T14:16:24Z</time>
      </trkpt>
      <trkpt lat="47.59648" lon="5.20471">
        <ele>363.6</ele>
        <time>2022-06-06T14:16:27Z</time>
      </trkpt>
      <trkpt lat="47.5963" lon="5.20487">
        <ele>362.4</ele>
        <time>2022-06-06T14:16:30Z</time>
      </trkpt>
      <trkpt lat="47.59623" lon="5.20493">
        <ele>362.2</ele>
        <time>2022-06-06T14:16:31Z</time>
      </trkpt>
      <trkpt lat="47.5961" lon="5.20504">
        <ele>361</ele>
        <time>2022-06-06T14:16:33Z</time>
      </trkpt>
      <trkpt lat="47.59594" lon="5.20509">
        <ele>360</ele>
        <time>2022-06-06T14:16:35Z</time>
      </trkpt>
      <trkpt lat="47.59579" lon="5.20508">
        <ele>358.4</ele>
        <time>2022-06-06T14:16:37Z</time>
      </trkpt>
      <trkpt lat="47.59561" lon="5.20504">
        <ele>357.2</ele>
        <time>2022-06-06T14:16:39Z</time>
      </trkpt>
      <trkpt lat="47.59552" lon="5.20502">
        <ele>356.6</ele>
        <time>2022-06-06T14:16:40Z</time>
      </trkpt>
      <trkpt lat="47.59544" lon="5.205">
        <ele>355.8</ele>
        <time>2022-06-06T14:16:41Z</time>
      </trkpt>
      <trkpt lat="47.59519" lon="5.20494">
        <ele>354.6</ele>
        <time>2022-06-06T14:16:44Z</time>
      </trkpt>
      <trkpt lat="47.59504" lon="5.20491">
        <ele>353.2</ele>
        <time>2022-06-06T14:16:46Z</time>
      </trkpt>
      <trkpt lat="47.5949" lon="5.20489">
        <ele>352</ele>
        <time>2022-06-06T14:16:48Z</time>
      </trkpt>
      <trkpt lat="47.59474" lon="5.20486">
        <ele>350.8</ele>
        <time>2022-06-06T14:16:50Z</time>
      </trkpt>
      <trkpt lat="47.59458" lon="5.20483">
        <ele>349.4</ele>
        <time>2022-06-06T14:16:53Z</time>
      </trkpt>
      <trkpt lat="47.59448" lon="5.20481">
        <ele>348</ele>
        <time>2022-06-06T14:16:55Z</time>
      </trkpt>
      <trkpt lat="47.59438" lon="5.2048">
        <ele>347.4</ele>
        <time>2022-06-06T14:16:57Z</time>
      </trkpt>
      <trkpt lat="47.59433" lon="5.20478">
        <ele>347</ele>
        <time>2022-06-06T14:16:58Z</time>
      </trkpt>
      <trkpt lat="47.5943" lon="5.20476">
        <ele>346.6</ele>
        <time>2022-06-06T14:16:59Z</time>
      </trkpt>
      <trkpt lat="47.59423" lon="5.2047">
        <ele>345.4</ele>
        <time>2022-06-06T14:17:02Z</time>
      </trkpt>
      <trkpt lat="47.59415" lon="5.20455">
        <ele>344.4</ele>
        <time>2022-06-06T14:17:07Z</time>
      </trkpt>
      <trkpt lat="47.5941" lon="5.20445">
        <ele>344</ele>
        <time>2022-06-06T14:17:12Z</time>
      </trkpt>
      <trkpt lat="47.59409" lon="5.20438">
        <ele>344</ele>
        <time>2022-06-06T14:17:15Z</time>
      </trkpt>
      <trkpt lat="47.59409" lon="5.20433">
        <ele>343.8</ele>
        <time>2022-06-06T14:17:17Z</time>
      </trkpt>
      <trkpt lat="47.5941" lon="5.20418">
        <ele>343.8</ele>
        <time>2022-06-06T14:17:23Z</time>
      </trkpt>
      <trkpt lat="47.5941" lon="5.20416">
        <ele>343.8</ele>
        <time>2022-06-06T14:17:24Z</time>
      </trkpt>
      <trkpt lat="47.59412" lon="5.20411">
        <ele>343.8</ele>
        <time>2022-06-06T14:17:27Z</time>
      </trkpt>
      <trkpt lat="47.59412" lon="5.20409">
        <ele>343.8</ele>
        <time>2022-06-06T14:17:28Z</time>
      </trkpt>
      <trkpt lat="47.59411" lon="5.20407">
        <ele>343.8</ele>
        <time>2022-06-06T14:17:29Z</time>
      </trkpt>
      <trkpt lat="47.59409" lon="5.20408">
        <ele>343.6</ele>
        <time>2022-06-06T14:17:31Z</time>
      </trkpt>
      <trkpt lat="47.59409" lon="5.2041">
        <ele>343.6</ele>
        <time>2022-06-06T14:17:32Z</time>
      </trkpt>
      <trkpt lat="47.59409" lon="5.20415">
        <ele>343.6</ele>
        <time>2022-06-06T14:17:34Z</time>
      </trkpt>
      <trkpt lat="47.59409" lon="5.20418">
        <ele>343.6</ele>
        <time>2022-06-06T14:17:35Z</time>
      </trkpt>
      <trkpt lat="47.5941" lon="5.20438">
        <ele>343.6</ele>
        <time>2022-06-06T14:17:43Z</time>
      </trkpt>
      <trkpt lat="47.59407" lon="5.20456">
        <ele>343.6</ele>
        <time>2022-06-06T14:17:50Z</time>
      </trkpt>
      <trkpt lat="47.59407" lon="5.20458">
        <ele>343.6</ele>
        <time>2022-06-06T14:17:51Z</time>
      </trkpt>
      <trkpt lat="47.59413" lon="5.20475">
        <ele>343.4</ele>
        <time>2022-06-06T14:17:57Z</time>
      </trkpt>
      <trkpt lat="47.59417" lon="5.20506">
        <ele>343</ele>
        <time>2022-06-06T14:18:03Z</time>
      </trkpt>
      <trkpt lat="47.59419" lon="5.20545">
        <ele>342.6</ele>
        <time>2022-06-06T14:18:08Z</time>
      </trkpt>
      <trkpt lat="47.59422" lon="5.20596">
        <ele>341.4</ele>
        <time>2022-06-06T14:18:13Z</time>
      </trkpt>
      <trkpt lat="47.59425" lon="5.20632">
        <ele>340.4</ele>
        <time>2022-06-06T14:18:16Z</time>
      </trkpt>
      <trkpt lat="47.59427" lon="5.20644">
        <ele>340</ele>
        <time>2022-06-06T14:18:17Z</time>
      </trkpt>
      <trkpt lat="47.5943" lon="5.20655">
        <ele>339.8</ele>
        <time>2022-06-06T14:18:18Z</time>
      </trkpt>
      <trkpt lat="47.59434" lon="5.20665">
        <ele>339.2</ele>
        <time>2022-06-06T14:18:19Z</time>
      </trkpt>
      <trkpt lat="47.5944" lon="5.20685">
        <ele>338.6</ele>
        <time>2022-06-06T14:18:21Z</time>
      </trkpt>
      <trkpt lat="47.59447" lon="5.20702">
        <ele>338</ele>
        <time>2022-06-06T14:18:23Z</time>
      </trkpt>
      <trkpt lat="47.59457" lon="5.20752">
        <ele>337.6</ele>
        <time>2022-06-06T14:18:28Z</time>
      </trkpt>
      <trkpt lat="47.59465" lon="5.20799">
        <ele>337.2</ele>
        <time>2022-06-06T14:18:34Z</time>
      </trkpt>
      <trkpt lat="47.5948" lon="5.20865">
        <ele>336.8</ele>
        <time>2022-06-06T14:18:42Z</time>
      </trkpt>
      <trkpt lat="47.59486" lon="5.20893">
        <ele>336.4</ele>
        <time>2022-06-06T14:18:45Z</time>
      </trkpt>
      <trkpt lat="47.59494" lon="5.20932">
        <ele>335.6</ele>
        <time>2022-06-06T14:18:49Z</time>
      </trkpt>
      <trkpt lat="47.59498" lon="5.20952">
        <ele>335.2</ele>
        <time>2022-06-06T14:18:51Z</time>
      </trkpt>
      <trkpt lat="47.59508" lon="5.21006">
        <ele>334</ele>
        <time>2022-06-06T14:18:56Z</time>
      </trkpt>
      <trkpt lat="47.59517" lon="5.21051">
        <ele>333</ele>
        <time>2022-06-06T14:19:00Z</time>
      </trkpt>
      <trkpt lat="47.59525" lon="5.21094">
        <ele>332</ele>
        <time>2022-06-06T14:19:04Z</time>
      </trkpt>
      <trkpt lat="47.59527" lon="5.21104">
        <ele>331.8</ele>
        <time>2022-06-06T14:19:05Z</time>
      </trkpt>
      <trkpt lat="47.5954" lon="5.21176">
        <ele>330.6</ele>
        <time>2022-06-06T14:19:12Z</time>
      </trkpt>
      <trkpt lat="47.59543" lon="5.21194">
        <ele>330.2</ele>
        <time>2022-06-06T14:19:14Z</time>
      </trkpt>
      <trkpt lat="47.59552" lon="5.21248">
        <ele>330</ele>
        <time>2022-06-06T14:19:20Z</time>
      </trkpt>
      <trkpt lat="47.59552" lon="5.21256">
        <ele>330</ele>
        <time>2022-06-06T14:19:21Z</time>
      </trkpt>
      <trkpt lat="47.5955" lon="5.21263">
        <ele>329.6</ele>
        <time>2022-06-06T14:19:22Z</time>
      </trkpt>
      <trkpt lat="47.59539" lon="5.21273">
        <ele>329.6</ele>
        <time>2022-06-06T14:19:24Z</time>
      </trkpt>
      <trkpt lat="47.59503" lon="5.21289">
        <ele>329</ele>
        <time>2022-06-06T14:19:30Z</time>
      </trkpt>
      <trkpt lat="47.59478" lon="5.21299">
        <ele>328.6</ele>
        <time>2022-06-06T14:19:34Z</time>
      </trkpt>
      <trkpt lat="47.59453" lon="5.2131">
        <ele>328</ele>
        <time>2022-06-06T14:19:38Z</time>
      </trkpt>
      <trkpt lat="47.59433" lon="5.21319">
        <ele>327.4</ele>
        <time>2022-06-06T14:19:41Z</time>
      </trkpt>
      <trkpt lat="47.59414" lon="5.21327">
        <ele>326.4</ele>
        <time>2022-06-06T14:19:44Z</time>
      </trkpt>
      <trkpt lat="47.59387" lon="5.21337">
        <ele>325.4</ele>
        <time>2022-06-06T14:19:48Z</time>
      </trkpt>
      <trkpt lat="47.59373" lon="5.21342">
        <ele>325</ele>
        <time>2022-06-06T14:19:50Z</time>
      </trkpt>
      <trkpt lat="47.59338" lon="5.2135">
        <ele>324</ele>
        <time>2022-06-06T14:19:55Z</time>
      </trkpt>
      <trkpt lat="47.59331" lon="5.21352">
        <ele>323.8</ele>
        <time>2022-06-06T14:19:56Z</time>
      </trkpt>
      <trkpt lat="47.59304" lon="5.21359">
        <ele>322.4</ele>
        <time>2022-06-06T14:20:00Z</time>
      </trkpt>
      <trkpt lat="47.59279" lon="5.21365">
        <ele>321.4</ele>
        <time>2022-06-06T14:20:04Z</time>
      </trkpt>
      <trkpt lat="47.59245" lon="5.21374">
        <ele>321.2</ele>
        <time>2022-06-06T14:20:10Z</time>
      </trkpt>
      <trkpt lat="47.5921" lon="5.21382">
        <ele>320.4</ele>
        <time>2022-06-06T14:20:16Z</time>
      </trkpt>
      <trkpt lat="47.59205" lon="5.21383">
        <ele>320.4</ele>
        <time>2022-06-06T14:20:17Z</time>
      </trkpt>
      <trkpt lat="47.59168" lon="5.21394">
        <ele>319.6</ele>
        <time>2022-06-06T14:20:24Z</time>
      </trkpt>
      <trkpt lat="47.59131" lon="5.21403">
        <ele>319.6</ele>
        <time>2022-06-06T14:20:30Z</time>
      </trkpt>
      <trkpt lat="47.59105" lon="5.21409">
        <ele>319.4</ele>
        <time>2022-06-06T14:20:34Z</time>
      </trkpt>
      <trkpt lat="47.59098" lon="5.21411">
        <ele>319.2</ele>
        <time>2022-06-06T14:20:35Z</time>
      </trkpt>
      <trkpt lat="47.5904" lon="5.21426">
        <ele>318.6</ele>
        <time>2022-06-06T14:20:44Z</time>
      </trkpt>
      <trkpt lat="47.59034" lon="5.21428">
        <ele>318.6</ele>
        <time>2022-06-06T14:20:45Z</time>
      </trkpt>
      <trkpt lat="47.59028" lon="5.2143">
        <ele>318.4</ele>
        <time>2022-06-06T14:20:46Z</time>
      </trkpt>
      <trkpt lat="47.58971" lon="5.21441">
        <ele>318</ele>
        <time>2022-06-06T14:20:55Z</time>
      </trkpt>
      <trkpt lat="47.58934" lon="5.21448">
        <ele>318.2</ele>
        <time>2022-06-06T14:21:01Z</time>
      </trkpt>
      <trkpt lat="47.58877" lon="5.21458">
        <ele>317.6</ele>
        <time>2022-06-06T14:21:10Z</time>
      </trkpt>
      <trkpt lat="47.58871" lon="5.21459">
        <ele>317.6</ele>
        <time>2022-06-06T14:21:11Z</time>
      </trkpt>
      <trkpt lat="47.58864" lon="5.2146">
        <ele>317.4</ele>
        <time>2022-06-06T14:21:12Z</time>
      </trkpt>
      <trkpt lat="47.58806" lon="5.21471">
        <ele>316.6</ele>
        <time>2022-06-06T14:21:21Z</time>
      </trkpt>
      <trkpt lat="47.58792" lon="5.21473">
        <ele>316.6</ele>
        <time>2022-06-06T14:21:23Z</time>
      </trkpt>
      <trkpt lat="47.58772" lon="5.21477">
        <ele>316.2</ele>
        <time>2022-06-06T14:21:26Z</time>
      </trkpt>
      <trkpt lat="47.58766" lon="5.21477">
        <ele>316.2</ele>
        <time>2022-06-06T14:21:27Z</time>
      </trkpt>
      <trkpt lat="47.58753" lon="5.21482">
        <ele>315.8</ele>
        <time>2022-06-06T14:21:29Z</time>
      </trkpt>
      <trkpt lat="47.58745" lon="5.21492">
        <ele>315.4</ele>
        <time>2022-06-06T14:21:31Z</time>
      </trkpt>
      <trkpt lat="47.58741" lon="5.21502">
        <ele>315.4</ele>
        <time>2022-06-06T14:21:32Z</time>
      </trkpt>
      <trkpt lat="47.5874" lon="5.2151">
        <ele>315.2</ele>
        <time>2022-06-06T14:21:33Z</time>
      </trkpt>
      <trkpt lat="47.58739" lon="5.21528">
        <ele>315</ele>
        <time>2022-06-06T14:21:35Z</time>
      </trkpt>
      <trkpt lat="47.58737" lon="5.21536">
        <ele>315</ele>
        <time>2022-06-06T14:21:36Z</time>
      </trkpt>
      <trkpt lat="47.58735" lon="5.21561">
        <ele>315</ele>
        <time>2022-06-06T14:21:39Z</time>
      </trkpt>
      <trkpt lat="47.58733" lon="5.21576">
        <ele>315</ele>
        <time>2022-06-06T14:21:41Z</time>
      </trkpt>
      <trkpt lat="47.58729" lon="5.21628">
        <ele>315</ele>
        <time>2022-06-06T14:21:47Z</time>
      </trkpt>
      <trkpt lat="47.58729" lon="5.21677">
        <ele>314.8</ele>
        <time>2022-06-06T14:21:53Z</time>
      </trkpt>
      <trkpt lat="47.5873" lon="5.21696">
        <ele>314.8</ele>
        <time>2022-06-06T14:21:55Z</time>
      </trkpt>
      <trkpt lat="47.58734" lon="5.21725">
        <ele>314.2</ele>
        <time>2022-06-06T14:21:58Z</time>
      </trkpt>
      <trkpt lat="47.58736" lon="5.21736">
        <ele>314.2</ele>
        <time>2022-06-06T14:21:59Z</time>
      </trkpt>
      <trkpt lat="47.5874" lon="5.21796">
        <ele>313</ele>
        <time>2022-06-06T14:22:04Z</time>
      </trkpt>
      <trkpt lat="47.5874" lon="5.21824">
        <ele>311.8</ele>
        <time>2022-06-06T14:22:06Z</time>
      </trkpt>
      <trkpt lat="47.58739" lon="5.21845">
        <ele>310.4</ele>
        <time>2022-06-06T14:22:08Z</time>
      </trkpt>
      <trkpt lat="47.58738" lon="5.21852">
        <ele>310.2</ele>
        <time>2022-06-06T14:22:09Z</time>
      </trkpt>
      <trkpt lat="47.58733" lon="5.21864">
        <ele>310</ele>
        <time>2022-06-06T14:22:11Z</time>
      </trkpt>
      <trkpt lat="47.58729" lon="5.21867">
        <ele>310</ele>
        <time>2022-06-06T14:22:12Z</time>
      </trkpt>
      <trkpt lat="47.58725" lon="5.21867">
        <ele>310</ele>
        <time>2022-06-06T14:22:13Z</time>
      </trkpt>
      <trkpt lat="47.58721" lon="5.21866">
        <ele>310</ele>
        <time>2022-06-06T14:22:14Z</time>
      </trkpt>
      <trkpt lat="47.58686" lon="5.21854">
        <ele>311.4</ele>
        <time>2022-06-06T14:22:21Z</time>
      </trkpt>
      <trkpt lat="47.58679" lon="5.21851">
        <ele>311.4</ele>
        <time>2022-06-06T14:22:22Z</time>
      </trkpt>
      <trkpt lat="47.58657" lon="5.21835">
        <ele>311.8</ele>
        <time>2022-06-06T14:22:26Z</time>
      </trkpt>
      <trkpt lat="47.58614" lon="5.21801">
        <ele>311.6</ele>
        <time>2022-06-06T14:22:34Z</time>
      </trkpt>
      <trkpt lat="47.58569" lon="5.21764">
        <ele>312</ele>
        <time>2022-06-06T14:22:42Z</time>
      </trkpt>
      <trkpt lat="47.58539" lon="5.2173">
        <ele>312.2</ele>
        <time>2022-06-06T14:22:48Z</time>
      </trkpt>
      <trkpt lat="47.58534" lon="5.21724">
        <ele>312.2</ele>
        <time>2022-06-06T14:22:49Z</time>
      </trkpt>
      <trkpt lat="47.58497" lon="5.21677">
        <ele>312.6</ele>
        <time>2022-06-06T14:22:57Z</time>
      </trkpt>
      <trkpt lat="47.58492" lon="5.21672">
        <ele>312.6</ele>
        <time>2022-06-06T14:22:58Z</time>
      </trkpt>
      <trkpt lat="47.58448" lon="5.21623">
        <ele>312.6</ele>
        <time>2022-06-06T14:23:07Z</time>
      </trkpt>
      <trkpt lat="47.58397" lon="5.21578">
        <ele>312.4</ele>
        <time>2022-06-06T14:23:16Z</time>
      </trkpt>
      <trkpt lat="47.58353" lon="5.21549">
        <ele>311.8</ele>
        <time>2022-06-06T14:23:24Z</time>
      </trkpt>
      <trkpt lat="47.58309" lon="5.21529">
        <ele>311.6</ele>
        <time>2022-06-06T14:23:31Z</time>
      </trkpt>
      <trkpt lat="47.58297" lon="5.21525">
        <ele>311.6</ele>
        <time>2022-06-06T14:23:33Z</time>
      </trkpt>
      <trkpt lat="47.58258" lon="5.21512">
        <ele>311.2</ele>
        <time>2022-06-06T14:23:39Z</time>
      </trkpt>
      <trkpt lat="47.58253" lon="5.21507">
        <ele>311.2</ele>
        <time>2022-06-06T14:23:40Z</time>
      </trkpt>
      <trkpt lat="47.58248" lon="5.21501">
        <ele>311.2</ele>
        <time>2022-06-06T14:23:41Z</time>
      </trkpt>
      <trkpt lat="47.58234" lon="5.2148">
        <ele>310.6</ele>
        <time>2022-06-06T14:23:44Z</time>
      </trkpt>
      <trkpt lat="47.58224" lon="5.21468">
        <ele>310</ele>
        <time>2022-06-06T14:23:46Z</time>
      </trkpt>
      <trkpt lat="47.58212" lon="5.21462">
        <ele>309.4</ele>
        <time>2022-06-06T14:23:48Z</time>
      </trkpt>
      <trkpt lat="47.58186" lon="5.21466">
        <ele>308.6</ele>
        <time>2022-06-06T14:23:52Z</time>
      </trkpt>
      <trkpt lat="47.58179" lon="5.21467">
        <ele>308.4</ele>
        <time>2022-06-06T14:23:53Z</time>
      </trkpt>
      <trkpt lat="47.58166" lon="5.21468">
        <ele>308</ele>
        <time>2022-06-06T14:23:55Z</time>
      </trkpt>
      <trkpt lat="47.58157" lon="5.21468">
        <ele>307.8</ele>
        <time>2022-06-06T14:23:56Z</time>
      </trkpt>
      <trkpt lat="47.5814" lon="5.21467">
        <ele>307.8</ele>
        <time>2022-06-06T14:23:59Z</time>
      </trkpt>
      <trkpt lat="47.58093" lon="5.21462">
        <ele>307.6</ele>
        <time>2022-06-06T14:24:06Z</time>
      </trkpt>
      <trkpt lat="47.5804" lon="5.21456">
        <ele>308.2</ele>
        <time>2022-06-06T14:24:14Z</time>
      </trkpt>
      <trkpt lat="47.57988" lon="5.2145">
        <ele>308.6</ele>
        <time>2022-06-06T14:24:22Z</time>
      </trkpt>
      <trkpt lat="47.57933" lon="5.21444">
        <ele>309</ele>
        <time>2022-06-06T14:24:31Z</time>
      </trkpt>
      <trkpt lat="47.579" lon="5.21437">
        <ele>309</ele>
        <time>2022-06-06T14:24:37Z</time>
      </trkpt>
      <trkpt lat="47.57896" lon="5.21437">
        <ele>309</ele>
        <time>2022-06-06T14:24:38Z</time>
      </trkpt>
      <trkpt lat="47.57887" lon="5.21445">
        <ele>308.8</ele>
        <time>2022-06-06T14:24:40Z</time>
      </trkpt>
      <trkpt lat="47.57875" lon="5.21477">
        <ele>308</ele>
        <time>2022-06-06T14:24:45Z</time>
      </trkpt>
      <trkpt lat="47.57869" lon="5.2149">
        <ele>307.6</ele>
        <time>2022-06-06T14:24:47Z</time>
      </trkpt>
      <trkpt lat="47.57849" lon="5.21538">
        <ele>307.8</ele>
        <time>2022-06-06T14:24:54Z</time>
      </trkpt>
      <trkpt lat="47.57838" lon="5.21565">
        <ele>308.6</ele>
        <time>2022-06-06T14:24:58Z</time>
      </trkpt>
      <trkpt lat="47.57812" lon="5.21628">
        <ele>309.6</ele>
        <time>2022-06-06T14:25:07Z</time>
      </trkpt>
      <trkpt lat="47.57783" lon="5.21699">
        <ele>309.2</ele>
        <time>2022-06-06T14:25:16Z</time>
      </trkpt>
      <trkpt lat="47.5778" lon="5.21707">
        <ele>309.2</ele>
        <time>2022-06-06T14:25:17Z</time>
      </trkpt>
      <trkpt lat="47.57776" lon="5.21715">
        <ele>309.2</ele>
        <time>2022-06-06T14:25:18Z</time>
      </trkpt>
      <trkpt lat="47.57768" lon="5.21724">
        <ele>309</ele>
        <time>2022-06-06T14:25:20Z</time>
      </trkpt>
      <trkpt lat="47.57757" lon="5.21723">
        <ele>309</ele>
        <time>2022-06-06T14:25:22Z</time>
      </trkpt>
      <trkpt lat="47.57752" lon="5.21719">
        <ele>308.8</ele>
        <time>2022-06-06T14:25:23Z</time>
      </trkpt>
      <trkpt lat="47.57711" lon="5.21685">
        <ele>308.8</ele>
        <time>2022-06-06T14:25:31Z</time>
      </trkpt>
      <trkpt lat="47.57674" lon="5.21655">
        <ele>308.8</ele>
        <time>2022-06-06T14:25:38Z</time>
      </trkpt>
      <trkpt lat="47.57628" lon="5.21618">
        <ele>308.6</ele>
        <time>2022-06-06T14:25:47Z</time>
      </trkpt>
      <trkpt lat="47.5758" lon="5.21579">
        <ele>308.6</ele>
        <time>2022-06-06T14:25:56Z</time>
      </trkpt>
      <trkpt lat="47.57575" lon="5.21575">
        <ele>308.4</ele>
        <time>2022-06-06T14:25:57Z</time>
      </trkpt>
      <trkpt lat="47.57546" lon="5.21553">
        <ele>307.6</ele>
        <time>2022-06-06T14:26:02Z</time>
      </trkpt>
      <trkpt lat="47.5753" lon="5.21539">
        <ele>307.2</ele>
        <time>2022-06-06T14:26:05Z</time>
      </trkpt>
      <trkpt lat="47.57478" lon="5.21499">
        <ele>306.8</ele>
        <time>2022-06-06T14:26:14Z</time>
      </trkpt>
      <trkpt lat="47.57466" lon="5.2149">
        <ele>306.6</ele>
        <time>2022-06-06T14:26:16Z</time>
      </trkpt>
      <trkpt lat="47.57419" lon="5.21452">
        <ele>305.6</ele>
        <time>2022-06-06T14:26:24Z</time>
      </trkpt>
      <trkpt lat="47.57395" lon="5.21434">
        <ele>305.2</ele>
        <time>2022-06-06T14:26:28Z</time>
      </trkpt>
      <trkpt lat="47.57389" lon="5.21429">
        <ele>305</ele>
        <time>2022-06-06T14:26:29Z</time>
      </trkpt>
      <trkpt lat="47.57339" lon="5.2139">
        <ele>304.4</ele>
        <time>2022-06-06T14:26:38Z</time>
      </trkpt>
      <trkpt lat="47.57285" lon="5.21349">
        <ele>304.2</ele>
        <time>2022-06-06T14:26:47Z</time>
      </trkpt>
      <trkpt lat="47.57278" lon="5.21344">
        <ele>304.2</ele>
        <time>2022-06-06T14:26:48Z</time>
      </trkpt>
      <trkpt lat="47.57238" lon="5.21311">
        <ele>303.6</ele>
        <time>2022-06-06T14:26:55Z</time>
      </trkpt>
      <trkpt lat="47.57226" lon="5.21302">
        <ele>303.4</ele>
        <time>2022-06-06T14:26:57Z</time>
      </trkpt>
      <trkpt lat="47.57182" lon="5.2126">
        <ele>303.2</ele>
        <time>2022-06-06T14:27:05Z</time>
      </trkpt>
      <trkpt lat="47.57136" lon="5.21212">
        <ele>303.4</ele>
        <time>2022-06-06T14:27:14Z</time>
      </trkpt>
      <trkpt lat="47.57125" lon="5.21201">
        <ele>303.4</ele>
        <time>2022-06-06T14:27:16Z</time>
      </trkpt>
      <trkpt lat="47.57079" lon="5.21154">
        <ele>303.2</ele>
        <time>2022-06-06T14:27:25Z</time>
      </trkpt>
      <trkpt lat="47.57064" lon="5.21138">
        <ele>303.2</ele>
        <time>2022-06-06T14:27:28Z</time>
      </trkpt>
      <trkpt lat="47.57018" lon="5.2109">
        <ele>303</ele>
        <time>2022-06-06T14:27:37Z</time>
      </trkpt>
      <trkpt lat="47.57003" lon="5.21075">
        <ele>303</ele>
        <time>2022-06-06T14:27:40Z</time>
      </trkpt>
      <trkpt lat="47.56958" lon="5.21028">
        <ele>303</ele>
        <time>2022-06-06T14:27:49Z</time>
      </trkpt>
      <trkpt lat="47.56953" lon="5.21022">
        <ele>303</ele>
        <time>2022-06-06T14:27:50Z</time>
      </trkpt>
      <trkpt lat="47.56929" lon="5.20997">
        <ele>302.8</ele>
        <time>2022-06-06T14:27:55Z</time>
      </trkpt>
      <trkpt lat="47.56921" lon="5.20988">
        <ele>303</ele>
        <time>2022-06-06T14:27:57Z</time>
      </trkpt>
      <trkpt lat="47.56905" lon="5.20973">
        <ele>302.6</ele>
        <time>2022-06-06T14:28:00Z</time>
      </trkpt>
      <trkpt lat="47.56901" lon="5.20968">
        <ele>302.6</ele>
        <time>2022-06-06T14:28:01Z</time>
      </trkpt>
      <trkpt lat="47.56897" lon="5.20958">
        <ele>302.4</ele>
        <time>2022-06-06T14:28:03Z</time>
      </trkpt>
      <trkpt lat="47.56905" lon="5.20947">
        <ele>302.2</ele>
        <time>2022-06-06T14:28:06Z</time>
      </trkpt>
      <trkpt lat="47.56927" lon="5.20924">
        <ele>302</ele>
        <time>2022-06-06T14:28:12Z</time>
      </trkpt>
      <trkpt lat="47.56956" lon="5.20891">
        <ele>302.4</ele>
        <time>2022-06-06T14:28:20Z</time>
      </trkpt>
      <trkpt lat="47.56998" lon="5.20841">
        <ele>303</ele>
        <time>2022-06-06T14:28:31Z</time>
      </trkpt>
      <trkpt lat="47.5703" lon="5.20806">
        <ele>302.8</ele>
        <time>2022-06-06T14:28:38Z</time>
      </trkpt>
      <trkpt lat="47.57064" lon="5.20766">
        <ele>302.2</ele>
        <time>2022-06-06T14:28:45Z</time>
      </trkpt>
      <trkpt lat="47.57086" lon="5.2074">
        <ele>301.6</ele>
        <time>2022-06-06T14:28:50Z</time>
      </trkpt>
      <trkpt lat="47.571" lon="5.20722">
        <ele>300.6</ele>
        <time>2022-06-06T14:28:53Z</time>
      </trkpt>
      <trkpt lat="47.57104" lon="5.20716">
        <ele>300.6</ele>
        <time>2022-06-06T14:28:54Z</time>
      </trkpt>
      <trkpt lat="47.57139" lon="5.20676">
        <ele>299.2</ele>
        <time>2022-06-06T14:29:01Z</time>
      </trkpt>
      <trkpt lat="47.57153" lon="5.20659">
        <ele>299</ele>
        <time>2022-06-06T14:29:04Z</time>
      </trkpt>
      <trkpt lat="47.57176" lon="5.20628">
        <ele>298.4</ele>
        <time>2022-06-06T14:29:09Z</time>
      </trkpt>
      <trkpt lat="47.57181" lon="5.20615">
        <ele>298.4</ele>
        <time>2022-06-06T14:29:11Z</time>
      </trkpt>
      <trkpt lat="47.5718" lon="5.20607">
        <ele>298.2</ele>
        <time>2022-06-06T14:29:13Z</time>
      </trkpt>
      <trkpt lat="47.57178" lon="5.20605">
        <ele>298.2</ele>
        <time>2022-06-06T14:29:14Z</time>
      </trkpt>
      <trkpt lat="47.57168" lon="5.20615">
        <ele>298</ele>
        <time>2022-06-06T14:29:18Z</time>
      </trkpt>
      <trkpt lat="47.57161" lon="5.20622">
        <ele>298</ele>
        <time>2022-06-06T14:29:20Z</time>
      </trkpt>
      <trkpt lat="47.57154" lon="5.20631">
        <ele>298</ele>
        <time>2022-06-06T14:29:22Z</time>
      </trkpt>
      <trkpt lat="47.5715" lon="5.20634">
        <ele>298</ele>
        <time>2022-06-06T14:29:23Z</time>
      </trkpt>
      <trkpt lat="47.57142" lon="5.2064">
        <ele>298.2</ele>
        <time>2022-06-06T14:29:25Z</time>
      </trkpt>
      <trkpt lat="47.5713" lon="5.20643">
        <ele>298.8</ele>
        <time>2022-06-06T14:29:28Z</time>
      </trkpt>
      <trkpt lat="47.57126" lon="5.20643">
        <ele>298.8</ele>
        <time>2022-06-06T14:29:29Z</time>
      </trkpt>
      <trkpt lat="47.57104" lon="5.20641">
        <ele>299.4</ele>
        <time>2022-06-06T14:29:34Z</time>
      </trkpt>
      <trkpt lat="47.571" lon="5.20641">
        <ele>299.4</ele>
        <time>2022-06-06T14:29:35Z</time>
      </trkpt>
      <trkpt lat="47.57086" lon="5.20638">
        <ele>299.6</ele>
        <time>2022-06-06T14:29:38Z</time>
      </trkpt>
      <trkpt lat="47.57081" lon="5.20637">
        <ele>299.8</ele>
        <time>2022-06-06T14:29:39Z</time>
      </trkpt>
      <trkpt lat="47.57063" lon="5.20629">
        <ele>300</ele>
        <time>2022-06-06T14:29:43Z</time>
      </trkpt>
      <trkpt lat="47.57055" lon="5.20621">
        <ele>300</ele>
        <time>2022-06-06T14:29:45Z</time>
      </trkpt>
      <trkpt lat="47.57051" lon="5.20618">
        <ele>300</ele>
        <time>2022-06-06T14:29:46Z</time>
      </trkpt>
      <trkpt lat="47.57038" lon="5.20611">
        <ele>300</ele>
        <time>2022-06-06T14:29:49Z</time>
      </trkpt>
      <trkpt lat="47.57017" lon="5.20597">
        <ele>299.8</ele>
        <time>2022-06-06T14:29:55Z</time>
      </trkpt>
      <trkpt lat="47.57011" lon="5.20592">
        <ele>299.8</ele>
        <time>2022-06-06T14:29:57Z</time>
      </trkpt>
      <trkpt lat="47.57001" lon="5.20582">
        <ele>299.6</ele>
        <time>2022-06-06T14:30:03Z</time>
      </trkpt>
      <trkpt lat="47.57001" lon="5.20582">
        <ele>299</ele>
        <time>2022-06-06T14:30:10Z</time>
      </trkpt>
      <trkpt lat="47.57001" lon="5.20582">
        <ele>298.8</ele>
        <time>2022-06-06T14:30:21Z</time>
      </trkpt>
      <trkpt lat="47.57001" lon="5.20582">
        <ele>298.8</ele>
        <time>2022-06-06T14:30:31Z</time>
      </trkpt>
      <trkpt lat="47.57001" lon="5.20582">
        <ele>299</ele>
        <time>2022-06-06T14:30:41Z</time>
      </trkpt>
      <trkpt lat="47.57" lon="5.20581">
        <ele>298.6</ele>
        <time>2022-06-06T14:31:01Z</time>
      </trkpt>
      <trkpt lat="47.5699" lon="5.20575">
        <ele>298.6</ele>
        <time>2022-06-06T14:31:07Z</time>
      </trkpt>
      <trkpt lat="47.5697" lon="5.20558">
        <ele>298.8</ele>
        <time>2022-06-06T14:31:14Z</time>
      </trkpt>
      <trkpt lat="47.56963" lon="5.20551">
        <ele>298.8</ele>
        <time>2022-06-06T14:31:18Z</time>
      </trkpt>
      <trkpt lat="47.56957" lon="5.20547">
        <ele>298.2</ele>
        <time>2022-06-06T14:31:35Z</time>
      </trkpt>
      <trkpt lat="47.56948" lon="5.20542">
        <ele>297.8</ele>
        <time>2022-06-06T14:31:40Z</time>
      </trkpt>
      <trkpt lat="47.56947" lon="5.2054">
        <ele>297.8</ele>
        <time>2022-06-06T14:31:41Z</time>
      </trkpt>
      <trkpt lat="47.56941" lon="5.20534">
        <ele>297.8</ele>
        <time>2022-06-06T14:31:46Z</time>
      </trkpt>
      <trkpt lat="47.56941" lon="5.20534">
        <ele>297.8</ele>
        <time>2022-06-06T14:32:01Z</time>
      </trkpt>
      <trkpt lat="47.5694" lon="5.20533">
        <ele>297.6</ele>
        <time>2022-06-06T14:32:08Z</time>
      </trkpt>
      <trkpt lat="47.56938" lon="5.2053">
        <ele>297.6</ele>
        <time>2022-06-06T14:32:10Z</time>
      </trkpt>
      <trkpt lat="47.56936" lon="5.20529">
        <ele>297.6</ele>
        <time>2022-06-06T14:32:11Z</time>
      </trkpt>
      <trkpt lat="47.56923" lon="5.20516">
        <ele>297.8</ele>
        <time>2022-06-06T14:32:18Z</time>
      </trkpt>
      <trkpt lat="47.56904" lon="5.205">
        <ele>297.8</ele>
        <time>2022-06-06T14:32:24Z</time>
      </trkpt>
      <trkpt lat="47.56883" lon="5.20477">
        <ele>297.6</ele>
        <time>2022-06-06T14:32:29Z</time>
      </trkpt>
      <trkpt lat="47.56865" lon="5.20458">
        <ele>297</ele>
        <time>2022-06-06T14:32:33Z</time>
      </trkpt>
      <trkpt lat="47.56853" lon="5.20446">
        <ele>296.2</ele>
        <time>2022-06-06T14:32:36Z</time>
      </trkpt>
      <trkpt lat="47.56845" lon="5.20437">
        <ele>296</ele>
        <time>2022-06-06T14:32:38Z</time>
      </trkpt>
      <trkpt lat="47.56831" lon="5.20422">
        <ele>295.2</ele>
        <time>2022-06-06T14:32:42Z</time>
      </trkpt>
      <trkpt lat="47.56824" lon="5.20413">
        <ele>295</ele>
        <time>2022-06-06T14:32:44Z</time>
      </trkpt>
      <trkpt lat="47.56817" lon="5.20408">
        <ele>294.8</ele>
        <time>2022-06-06T14:32:46Z</time>
      </trkpt>
      <trkpt lat="47.56807" lon="5.204">
        <ele>294.8</ele>
        <time>2022-06-06T14:32:49Z</time>
      </trkpt>
      <trkpt lat="47.56783" lon="5.20387">
        <ele>294.4</ele>
        <time>2022-06-06T14:32:55Z</time>
      </trkpt>
      <trkpt lat="47.56776" lon="5.2038">
        <ele>294</ele>
        <time>2022-06-06T14:32:57Z</time>
      </trkpt>
      <trkpt lat="47.56762" lon="5.20366">
        <ele>293.8</ele>
        <time>2022-06-06T14:33:01Z</time>
      </trkpt>
      <trkpt lat="47.56756" lon="5.20358">
        <ele>293.8</ele>
        <time>2022-06-06T14:33:03Z</time>
      </trkpt>
      <trkpt lat="47.56738" lon="5.20337">
        <ele>294.2</ele>
        <time>2022-06-06T14:33:09Z</time>
      </trkpt>
      <trkpt lat="47.56727" lon="5.20322">
        <ele>295.4</ele>
        <time>2022-06-06T14:33:14Z</time>
      </trkpt>
      <trkpt lat="47.56726" lon="5.20319">
        <ele>295.6</ele>
        <time>2022-06-06T14:33:15Z</time>
      </trkpt>
      <trkpt lat="47.5672" lon="5.20312">
        <ele>296.8</ele>
        <time>2022-06-06T14:33:18Z</time>
      </trkpt>
      <trkpt lat="47.56717" lon="5.20306">
        <ele>298</ele>
        <time>2022-06-06T14:33:20Z</time>
      </trkpt>
      <trkpt lat="47.56715" lon="5.20304">
        <ele>298.6</ele>
        <time>2022-06-06T14:33:21Z</time>
      </trkpt>
      <trkpt lat="47.56714" lon="5.20302">
        <ele>298.8</ele>
        <time>2022-06-06T14:33:22Z</time>
      </trkpt>
      <trkpt lat="47.5671" lon="5.20297">
        <ele>300.4</ele>
        <time>2022-06-06T14:33:25Z</time>
      </trkpt>
      <trkpt lat="47.56707" lon="5.20293">
        <ele>301.6</ele>
        <time>2022-06-06T14:33:27Z</time>
      </trkpt>
      <trkpt lat="47.56702" lon="5.20288">
        <ele>303.2</ele>
        <time>2022-06-06T14:33:30Z</time>
      </trkpt>
      <trkpt lat="47.56695" lon="5.20282">
        <ele>304.4</ele>
        <time>2022-06-06T14:33:34Z</time>
      </trkpt>
      <trkpt lat="47.56694" lon="5.20281">
        <ele>304.6</ele>
        <time>2022-06-06T14:33:35Z</time>
      </trkpt>
      <trkpt lat="47.56691" lon="5.20278">
        <ele>305.6</ele>
        <time>2022-06-06T14:33:37Z</time>
      </trkpt>
      <trkpt lat="47.56687" lon="5.20274">
        <ele>306.8</ele>
        <time>2022-06-06T14:33:40Z</time>
      </trkpt>
      <trkpt lat="47.56685" lon="5.20273">
        <ele>307.4</ele>
        <time>2022-06-06T14:33:41Z</time>
      </trkpt>
      <trkpt lat="47.56683" lon="5.20271">
        <ele>307.8</ele>
        <time>2022-06-06T14:33:43Z</time>
      </trkpt>
      <trkpt lat="47.56678" lon="5.20267">
        <ele>308.8</ele>
        <time>2022-06-06T14:33:46Z</time>
      </trkpt>
      <trkpt lat="47.56677" lon="5.20266">
        <ele>309</ele>
        <time>2022-06-06T14:33:47Z</time>
      </trkpt>
      <trkpt lat="47.56673" lon="5.20262">
        <ele>310</ele>
        <time>2022-06-06T14:33:50Z</time>
      </trkpt>
      <trkpt lat="47.56669" lon="5.20256">
        <ele>311</ele>
        <time>2022-06-06T14:33:54Z</time>
      </trkpt>
      <trkpt lat="47.56668" lon="5.20255">
        <ele>311.4</ele>
        <time>2022-06-06T14:33:55Z</time>
      </trkpt>
      <trkpt lat="47.56663" lon="5.20251">
        <ele>312.2</ele>
        <time>2022-06-06T14:33:59Z</time>
      </trkpt>
      <trkpt lat="47.56658" lon="5.20248">
        <ele>313</ele>
        <time>2022-06-06T14:34:02Z</time>
      </trkpt>
      <trkpt lat="47.56655" lon="5.20247">
        <ele>313.2</ele>
        <time>2022-06-06T14:34:04Z</time>
      </trkpt>
      <trkpt lat="47.56651" lon="5.20245">
        <ele>313.6</ele>
        <time>2022-06-06T14:34:07Z</time>
      </trkpt>
      <trkpt lat="47.56647" lon="5.20247">
        <ele>314</ele>
        <time>2022-06-06T14:34:09Z</time>
      </trkpt>
      <trkpt lat="47.56644" lon="5.20249">
        <ele>314.2</ele>
        <time>2022-06-06T14:34:11Z</time>
      </trkpt>
      <trkpt lat="47.5664" lon="5.20249">
        <ele>314.4</ele>
        <time>2022-06-06T14:34:13Z</time>
      </trkpt>
      <trkpt lat="47.56634" lon="5.2025">
        <ele>314.4</ele>
        <time>2022-06-06T14:34:16Z</time>
      </trkpt>
      <trkpt lat="47.56622" lon="5.20246">
        <ele>315</ele>
        <time>2022-06-06T14:34:23Z</time>
      </trkpt>
      <trkpt lat="47.56615" lon="5.20242">
        <ele>315.4</ele>
        <time>2022-06-06T14:34:27Z</time>
      </trkpt>
      <trkpt lat="47.56608" lon="5.20235">
        <ele>315.8</ele>
        <time>2022-06-06T14:34:31Z</time>
      </trkpt>
      <trkpt lat="47.56599" lon="5.20226">
        <ele>316.6</ele>
        <time>2022-06-06T14:34:36Z</time>
      </trkpt>
      <trkpt lat="47.56584" lon="5.20212">
        <ele>317.4</ele>
        <time>2022-06-06T14:34:44Z</time>
      </trkpt>
      <trkpt lat="47.56582" lon="5.20211">
        <ele>317.6</ele>
        <time>2022-06-06T14:34:45Z</time>
      </trkpt>
      <trkpt lat="47.56568" lon="5.20197">
        <ele>318.6</ele>
        <time>2022-06-06T14:34:53Z</time>
      </trkpt>
      <trkpt lat="47.56564" lon="5.20194">
        <ele>319</ele>
        <time>2022-06-06T14:34:55Z</time>
      </trkpt>
      <trkpt lat="47.56556" lon="5.20186">
        <ele>319.4</ele>
        <time>2022-06-06T14:34:59Z</time>
      </trkpt>
      <trkpt lat="47.56552" lon="5.20182">
        <ele>319.8</ele>
        <time>2022-06-06T14:35:01Z</time>
      </trkpt>
      <trkpt lat="47.56546" lon="5.20177">
        <ele>320</ele>
        <time>2022-06-06T14:35:04Z</time>
      </trkpt>
      <trkpt lat="47.56529" lon="5.20162">
        <ele>321</ele>
        <time>2022-06-06T14:35:12Z</time>
      </trkpt>
      <trkpt lat="47.56527" lon="5.2016">
        <ele>321</ele>
        <time>2022-06-06T14:35:13Z</time>
      </trkpt>
      <trkpt lat="47.5651" lon="5.20141">
        <ele>322</ele>
        <time>2022-06-06T14:35:22Z</time>
      </trkpt>
      <trkpt lat="47.56508" lon="5.20139">
        <ele>322.2</ele>
        <time>2022-06-06T14:35:23Z</time>
      </trkpt>
      <trkpt lat="47.56498" lon="5.2013">
        <ele>323.2</ele>
        <time>2022-06-06T14:35:28Z</time>
      </trkpt>
      <trkpt lat="47.56488" lon="5.20118">
        <ele>323.8</ele>
        <time>2022-06-06T14:35:33Z</time>
      </trkpt>
      <trkpt lat="47.56481" lon="5.20112">
        <ele>324.2</ele>
        <time>2022-06-06T14:35:36Z</time>
      </trkpt>
      <trkpt lat="47.56468" lon="5.20099">
        <ele>324.6</ele>
        <time>2022-06-06T14:35:42Z</time>
      </trkpt>
      <trkpt lat="47.56457" lon="5.2009">
        <ele>325.2</ele>
        <time>2022-06-06T14:35:47Z</time>
      </trkpt>
      <trkpt lat="47.56455" lon="5.20089">
        <ele>325.4</ele>
        <time>2022-06-06T14:35:48Z</time>
      </trkpt>
      <trkpt lat="47.56446" lon="5.20082">
        <ele>325.8</ele>
        <time>2022-06-06T14:35:52Z</time>
      </trkpt>
      <trkpt lat="47.5644" lon="5.20077">
        <ele>326.4</ele>
        <time>2022-06-06T14:35:55Z</time>
      </trkpt>
      <trkpt lat="47.56426" lon="5.20065">
        <ele>327.2</ele>
        <time>2022-06-06T14:36:02Z</time>
      </trkpt>
      <trkpt lat="47.56424" lon="5.20064">
        <ele>327.4</ele>
        <time>2022-06-06T14:36:03Z</time>
      </trkpt>
      <trkpt lat="47.56411" lon="5.20055">
        <ele>328</ele>
        <time>2022-06-06T14:36:09Z</time>
      </trkpt>
      <trkpt lat="47.56409" lon="5.20054">
        <ele>328.4</ele>
        <time>2022-06-06T14:36:10Z</time>
      </trkpt>
      <trkpt lat="47.56395" lon="5.20044">
        <ele>329.4</ele>
        <time>2022-06-06T14:36:16Z</time>
      </trkpt>
      <trkpt lat="47.56393" lon="5.20042">
        <ele>329.8</ele>
        <time>2022-06-06T14:36:17Z</time>
      </trkpt>
      <trkpt lat="47.5638" lon="5.20031">
        <ele>330.6</ele>
        <time>2022-06-06T14:36:23Z</time>
      </trkpt>
      <trkpt lat="47.56378" lon="5.20029">
        <ele>330.8</ele>
        <time>2022-06-06T14:36:24Z</time>
      </trkpt>
      <trkpt lat="47.56362" lon="5.20017">
        <ele>331.8</ele>
        <time>2022-06-06T14:36:31Z</time>
      </trkpt>
      <trkpt lat="47.56345" lon="5.20006">
        <ele>332.8</ele>
        <time>2022-06-06T14:36:38Z</time>
      </trkpt>
      <trkpt lat="47.56343" lon="5.20004">
        <ele>332.8</ele>
        <time>2022-06-06T14:36:39Z</time>
      </trkpt>
      <trkpt lat="47.56326" lon="5.1999">
        <ele>333.4</ele>
        <time>2022-06-06T14:36:44Z</time>
      </trkpt>
      <trkpt lat="47.56304" lon="5.19974">
        <ele>333.8</ele>
        <time>2022-06-06T14:36:51Z</time>
      </trkpt>
      <trkpt lat="47.56292" lon="5.19967">
        <ele>334</ele>
        <time>2022-06-06T14:36:55Z</time>
      </trkpt>
      <trkpt lat="47.56268" lon="5.19953">
        <ele>334.4</ele>
        <time>2022-06-06T14:37:02Z</time>
      </trkpt>
      <trkpt lat="47.56251" lon="5.19942">
        <ele>335</ele>
        <time>2022-06-06T14:37:07Z</time>
      </trkpt>
      <trkpt lat="47.56248" lon="5.1994">
        <ele>335</ele>
        <time>2022-06-06T14:37:08Z</time>
      </trkpt>
      <trkpt lat="47.56222" lon="5.19924">
        <ele>335.4</ele>
        <time>2022-06-06T14:37:15Z</time>
      </trkpt>
      <trkpt lat="47.56196" lon="5.19911">
        <ele>335.6</ele>
        <time>2022-06-06T14:37:21Z</time>
      </trkpt>
      <trkpt lat="47.56188" lon="5.19906">
        <ele>335.6</ele>
        <time>2022-06-06T14:37:23Z</time>
      </trkpt>
      <trkpt lat="47.56154" lon="5.19888">
        <ele>335.8</ele>
        <time>2022-06-06T14:37:30Z</time>
      </trkpt>
      <trkpt lat="47.56118" lon="5.1987">
        <ele>335.8</ele>
        <time>2022-06-06T14:37:37Z</time>
      </trkpt>
      <trkpt lat="47.56094" lon="5.1986">
        <ele>335.6</ele>
        <time>2022-06-06T14:37:42Z</time>
      </trkpt>
      <trkpt lat="47.56084" lon="5.19856">
        <ele>335.4</ele>
        <time>2022-06-06T14:37:44Z</time>
      </trkpt>
      <trkpt lat="47.5604" lon="5.1984">
        <ele>334</ele>
        <time>2022-06-06T14:37:52Z</time>
      </trkpt>
      <trkpt lat="47.56035" lon="5.19838">
        <ele>334</ele>
        <time>2022-06-06T14:37:53Z</time>
      </trkpt>
      <trkpt lat="47.56017" lon="5.19833">
        <ele>332.8</ele>
        <time>2022-06-06T14:37:56Z</time>
      </trkpt>
      <trkpt lat="47.55987" lon="5.19825">
        <ele>331.8</ele>
        <time>2022-06-06T14:38:01Z</time>
      </trkpt>
      <trkpt lat="47.55974" lon="5.19821">
        <ele>331.4</ele>
        <time>2022-06-06T14:38:03Z</time>
      </trkpt>
      <trkpt lat="47.55961" lon="5.19818">
        <ele>330.8</ele>
        <time>2022-06-06T14:38:05Z</time>
      </trkpt>
      <trkpt lat="47.5594" lon="5.19811">
        <ele>330.4</ele>
        <time>2022-06-06T14:38:08Z</time>
      </trkpt>
      <trkpt lat="47.55919" lon="5.19805">
        <ele>329.8</ele>
        <time>2022-06-06T14:38:11Z</time>
      </trkpt>
      <trkpt lat="47.55902" lon="5.19801">
        <ele>329</ele>
        <time>2022-06-06T14:38:13Z</time>
      </trkpt>
      <trkpt lat="47.55893" lon="5.19799">
        <ele>328.8</ele>
        <time>2022-06-06T14:38:14Z</time>
      </trkpt>
      <trkpt lat="47.55868" lon="5.19791">
        <ele>327.8</ele>
        <time>2022-06-06T14:38:17Z</time>
      </trkpt>
      <trkpt lat="47.5586" lon="5.19787">
        <ele>327.6</ele>
        <time>2022-06-06T14:38:18Z</time>
      </trkpt>
      <trkpt lat="47.55853" lon="5.19784">
        <ele>327</ele>
        <time>2022-06-06T14:38:19Z</time>
      </trkpt>
      <trkpt lat="47.55834" lon="5.19776">
        <ele>326.4</ele>
        <time>2022-06-06T14:38:21Z</time>
      </trkpt>
      <trkpt lat="47.55825" lon="5.19772">
        <ele>325.8</ele>
        <time>2022-06-06T14:38:22Z</time>
      </trkpt>
      <trkpt lat="47.55816" lon="5.19766">
        <ele>325.4</ele>
        <time>2022-06-06T14:38:23Z</time>
      </trkpt>
      <trkpt lat="47.558" lon="5.19752">
        <ele>324.4</ele>
        <time>2022-06-06T14:38:25Z</time>
      </trkpt>
      <trkpt lat="47.55793" lon="5.19744">
        <ele>323.6</ele>
        <time>2022-06-06T14:38:26Z</time>
      </trkpt>
      <trkpt lat="47.55785" lon="5.19735">
        <ele>323.2</ele>
        <time>2022-06-06T14:38:27Z</time>
      </trkpt>
      <trkpt lat="47.55755" lon="5.19701">
        <ele>321.8</ele>
        <time>2022-06-06T14:38:31Z</time>
      </trkpt>
      <trkpt lat="47.55732" lon="5.19673">
        <ele>320.8</ele>
        <time>2022-06-06T14:38:34Z</time>
      </trkpt>
      <trkpt lat="47.55715" lon="5.19658">
        <ele>319.8</ele>
        <time>2022-06-06T14:38:36Z</time>
      </trkpt>
      <trkpt lat="47.55706" lon="5.19651">
        <ele>318.6</ele>
        <time>2022-06-06T14:38:37Z</time>
      </trkpt>
      <trkpt lat="47.55696" lon="5.19646">
        <ele>318</ele>
        <time>2022-06-06T14:38:38Z</time>
      </trkpt>
      <trkpt lat="47.55687" lon="5.19643">
        <ele>317.4</ele>
        <time>2022-06-06T14:38:39Z</time>
      </trkpt>
      <trkpt lat="47.55677" lon="5.1964">
        <ele>316.6</ele>
        <time>2022-06-06T14:38:40Z</time>
      </trkpt>
      <trkpt lat="47.55667" lon="5.19639">
        <ele>316.2</ele>
        <time>2022-06-06T14:38:41Z</time>
      </trkpt>
      <trkpt lat="47.55657" lon="5.1964">
        <ele>315.8</ele>
        <time>2022-06-06T14:38:42Z</time>
      </trkpt>
      <trkpt lat="47.55637" lon="5.19643">
        <ele>314.4</ele>
        <time>2022-06-06T14:38:44Z</time>
      </trkpt>
      <trkpt lat="47.55621" lon="5.19648">
        <ele>313.2</ele>
        <time>2022-06-06T14:38:46Z</time>
      </trkpt>
      <trkpt lat="47.55614" lon="5.1965">
        <ele>313</ele>
        <time>2022-06-06T14:38:47Z</time>
      </trkpt>
      <trkpt lat="47.55608" lon="5.1965">
        <ele>312.2</ele>
        <time>2022-06-06T14:38:48Z</time>
      </trkpt>
      <trkpt lat="47.55602" lon="5.19649">
        <ele>311.4</ele>
        <time>2022-06-06T14:38:49Z</time>
      </trkpt>
      <trkpt lat="47.55597" lon="5.19647">
        <ele>311.2</ele>
        <time>2022-06-06T14:38:50Z</time>
      </trkpt>
      <trkpt lat="47.55593" lon="5.19642">
        <ele>310.4</ele>
        <time>2022-06-06T14:38:51Z</time>
      </trkpt>
      <trkpt lat="47.55587" lon="5.19629">
        <ele>309.4</ele>
        <time>2022-06-06T14:38:53Z</time>
      </trkpt>
      <trkpt lat="47.55584" lon="5.19605">
        <ele>308</ele>
        <time>2022-06-06T14:38:56Z</time>
      </trkpt>
      <trkpt lat="47.55583" lon="5.19597">
        <ele>308</ele>
        <time>2022-06-06T14:38:57Z</time>
      </trkpt>
      <trkpt lat="47.55582" lon="5.19581">
        <ele>307.6</ele>
        <time>2022-06-06T14:38:59Z</time>
      </trkpt>
      <trkpt lat="47.55581" lon="5.19565">
        <ele>307.4</ele>
        <time>2022-06-06T14:39:01Z</time>
      </trkpt>
      <trkpt lat="47.55581" lon="5.19547">
        <ele>307.4</ele>
        <time>2022-06-06T14:39:03Z</time>
      </trkpt>
      <trkpt lat="47.5558" lon="5.19528">
        <ele>307.2</ele>
        <time>2022-06-06T14:39:05Z</time>
      </trkpt>
      <trkpt lat="47.5558" lon="5.19508">
        <ele>307</ele>
        <time>2022-06-06T14:39:07Z</time>
      </trkpt>
      <trkpt lat="47.55577" lon="5.19478">
        <ele>306.6</ele>
        <time>2022-06-06T14:39:10Z</time>
      </trkpt>
      <trkpt lat="47.55576" lon="5.1947">
        <ele>306.4</ele>
        <time>2022-06-06T14:39:11Z</time>
      </trkpt>
      <trkpt lat="47.55574" lon="5.19451">
        <ele>305.8</ele>
        <time>2022-06-06T14:39:13Z</time>
      </trkpt>
      <trkpt lat="47.55573" lon="5.19423">
        <ele>304.8</ele>
        <time>2022-06-06T14:39:16Z</time>
      </trkpt>
      <trkpt lat="47.55572" lon="5.19406">
        <ele>304.2</ele>
        <time>2022-06-06T14:39:18Z</time>
      </trkpt>
      <trkpt lat="47.55571" lon="5.19398">
        <ele>304</ele>
        <time>2022-06-06T14:39:19Z</time>
      </trkpt>
      <trkpt lat="47.55569" lon="5.19372">
        <ele>303.6</ele>
        <time>2022-06-06T14:39:22Z</time>
      </trkpt>
      <trkpt lat="47.55567" lon="5.19363">
        <ele>303.2</ele>
        <time>2022-06-06T14:39:23Z</time>
      </trkpt>
      <trkpt lat="47.55557" lon="5.19327">
        <ele>302.4</ele>
        <time>2022-06-06T14:39:27Z</time>
      </trkpt>
      <trkpt lat="47.5555" lon="5.19301">
        <ele>301.6</ele>
        <time>2022-06-06T14:39:30Z</time>
      </trkpt>
      <trkpt lat="47.55545" lon="5.19285">
        <ele>301.4</ele>
        <time>2022-06-06T14:39:32Z</time>
      </trkpt>
      <trkpt lat="47.55536" lon="5.19248">
        <ele>300.4</ele>
        <time>2022-06-06T14:39:36Z</time>
      </trkpt>
      <trkpt lat="47.55531" lon="5.19229">
        <ele>300.2</ele>
        <time>2022-06-06T14:39:38Z</time>
      </trkpt>
      <trkpt lat="47.55518" lon="5.19165">
        <ele>299.8</ele>
        <time>2022-06-06T14:39:45Z</time>
      </trkpt>
      <trkpt lat="47.55515" lon="5.19148">
        <ele>299.6</ele>
        <time>2022-06-06T14:39:47Z</time>
      </trkpt>
      <trkpt lat="47.55513" lon="5.19139">
        <ele>299.4</ele>
        <time>2022-06-06T14:39:48Z</time>
      </trkpt>
      <trkpt lat="47.5551" lon="5.19129">
        <ele>299.4</ele>
        <time>2022-06-06T14:39:49Z</time>
      </trkpt>
      <trkpt lat="47.55508" lon="5.19121">
        <ele>299.4</ele>
        <time>2022-06-06T14:39:50Z</time>
      </trkpt>
      <trkpt lat="47.55491" lon="5.19043">
        <ele>299.8</ele>
        <time>2022-06-06T14:39:59Z</time>
      </trkpt>
      <trkpt lat="47.55489" lon="5.19036">
        <ele>299.8</ele>
        <time>2022-06-06T14:40:00Z</time>
      </trkpt>
      <trkpt lat="47.55473" lon="5.1897">
        <ele>299.4</ele>
        <time>2022-06-06T14:40:07Z</time>
      </trkpt>
      <trkpt lat="47.5547" lon="5.1896">
        <ele>299.4</ele>
        <time>2022-06-06T14:40:08Z</time>
      </trkpt>
      <trkpt lat="47.55456" lon="5.18928">
        <ele>298.8</ele>
        <time>2022-06-06T14:40:12Z</time>
      </trkpt>
      <trkpt lat="47.55431" lon="5.18877">
        <ele>298.6</ele>
        <time>2022-06-06T14:40:19Z</time>
      </trkpt>
      <trkpt lat="47.55428" lon="5.1887">
        <ele>298.6</ele>
        <time>2022-06-06T14:40:20Z</time>
      </trkpt>
      <trkpt lat="47.55424" lon="5.18855">
        <ele>298.6</ele>
        <time>2022-06-06T14:40:22Z</time>
      </trkpt>
      <trkpt lat="47.55426" lon="5.18849">
        <ele>298.6</ele>
        <time>2022-06-06T14:40:23Z</time>
      </trkpt>
      <trkpt lat="47.55429" lon="5.18839">
        <ele>298.6</ele>
        <time>2022-06-06T14:40:25Z</time>
      </trkpt>
      <trkpt lat="47.55434" lon="5.18824">
        <ele>298.8</ele>
        <time>2022-06-06T14:40:28Z</time>
      </trkpt>
      <trkpt lat="47.55439" lon="5.18813">
        <ele>299.2</ele>
        <time>2022-06-06T14:40:31Z</time>
      </trkpt>
      <trkpt lat="47.55442" lon="5.18805">
        <ele>299.6</ele>
        <time>2022-06-06T14:40:33Z</time>
      </trkpt>
      <trkpt lat="47.55445" lon="5.18778">
        <ele>299.6</ele>
        <time>2022-06-06T14:40:38Z</time>
      </trkpt>
      <trkpt lat="47.55446" lon="5.18739">
        <ele>298.8</ele>
        <time>2022-06-06T14:40:44Z</time>
      </trkpt>
      <trkpt lat="47.55447" lon="5.18732">
        <ele>298.6</ele>
        <time>2022-06-06T14:40:45Z</time>
      </trkpt>
      <trkpt lat="47.55447" lon="5.1872">
        <ele>298.4</ele>
        <time>2022-06-06T14:40:47Z</time>
      </trkpt>
      <trkpt lat="47.55448" lon="5.18703">
        <ele>298.2</ele>
        <time>2022-06-06T14:40:50Z</time>
      </trkpt>
      <trkpt lat="47.55449" lon="5.1868">
        <ele>298.4</ele>
        <time>2022-06-06T14:40:56Z</time>
      </trkpt>
      <trkpt lat="47.5545" lon="5.1866">
        <ele>298.4</ele>
        <time>2022-06-06T14:41:03Z</time>
      </trkpt>
      <trkpt lat="47.5545" lon="5.18643">
        <ele>298.4</ele>
        <time>2022-06-06T14:41:10Z</time>
      </trkpt>
      <trkpt lat="47.5545" lon="5.18643">
        <ele>298.4</ele>
        <time>2022-06-06T14:41:15Z</time>
      </trkpt>
      <trkpt lat="47.5545" lon="5.1863">
        <ele>298.2</ele>
        <time>2022-06-06T14:41:33Z</time>
      </trkpt>
      <trkpt lat="47.55453" lon="5.18598">
        <ele>298.4</ele>
        <time>2022-06-06T14:41:39Z</time>
      </trkpt>
      <trkpt lat="47.55458" lon="5.18562">
        <ele>298.8</ele>
        <time>2022-06-06T14:41:45Z</time>
      </trkpt>
      <trkpt lat="47.55465" lon="5.18516">
        <ele>299.4</ele>
        <time>2022-06-06T14:41:53Z</time>
      </trkpt>
      <trkpt lat="47.55469" lon="5.18493">
        <ele>299.6</ele>
        <time>2022-06-06T14:41:57Z</time>
      </trkpt>
      <trkpt lat="47.55476" lon="5.18452">
        <ele>300.6</ele>
        <time>2022-06-06T14:42:04Z</time>
      </trkpt>
      <trkpt lat="47.55477" lon="5.18446">
        <ele>300.6</ele>
        <time>2022-06-06T14:42:05Z</time>
      </trkpt>
      <trkpt lat="47.55484" lon="5.18405">
        <ele>302</ele>
        <time>2022-06-06T14:42:12Z</time>
      </trkpt>
      <trkpt lat="47.55489" lon="5.18373">
        <ele>303.2</ele>
        <time>2022-06-06T14:42:18Z</time>
      </trkpt>
      <trkpt lat="47.55491" lon="5.18364">
        <ele>303.6</ele>
        <time>2022-06-06T14:42:20Z</time>
      </trkpt>
      <trkpt lat="47.55493" lon="5.18349">
        <ele>304.6</ele>
        <time>2022-06-06T14:42:23Z</time>
      </trkpt>
      <trkpt lat="47.55494" lon="5.18336">
        <ele>305</ele>
        <time>2022-06-06T14:42:26Z</time>
      </trkpt>
      <trkpt lat="47.55495" lon="5.18322">
        <ele>305.6</ele>
        <time>2022-06-06T14:42:29Z</time>
      </trkpt>
      <trkpt lat="47.55495" lon="5.18304">
        <ele>306.8</ele>
        <time>2022-06-06T14:42:33Z</time>
      </trkpt>
      <trkpt lat="47.55494" lon="5.18294">
        <ele>307</ele>
        <time>2022-06-06T14:42:35Z</time>
      </trkpt>
      <trkpt lat="47.55493" lon="5.18276">
        <ele>307.8</ele>
        <time>2022-06-06T14:42:39Z</time>
      </trkpt>
      <trkpt lat="47.5549" lon="5.18254">
        <ele>308.4</ele>
        <time>2022-06-06T14:42:44Z</time>
      </trkpt>
      <trkpt lat="47.5549" lon="5.18245">
        <ele>308.8</ele>
        <time>2022-06-06T14:42:46Z</time>
      </trkpt>
      <trkpt lat="47.55488" lon="5.18218">
        <ele>309.4</ele>
        <time>2022-06-06T14:42:52Z</time>
      </trkpt>
      <trkpt lat="47.55487" lon="5.18204">
        <ele>310</ele>
        <time>2022-06-06T14:42:55Z</time>
      </trkpt>
      <trkpt lat="47.55486" lon="5.1818">
        <ele>310.8</ele>
        <time>2022-06-06T14:43:00Z</time>
      </trkpt>
      <trkpt lat="47.55486" lon="5.18171">
        <ele>311.2</ele>
        <time>2022-06-06T14:43:02Z</time>
      </trkpt>
      <trkpt lat="47.55485" lon="5.18129">
        <ele>312.2</ele>
        <time>2022-06-06T14:43:11Z</time>
      </trkpt>
      <trkpt lat="47.55484" lon="5.18124">
        <ele>312.2</ele>
        <time>2022-06-06T14:43:12Z</time>
      </trkpt>
      <trkpt lat="47.55483" lon="5.18081">
        <ele>313.4</ele>
        <time>2022-06-06T14:43:21Z</time>
      </trkpt>
      <trkpt lat="47.55483" lon="5.18076">
        <ele>313.4</ele>
        <time>2022-06-06T14:43:22Z</time>
      </trkpt>
      <trkpt lat="47.55482" lon="5.1804">
        <ele>313.8</ele>
        <time>2022-06-06T14:43:29Z</time>
      </trkpt>
      <trkpt lat="47.55481" lon="5.18003">
        <ele>314</ele>
        <time>2022-06-06T14:43:36Z</time>
      </trkpt>
      <trkpt lat="47.55476" lon="5.17966">
        <ele>314.4</ele>
        <time>2022-06-06T14:43:43Z</time>
      </trkpt>
      <trkpt lat="47.55477" lon="5.17961">
        <ele>314.4</ele>
        <time>2022-06-06T14:43:44Z</time>
      </trkpt>
      <trkpt lat="47.5548" lon="5.17945">
        <ele>314.6</ele>
        <time>2022-06-06T14:43:47Z</time>
      </trkpt>
      <trkpt lat="47.55483" lon="5.17925">
        <ele>314.8</ele>
        <time>2022-06-06T14:43:51Z</time>
      </trkpt>
      <trkpt lat="47.55488" lon="5.17904">
        <ele>315.4</ele>
        <time>2022-06-06T14:43:56Z</time>
      </trkpt>
      <trkpt lat="47.5549" lon="5.17893">
        <ele>315.6</ele>
        <time>2022-06-06T14:43:58Z</time>
      </trkpt>
      <trkpt lat="47.55491" lon="5.17888">
        <ele>315.8</ele>
        <time>2022-06-06T14:43:59Z</time>
      </trkpt>
      <trkpt lat="47.55492" lon="5.17882">
        <ele>315.8</ele>
        <time>2022-06-06T14:44:00Z</time>
      </trkpt>
      <trkpt lat="47.55492" lon="5.1787">
        <ele>316</ele>
        <time>2022-06-06T14:44:02Z</time>
      </trkpt>
      <trkpt lat="47.55495" lon="5.17844">
        <ele>316.2</ele>
        <time>2022-06-06T14:44:06Z</time>
      </trkpt>
      <trkpt lat="47.55495" lon="5.17836">
        <ele>316.2</ele>
        <time>2022-06-06T14:44:07Z</time>
      </trkpt>
      <trkpt lat="47.55497" lon="5.17804">
        <ele>316</ele>
        <time>2022-06-06T14:44:12Z</time>
      </trkpt>
      <trkpt lat="47.55498" lon="5.17785">
        <ele>316</ele>
        <time>2022-06-06T14:44:15Z</time>
      </trkpt>
      <trkpt lat="47.55497" lon="5.17773">
        <ele>315.8</ele>
        <time>2022-06-06T14:44:17Z</time>
      </trkpt>
      <trkpt lat="47.55497" lon="5.17767">
        <ele>315.8</ele>
        <time>2022-06-06T14:44:18Z</time>
      </trkpt>
      <trkpt lat="47.55498" lon="5.17733">
        <ele>314.8</ele>
        <time>2022-06-06T14:44:24Z</time>
      </trkpt>
      <trkpt lat="47.55499" lon="5.17718">
        <ele>314.4</ele>
        <time>2022-06-06T14:44:28Z</time>
      </trkpt>
      <trkpt lat="47.55499" lon="5.17711">
        <ele>314.4</ele>
        <time>2022-06-06T14:44:30Z</time>
      </trkpt>
      <trkpt lat="47.55501" lon="5.17674">
        <ele>314.6</ele>
        <time>2022-06-06T14:44:37Z</time>
      </trkpt>
      <trkpt lat="47.55505" lon="5.17642">
        <ele>315</ele>
        <time>2022-06-06T14:44:43Z</time>
      </trkpt>
      <trkpt lat="47.55508" lon="5.17615">
        <ele>315.2</ele>
        <time>2022-06-06T14:44:48Z</time>
      </trkpt>
      <trkpt lat="47.55509" lon="5.17588">
        <ele>315.4</ele>
        <time>2022-06-06T14:44:53Z</time>
      </trkpt>
      <trkpt lat="47.55509" lon="5.17581">
        <ele>315.8</ele>
        <time>2022-06-06T14:44:54Z</time>
      </trkpt>
      <trkpt lat="47.55505" lon="5.17549">
        <ele>316.2</ele>
        <time>2022-06-06T14:44:59Z</time>
      </trkpt>
      <trkpt lat="47.55507" lon="5.17539">
        <ele>316.6</ele>
        <time>2022-06-06T14:45:01Z</time>
      </trkpt>
      <trkpt lat="47.55507" lon="5.17522">
        <ele>316.8</ele>
        <time>2022-06-06T14:45:04Z</time>
      </trkpt>
      <trkpt lat="47.55509" lon="5.175">
        <ele>317.6</ele>
        <time>2022-06-06T14:45:08Z</time>
      </trkpt>
      <trkpt lat="47.55508" lon="5.17494">
        <ele>317.8</ele>
        <time>2022-06-06T14:45:09Z</time>
      </trkpt>
      <trkpt lat="47.55509" lon="5.17475">
        <ele>318.6</ele>
        <time>2022-06-06T14:45:12Z</time>
      </trkpt>
      <trkpt lat="47.55509" lon="5.17456">
        <ele>319.2</ele>
        <time>2022-06-06T14:45:15Z</time>
      </trkpt>
      <trkpt lat="47.55511" lon="5.1744">
        <ele>319.8</ele>
        <time>2022-06-06T14:45:18Z</time>
      </trkpt>
      <trkpt lat="47.55512" lon="5.17429">
        <ele>320.2</ele>
        <time>2022-06-06T14:45:20Z</time>
      </trkpt>
      <trkpt lat="47.55512" lon="5.17403">
        <ele>320.8</ele>
        <time>2022-06-06T14:45:25Z</time>
      </trkpt>
      <trkpt lat="47.55512" lon="5.17397">
        <ele>321</ele>
        <time>2022-06-06T14:45:26Z</time>
      </trkpt>
      <trkpt lat="47.55514" lon="5.1738">
        <ele>322</ele>
        <time>2022-06-06T14:45:30Z</time>
      </trkpt>
      <trkpt lat="47.55514" lon="5.17375">
        <ele>322</ele>
        <time>2022-06-06T14:45:31Z</time>
      </trkpt>
      <trkpt lat="47.55515" lon="5.17364">
        <ele>322.2</ele>
        <time>2022-06-06T14:45:33Z</time>
      </trkpt>
      <trkpt lat="47.55518" lon="5.1735">
        <ele>322.4</ele>
        <time>2022-06-06T14:45:36Z</time>
      </trkpt>
      <trkpt lat="47.55522" lon="5.17318">
        <ele>322.8</ele>
        <time>2022-06-06T14:45:42Z</time>
      </trkpt>
      <trkpt lat="47.55523" lon="5.17313">
        <ele>323</ele>
        <time>2022-06-06T14:45:43Z</time>
      </trkpt>
      <trkpt lat="47.55527" lon="5.17294">
        <ele>323.2</ele>
        <time>2022-06-06T14:45:47Z</time>
      </trkpt>
      <trkpt lat="47.55528" lon="5.17272">
        <ele>323.8</ele>
        <time>2022-06-06T14:45:51Z</time>
      </trkpt>
      <trkpt lat="47.55527" lon="5.17266">
        <ele>323.8</ele>
        <time>2022-06-06T14:45:52Z</time>
      </trkpt>
      <trkpt lat="47.55526" lon="5.1725">
        <ele>323.8</ele>
        <time>2022-06-06T14:45:55Z</time>
      </trkpt>
      <trkpt lat="47.5551" lon="5.17206">
        <ele>323.8</ele>
        <time>2022-06-06T14:46:01Z</time>
      </trkpt>
      <trkpt lat="47.55504" lon="5.17182">
        <ele>323.6</ele>
        <time>2022-06-06T14:46:05Z</time>
      </trkpt>
      <trkpt lat="47.55503" lon="5.17165">
        <ele>323.4</ele>
        <time>2022-06-06T14:46:08Z</time>
      </trkpt>
      <trkpt lat="47.55505" lon="5.1716">
        <ele>323.2</ele>
        <time>2022-06-06T14:46:09Z</time>
      </trkpt>
      <trkpt lat="47.55511" lon="5.17157">
        <ele>323.2</ele>
        <time>2022-06-06T14:46:11Z</time>
      </trkpt>
      <trkpt lat="47.55513" lon="5.17157">
        <ele>323</ele>
        <time>2022-06-06T14:46:12Z</time>
      </trkpt>
      <trkpt lat="47.55521" lon="5.17159">
        <ele>322.8</ele>
        <time>2022-06-06T14:46:15Z</time>
      </trkpt>
      <trkpt lat="47.55547" lon="5.17169">
        <ele>323.2</ele>
        <time>2022-06-06T14:46:22Z</time>
      </trkpt>
      <trkpt lat="47.55554" lon="5.1717">
        <ele>323.4</ele>
        <time>2022-06-06T14:46:25Z</time>
      </trkpt>
      <trkpt lat="47.55556" lon="5.17172">
        <ele>323.4</ele>
        <time>2022-06-06T14:46:26Z</time>
      </trkpt>
      <trkpt lat="47.55574" lon="5.1718">
        <ele>324</ele>
        <time>2022-06-06T14:46:31Z</time>
      </trkpt>
      <trkpt lat="47.55576" lon="5.17181">
        <ele>324</ele>
        <time>2022-06-06T14:46:32Z</time>
      </trkpt>
      <trkpt lat="47.55601" lon="5.17196">
        <ele>325</ele>
        <time>2022-06-06T14:46:39Z</time>
      </trkpt>
      <trkpt lat="47.55605" lon="5.17197">
        <ele>325.2</ele>
        <time>2022-06-06T14:46:40Z</time>
      </trkpt>
      <trkpt lat="47.55619" lon="5.17188">
        <ele>326</ele>
        <time>2022-06-06T14:46:44Z</time>
      </trkpt>
      <trkpt lat="47.5563" lon="5.17168">
        <ele>326.2</ele>
        <time>2022-06-06T14:46:48Z</time>
      </trkpt>
      <trkpt lat="47.55633" lon="5.17162">
        <ele>326.2</ele>
        <time>2022-06-06T14:46:49Z</time>
      </trkpt>
      <trkpt lat="47.55647" lon="5.1713">
        <ele>326.4</ele>
        <time>2022-06-06T14:46:55Z</time>
      </trkpt>
      <trkpt lat="47.55651" lon="5.1712">
        <ele>326.4</ele>
        <time>2022-06-06T14:46:57Z</time>
      </trkpt>
      <trkpt lat="47.55654" lon="5.17106">
        <ele>326.2</ele>
        <time>2022-06-06T14:46:59Z</time>
      </trkpt>
      <trkpt lat="47.55658" lon="5.17094">
        <ele>326.2</ele>
        <time>2022-06-06T14:47:01Z</time>
      </trkpt>
      <trkpt lat="47.55661" lon="5.17081">
        <ele>326</ele>
        <time>2022-06-06T14:47:03Z</time>
      </trkpt>
      <trkpt lat="47.55664" lon="5.17069">
        <ele>326</ele>
        <time>2022-06-06T14:47:05Z</time>
      </trkpt>
      <trkpt lat="47.55665" lon="5.17063">
        <ele>325.8</ele>
        <time>2022-06-06T14:47:06Z</time>
      </trkpt>
      <trkpt lat="47.55666" lon="5.17057">
        <ele>325.6</ele>
        <time>2022-06-06T14:47:07Z</time>
      </trkpt>
      <trkpt lat="47.55671" lon="5.17036">
        <ele>325.2</ele>
        <time>2022-06-06T14:47:10Z</time>
      </trkpt>
      <trkpt lat="47.55672" lon="5.17031">
        <ele>325</ele>
        <time>2022-06-06T14:47:11Z</time>
      </trkpt>
      <trkpt lat="47.55678" lon="5.17006">
        <ele>324.8</ele>
        <time>2022-06-06T14:47:15Z</time>
      </trkpt>
      <trkpt lat="47.5568" lon="5.17001">
        <ele>324.4</ele>
        <time>2022-06-06T14:47:16Z</time>
      </trkpt>
      <trkpt lat="47.55684" lon="5.16989">
        <ele>324.2</ele>
        <time>2022-06-06T14:47:18Z</time>
      </trkpt>
      <trkpt lat="47.55687" lon="5.16983">
        <ele>324</ele>
        <time>2022-06-06T14:47:19Z</time>
      </trkpt>
      <trkpt lat="47.55705" lon="5.1695">
        <ele>322.8</ele>
        <time>2022-06-06T14:47:25Z</time>
      </trkpt>
      <trkpt lat="47.55718" lon="5.16922">
        <ele>322</ele>
        <time>2022-06-06T14:47:30Z</time>
      </trkpt>
      <trkpt lat="47.55727" lon="5.16891">
        <ele>321.8</ele>
        <time>2022-06-06T14:47:34Z</time>
      </trkpt>
      <trkpt lat="47.5573" lon="5.16884">
        <ele>321.8</ele>
        <time>2022-06-06T14:47:35Z</time>
      </trkpt>
      <trkpt lat="47.5574" lon="5.16859">
        <ele>320.8</ele>
        <time>2022-06-06T14:47:38Z</time>
      </trkpt>
      <trkpt lat="47.55743" lon="5.1685">
        <ele>320.6</ele>
        <time>2022-06-06T14:47:39Z</time>
      </trkpt>
      <trkpt lat="47.55749" lon="5.16824">
        <ele>320</ele>
        <time>2022-06-06T14:47:42Z</time>
      </trkpt>
      <trkpt lat="47.55754" lon="5.16809">
        <ele>319.6</ele>
        <time>2022-06-06T14:47:44Z</time>
      </trkpt>
      <trkpt lat="47.55757" lon="5.16802">
        <ele>319.4</ele>
        <time>2022-06-06T14:47:45Z</time>
      </trkpt>
      <trkpt lat="47.5576" lon="5.16793">
        <ele>319.4</ele>
        <time>2022-06-06T14:47:46Z</time>
      </trkpt>
      <trkpt lat="47.55767" lon="5.16773">
        <ele>318.6</ele>
        <time>2022-06-06T14:47:49Z</time>
      </trkpt>
      <trkpt lat="47.55773" lon="5.1675">
        <ele>318</ele>
        <time>2022-06-06T14:47:52Z</time>
      </trkpt>
      <trkpt lat="47.55774" lon="5.16741">
        <ele>317.4</ele>
        <time>2022-06-06T14:47:53Z</time>
      </trkpt>
      <trkpt lat="47.55778" lon="5.16724">
        <ele>317</ele>
        <time>2022-06-06T14:47:55Z</time>
      </trkpt>
      <trkpt lat="47.55781" lon="5.16707">
        <ele>316.8</ele>
        <time>2022-06-06T14:47:57Z</time>
      </trkpt>
      <trkpt lat="47.55782" lon="5.16698">
        <ele>316.8</ele>
        <time>2022-06-06T14:47:58Z</time>
      </trkpt>
      <trkpt lat="47.55786" lon="5.16679">
        <ele>316.6</ele>
        <time>2022-06-06T14:48:00Z</time>
      </trkpt>
      <trkpt lat="47.55794" lon="5.16646">
        <ele>316</ele>
        <time>2022-06-06T14:48:03Z</time>
      </trkpt>
      <trkpt lat="47.55796" lon="5.1664">
        <ele>315.6</ele>
        <time>2022-06-06T14:48:04Z</time>
      </trkpt>
      <trkpt lat="47.55794" lon="5.16633">
        <ele>315.4</ele>
        <time>2022-06-06T14:48:05Z</time>
      </trkpt>
      <trkpt lat="47.55798" lon="5.16618">
        <ele>315</ele>
        <time>2022-06-06T14:48:07Z</time>
      </trkpt>
      <trkpt lat="47.55804" lon="5.166">
        <ele>314.8</ele>
        <time>2022-06-06T14:48:09Z</time>
      </trkpt>
      <trkpt lat="47.55807" lon="5.16583">
        <ele>314.4</ele>
        <time>2022-06-06T14:48:11Z</time>
      </trkpt>
      <trkpt lat="47.5581" lon="5.16559">
        <ele>313.4</ele>
        <time>2022-06-06T14:48:14Z</time>
      </trkpt>
      <trkpt lat="47.55812" lon="5.16552">
        <ele>313</ele>
        <time>2022-06-06T14:48:15Z</time>
      </trkpt>
      <trkpt lat="47.55814" lon="5.16543">
        <ele>312.8</ele>
        <time>2022-06-06T14:48:16Z</time>
      </trkpt>
      <trkpt lat="47.5582" lon="5.16525">
        <ele>312.4</ele>
        <time>2022-06-06T14:48:18Z</time>
      </trkpt>
      <trkpt lat="47.55821" lon="5.16511">
        <ele>312.2</ele>
        <time>2022-06-06T14:48:19Z</time>
      </trkpt>
      <trkpt lat="47.55821" lon="5.16493">
        <ele>312</ele>
        <time>2022-06-06T14:48:21Z</time>
      </trkpt>
      <trkpt lat="47.55825" lon="5.16481">
        <ele>311.6</ele>
        <time>2022-06-06T14:48:23Z</time>
      </trkpt>
      <trkpt lat="47.55829" lon="5.16471">
        <ele>310.6</ele>
        <time>2022-06-06T14:48:25Z</time>
      </trkpt>
      <trkpt lat="47.55828" lon="5.16468">
        <ele>310.2</ele>
        <time>2022-06-06T14:48:26Z</time>
      </trkpt>
      <trkpt lat="47.55825" lon="5.16465">
        <ele>309.6</ele>
        <time>2022-06-06T14:48:27Z</time>
      </trkpt>
      <trkpt lat="47.55816" lon="5.16462">
        <ele>308.6</ele>
        <time>2022-06-06T14:48:29Z</time>
      </trkpt>
      <trkpt lat="47.55791" lon="5.16458">
        <ele>308.2</ele>
        <time>2022-06-06T14:48:34Z</time>
      </trkpt>
      <trkpt lat="47.55781" lon="5.16457">
        <ele>308.2</ele>
        <time>2022-06-06T14:48:36Z</time>
      </trkpt>
      <trkpt lat="47.55751" lon="5.16461">
        <ele>308.2</ele>
        <time>2022-06-06T14:48:42Z</time>
      </trkpt>
      <trkpt lat="47.55742" lon="5.16466">
        <ele>308.2</ele>
        <time>2022-06-06T14:48:44Z</time>
      </trkpt>
      <trkpt lat="47.55729" lon="5.16473">
        <ele>308.2</ele>
        <time>2022-06-06T14:48:47Z</time>
      </trkpt>
      <trkpt lat="47.55721" lon="5.16481">
        <ele>308.2</ele>
        <time>2022-06-06T14:48:49Z</time>
      </trkpt>
      <trkpt lat="47.55716" lon="5.16485">
        <ele>308.2</ele>
        <time>2022-06-06T14:48:50Z</time>
      </trkpt>
      <trkpt lat="47.55702" lon="5.16497">
        <ele>308.4</ele>
        <time>2022-06-06T14:48:53Z</time>
      </trkpt>
      <trkpt lat="47.55691" lon="5.16506">
        <ele>308.2</ele>
        <time>2022-06-06T14:48:55Z</time>
      </trkpt>
      <trkpt lat="47.55672" lon="5.16521">
        <ele>308.4</ele>
        <time>2022-06-06T14:48:59Z</time>
      </trkpt>
      <trkpt lat="47.55659" lon="5.16532">
        <ele>308.8</ele>
        <time>2022-06-06T14:49:02Z</time>
      </trkpt>
      <trkpt lat="47.55644" lon="5.16549">
        <ele>309.4</ele>
        <time>2022-06-06T14:49:05Z</time>
      </trkpt>
      <trkpt lat="47.5564" lon="5.16559">
        <ele>310</ele>
        <time>2022-06-06T14:49:06Z</time>
      </trkpt>
      <trkpt lat="47.55629" lon="5.1657">
        <ele>310.4</ele>
        <time>2022-06-06T14:49:09Z</time>
      </trkpt>
      <trkpt lat="47.55621" lon="5.16577">
        <ele>310.6</ele>
        <time>2022-06-06T14:49:11Z</time>
      </trkpt>
      <trkpt lat="47.55596" lon="5.1659">
        <ele>311.4</ele>
        <time>2022-06-06T14:49:16Z</time>
      </trkpt>
      <trkpt lat="47.55589" lon="5.166">
        <ele>311.4</ele>
        <time>2022-06-06T14:49:18Z</time>
      </trkpt>
      <trkpt lat="47.55576" lon="5.16609">
        <ele>311.8</ele>
        <time>2022-06-06T14:49:21Z</time>
      </trkpt>
      <trkpt lat="47.55559" lon="5.16615">
        <ele>312</ele>
        <time>2022-06-06T14:49:24Z</time>
      </trkpt>
      <trkpt lat="47.55544" lon="5.1662">
        <ele>312</ele>
        <time>2022-06-06T14:49:27Z</time>
      </trkpt>
      <trkpt lat="47.55511" lon="5.16625">
        <ele>311.4</ele>
        <time>2022-06-06T14:49:34Z</time>
      </trkpt>
      <trkpt lat="47.55503" lon="5.16629">
        <ele>311.2</ele>
        <time>2022-06-06T14:49:36Z</time>
      </trkpt>
      <trkpt lat="47.55485" lon="5.16639">
        <ele>311</ele>
        <time>2022-06-06T14:49:40Z</time>
      </trkpt>
      <trkpt lat="47.55451" lon="5.16656">
        <ele>311.2</ele>
        <time>2022-06-06T14:49:48Z</time>
      </trkpt>
      <trkpt lat="47.55404" lon="5.1667">
        <ele>311.8</ele>
        <time>2022-06-06T14:49:58Z</time>
      </trkpt>
      <trkpt lat="47.55392" lon="5.16674">
        <ele>312.4</ele>
        <time>2022-06-06T14:50:01Z</time>
      </trkpt>
      <trkpt lat="47.55383" lon="5.16676">
        <ele>312.6</ele>
        <time>2022-06-06T14:50:03Z</time>
      </trkpt>
      <trkpt lat="47.5537" lon="5.16672">
        <ele>312.8</ele>
        <time>2022-06-06T14:50:06Z</time>
      </trkpt>
      <trkpt lat="47.55364" lon="5.16669">
        <ele>313</ele>
        <time>2022-06-06T14:50:08Z</time>
      </trkpt>
      <trkpt lat="47.55355" lon="5.16656">
        <ele>313</ele>
        <time>2022-06-06T14:50:11Z</time>
      </trkpt>
      <trkpt lat="47.5535" lon="5.16646">
        <ele>313</ele>
        <time>2022-06-06T14:50:13Z</time>
      </trkpt>
      <trkpt lat="47.5534" lon="5.16608">
        <ele>312.2</ele>
        <time>2022-06-06T14:50:19Z</time>
      </trkpt>
      <trkpt lat="47.55329" lon="5.16561">
        <ele>311</ele>
        <time>2022-06-06T14:50:25Z</time>
      </trkpt>
      <trkpt lat="47.55327" lon="5.16552">
        <ele>311</ele>
        <time>2022-06-06T14:50:26Z</time>
      </trkpt>
      <trkpt lat="47.55321" lon="5.16527">
        <ele>310.6</ele>
        <time>2022-06-06T14:50:29Z</time>
      </trkpt>
      <trkpt lat="47.55317" lon="5.16509">
        <ele>310.2</ele>
        <time>2022-06-06T14:50:32Z</time>
      </trkpt>
      <trkpt lat="47.55316" lon="5.16498">
        <ele>310</ele>
        <time>2022-06-06T14:50:34Z</time>
      </trkpt>
      <trkpt lat="47.55316" lon="5.16497">
        <ele>309.6</ele>
        <time>2022-06-06T14:50:36Z</time>
      </trkpt>
      <trkpt lat="47.55316" lon="5.16497">
        <ele>309</ele>
        <time>2022-06-06T14:50:39Z</time>
      </trkpt>
      <trkpt lat="47.55314" lon="5.16489">
        <ele>308</ele>
        <time>2022-06-06T14:51:09Z</time>
      </trkpt>
      <trkpt lat="47.5531" lon="5.16465">
        <ele>308</ele>
        <time>2022-06-06T14:51:14Z</time>
      </trkpt>
      <trkpt lat="47.55308" lon="5.16459">
        <ele>308</ele>
        <time>2022-06-06T14:51:15Z</time>
      </trkpt>
      <trkpt lat="47.55302" lon="5.16431">
        <ele>307.4</ele>
        <time>2022-06-06T14:51:19Z</time>
      </trkpt>
      <trkpt lat="47.55291" lon="5.16385">
        <ele>306.6</ele>
        <time>2022-06-06T14:51:25Z</time>
      </trkpt>
      <trkpt lat="47.55289" lon="5.16377">
        <ele>306.6</ele>
        <time>2022-06-06T14:51:26Z</time>
      </trkpt>
      <trkpt lat="47.55279" lon="5.16351">
        <ele>305.8</ele>
        <time>2022-06-06T14:51:29Z</time>
      </trkpt>
      <trkpt lat="47.55275" lon="5.16344">
        <ele>305.8</ele>
        <time>2022-06-06T14:51:30Z</time>
      </trkpt>
      <trkpt lat="47.55271" lon="5.16337">
        <ele>305.6</ele>
        <time>2022-06-06T14:51:31Z</time>
      </trkpt>
      <trkpt lat="47.55252" lon="5.1631">
        <ele>305.2</ele>
        <time>2022-06-06T14:51:36Z</time>
      </trkpt>
      <trkpt lat="47.55248" lon="5.16305">
        <ele>305.2</ele>
        <time>2022-06-06T14:51:37Z</time>
      </trkpt>
      <trkpt lat="47.55236" lon="5.16289">
        <ele>304.8</ele>
        <time>2022-06-06T14:51:40Z</time>
      </trkpt>
      <trkpt lat="47.55223" lon="5.16273">
        <ele>304.8</ele>
        <time>2022-06-06T14:51:43Z</time>
      </trkpt>
      <trkpt lat="47.55186" lon="5.16229">
        <ele>305</ele>
        <time>2022-06-06T14:51:51Z</time>
      </trkpt>
      <trkpt lat="47.55144" lon="5.16177">
        <ele>305.4</ele>
        <time>2022-06-06T14:52:00Z</time>
      </trkpt>
      <trkpt lat="47.5512" lon="5.16141">
        <ele>305.6</ele>
        <time>2022-06-06T14:52:06Z</time>
      </trkpt>
      <trkpt lat="47.55097" lon="5.16106">
        <ele>305.8</ele>
        <time>2022-06-06T14:52:12Z</time>
      </trkpt>
      <trkpt lat="47.55086" lon="5.1609">
        <ele>306.6</ele>
        <time>2022-06-06T14:52:15Z</time>
      </trkpt>
      <trkpt lat="47.55071" lon="5.16068">
        <ele>307.8</ele>
        <time>2022-06-06T14:52:19Z</time>
      </trkpt>
      <trkpt lat="47.55063" lon="5.16057">
        <ele>308</ele>
        <time>2022-06-06T14:52:21Z</time>
      </trkpt>
      <trkpt lat="47.5504" lon="5.16024">
        <ele>308.8</ele>
        <time>2022-06-06T14:52:27Z</time>
      </trkpt>
      <trkpt lat="47.55037" lon="5.16021">
        <ele>308.8</ele>
        <time>2022-06-06T14:52:28Z</time>
      </trkpt>
      <trkpt lat="47.55028" lon="5.16011">
        <ele>309.4</ele>
        <time>2022-06-06T14:52:30Z</time>
      </trkpt>
      <trkpt lat="47.5502" lon="5.16002">
        <ele>309.6</ele>
        <time>2022-06-06T14:52:32Z</time>
      </trkpt>
      <trkpt lat="47.54997" lon="5.15981">
        <ele>310</ele>
        <time>2022-06-06T14:52:37Z</time>
      </trkpt>
      <trkpt lat="47.54979" lon="5.15967">
        <ele>310.4</ele>
        <time>2022-06-06T14:52:41Z</time>
      </trkpt>
      <trkpt lat="47.54954" lon="5.15947">
        <ele>310.6</ele>
        <time>2022-06-06T14:52:46Z</time>
      </trkpt>
      <trkpt lat="47.5494" lon="5.15935">
        <ele>310.8</ele>
        <time>2022-06-06T14:52:49Z</time>
      </trkpt>
      <trkpt lat="47.54922" lon="5.1592">
        <ele>311</ele>
        <time>2022-06-06T14:52:53Z</time>
      </trkpt>
      <trkpt lat="47.54902" lon="5.15907">
        <ele>311</ele>
        <time>2022-06-06T14:52:57Z</time>
      </trkpt>
      <trkpt lat="47.54855" lon="5.15883">
        <ele>311</ele>
        <time>2022-06-06T14:53:06Z</time>
      </trkpt>
      <trkpt lat="47.54814" lon="5.15864">
        <ele>310.6</ele>
        <time>2022-06-06T14:53:13Z</time>
      </trkpt>
      <trkpt lat="47.54776" lon="5.15847">
        <ele>310.2</ele>
        <time>2022-06-06T14:53:19Z</time>
      </trkpt>
      <trkpt lat="47.54747" lon="5.15833">
        <ele>309.6</ele>
        <time>2022-06-06T14:53:24Z</time>
      </trkpt>
      <trkpt lat="47.54726" lon="5.15824">
        <ele>308.8</ele>
        <time>2022-06-06T14:53:27Z</time>
      </trkpt>
      <trkpt lat="47.54707" lon="5.15814">
        <ele>308.6</ele>
        <time>2022-06-06T14:53:30Z</time>
      </trkpt>
      <trkpt lat="47.54676" lon="5.15799">
        <ele>308.2</ele>
        <time>2022-06-06T14:53:35Z</time>
      </trkpt>
      <trkpt lat="47.54639" lon="5.15782">
        <ele>307.6</ele>
        <time>2022-06-06T14:53:41Z</time>
      </trkpt>
      <trkpt lat="47.54613" lon="5.1577">
        <ele>307.2</ele>
        <time>2022-06-06T14:53:45Z</time>
      </trkpt>
      <trkpt lat="47.54564" lon="5.15751">
        <ele>306.4</ele>
        <time>2022-06-06T14:53:52Z</time>
      </trkpt>
      <trkpt lat="47.5455" lon="5.15745">
        <ele>306.2</ele>
        <time>2022-06-06T14:53:54Z</time>
      </trkpt>
      <trkpt lat="47.54499" lon="5.15716">
        <ele>306</ele>
        <time>2022-06-06T14:54:02Z</time>
      </trkpt>
      <trkpt lat="47.54463" lon="5.15685">
        <ele>306</ele>
        <time>2022-06-06T14:54:08Z</time>
      </trkpt>
      <trkpt lat="47.54458" lon="5.15678">
        <ele>306</ele>
        <time>2022-06-06T14:54:09Z</time>
      </trkpt>
      <trkpt lat="47.54417" lon="5.15627">
        <ele>306.4</ele>
        <time>2022-06-06T14:54:17Z</time>
      </trkpt>
      <trkpt lat="47.54376" lon="5.15585">
        <ele>307</ele>
        <time>2022-06-06T14:54:25Z</time>
      </trkpt>
      <trkpt lat="47.54343" lon="5.15559">
        <ele>307</ele>
        <time>2022-06-06T14:54:31Z</time>
      </trkpt>
      <trkpt lat="47.54315" lon="5.15542">
        <ele>307.4</ele>
        <time>2022-06-06T14:54:36Z</time>
      </trkpt>
      <trkpt lat="47.5431" lon="5.15539">
        <ele>307.6</ele>
        <time>2022-06-06T14:54:37Z</time>
      </trkpt>
      <trkpt lat="47.54294" lon="5.15528">
        <ele>308</ele>
        <time>2022-06-06T14:54:40Z</time>
      </trkpt>
      <trkpt lat="47.54283" lon="5.15519">
        <ele>308.4</ele>
        <time>2022-06-06T14:54:42Z</time>
      </trkpt>
      <trkpt lat="47.54278" lon="5.15515">
        <ele>308.6</ele>
        <time>2022-06-06T14:54:43Z</time>
      </trkpt>
      <trkpt lat="47.54262" lon="5.15502">
        <ele>308.6</ele>
        <time>2022-06-06T14:54:46Z</time>
      </trkpt>
      <trkpt lat="47.54249" lon="5.15492">
        <ele>308.8</ele>
        <time>2022-06-06T14:54:48Z</time>
      </trkpt>
      <trkpt lat="47.54238" lon="5.15483">
        <ele>309</ele>
        <time>2022-06-06T14:54:50Z</time>
      </trkpt>
      <trkpt lat="47.54213" lon="5.15463">
        <ele>308.8</ele>
        <time>2022-06-06T14:54:54Z</time>
      </trkpt>
      <trkpt lat="47.54176" lon="5.15421">
        <ele>308.4</ele>
        <time>2022-06-06T14:55:01Z</time>
      </trkpt>
      <trkpt lat="47.54136" lon="5.1538">
        <ele>307.4</ele>
        <time>2022-06-06T14:55:08Z</time>
      </trkpt>
      <trkpt lat="47.54102" lon="5.15336">
        <ele>306.8</ele>
        <time>2022-06-06T14:55:15Z</time>
      </trkpt>
      <trkpt lat="47.54095" lon="5.15324">
        <ele>306.4</ele>
        <time>2022-06-06T14:55:17Z</time>
      </trkpt>
      <trkpt lat="47.54092" lon="5.15313">
        <ele>306.2</ele>
        <time>2022-06-06T14:55:19Z</time>
      </trkpt>
      <trkpt lat="47.54092" lon="5.15307">
        <ele>305.8</ele>
        <time>2022-06-06T14:55:20Z</time>
      </trkpt>
      <trkpt lat="47.54097" lon="5.15296">
        <ele>305</ele>
        <time>2022-06-06T14:55:22Z</time>
      </trkpt>
      <trkpt lat="47.54107" lon="5.15282">
        <ele>304</ele>
        <time>2022-06-06T14:55:25Z</time>
      </trkpt>
      <trkpt lat="47.54114" lon="5.15272">
        <ele>303.6</ele>
        <time>2022-06-06T14:55:27Z</time>
      </trkpt>
      <trkpt lat="47.54127" lon="5.15254">
        <ele>302.8</ele>
        <time>2022-06-06T14:55:30Z</time>
      </trkpt>
      <trkpt lat="47.54141" lon="5.15234">
        <ele>302.2</ele>
        <time>2022-06-06T14:55:33Z</time>
      </trkpt>
      <trkpt lat="47.54151" lon="5.1522">
        <ele>301.6</ele>
        <time>2022-06-06T14:55:35Z</time>
      </trkpt>
      <trkpt lat="47.54168" lon="5.152">
        <ele>300.4</ele>
        <time>2022-06-06T14:55:38Z</time>
      </trkpt>
      <trkpt lat="47.54174" lon="5.15192">
        <ele>300.2</ele>
        <time>2022-06-06T14:55:39Z</time>
      </trkpt>
      <trkpt lat="47.54179" lon="5.15185">
        <ele>299.4</ele>
        <time>2022-06-06T14:55:40Z</time>
      </trkpt>
      <trkpt lat="47.54193" lon="5.1517">
        <ele>298.6</ele>
        <time>2022-06-06T14:55:42Z</time>
      </trkpt>
      <trkpt lat="47.542" lon="5.15162">
        <ele>298.4</ele>
        <time>2022-06-06T14:55:43Z</time>
      </trkpt>
      <trkpt lat="47.54214" lon="5.15145">
        <ele>297.2</ele>
        <time>2022-06-06T14:55:45Z</time>
      </trkpt>
      <trkpt lat="47.54239" lon="5.15118">
        <ele>296.2</ele>
        <time>2022-06-06T14:55:48Z</time>
      </trkpt>
      <trkpt lat="47.54256" lon="5.15099">
        <ele>295.2</ele>
        <time>2022-06-06T14:55:50Z</time>
      </trkpt>
      <trkpt lat="47.54273" lon="5.15079">
        <ele>293.8</ele>
        <time>2022-06-06T14:55:52Z</time>
      </trkpt>
      <trkpt lat="47.54289" lon="5.15059">
        <ele>292.6</ele>
        <time>2022-06-06T14:55:54Z</time>
      </trkpt>
      <trkpt lat="47.54296" lon="5.15049">
        <ele>292.2</ele>
        <time>2022-06-06T14:55:55Z</time>
      </trkpt>
      <trkpt lat="47.54304" lon="5.15039">
        <ele>291.2</ele>
        <time>2022-06-06T14:55:56Z</time>
      </trkpt>
      <trkpt lat="47.54319" lon="5.1502">
        <ele>289.2</ele>
        <time>2022-06-06T14:55:58Z</time>
      </trkpt>
      <trkpt lat="47.54334" lon="5.15005">
        <ele>287.8</ele>
        <time>2022-06-06T14:56:00Z</time>
      </trkpt>
      <trkpt lat="47.54341" lon="5.14999">
        <ele>286.6</ele>
        <time>2022-06-06T14:56:01Z</time>
      </trkpt>
      <trkpt lat="47.54354" lon="5.14987">
        <ele>285.4</ele>
        <time>2022-06-06T14:56:03Z</time>
      </trkpt>
      <trkpt lat="47.5436" lon="5.14982">
        <ele>285.2</ele>
        <time>2022-06-06T14:56:04Z</time>
      </trkpt>
      <trkpt lat="47.54399" lon="5.14947">
        <ele>285.2</ele>
        <time>2022-06-06T14:56:11Z</time>
      </trkpt>
      <trkpt lat="47.54431" lon="5.14909">
        <ele>286.6</ele>
        <time>2022-06-06T14:56:17Z</time>
      </trkpt>
      <trkpt lat="47.54446" lon="5.14891">
        <ele>287.4</ele>
        <time>2022-06-06T14:56:20Z</time>
      </trkpt>
      <trkpt lat="47.5445" lon="5.14885">
        <ele>287.6</ele>
        <time>2022-06-06T14:56:21Z</time>
      </trkpt>
      <trkpt lat="47.54466" lon="5.14866">
        <ele>289</ele>
        <time>2022-06-06T14:56:25Z</time>
      </trkpt>
      <trkpt lat="47.54473" lon="5.14858">
        <ele>290</ele>
        <time>2022-06-06T14:56:27Z</time>
      </trkpt>
      <trkpt lat="47.54485" lon="5.14845">
        <ele>291.2</ele>
        <time>2022-06-06T14:56:30Z</time>
      </trkpt>
      <trkpt lat="47.54493" lon="5.14836">
        <ele>291.6</ele>
        <time>2022-06-06T14:56:32Z</time>
      </trkpt>
      <trkpt lat="47.54512" lon="5.14814">
        <ele>292.2</ele>
        <time>2022-06-06T14:56:37Z</time>
      </trkpt>
      <trkpt lat="47.54529" lon="5.14793">
        <ele>292.6</ele>
        <time>2022-06-06T14:56:42Z</time>
      </trkpt>
      <trkpt lat="47.54562" lon="5.14751">
        <ele>293.2</ele>
        <time>2022-06-06T14:56:51Z</time>
      </trkpt>
      <trkpt lat="47.54589" lon="5.14719">
        <ele>292.6</ele>
        <time>2022-06-06T14:56:58Z</time>
      </trkpt>
      <trkpt lat="47.54624" lon="5.14681">
        <ele>292</ele>
        <time>2022-06-06T14:57:07Z</time>
      </trkpt>
      <trkpt lat="47.54665" lon="5.14638">
        <ele>292.2</ele>
        <time>2022-06-06T14:57:17Z</time>
      </trkpt>
      <trkpt lat="47.54699" lon="5.1461">
        <ele>292.8</ele>
        <time>2022-06-06T14:57:25Z</time>
      </trkpt>
      <trkpt lat="47.54739" lon="5.14575">
        <ele>292.8</ele>
        <time>2022-06-06T14:57:34Z</time>
      </trkpt>
      <trkpt lat="47.54756" lon="5.14558">
        <ele>293.2</ele>
        <time>2022-06-06T14:57:39Z</time>
      </trkpt>
      <trkpt lat="47.54765" lon="5.14545">
        <ele>293.6</ele>
        <time>2022-06-06T14:57:42Z</time>
      </trkpt>
      <trkpt lat="47.5478" lon="5.14526">
        <ele>294.2</ele>
        <time>2022-06-06T14:57:47Z</time>
      </trkpt>
      <trkpt lat="47.54813" lon="5.14484">
        <ele>294.4</ele>
        <time>2022-06-06T14:57:56Z</time>
      </trkpt>
      <trkpt lat="47.54839" lon="5.14447">
        <ele>294.4</ele>
        <time>2022-06-06T14:58:03Z</time>
      </trkpt>
      <trkpt lat="47.54855" lon="5.14421">
        <ele>294.2</ele>
        <time>2022-06-06T14:58:09Z</time>
      </trkpt>
      <trkpt lat="47.54872" lon="5.14398">
        <ele>294.2</ele>
        <time>2022-06-06T14:58:16Z</time>
      </trkpt>
      <trkpt lat="47.54873" lon="5.14397">
        <ele>294.2</ele>
        <time>2022-06-06T14:58:21Z</time>
      </trkpt>
      <trkpt lat="47.54873" lon="5.14397">
        <ele>294.2</ele>
        <time>2022-06-06T14:58:48Z</time>
      </trkpt>
      <trkpt lat="47.54873" lon="5.14397">
        <ele>294</ele>
        <time>2022-06-06T14:59:07Z</time>
      </trkpt>
      <trkpt lat="47.54873" lon="5.14397">
        <ele>294.6</ele>
        <time>2022-06-06T14:59:40Z</time>
      </trkpt>
      <trkpt lat="47.54873" lon="5.14397">
        <ele>294.8</ele>
        <time>2022-06-06T14:59:44Z</time>
      </trkpt>
      <trkpt lat="47.54873" lon="5.14397">
        <ele>294.6</ele>
        <time>2022-06-06T15:00:08Z</time>
      </trkpt>
      <trkpt lat="47.54872" lon="5.14397">
        <ele>294.4</ele>
        <time>2022-06-06T15:00:23Z</time>
      </trkpt>
      <trkpt lat="47.54873" lon="5.14396">
        <ele>294.2</ele>
        <time>2022-06-06T15:00:25Z</time>
      </trkpt>
      <trkpt lat="47.54869" lon="5.14394">
        <ele>294</ele>
        <time>2022-06-06T15:00:28Z</time>
      </trkpt>
      <trkpt lat="47.54856" lon="5.14388">
        <ele>294</ele>
        <time>2022-06-06T15:00:33Z</time>
      </trkpt>
      <trkpt lat="47.54834" lon="5.14376">
        <ele>293.6</ele>
        <time>2022-06-06T15:00:39Z</time>
      </trkpt>
      <trkpt lat="47.54816" lon="5.14367">
        <ele>293.4</ele>
        <time>2022-06-06T15:00:43Z</time>
      </trkpt>
      <trkpt lat="47.54812" lon="5.14364">
        <ele>293.4</ele>
        <time>2022-06-06T15:00:44Z</time>
      </trkpt>
      <trkpt lat="47.54807" lon="5.14361">
        <ele>293.2</ele>
        <time>2022-06-06T15:00:45Z</time>
      </trkpt>
      <trkpt lat="47.54788" lon="5.14347">
        <ele>292.4</ele>
        <time>2022-06-06T15:00:49Z</time>
      </trkpt>
      <trkpt lat="47.5478" lon="5.14339">
        <ele>292.2</ele>
        <time>2022-06-06T15:00:51Z</time>
      </trkpt>
      <trkpt lat="47.54775" lon="5.14335">
        <ele>292</ele>
        <time>2022-06-06T15:00:52Z</time>
      </trkpt>
      <trkpt lat="47.54771" lon="5.14331">
        <ele>292</ele>
        <time>2022-06-06T15:00:53Z</time>
      </trkpt>
      <trkpt lat="47.54747" lon="5.1431">
        <ele>291.6</ele>
        <time>2022-06-06T15:00:58Z</time>
      </trkpt>
      <trkpt lat="47.54743" lon="5.14306">
        <ele>291.6</ele>
        <time>2022-06-06T15:00:59Z</time>
      </trkpt>
      <trkpt lat="47.54718" lon="5.14292">
        <ele>291.6</ele>
        <time>2022-06-06T15:01:04Z</time>
      </trkpt>
      <trkpt lat="47.54714" lon="5.1429">
        <ele>291.6</ele>
        <time>2022-06-06T15:01:05Z</time>
      </trkpt>
      <trkpt lat="47.54702" lon="5.14285">
        <ele>291.6</ele>
        <time>2022-06-06T15:01:08Z</time>
      </trkpt>
      <trkpt lat="47.54688" lon="5.1428">
        <ele>291.6</ele>
        <time>2022-06-06T15:01:13Z</time>
      </trkpt>
      <trkpt lat="47.54662" lon="5.14273">
        <ele>292</ele>
        <time>2022-06-06T15:01:20Z</time>
      </trkpt>
      <trkpt lat="47.5465" lon="5.1427">
        <ele>292</ele>
        <time>2022-06-06T15:01:23Z</time>
      </trkpt>
      <trkpt lat="47.54632" lon="5.14266">
        <ele>292.2</ele>
        <time>2022-06-06T15:01:27Z</time>
      </trkpt>
      <trkpt lat="47.54627" lon="5.14265">
        <ele>292.4</ele>
        <time>2022-06-06T15:01:28Z</time>
      </trkpt>
      <trkpt lat="47.54602" lon="5.14262">
        <ele>292.6</ele>
        <time>2022-06-06T15:01:34Z</time>
      </trkpt>
      <trkpt lat="47.5458" lon="5.14257">
        <ele>292.6</ele>
        <time>2022-06-06T15:01:39Z</time>
      </trkpt>
      <trkpt lat="47.5456" lon="5.14251">
        <ele>292.6</ele>
        <time>2022-06-06T15:01:43Z</time>
      </trkpt>
      <trkpt lat="47.54526" lon="5.14235">
        <ele>292.4</ele>
        <time>2022-06-06T15:01:49Z</time>
      </trkpt>
      <trkpt lat="47.54504" lon="5.14218">
        <ele>291.6</ele>
        <time>2022-06-06T15:01:53Z</time>
      </trkpt>
      <trkpt lat="47.54494" lon="5.14209">
        <ele>291.4</ele>
        <time>2022-06-06T15:01:55Z</time>
      </trkpt>
      <trkpt lat="47.5447" lon="5.1418">
        <ele>290.6</ele>
        <time>2022-06-06T15:02:00Z</time>
      </trkpt>
      <trkpt lat="47.5445" lon="5.14156">
        <ele>290</ele>
        <time>2022-06-06T15:02:04Z</time>
      </trkpt>
      <trkpt lat="47.54435" lon="5.14138">
        <ele>289.4</ele>
        <time>2022-06-06T15:02:07Z</time>
      </trkpt>
      <trkpt lat="47.54409" lon="5.14105">
        <ele>288.6</ele>
        <time>2022-06-06T15:02:12Z</time>
      </trkpt>
      <trkpt lat="47.54404" lon="5.14099">
        <ele>288.2</ele>
        <time>2022-06-06T15:02:13Z</time>
      </trkpt>
      <trkpt lat="47.54368" lon="5.14057">
        <ele>287.4</ele>
        <time>2022-06-06T15:02:20Z</time>
      </trkpt>
      <trkpt lat="47.54352" lon="5.14041">
        <ele>287.2</ele>
        <time>2022-06-06T15:02:23Z</time>
      </trkpt>
      <trkpt lat="47.54331" lon="5.14019">
        <ele>287</ele>
        <time>2022-06-06T15:02:27Z</time>
      </trkpt>
      <trkpt lat="47.54285" lon="5.13982">
        <ele>286.6</ele>
        <time>2022-06-06T15:02:35Z</time>
      </trkpt>
      <trkpt lat="47.54253" lon="5.1397">
        <ele>286.2</ele>
        <time>2022-06-06T15:02:40Z</time>
      </trkpt>
      <trkpt lat="47.54246" lon="5.13968">
        <ele>286.2</ele>
        <time>2022-06-06T15:02:41Z</time>
      </trkpt>
      <trkpt lat="47.5424" lon="5.13967">
        <ele>286</ele>
        <time>2022-06-06T15:02:42Z</time>
      </trkpt>
      <trkpt lat="47.5422" lon="5.13963">
        <ele>285.6</ele>
        <time>2022-06-06T15:02:45Z</time>
      </trkpt>
      <trkpt lat="47.54207" lon="5.13963">
        <ele>285</ele>
        <time>2022-06-06T15:02:47Z</time>
      </trkpt>
      <trkpt lat="47.54166" lon="5.13955">
        <ele>284.6</ele>
        <time>2022-06-06T15:02:53Z</time>
      </trkpt>
      <trkpt lat="47.54142" lon="5.13945">
        <ele>284.2</ele>
        <time>2022-06-06T15:02:57Z</time>
      </trkpt>
      <trkpt lat="47.5413" lon="5.1394">
        <ele>283.4</ele>
        <time>2022-06-06T15:02:59Z</time>
      </trkpt>
      <trkpt lat="47.54118" lon="5.13936">
        <ele>283</ele>
        <time>2022-06-06T15:03:01Z</time>
      </trkpt>
      <trkpt lat="47.54101" lon="5.1393">
        <ele>282.4</ele>
        <time>2022-06-06T15:03:04Z</time>
      </trkpt>
      <trkpt lat="47.54097" lon="5.13928">
        <ele>282.4</ele>
        <time>2022-06-06T15:03:05Z</time>
      </trkpt>
      <trkpt lat="47.5409" lon="5.13925">
        <ele>282.2</ele>
        <time>2022-06-06T15:03:06Z</time>
      </trkpt>
      <trkpt lat="47.54073" lon="5.13921">
        <ele>282</ele>
        <time>2022-06-06T15:03:09Z</time>
      </trkpt>
      <trkpt lat="47.54028" lon="5.13906">
        <ele>281.2</ele>
        <time>2022-06-06T15:03:17Z</time>
      </trkpt>
      <trkpt lat="47.54022" lon="5.13905">
        <ele>281</ele>
        <time>2022-06-06T15:03:18Z</time>
      </trkpt>
      <trkpt lat="47.5401" lon="5.13905">
        <ele>280.8</ele>
        <time>2022-06-06T15:03:20Z</time>
      </trkpt>
      <trkpt lat="47.53999" lon="5.1391">
        <ele>280.6</ele>
        <time>2022-06-06T15:03:22Z</time>
      </trkpt>
      <trkpt lat="47.5399" lon="5.13919">
        <ele>280.4</ele>
        <time>2022-06-06T15:03:24Z</time>
      </trkpt>
      <trkpt lat="47.53982" lon="5.1393">
        <ele>280.4</ele>
        <time>2022-06-06T15:03:26Z</time>
      </trkpt>
      <trkpt lat="47.53978" lon="5.13935">
        <ele>280.2</ele>
        <time>2022-06-06T15:03:27Z</time>
      </trkpt>
      <trkpt lat="47.53968" lon="5.13942">
        <ele>280.4</ele>
        <time>2022-06-06T15:03:29Z</time>
      </trkpt>
      <trkpt lat="47.53962" lon="5.13944">
        <ele>280.4</ele>
        <time>2022-06-06T15:03:30Z</time>
      </trkpt>
      <trkpt lat="47.53953" lon="5.13945">
        <ele>280.4</ele>
        <time>2022-06-06T15:03:32Z</time>
      </trkpt>
      <trkpt lat="47.53932" lon="5.13941">
        <ele>280.4</ele>
        <time>2022-06-06T15:03:36Z</time>
      </trkpt>
      <trkpt lat="47.53922" lon="5.13938">
        <ele>280.6</ele>
        <time>2022-06-06T15:03:38Z</time>
      </trkpt>
      <trkpt lat="47.53904" lon="5.13926">
        <ele>280.4</ele>
        <time>2022-06-06T15:03:42Z</time>
      </trkpt>
      <trkpt lat="47.53888" lon="5.13913">
        <ele>280.4</ele>
        <time>2022-06-06T15:03:46Z</time>
      </trkpt>
      <trkpt lat="47.5388" lon="5.13908">
        <ele>280.4</ele>
        <time>2022-06-06T15:03:48Z</time>
      </trkpt>
      <trkpt lat="47.53858" lon="5.13882">
        <ele>280.4</ele>
        <time>2022-06-06T15:03:53Z</time>
      </trkpt>
      <trkpt lat="47.53831" lon="5.13849">
        <ele>280.2</ele>
        <time>2022-06-06T15:03:59Z</time>
      </trkpt>
      <trkpt lat="47.53816" lon="5.13824">
        <ele>280.4</ele>
        <time>2022-06-06T15:04:03Z</time>
      </trkpt>
      <trkpt lat="47.5381" lon="5.13811">
        <ele>280.4</ele>
        <time>2022-06-06T15:04:05Z</time>
      </trkpt>
      <trkpt lat="47.53793" lon="5.13771">
        <ele>281</ele>
        <time>2022-06-06T15:04:11Z</time>
      </trkpt>
      <trkpt lat="47.53786" lon="5.1376">
        <ele>281.4</ele>
        <time>2022-06-06T15:04:13Z</time>
      </trkpt>
      <trkpt lat="47.53776" lon="5.13752">
        <ele>281.6</ele>
        <time>2022-06-06T15:04:15Z</time>
      </trkpt>
      <trkpt lat="47.53765" lon="5.13749">
        <ele>281.8</ele>
        <time>2022-06-06T15:04:17Z</time>
      </trkpt>
      <trkpt lat="47.53754" lon="5.13752">
        <ele>281.8</ele>
        <time>2022-06-06T15:04:19Z</time>
      </trkpt>
      <trkpt lat="47.53704" lon="5.13774">
        <ele>281.6</ele>
        <time>2022-06-06T15:04:28Z</time>
      </trkpt>
      <trkpt lat="47.53657" lon="5.13795">
        <ele>281.4</ele>
        <time>2022-06-06T15:04:36Z</time>
      </trkpt>
      <trkpt lat="47.53615" lon="5.13812">
        <ele>281.2</ele>
        <time>2022-06-06T15:04:43Z</time>
      </trkpt>
      <trkpt lat="47.53603" lon="5.13811">
        <ele>281.4</ele>
        <time>2022-06-06T15:04:45Z</time>
      </trkpt>
      <trkpt lat="47.53598" lon="5.13812">
        <ele>281.2</ele>
        <time>2022-06-06T15:04:46Z</time>
      </trkpt>
      <trkpt lat="47.53592" lon="5.13817">
        <ele>281.2</ele>
        <time>2022-06-06T15:04:47Z</time>
      </trkpt>
      <trkpt lat="47.53582" lon="5.13827">
        <ele>281.2</ele>
        <time>2022-06-06T15:04:49Z</time>
      </trkpt>
      <trkpt lat="47.5357" lon="5.13834">
        <ele>281.2</ele>
        <time>2022-06-06T15:04:51Z</time>
      </trkpt>
      <trkpt lat="47.53558" lon="5.1384">
        <ele>281</ele>
        <time>2022-06-06T15:04:53Z</time>
      </trkpt>
      <trkpt lat="47.53503" lon="5.13864">
        <ele>281.2</ele>
        <time>2022-06-06T15:05:02Z</time>
      </trkpt>
      <trkpt lat="47.53456" lon="5.13883">
        <ele>281.2</ele>
        <time>2022-06-06T15:05:10Z</time>
      </trkpt>
      <trkpt lat="47.5345" lon="5.13884">
        <ele>281.2</ele>
        <time>2022-06-06T15:05:11Z</time>
      </trkpt>
      <trkpt lat="47.53443" lon="5.13883">
        <ele>281.2</ele>
        <time>2022-06-06T15:05:13Z</time>
      </trkpt>
      <trkpt lat="47.53436" lon="5.13868">
        <ele>281</ele>
        <time>2022-06-06T15:05:17Z</time>
      </trkpt>
      <trkpt lat="47.53434" lon="5.13845">
        <ele>281</ele>
        <time>2022-06-06T15:05:23Z</time>
      </trkpt>
      <trkpt lat="47.53433" lon="5.13835">
        <ele>281</ele>
        <time>2022-06-06T15:05:27Z</time>
      </trkpt>
      <trkpt lat="47.53431" lon="5.13834">
        <ele>280.8</ele>
        <time>2022-06-06T15:05:28Z</time>
      </trkpt>
      <trkpt lat="47.53429" lon="5.13843">
        <ele>280.8</ele>
        <time>2022-06-06T15:05:31Z</time>
      </trkpt>
      <trkpt lat="47.53433" lon="5.13878">
        <ele>280.6</ele>
        <time>2022-06-06T15:05:37Z</time>
      </trkpt>
      <trkpt lat="47.53426" lon="5.13894">
        <ele>280.6</ele>
        <time>2022-06-06T15:05:40Z</time>
      </trkpt>
      <trkpt lat="47.53417" lon="5.139">
        <ele>280.6</ele>
        <time>2022-06-06T15:05:42Z</time>
      </trkpt>
      <trkpt lat="47.53408" lon="5.13905">
        <ele>280.6</ele>
        <time>2022-06-06T15:05:44Z</time>
      </trkpt>
      <trkpt lat="47.53369" lon="5.13922">
        <ele>281</ele>
        <time>2022-06-06T15:05:52Z</time>
      </trkpt>
      <trkpt lat="47.53328" lon="5.1394">
        <ele>281</ele>
        <time>2022-06-06T15:06:00Z</time>
      </trkpt>
      <trkpt lat="47.53291" lon="5.13956">
        <ele>281.2</ele>
        <time>2022-06-06T15:06:07Z</time>
      </trkpt>
      <trkpt lat="47.53243" lon="5.1398">
        <ele>281</ele>
        <time>2022-06-06T15:06:16Z</time>
      </trkpt>
      <trkpt lat="47.53198" lon="5.14001">
        <ele>281</ele>
        <time>2022-06-06T15:06:24Z</time>
      </trkpt>
      <trkpt lat="47.53158" lon="5.14017">
        <ele>280.6</ele>
        <time>2022-06-06T15:06:31Z</time>
      </trkpt>
      <trkpt lat="47.53103" lon="5.14038">
        <ele>280.4</ele>
        <time>2022-06-06T15:06:40Z</time>
      </trkpt>
      <trkpt lat="47.5309" lon="5.14044">
        <ele>280.4</ele>
        <time>2022-06-06T15:06:42Z</time>
      </trkpt>
      <trkpt lat="47.53053" lon="5.1406">
        <ele>280.6</ele>
        <time>2022-06-06T15:06:48Z</time>
      </trkpt>
      <trkpt lat="47.52997" lon="5.14085">
        <ele>280.6</ele>
        <time>2022-06-06T15:06:57Z</time>
      </trkpt>
      <trkpt lat="47.52991" lon="5.14087">
        <ele>280.6</ele>
        <time>2022-06-06T15:06:58Z</time>
      </trkpt>
      <trkpt lat="47.52936" lon="5.14111">
        <ele>280.6</ele>
        <time>2022-06-06T15:07:07Z</time>
      </trkpt>
      <trkpt lat="47.5293" lon="5.14114">
        <ele>280.6</ele>
        <time>2022-06-06T15:07:08Z</time>
      </trkpt>
      <trkpt lat="47.52924" lon="5.14116">
        <ele>280.6</ele>
        <time>2022-06-06T15:07:09Z</time>
      </trkpt>
      <trkpt lat="47.52913" lon="5.14114">
        <ele>280.6</ele>
        <time>2022-06-06T15:07:11Z</time>
      </trkpt>
      <trkpt lat="47.52906" lon="5.14103">
        <ele>280.6</ele>
        <time>2022-06-06T15:07:13Z</time>
      </trkpt>
      <trkpt lat="47.52905" lon="5.14095">
        <ele>280.6</ele>
        <time>2022-06-06T15:07:14Z</time>
      </trkpt>
      <trkpt lat="47.52907" lon="5.14089">
        <ele>280.6</ele>
        <time>2022-06-06T15:07:15Z</time>
      </trkpt>
      <trkpt lat="47.52916" lon="5.14056">
        <ele>280.8</ele>
        <time>2022-06-06T15:07:19Z</time>
      </trkpt>
      <trkpt lat="47.52934" lon="5.13987">
        <ele>281</ele>
        <time>2022-06-06T15:07:28Z</time>
      </trkpt>
      <trkpt lat="47.52949" lon="5.1392">
        <ele>281.2</ele>
        <time>2022-06-06T15:07:37Z</time>
      </trkpt>
      <trkpt lat="47.52949" lon="5.13911">
        <ele>281.2</ele>
        <time>2022-06-06T15:07:38Z</time>
      </trkpt>
      <trkpt lat="47.5295" lon="5.13871">
        <ele>281.4</ele>
        <time>2022-06-06T15:07:43Z</time>
      </trkpt>
      <trkpt lat="47.52952" lon="5.13813">
        <ele>281.2</ele>
        <time>2022-06-06T15:07:51Z</time>
      </trkpt>
      <trkpt lat="47.52953" lon="5.13799">
        <ele>281.2</ele>
        <time>2022-06-06T15:07:53Z</time>
      </trkpt>
      <trkpt lat="47.52954" lon="5.1378">
        <ele>281.4</ele>
        <time>2022-06-06T15:07:57Z</time>
      </trkpt>
      <trkpt lat="47.52959" lon="5.13762">
        <ele>281.2</ele>
        <time>2022-06-06T15:08:02Z</time>
      </trkpt>
      <trkpt lat="47.52959" lon="5.13762">
        <ele>281.2</ele>
        <time>2022-06-06T15:08:05Z</time>
      </trkpt>
      <trkpt lat="47.52959" lon="5.13758">
        <ele>281</ele>
        <time>2022-06-06T15:08:22Z</time>
      </trkpt>
      <trkpt lat="47.52959" lon="5.13753">
        <ele>281</ele>
        <time>2022-06-06T15:08:24Z</time>
      </trkpt>
      <trkpt lat="47.52962" lon="5.1373">
        <ele>280.8</ele>
        <time>2022-06-06T15:08:29Z</time>
      </trkpt>
      <trkpt lat="47.52961" lon="5.13704">
        <ele>281</ele>
        <time>2022-06-06T15:08:34Z</time>
      </trkpt>
      <trkpt lat="47.52956" lon="5.13648">
        <ele>281.2</ele>
        <time>2022-06-06T15:08:44Z</time>
      </trkpt>
      <trkpt lat="47.52951" lon="5.13594">
        <ele>281.8</ele>
        <time>2022-06-06T15:08:53Z</time>
      </trkpt>
      <trkpt lat="47.5295" lon="5.13569">
        <ele>281.4</ele>
        <time>2022-06-06T15:08:57Z</time>
      </trkpt>
      <trkpt lat="47.52949" lon="5.13556">
        <ele>281.6</ele>
        <time>2022-06-06T15:08:59Z</time>
      </trkpt>
      <trkpt lat="47.52946" lon="5.13521">
        <ele>281.4</ele>
        <time>2022-06-06T15:09:04Z</time>
      </trkpt>
      <trkpt lat="47.52943" lon="5.13507">
        <ele>281.4</ele>
        <time>2022-06-06T15:09:06Z</time>
      </trkpt>
      <trkpt lat="47.52937" lon="5.13494">
        <ele>281.2</ele>
        <time>2022-06-06T15:09:08Z</time>
      </trkpt>
      <trkpt lat="47.5293" lon="5.13483">
        <ele>281.2</ele>
        <time>2022-06-06T15:09:10Z</time>
      </trkpt>
      <trkpt lat="47.5292" lon="5.13466">
        <ele>281</ele>
        <time>2022-06-06T15:09:13Z</time>
      </trkpt>
      <trkpt lat="47.52913" lon="5.13445">
        <ele>280.8</ele>
        <time>2022-06-06T15:09:16Z</time>
      </trkpt>
      <trkpt lat="47.52897" lon="5.13379">
        <ele>280.8</ele>
        <time>2022-06-06T15:09:25Z</time>
      </trkpt>
      <trkpt lat="47.52894" lon="5.13373">
        <ele>281</ele>
        <time>2022-06-06T15:09:26Z</time>
      </trkpt>
      <trkpt lat="47.5289" lon="5.1337">
        <ele>281</ele>
        <time>2022-06-06T15:09:27Z</time>
      </trkpt>
      <trkpt lat="47.52882" lon="5.13367">
        <ele>281</ele>
        <time>2022-06-06T15:09:29Z</time>
      </trkpt>
      <trkpt lat="47.52873" lon="5.1337">
        <ele>281.2</ele>
        <time>2022-06-06T15:09:31Z</time>
      </trkpt>
      <trkpt lat="47.52859" lon="5.13376">
        <ele>281.2</ele>
        <time>2022-06-06T15:09:34Z</time>
      </trkpt>
      <trkpt lat="47.52827" lon="5.13388">
        <ele>281.2</ele>
        <time>2022-06-06T15:09:41Z</time>
      </trkpt>
      <trkpt lat="47.52809" lon="5.13396">
        <ele>281.4</ele>
        <time>2022-06-06T15:09:46Z</time>
      </trkpt>
      <trkpt lat="47.52773" lon="5.13419">
        <ele>282</ele>
        <time>2022-06-06T15:09:55Z</time>
      </trkpt>
      <trkpt lat="47.5273" lon="5.13442">
        <ele>282</ele>
        <time>2022-06-06T15:10:04Z</time>
      </trkpt>
      <trkpt lat="47.52711" lon="5.1345">
        <ele>281.4</ele>
        <time>2022-06-06T15:10:08Z</time>
      </trkpt>
      <trkpt lat="47.52705" lon="5.13453">
        <ele>281.2</ele>
        <time>2022-06-06T15:10:10Z</time>
      </trkpt>
      <trkpt lat="47.52688" lon="5.1346">
        <ele>281.2</ele>
        <time>2022-06-06T15:10:15Z</time>
      </trkpt>
      <trkpt lat="47.52655" lon="5.13477">
        <ele>281.2</ele>
        <time>2022-06-06T15:10:23Z</time>
      </trkpt>
      <trkpt lat="47.52615" lon="5.13497">
        <ele>281.4</ele>
        <time>2022-06-06T15:10:32Z</time>
      </trkpt>
      <trkpt lat="47.52588" lon="5.13511">
        <ele>281.6</ele>
        <time>2022-06-06T15:10:38Z</time>
      </trkpt>
      <trkpt lat="47.52583" lon="5.13513">
        <ele>281.6</ele>
        <time>2022-06-06T15:10:39Z</time>
      </trkpt>
      <trkpt lat="47.52557" lon="5.13517">
        <ele>281.6</ele>
        <time>2022-06-06T15:10:45Z</time>
      </trkpt>
      <trkpt lat="47.52553" lon="5.13518">
        <ele>281.6</ele>
        <time>2022-06-06T15:10:46Z</time>
      </trkpt>
      <trkpt lat="47.52545" lon="5.13522">
        <ele>281.6</ele>
        <time>2022-06-06T15:10:48Z</time>
      </trkpt>
      <trkpt lat="47.52536" lon="5.1352">
        <ele>281.4</ele>
        <time>2022-06-06T15:10:50Z</time>
      </trkpt>
      <trkpt lat="47.52495" lon="5.13502">
        <ele>281.4</ele>
        <time>2022-06-06T15:10:59Z</time>
      </trkpt>
      <trkpt lat="47.52458" lon="5.13491">
        <ele>282</ele>
        <time>2022-06-06T15:11:07Z</time>
      </trkpt>
      <trkpt lat="47.52425" lon="5.13496">
        <ele>282</ele>
        <time>2022-06-06T15:11:13Z</time>
      </trkpt>
      <trkpt lat="47.52408" lon="5.13501">
        <ele>281.8</ele>
        <time>2022-06-06T15:11:16Z</time>
      </trkpt>
      <trkpt lat="47.52398" lon="5.13499">
        <ele>281.8</ele>
        <time>2022-06-06T15:11:18Z</time>
      </trkpt>
      <trkpt lat="47.52388" lon="5.13492">
        <ele>281.8</ele>
        <time>2022-06-06T15:11:20Z</time>
      </trkpt>
      <trkpt lat="47.5238" lon="5.13481">
        <ele>281.8</ele>
        <time>2022-06-06T15:11:22Z</time>
      </trkpt>
      <trkpt lat="47.52349" lon="5.13422">
        <ele>282.2</ele>
        <time>2022-06-06T15:11:32Z</time>
      </trkpt>
      <trkpt lat="47.52321" lon="5.13372">
        <ele>282.8</ele>
        <time>2022-06-06T15:11:41Z</time>
      </trkpt>
      <trkpt lat="47.52294" lon="5.13325">
        <ele>282.8</ele>
        <time>2022-06-06T15:11:49Z</time>
      </trkpt>
      <trkpt lat="47.52273" lon="5.13289">
        <ele>282.8</ele>
        <time>2022-06-06T15:11:55Z</time>
      </trkpt>
      <trkpt lat="47.52267" lon="5.13276">
        <ele>282.8</ele>
        <time>2022-06-06T15:11:57Z</time>
      </trkpt>
      <trkpt lat="47.52261" lon="5.13253">
        <ele>283</ele>
        <time>2022-06-06T15:12:00Z</time>
      </trkpt>
      <trkpt lat="47.52251" lon="5.13181">
        <ele>283</ele>
        <time>2022-06-06T15:12:09Z</time>
      </trkpt>
      <trkpt lat="47.52249" lon="5.13173">
        <ele>283</ele>
        <time>2022-06-06T15:12:10Z</time>
      </trkpt>
      <trkpt lat="47.52237" lon="5.13148">
        <ele>283</ele>
        <time>2022-06-06T15:12:14Z</time>
      </trkpt>
      <trkpt lat="47.52205" lon="5.13093">
        <ele>282.8</ele>
        <time>2022-06-06T15:12:23Z</time>
      </trkpt>
      <trkpt lat="47.52178" lon="5.13054">
        <ele>283</ele>
        <time>2022-06-06T15:12:30Z</time>
      </trkpt>
      <trkpt lat="47.52136" lon="5.12995">
        <ele>283.2</ele>
        <time>2022-06-06T15:12:40Z</time>
      </trkpt>
      <trkpt lat="47.52132" lon="5.12989">
        <ele>283.2</ele>
        <time>2022-06-06T15:12:41Z</time>
      </trkpt>
      <trkpt lat="47.5211" lon="5.12961">
        <ele>283.2</ele>
        <time>2022-06-06T15:12:46Z</time>
      </trkpt>
      <trkpt lat="47.52096" lon="5.12945">
        <ele>283.2</ele>
        <time>2022-06-06T15:12:49Z</time>
      </trkpt>
      <trkpt lat="47.52052" lon="5.12899">
        <ele>283</ele>
        <time>2022-06-06T15:12:58Z</time>
      </trkpt>
      <trkpt lat="47.52016" lon="5.12861">
        <ele>283</ele>
        <time>2022-06-06T15:13:06Z</time>
      </trkpt>
      <trkpt lat="47.51985" lon="5.12829">
        <ele>283</ele>
        <time>2022-06-06T15:13:13Z</time>
      </trkpt>
      <trkpt lat="47.51978" lon="5.12821">
        <ele>283.2</ele>
        <time>2022-06-06T15:13:15Z</time>
      </trkpt>
      <trkpt lat="47.51973" lon="5.1281">
        <ele>283.2</ele>
        <time>2022-06-06T15:13:17Z</time>
      </trkpt>
      <trkpt lat="47.51974" lon="5.12786">
        <ele>283.2</ele>
        <time>2022-06-06T15:13:21Z</time>
      </trkpt>
      <trkpt lat="47.51989" lon="5.12738">
        <ele>283.2</ele>
        <time>2022-06-06T15:13:29Z</time>
      </trkpt>
      <trkpt lat="47.51991" lon="5.12732">
        <ele>283.2</ele>
        <time>2022-06-06T15:13:30Z</time>
      </trkpt>
      <trkpt lat="47.51992" lon="5.12711">
        <ele>283.4</ele>
        <time>2022-06-06T15:13:34Z</time>
      </trkpt>
      <trkpt lat="47.5199" lon="5.12705">
        <ele>283.4</ele>
        <time>2022-06-06T15:13:36Z</time>
      </trkpt>
      <trkpt lat="47.51986" lon="5.12699">
        <ele>283.6</ele>
        <time>2022-06-06T15:13:38Z</time>
      </trkpt>
      <trkpt lat="47.51981" lon="5.12693">
        <ele>283.8</ele>
        <time>2022-06-06T15:13:40Z</time>
      </trkpt>
      <trkpt lat="47.51978" lon="5.12692">
        <ele>283.8</ele>
        <time>2022-06-06T15:13:41Z</time>
      </trkpt>
      <trkpt lat="47.51975" lon="5.12694">
        <ele>283.8</ele>
        <time>2022-06-06T15:13:42Z</time>
      </trkpt>
      <trkpt lat="47.51965" lon="5.12705">
        <ele>284</ele>
        <time>2022-06-06T15:13:45Z</time>
      </trkpt>
      <trkpt lat="47.51959" lon="5.12713">
        <ele>284</ele>
        <time>2022-06-06T15:13:47Z</time>
      </trkpt>
      <trkpt lat="47.51949" lon="5.12724">
        <ele>284.6</ele>
        <time>2022-06-06T15:13:50Z</time>
      </trkpt>
      <trkpt lat="47.51939" lon="5.12735">
        <ele>285.2</ele>
        <time>2022-06-06T15:13:53Z</time>
      </trkpt>
      <trkpt lat="47.51928" lon="5.12748">
        <ele>285.8</ele>
        <time>2022-06-06T15:13:57Z</time>
      </trkpt>
      <trkpt lat="47.51911" lon="5.1277">
        <ele>286.8</ele>
        <time>2022-06-06T15:14:03Z</time>
      </trkpt>
      <trkpt lat="47.51908" lon="5.12774">
        <ele>287</ele>
        <time>2022-06-06T15:14:04Z</time>
      </trkpt>
      <trkpt lat="47.51896" lon="5.12797">
        <ele>287.4</ele>
        <time>2022-06-06T15:14:09Z</time>
      </trkpt>
      <trkpt lat="47.51889" lon="5.12817">
        <ele>288.2</ele>
        <time>2022-06-06T15:14:13Z</time>
      </trkpt>
      <trkpt lat="47.51887" lon="5.12822">
        <ele>288.2</ele>
        <time>2022-06-06T15:14:14Z</time>
      </trkpt>
      <trkpt lat="47.51875" lon="5.1286">
        <ele>288.8</ele>
        <time>2022-06-06T15:14:21Z</time>
      </trkpt>
      <trkpt lat="47.51874" lon="5.12866">
        <ele>288.8</ele>
        <time>2022-06-06T15:14:22Z</time>
      </trkpt>
      <trkpt lat="47.51872" lon="5.12879">
        <ele>288.8</ele>
        <time>2022-06-06T15:14:24Z</time>
      </trkpt>
      <trkpt lat="47.51872" lon="5.12892">
        <ele>288.8</ele>
        <time>2022-06-06T15:14:26Z</time>
      </trkpt>
      <trkpt lat="47.51873" lon="5.12905">
        <ele>288.8</ele>
        <time>2022-06-06T15:14:28Z</time>
      </trkpt>
      <trkpt lat="47.51876" lon="5.12919">
        <ele>288.8</ele>
        <time>2022-06-06T15:14:30Z</time>
      </trkpt>
      <trkpt lat="47.51885" lon="5.12946">
        <ele>288.4</ele>
        <time>2022-06-06T15:14:34Z</time>
      </trkpt>
      <trkpt lat="47.51897" lon="5.12976">
        <ele>287.8</ele>
        <time>2022-06-06T15:14:39Z</time>
      </trkpt>
      <trkpt lat="47.51896" lon="5.12986">
        <ele>287.2</ele>
        <time>2022-06-06T15:14:41Z</time>
      </trkpt>
      <trkpt lat="47.51895" lon="5.12994">
        <ele>287</ele>
        <time>2022-06-06T15:14:43Z</time>
      </trkpt>
      <trkpt lat="47.51894" lon="5.12997">
        <ele>287</ele>
        <time>2022-06-06T15:14:44Z</time>
      </trkpt>
      <trkpt lat="47.51888" lon="5.13005">
        <ele>287</ele>
        <time>2022-06-06T15:14:47Z</time>
      </trkpt>
      <trkpt lat="47.51874" lon="5.13022">
        <ele>287.4</ele>
        <time>2022-06-06T15:14:53Z</time>
      </trkpt>
      <trkpt lat="47.51864" lon="5.13034">
        <ele>288.4</ele>
        <time>2022-06-06T15:14:57Z</time>
      </trkpt>
      <trkpt lat="47.51855" lon="5.13043">
        <ele>289</ele>
        <time>2022-06-06T15:15:00Z</time>
      </trkpt>
      <trkpt lat="47.5185" lon="5.13049">
        <ele>289.4</ele>
        <time>2022-06-06T15:15:02Z</time>
      </trkpt>
      <trkpt lat="47.51818" lon="5.13075">
        <ele>290.2</ele>
        <time>2022-06-06T15:15:11Z</time>
      </trkpt>
      <trkpt lat="47.51807" lon="5.13084">
        <ele>290.4</ele>
        <time>2022-06-06T15:15:14Z</time>
      </trkpt>
      <trkpt lat="47.51803" lon="5.13092">
        <ele>290.4</ele>
        <time>2022-06-06T15:15:16Z</time>
      </trkpt>
      <trkpt lat="47.51798" lon="5.13104">
        <ele>290.4</ele>
        <time>2022-06-06T15:15:18Z</time>
      </trkpt>
      <trkpt lat="47.51786" lon="5.13126">
        <ele>290.8</ele>
        <time>2022-06-06T15:15:23Z</time>
      </trkpt>
      <trkpt lat="47.51775" lon="5.13139">
        <ele>291.4</ele>
        <time>2022-06-06T15:15:27Z</time>
      </trkpt>
      <trkpt lat="47.51768" lon="5.13144">
        <ele>291.8</ele>
        <time>2022-06-06T15:15:29Z</time>
      </trkpt>
      <trkpt lat="47.51756" lon="5.13153">
        <ele>292.6</ele>
        <time>2022-06-06T15:15:33Z</time>
      </trkpt>
      <trkpt lat="47.51749" lon="5.13157">
        <ele>293</ele>
        <time>2022-06-06T15:15:35Z</time>
      </trkpt>
      <trkpt lat="47.51734" lon="5.1317">
        <ele>293.6</ele>
        <time>2022-06-06T15:15:40Z</time>
      </trkpt>
      <trkpt lat="47.51718" lon="5.13183">
        <ele>294.2</ele>
        <time>2022-06-06T15:15:45Z</time>
      </trkpt>
      <trkpt lat="47.51702" lon="5.13196">
        <ele>294.4</ele>
        <time>2022-06-06T15:15:49Z</time>
      </trkpt>
      <trkpt lat="47.51692" lon="5.1321">
        <ele>294.2</ele>
        <time>2022-06-06T15:15:52Z</time>
      </trkpt>
      <trkpt lat="47.51688" lon="5.13215">
        <ele>294.2</ele>
        <time>2022-06-06T15:15:53Z</time>
      </trkpt>
      <trkpt lat="47.51675" lon="5.13225">
        <ele>294</ele>
        <time>2022-06-06T15:15:56Z</time>
      </trkpt>
      <trkpt lat="47.51644" lon="5.13252">
        <ele>293</ele>
        <time>2022-06-06T15:16:03Z</time>
      </trkpt>
      <trkpt lat="47.51634" lon="5.13262">
        <ele>292.6</ele>
        <time>2022-06-06T15:16:05Z</time>
      </trkpt>
      <trkpt lat="47.51615" lon="5.13283">
        <ele>291.6</ele>
        <time>2022-06-06T15:16:09Z</time>
      </trkpt>
      <trkpt lat="47.51582" lon="5.13321">
        <ele>290.4</ele>
        <time>2022-06-06T15:16:15Z</time>
      </trkpt>
      <trkpt lat="47.5157" lon="5.13332">
        <ele>290</ele>
        <time>2022-06-06T15:16:17Z</time>
      </trkpt>
      <trkpt lat="47.5155" lon="5.13354">
        <ele>289.2</ele>
        <time>2022-06-06T15:16:21Z</time>
      </trkpt>
      <trkpt lat="47.51526" lon="5.13379">
        <ele>288.8</ele>
        <time>2022-06-06T15:16:26Z</time>
      </trkpt>
      <trkpt lat="47.51504" lon="5.13402">
        <ele>288.8</ele>
        <time>2022-06-06T15:16:31Z</time>
      </trkpt>
      <trkpt lat="47.51473" lon="5.13434">
        <ele>288.8</ele>
        <time>2022-06-06T15:16:38Z</time>
      </trkpt>
      <trkpt lat="47.51435" lon="5.13469">
        <ele>289</ele>
        <time>2022-06-06T15:16:45Z</time>
      </trkpt>
      <trkpt lat="47.5139" lon="5.13506">
        <ele>288.4</ele>
        <time>2022-06-06T15:16:53Z</time>
      </trkpt>
      <trkpt lat="47.51384" lon="5.13511">
        <ele>288.2</ele>
        <time>2022-06-06T15:16:54Z</time>
      </trkpt>
      <trkpt lat="47.5135" lon="5.13541">
        <ele>287.4</ele>
        <time>2022-06-06T15:17:00Z</time>
      </trkpt>
      <trkpt lat="47.51345" lon="5.13547">
        <ele>287.4</ele>
        <time>2022-06-06T15:17:01Z</time>
      </trkpt>
      <trkpt lat="47.5134" lon="5.13553">
        <ele>287.4</ele>
        <time>2022-06-06T15:17:02Z</time>
      </trkpt>
      <trkpt lat="47.51336" lon="5.13561">
        <ele>287.4</ele>
        <time>2022-06-06T15:17:03Z</time>
      </trkpt>
      <trkpt lat="47.51332" lon="5.13571">
        <ele>287.2</ele>
        <time>2022-06-06T15:17:04Z</time>
      </trkpt>
      <trkpt lat="47.5133" lon="5.13591">
        <ele>287</ele>
        <time>2022-06-06T15:17:06Z</time>
      </trkpt>
      <trkpt lat="47.51329" lon="5.13614">
        <ele>286.8</ele>
        <time>2022-06-06T15:17:08Z</time>
      </trkpt>
      <trkpt lat="47.51324" lon="5.13635">
        <ele>286.4</ele>
        <time>2022-06-06T15:17:10Z</time>
      </trkpt>
      <trkpt lat="47.51319" lon="5.13642">
        <ele>286</ele>
        <time>2022-06-06T15:17:11Z</time>
      </trkpt>
      <trkpt lat="47.51315" lon="5.13648">
        <ele>285.6</ele>
        <time>2022-06-06T15:17:12Z</time>
      </trkpt>
      <trkpt lat="47.5131" lon="5.13651">
        <ele>285.2</ele>
        <time>2022-06-06T15:17:13Z</time>
      </trkpt>
      <trkpt lat="47.51305" lon="5.13655">
        <ele>284.8</ele>
        <time>2022-06-06T15:17:14Z</time>
      </trkpt>
      <trkpt lat="47.51302" lon="5.13659">
        <ele>284.2</ele>
        <time>2022-06-06T15:17:15Z</time>
      </trkpt>
      <trkpt lat="47.51296" lon="5.13667">
        <ele>284</ele>
        <time>2022-06-06T15:17:17Z</time>
      </trkpt>
      <trkpt lat="47.51293" lon="5.13671">
        <ele>284</ele>
        <time>2022-06-06T15:17:18Z</time>
      </trkpt>
      <trkpt lat="47.51283" lon="5.1369">
        <ele>284</ele>
        <time>2022-06-06T15:17:21Z</time>
      </trkpt>
      <trkpt lat="47.5128" lon="5.13698">
        <ele>284.2</ele>
        <time>2022-06-06T15:17:22Z</time>
      </trkpt>
      <trkpt lat="47.51278" lon="5.13716">
        <ele>284.2</ele>
        <time>2022-06-06T15:17:24Z</time>
      </trkpt>
      <trkpt lat="47.51272" lon="5.13775">
        <ele>284.4</ele>
        <time>2022-06-06T15:17:31Z</time>
      </trkpt>
      <trkpt lat="47.51269" lon="5.13815">
        <ele>285</ele>
        <time>2022-06-06T15:17:37Z</time>
      </trkpt>
      <trkpt lat="47.51266" lon="5.13832">
        <ele>286</ele>
        <time>2022-06-06T15:17:40Z</time>
      </trkpt>
      <trkpt lat="47.51264" lon="5.13849">
        <ele>287.2</ele>
        <time>2022-06-06T15:17:43Z</time>
      </trkpt>
      <trkpt lat="47.51264" lon="5.13868">
        <ele>288.2</ele>
        <time>2022-06-06T15:17:47Z</time>
      </trkpt>
      <trkpt lat="47.51265" lon="5.13876">
        <ele>289.2</ele>
        <time>2022-06-06T15:17:49Z</time>
      </trkpt>
      <trkpt lat="47.51265" lon="5.1388">
        <ele>289.6</ele>
        <time>2022-06-06T15:17:50Z</time>
      </trkpt>
      <trkpt lat="47.51267" lon="5.13893">
        <ele>290.6</ele>
        <time>2022-06-06T15:17:53Z</time>
      </trkpt>
      <trkpt lat="47.51269" lon="5.13905">
        <ele>291.8</ele>
        <time>2022-06-06T15:17:56Z</time>
      </trkpt>
      <trkpt lat="47.5127" lon="5.13927">
        <ele>292.8</ele>
        <time>2022-06-06T15:18:00Z</time>
      </trkpt>
      <trkpt lat="47.51271" lon="5.13954">
        <ele>293.2</ele>
        <time>2022-06-06T15:18:05Z</time>
      </trkpt>
      <trkpt lat="47.51271" lon="5.13997">
        <ele>293.8</ele>
        <time>2022-06-06T15:18:12Z</time>
      </trkpt>
      <trkpt lat="47.51272" lon="5.14003">
        <ele>293.8</ele>
        <time>2022-06-06T15:18:13Z</time>
      </trkpt>
      <trkpt lat="47.51273" lon="5.14035">
        <ele>294.4</ele>
        <time>2022-06-06T15:18:18Z</time>
      </trkpt>
      <trkpt lat="47.51274" lon="5.14048">
        <ele>294.4</ele>
        <time>2022-06-06T15:18:20Z</time>
      </trkpt>
      <trkpt lat="47.51275" lon="5.14055">
        <ele>294.6</ele>
        <time>2022-06-06T15:18:21Z</time>
      </trkpt>
      <trkpt lat="47.51282" lon="5.14091">
        <ele>294.4</ele>
        <time>2022-06-06T15:18:26Z</time>
      </trkpt>
      <trkpt lat="47.51297" lon="5.14147">
        <ele>294</ele>
        <time>2022-06-06T15:18:33Z</time>
      </trkpt>
      <trkpt lat="47.51308" lon="5.14205">
        <ele>293.6</ele>
        <time>2022-06-06T15:18:40Z</time>
      </trkpt>
      <trkpt lat="47.51316" lon="5.14274">
        <ele>293.8</ele>
        <time>2022-06-06T15:18:49Z</time>
      </trkpt>
      <trkpt lat="47.51322" lon="5.14342">
        <ele>293.8</ele>
        <time>2022-06-06T15:18:58Z</time>
      </trkpt>
      <trkpt lat="47.51324" lon="5.1442">
        <ele>293.6</ele>
        <time>2022-06-06T15:19:09Z</time>
      </trkpt>
      <trkpt lat="47.51324" lon="5.14472">
        <ele>293.6</ele>
        <time>2022-06-06T15:19:16Z</time>
      </trkpt>
      <trkpt lat="47.51323" lon="5.14487">
        <ele>293.6</ele>
        <time>2022-06-06T15:19:18Z</time>
      </trkpt>
      <trkpt lat="47.51324" lon="5.14533">
        <ele>294</ele>
        <time>2022-06-06T15:19:24Z</time>
      </trkpt>
      <trkpt lat="47.51329" lon="5.14583">
        <ele>293.8</ele>
        <time>2022-06-06T15:19:30Z</time>
      </trkpt>
      <trkpt lat="47.5133" lon="5.14591">
        <ele>293.6</ele>
        <time>2022-06-06T15:19:31Z</time>
      </trkpt>
      <trkpt lat="47.51334" lon="5.14643">
        <ele>292.8</ele>
        <time>2022-06-06T15:19:37Z</time>
      </trkpt>
      <trkpt lat="47.51332" lon="5.14704">
        <ele>291.6</ele>
        <time>2022-06-06T15:19:44Z</time>
      </trkpt>
      <trkpt lat="47.5133" lon="5.1473">
        <ele>291.4</ele>
        <time>2022-06-06T15:19:47Z</time>
      </trkpt>
      <trkpt lat="47.51324" lon="5.14801">
        <ele>290.6</ele>
        <time>2022-06-06T15:19:55Z</time>
      </trkpt>
      <trkpt lat="47.51322" lon="5.14821">
        <ele>290.4</ele>
        <time>2022-06-06T15:19:57Z</time>
      </trkpt>
      <trkpt lat="47.5132" lon="5.14851">
        <ele>290</ele>
        <time>2022-06-06T15:20:00Z</time>
      </trkpt>
      <trkpt lat="47.5132" lon="5.14871">
        <ele>289.8</ele>
        <time>2022-06-06T15:20:02Z</time>
      </trkpt>
      <trkpt lat="47.5132" lon="5.14882">
        <ele>289.6</ele>
        <time>2022-06-06T15:20:03Z</time>
      </trkpt>
      <trkpt lat="47.51322" lon="5.14944">
        <ele>288.4</ele>
        <time>2022-06-06T15:20:09Z</time>
      </trkpt>
      <trkpt lat="47.51322" lon="5.14955">
        <ele>288.2</ele>
        <time>2022-06-06T15:20:10Z</time>
      </trkpt>
      <trkpt lat="47.51323" lon="5.14976">
        <ele>287.2</ele>
        <time>2022-06-06T15:20:12Z</time>
      </trkpt>
      <trkpt lat="47.51327" lon="5.15044">
        <ele>286.2</ele>
        <time>2022-06-06T15:20:19Z</time>
      </trkpt>
      <trkpt lat="47.51328" lon="5.15053">
        <ele>286</ele>
        <time>2022-06-06T15:20:20Z</time>
      </trkpt>
      <trkpt lat="47.51334" lon="5.15087">
        <ele>285.6</ele>
        <time>2022-06-06T15:20:24Z</time>
      </trkpt>
      <trkpt lat="47.51337" lon="5.15094">
        <ele>285.6</ele>
        <time>2022-06-06T15:20:25Z</time>
      </trkpt>
      <trkpt lat="47.5134" lon="5.15101">
        <ele>285.6</ele>
        <time>2022-06-06T15:20:26Z</time>
      </trkpt>
      <trkpt lat="47.51351" lon="5.15109">
        <ele>285.6</ele>
        <time>2022-06-06T15:20:28Z</time>
      </trkpt>
      <trkpt lat="47.5137" lon="5.15112">
        <ele>285.2</ele>
        <time>2022-06-06T15:20:31Z</time>
      </trkpt>
      <trkpt lat="47.51376" lon="5.15116">
        <ele>285.2</ele>
        <time>2022-06-06T15:20:32Z</time>
      </trkpt>
      <trkpt lat="47.51381" lon="5.15122">
        <ele>284.8</ele>
        <time>2022-06-06T15:20:33Z</time>
      </trkpt>
      <trkpt lat="47.51384" lon="5.15137">
        <ele>284.4</ele>
        <time>2022-06-06T15:20:35Z</time>
      </trkpt>
      <trkpt lat="47.51383" lon="5.15145">
        <ele>284.2</ele>
        <time>2022-06-06T15:20:36Z</time>
      </trkpt>
      <trkpt lat="47.51378" lon="5.1517">
        <ele>283.8</ele>
        <time>2022-06-06T15:20:39Z</time>
      </trkpt>
      <trkpt lat="47.51362" lon="5.15255">
        <ele>284</ele>
        <time>2022-06-06T15:20:49Z</time>
      </trkpt>
      <trkpt lat="47.5136" lon="5.15265">
        <ele>284</ele>
        <time>2022-06-06T15:20:50Z</time>
      </trkpt>
      <trkpt lat="47.51359" lon="5.15274">
        <ele>284</ele>
        <time>2022-06-06T15:20:51Z</time>
      </trkpt>
      <trkpt lat="47.51352" lon="5.15308">
        <ele>284</ele>
        <time>2022-06-06T15:20:55Z</time>
      </trkpt>
      <trkpt lat="47.51339" lon="5.15365">
        <ele>284</ele>
        <time>2022-06-06T15:21:02Z</time>
      </trkpt>
      <trkpt lat="47.51337" lon="5.15373">
        <ele>284</ele>
        <time>2022-06-06T15:21:03Z</time>
      </trkpt>
      <trkpt lat="47.51325" lon="5.15403">
        <ele>284</ele>
        <time>2022-06-06T15:21:07Z</time>
      </trkpt>
      <trkpt lat="47.51322" lon="5.15419">
        <ele>283.8</ele>
        <time>2022-06-06T15:21:09Z</time>
      </trkpt>
      <trkpt lat="47.51323" lon="5.15427">
        <ele>283.8</ele>
        <time>2022-06-06T15:21:10Z</time>
      </trkpt>
      <trkpt lat="47.51326" lon="5.15434">
        <ele>283.8</ele>
        <time>2022-06-06T15:21:11Z</time>
      </trkpt>
      <trkpt lat="47.51335" lon="5.15444">
        <ele>283.8</ele>
        <time>2022-06-06T15:21:13Z</time>
      </trkpt>
      <trkpt lat="47.51366" lon="5.15476">
        <ele>283.6</ele>
        <time>2022-06-06T15:21:19Z</time>
      </trkpt>
      <trkpt lat="47.51398" lon="5.15506">
        <ele>283.4</ele>
        <time>2022-06-06T15:21:24Z</time>
      </trkpt>
      <trkpt lat="47.51406" lon="5.15512">
        <ele>283.2</ele>
        <time>2022-06-06T15:21:25Z</time>
      </trkpt>
      <trkpt lat="47.51435" lon="5.1553">
        <ele>281.4</ele>
        <time>2022-06-06T15:21:29Z</time>
      </trkpt>
      <trkpt lat="47.51443" lon="5.15534">
        <ele>281</ele>
        <time>2022-06-06T15:21:30Z</time>
      </trkpt>
      <trkpt lat="47.51465" lon="5.15547">
        <ele>280.2</ele>
        <time>2022-06-06T15:21:33Z</time>
      </trkpt>
      <trkpt lat="47.51502" lon="5.1557">
        <ele>279.4</ele>
        <time>2022-06-06T15:21:38Z</time>
      </trkpt>
      <trkpt lat="47.51516" lon="5.15579">
        <ele>279</ele>
        <time>2022-06-06T15:21:40Z</time>
      </trkpt>
      <trkpt lat="47.51572" lon="5.15612">
        <ele>278.4</ele>
        <time>2022-06-06T15:21:48Z</time>
      </trkpt>
      <trkpt lat="47.51594" lon="5.15625">
        <ele>278</ele>
        <time>2022-06-06T15:21:51Z</time>
      </trkpt>
      <trkpt lat="47.51634" lon="5.15649">
        <ele>277.6</ele>
        <time>2022-06-06T15:21:57Z</time>
      </trkpt>
      <trkpt lat="47.51643" lon="5.15664">
        <ele>277.2</ele>
        <time>2022-06-06T15:21:59Z</time>
      </trkpt>
      <trkpt lat="47.51645" lon="5.15673">
        <ele>277.2</ele>
        <time>2022-06-06T15:22:00Z</time>
      </trkpt>
      <trkpt lat="47.51644" lon="5.15683">
        <ele>277</ele>
        <time>2022-06-06T15:22:01Z</time>
      </trkpt>
      <trkpt lat="47.5164" lon="5.15702">
        <ele>276.8</ele>
        <time>2022-06-06T15:22:03Z</time>
      </trkpt>
      <trkpt lat="47.51627" lon="5.15766">
        <ele>276.4</ele>
        <time>2022-06-06T15:22:10Z</time>
      </trkpt>
      <trkpt lat="47.51611" lon="5.15852">
        <ele>276.4</ele>
        <time>2022-06-06T15:22:19Z</time>
      </trkpt>
      <trkpt lat="47.51608" lon="5.15871">
        <ele>276.2</ele>
        <time>2022-06-06T15:22:21Z</time>
      </trkpt>
      <trkpt lat="47.51606" lon="5.15881">
        <ele>276.2</ele>
        <time>2022-06-06T15:22:22Z</time>
      </trkpt>
      <trkpt lat="47.51597" lon="5.15938">
        <ele>276</ele>
        <time>2022-06-06T15:22:28Z</time>
      </trkpt>
      <trkpt lat="47.51582" lon="5.16023">
        <ele>275.6</ele>
        <time>2022-06-06T15:22:37Z</time>
      </trkpt>
      <trkpt lat="47.5158" lon="5.16032">
        <ele>275.6</ele>
        <time>2022-06-06T15:22:38Z</time>
      </trkpt>
      <trkpt lat="47.51567" lon="5.16116">
        <ele>275.6</ele>
        <time>2022-06-06T15:22:47Z</time>
      </trkpt>
      <trkpt lat="47.51556" lon="5.16178">
        <ele>275.6</ele>
        <time>2022-06-06T15:22:54Z</time>
      </trkpt>
      <trkpt lat="47.51546" lon="5.16257">
        <ele>275.8</ele>
        <time>2022-06-06T15:23:03Z</time>
      </trkpt>
      <trkpt lat="47.51545" lon="5.16266">
        <ele>275.8</ele>
        <time>2022-06-06T15:23:04Z</time>
      </trkpt>
      <trkpt lat="47.5154" lon="5.16328">
        <ele>275.6</ele>
        <time>2022-06-06T15:23:11Z</time>
      </trkpt>
      <trkpt lat="47.51539" lon="5.16396">
        <ele>275.6</ele>
        <time>2022-06-06T15:23:19Z</time>
      </trkpt>
      <trkpt lat="47.51541" lon="5.16435">
        <ele>275.6</ele>
        <time>2022-06-06T15:23:24Z</time>
      </trkpt>
      <trkpt lat="47.51541" lon="5.16441">
        <ele>275.6</ele>
        <time>2022-06-06T15:23:25Z</time>
      </trkpt>
      <trkpt lat="47.51539" lon="5.16446">
        <ele>275.6</ele>
        <time>2022-06-06T15:23:26Z</time>
      </trkpt>
      <trkpt lat="47.51534" lon="5.16449">
        <ele>275.6</ele>
        <time>2022-06-06T15:23:28Z</time>
      </trkpt>
      <trkpt lat="47.5152" lon="5.16438">
        <ele>275.8</ele>
        <time>2022-06-06T15:23:32Z</time>
      </trkpt>
      <trkpt lat="47.51504" lon="5.16426">
        <ele>275.6</ele>
        <time>2022-06-06T15:23:38Z</time>
      </trkpt>
      <trkpt lat="47.51504" lon="5.16426">
        <ele>275.6</ele>
        <time>2022-06-06T15:23:41Z</time>
      </trkpt>
      <trkpt lat="47.51503" lon="5.16426">
        <ele>275.4</ele>
        <time>2022-06-06T15:23:50Z</time>
      </trkpt>
      <trkpt lat="47.51503" lon="5.16426">
        <ele>275.4</ele>
        <time>2022-06-06T15:24:15Z</time>
      </trkpt>
      <trkpt lat="47.51503" lon="5.16426">
        <ele>275.4</ele>
        <time>2022-06-06T15:24:53Z</time>
      </trkpt>
      <trkpt lat="47.51502" lon="5.16425">
        <ele>275.6</ele>
        <time>2022-06-06T15:25:05Z</time>
      </trkpt>
      <trkpt lat="47.51491" lon="5.16419">
        <ele>275.6</ele>
        <time>2022-06-06T15:25:11Z</time>
      </trkpt>
      <trkpt lat="47.5147" lon="5.16405">
        <ele>275.8</ele>
        <time>2022-06-06T15:25:17Z</time>
      </trkpt>
      <trkpt lat="47.51446" lon="5.1639">
        <ele>276.2</ele>
        <time>2022-06-06T15:25:25Z</time>
      </trkpt>
      <trkpt lat="47.51427" lon="5.16379">
        <ele>276.4</ele>
        <time>2022-06-06T15:25:31Z</time>
      </trkpt>
      <trkpt lat="47.51394" lon="5.16359">
        <ele>276.8</ele>
        <time>2022-06-06T15:25:40Z</time>
      </trkpt>
      <trkpt lat="47.5135" lon="5.16331">
        <ele>277.6</ele>
        <time>2022-06-06T15:25:51Z</time>
      </trkpt>
      <trkpt lat="47.51346" lon="5.16329">
        <ele>277.6</ele>
        <time>2022-06-06T15:25:52Z</time>
      </trkpt>
      <trkpt lat="47.51313" lon="5.1631">
        <ele>278.6</ele>
        <time>2022-06-06T15:26:00Z</time>
      </trkpt>
      <trkpt lat="47.51305" lon="5.16305">
        <ele>279</ele>
        <time>2022-06-06T15:26:02Z</time>
      </trkpt>
      <trkpt lat="47.51267" lon="5.16283">
        <ele>279.6</ele>
        <time>2022-06-06T15:26:11Z</time>
      </trkpt>
      <trkpt lat="47.51263" lon="5.16281">
        <ele>279.8</ele>
        <time>2022-06-06T15:26:12Z</time>
      </trkpt>
      <trkpt lat="47.5123" lon="5.16259">
        <ele>280.8</ele>
        <time>2022-06-06T15:26:21Z</time>
      </trkpt>
      <trkpt lat="47.51202" lon="5.16234">
        <ele>281.8</ele>
        <time>2022-06-06T15:26:30Z</time>
      </trkpt>
      <trkpt lat="47.51184" lon="5.16221">
        <ele>283</ele>
        <time>2022-06-06T15:26:35Z</time>
      </trkpt>
      <trkpt lat="47.51178" lon="5.16217">
        <ele>283.4</ele>
        <time>2022-06-06T15:26:37Z</time>
      </trkpt>
      <trkpt lat="47.51164" lon="5.16197">
        <ele>283.8</ele>
        <time>2022-06-06T15:26:43Z</time>
      </trkpt>
      <trkpt lat="47.51163" lon="5.16192">
        <ele>283.8</ele>
        <time>2022-06-06T15:26:44Z</time>
      </trkpt>
      <trkpt lat="47.51167" lon="5.16175">
        <ele>284</ele>
        <time>2022-06-06T15:26:47Z</time>
      </trkpt>
      <trkpt lat="47.51182" lon="5.16131">
        <ele>284</ele>
        <time>2022-06-06T15:26:56Z</time>
      </trkpt>
      <trkpt lat="47.51185" lon="5.16121">
        <ele>284</ele>
        <time>2022-06-06T15:26:58Z</time>
      </trkpt>
      <trkpt lat="47.51195" lon="5.16085">
        <ele>284.4</ele>
        <time>2022-06-06T15:27:05Z</time>
      </trkpt>
      <trkpt lat="47.51194" lon="5.16063">
        <ele>284.4</ele>
        <time>2022-06-06T15:27:09Z</time>
      </trkpt>
      <trkpt lat="47.51183" lon="5.16049">
        <ele>284.6</ele>
        <time>2022-06-06T15:27:13Z</time>
      </trkpt>
      <trkpt lat="47.51163" lon="5.16023">
        <ele>285</ele>
        <time>2022-06-06T15:27:20Z</time>
      </trkpt>
      <trkpt lat="47.51155" lon="5.16012">
        <ele>285.4</ele>
        <time>2022-06-06T15:27:23Z</time>
      </trkpt>
      <trkpt lat="47.51134" lon="5.15984">
        <ele>286.2</ele>
        <time>2022-06-06T15:27:31Z</time>
      </trkpt>
      <trkpt lat="47.51115" lon="5.15958">
        <ele>287.2</ele>
        <time>2022-06-06T15:27:38Z</time>
      </trkpt>
      <trkpt lat="47.51096" lon="5.15932">
        <ele>288.2</ele>
        <time>2022-06-06T15:27:45Z</time>
      </trkpt>
      <trkpt lat="47.5109" lon="5.15924">
        <ele>288.8</ele>
        <time>2022-06-06T15:27:47Z</time>
      </trkpt>
      <trkpt lat="47.5108" lon="5.15908">
        <ele>289.4</ele>
        <time>2022-06-06T15:27:51Z</time>
      </trkpt>
      <trkpt lat="47.51067" lon="5.15887">
        <ele>290</ele>
        <time>2022-06-06T15:27:56Z</time>
      </trkpt>
      <trkpt lat="47.51056" lon="5.15871">
        <ele>290.6</ele>
        <time>2022-06-06T15:28:00Z</time>
      </trkpt>
      <trkpt lat="47.51049" lon="5.15859">
        <ele>291</ele>
        <time>2022-06-06T15:28:03Z</time>
      </trkpt>
      <trkpt lat="47.51039" lon="5.15844">
        <ele>291.6</ele>
        <time>2022-06-06T15:28:07Z</time>
      </trkpt>
      <trkpt lat="47.51032" lon="5.15834">
        <ele>292</ele>
        <time>2022-06-06T15:28:10Z</time>
      </trkpt>
      <trkpt lat="47.51022" lon="5.15819">
        <ele>292.8</ele>
        <time>2022-06-06T15:28:14Z</time>
      </trkpt>
      <trkpt lat="47.51015" lon="5.15807">
        <ele>293.4</ele>
        <time>2022-06-06T15:28:17Z</time>
      </trkpt>
      <trkpt lat="47.51005" lon="5.15792">
        <ele>294</ele>
        <time>2022-06-06T15:28:21Z</time>
      </trkpt>
      <trkpt lat="47.50991" lon="5.1577">
        <ele>294.4</ele>
        <time>2022-06-06T15:28:26Z</time>
      </trkpt>
      <trkpt lat="47.50978" lon="5.15749">
        <ele>295</ele>
        <time>2022-06-06T15:28:31Z</time>
      </trkpt>
      <trkpt lat="47.5097" lon="5.15735">
        <ele>295.4</ele>
        <time>2022-06-06T15:28:34Z</time>
      </trkpt>
      <trkpt lat="47.50955" lon="5.15704">
        <ele>296.2</ele>
        <time>2022-06-06T15:28:41Z</time>
      </trkpt>
      <trkpt lat="47.50952" lon="5.157">
        <ele>296.4</ele>
        <time>2022-06-06T15:28:42Z</time>
      </trkpt>
      <trkpt lat="47.50941" lon="5.15679">
        <ele>297.2</ele>
        <time>2022-06-06T15:28:47Z</time>
      </trkpt>
      <trkpt lat="47.50931" lon="5.15664">
        <ele>297.8</ele>
        <time>2022-06-06T15:28:51Z</time>
      </trkpt>
      <trkpt lat="47.50924" lon="5.15652">
        <ele>298.4</ele>
        <time>2022-06-06T15:28:54Z</time>
      </trkpt>
      <trkpt lat="47.50916" lon="5.15636">
        <ele>298.8</ele>
        <time>2022-06-06T15:28:58Z</time>
      </trkpt>
      <trkpt lat="47.50904" lon="5.15618">
        <ele>299.4</ele>
        <time>2022-06-06T15:29:03Z</time>
      </trkpt>
      <trkpt lat="47.50894" lon="5.156">
        <ele>300</ele>
        <time>2022-06-06T15:29:08Z</time>
      </trkpt>
      <trkpt lat="47.50883" lon="5.15582">
        <ele>300.6</ele>
        <time>2022-06-06T15:29:13Z</time>
      </trkpt>
      <trkpt lat="47.50875" lon="5.15566">
        <ele>301.2</ele>
        <time>2022-06-06T15:29:17Z</time>
      </trkpt>
      <trkpt lat="47.50869" lon="5.15548">
        <ele>301.8</ele>
        <time>2022-06-06T15:29:21Z</time>
      </trkpt>
      <trkpt lat="47.50862" lon="5.15521">
        <ele>302.6</ele>
        <time>2022-06-06T15:29:27Z</time>
      </trkpt>
      <trkpt lat="47.50861" lon="5.15516">
        <ele>302.8</ele>
        <time>2022-06-06T15:29:28Z</time>
      </trkpt>
      <trkpt lat="47.50858" lon="5.15499">
        <ele>303.6</ele>
        <time>2022-06-06T15:29:32Z</time>
      </trkpt>
      <trkpt lat="47.50857" lon="5.15489">
        <ele>304</ele>
        <time>2022-06-06T15:29:34Z</time>
      </trkpt>
      <trkpt lat="47.50855" lon="5.15471">
        <ele>305</ele>
        <time>2022-06-06T15:29:38Z</time>
      </trkpt>
      <trkpt lat="47.50854" lon="5.15445">
        <ele>305.6</ele>
        <time>2022-06-06T15:29:44Z</time>
      </trkpt>
      <trkpt lat="47.50853" lon="5.1544">
        <ele>306</ele>
        <time>2022-06-06T15:29:45Z</time>
      </trkpt>
      <trkpt lat="47.50852" lon="5.15405">
        <ele>307</ele>
        <time>2022-06-06T15:29:53Z</time>
      </trkpt>
      <trkpt lat="47.50852" lon="5.15396">
        <ele>307.2</ele>
        <time>2022-06-06T15:29:55Z</time>
      </trkpt>
      <trkpt lat="47.50852" lon="5.15379">
        <ele>308</ele>
        <time>2022-06-06T15:29:59Z</time>
      </trkpt>
      <trkpt lat="47.50848" lon="5.15354">
        <ele>309.2</ele>
        <time>2022-06-06T15:30:05Z</time>
      </trkpt>
      <trkpt lat="47.50848" lon="5.15349">
        <ele>309.2</ele>
        <time>2022-06-06T15:30:06Z</time>
      </trkpt>
      <trkpt lat="47.50846" lon="5.15323">
        <ele>310.2</ele>
        <time>2022-06-06T15:30:12Z</time>
      </trkpt>
      <trkpt lat="47.50844" lon="5.1531">
        <ele>310.6</ele>
        <time>2022-06-06T15:30:15Z</time>
      </trkpt>
      <trkpt lat="47.50842" lon="5.15271">
        <ele>311.2</ele>
        <time>2022-06-06T15:30:24Z</time>
      </trkpt>
      <trkpt lat="47.50841" lon="5.15262">
        <ele>311.4</ele>
        <time>2022-06-06T15:30:26Z</time>
      </trkpt>
      <trkpt lat="47.50837" lon="5.15236">
        <ele>312</ele>
        <time>2022-06-06T15:30:32Z</time>
      </trkpt>
      <trkpt lat="47.50835" lon="5.15224">
        <ele>312.4</ele>
        <time>2022-06-06T15:30:35Z</time>
      </trkpt>
      <trkpt lat="47.50833" lon="5.15206">
        <ele>313.6</ele>
        <time>2022-06-06T15:30:40Z</time>
      </trkpt>
      <trkpt lat="47.5083" lon="5.15189">
        <ele>314.6</ele>
        <time>2022-06-06T15:30:45Z</time>
      </trkpt>
      <trkpt lat="47.50828" lon="5.15179">
        <ele>315.4</ele>
        <time>2022-06-06T15:30:48Z</time>
      </trkpt>
      <trkpt lat="47.50827" lon="5.15176">
        <ele>315.8</ele>
        <time>2022-06-06T15:30:49Z</time>
      </trkpt>
      <trkpt lat="47.50825" lon="5.15165">
        <ele>317</ele>
        <time>2022-06-06T15:30:52Z</time>
      </trkpt>
      <trkpt lat="47.50823" lon="5.15148">
        <ele>318</ele>
        <time>2022-06-06T15:30:57Z</time>
      </trkpt>
      <trkpt lat="47.50819" lon="5.15128">
        <ele>319.2</ele>
        <time>2022-06-06T15:31:03Z</time>
      </trkpt>
      <trkpt lat="47.50818" lon="5.15124">
        <ele>319.2</ele>
        <time>2022-06-06T15:31:04Z</time>
      </trkpt>
      <trkpt lat="47.50817" lon="5.15109">
        <ele>320.2</ele>
        <time>2022-06-06T15:31:08Z</time>
      </trkpt>
      <trkpt lat="47.50815" lon="5.1509">
        <ele>321.2</ele>
        <time>2022-06-06T15:31:13Z</time>
      </trkpt>
      <trkpt lat="47.50815" lon="5.15087">
        <ele>321.2</ele>
        <time>2022-06-06T15:31:14Z</time>
      </trkpt>
      <trkpt lat="47.50814" lon="5.15065">
        <ele>322.4</ele>
        <time>2022-06-06T15:31:20Z</time>
      </trkpt>
      <trkpt lat="47.50811" lon="5.15042">
        <ele>323.6</ele>
        <time>2022-06-06T15:31:26Z</time>
      </trkpt>
      <trkpt lat="47.50807" lon="5.15017">
        <ele>324.6</ele>
        <time>2022-06-06T15:31:33Z</time>
      </trkpt>
      <trkpt lat="47.50805" lon="5.15007">
        <ele>325.2</ele>
        <time>2022-06-06T15:31:36Z</time>
      </trkpt>
      <trkpt lat="47.50802" lon="5.14992">
        <ele>325.6</ele>
        <time>2022-06-06T15:31:40Z</time>
      </trkpt>
      <trkpt lat="47.50801" lon="5.14985">
        <ele>325.8</ele>
        <time>2022-06-06T15:31:42Z</time>
      </trkpt>
      <trkpt lat="47.50796" lon="5.14963">
        <ele>326.6</ele>
        <time>2022-06-06T15:31:49Z</time>
      </trkpt>
      <trkpt lat="47.50795" lon="5.14959">
        <ele>326.8</ele>
        <time>2022-06-06T15:31:50Z</time>
      </trkpt>
      <trkpt lat="47.50789" lon="5.14939">
        <ele>327.8</ele>
        <time>2022-06-06T15:31:56Z</time>
      </trkpt>
      <trkpt lat="47.50786" lon="5.14933">
        <ele>328.2</ele>
        <time>2022-06-06T15:31:58Z</time>
      </trkpt>
      <trkpt lat="47.50778" lon="5.14916">
        <ele>328.8</ele>
        <time>2022-06-06T15:32:04Z</time>
      </trkpt>
      <trkpt lat="47.50776" lon="5.14913">
        <ele>329</ele>
        <time>2022-06-06T15:32:05Z</time>
      </trkpt>
      <trkpt lat="47.50765" lon="5.14898">
        <ele>330</ele>
        <time>2022-06-06T15:32:11Z</time>
      </trkpt>
      <trkpt lat="47.50756" lon="5.14886">
        <ele>330.8</ele>
        <time>2022-06-06T15:32:16Z</time>
      </trkpt>
      <trkpt lat="47.50755" lon="5.14883">
        <ele>331</ele>
        <time>2022-06-06T15:32:17Z</time>
      </trkpt>
      <trkpt lat="47.5074" lon="5.14856">
        <ele>332.2</ele>
        <time>2022-06-06T15:32:26Z</time>
      </trkpt>
      <trkpt lat="47.50737" lon="5.14851">
        <ele>332.4</ele>
        <time>2022-06-06T15:32:28Z</time>
      </trkpt>
      <trkpt lat="47.50727" lon="5.14835">
        <ele>333.2</ele>
        <time>2022-06-06T15:32:34Z</time>
      </trkpt>
      <trkpt lat="47.5072" lon="5.14824">
        <ele>334</ele>
        <time>2022-06-06T15:32:38Z</time>
      </trkpt>
      <trkpt lat="47.50712" lon="5.14814">
        <ele>334.2</ele>
        <time>2022-06-06T15:32:42Z</time>
      </trkpt>
      <trkpt lat="47.50704" lon="5.14804">
        <ele>334.6</ele>
        <time>2022-06-06T15:32:46Z</time>
      </trkpt>
      <trkpt lat="47.50686" lon="5.14787">
        <ele>335.4</ele>
        <time>2022-06-06T15:32:54Z</time>
      </trkpt>
      <trkpt lat="47.50668" lon="5.14774">
        <ele>336.4</ele>
        <time>2022-06-06T15:33:02Z</time>
      </trkpt>
      <trkpt lat="47.50665" lon="5.14773">
        <ele>336.6</ele>
        <time>2022-06-06T15:33:03Z</time>
      </trkpt>
      <trkpt lat="47.50645" lon="5.14764">
        <ele>337.6</ele>
        <time>2022-06-06T15:33:11Z</time>
      </trkpt>
      <trkpt lat="47.50626" lon="5.14757">
        <ele>338.6</ele>
        <time>2022-06-06T15:33:18Z</time>
      </trkpt>
      <trkpt lat="47.50621" lon="5.14755">
        <ele>338.8</ele>
        <time>2022-06-06T15:33:20Z</time>
      </trkpt>
      <trkpt lat="47.50599" lon="5.14748">
        <ele>339.6</ele>
        <time>2022-06-06T15:33:28Z</time>
      </trkpt>
      <trkpt lat="47.50579" lon="5.14739">
        <ele>340.2</ele>
        <time>2022-06-06T15:33:36Z</time>
      </trkpt>
      <trkpt lat="47.50554" lon="5.1473">
        <ele>340.6</ele>
        <time>2022-06-06T15:33:45Z</time>
      </trkpt>
      <trkpt lat="47.50529" lon="5.14721">
        <ele>341</ele>
        <time>2022-06-06T15:33:52Z</time>
      </trkpt>
      <trkpt lat="47.50501" lon="5.14713">
        <ele>341</ele>
        <time>2022-06-06T15:34:01Z</time>
      </trkpt>
      <trkpt lat="47.50476" lon="5.14704">
        <ele>341</ele>
        <time>2022-06-06T15:34:09Z</time>
      </trkpt>
      <trkpt lat="47.50451" lon="5.14695">
        <ele>340.8</ele>
        <time>2022-06-06T15:34:15Z</time>
      </trkpt>
      <trkpt lat="47.50422" lon="5.14685">
        <ele>340.6</ele>
        <time>2022-06-06T15:34:22Z</time>
      </trkpt>
      <trkpt lat="47.50418" lon="5.14684">
        <ele>340.4</ele>
        <time>2022-06-06T15:34:23Z</time>
      </trkpt>
      <trkpt lat="47.5039" lon="5.14673">
        <ele>340.4</ele>
        <time>2022-06-06T15:34:30Z</time>
      </trkpt>
      <trkpt lat="47.50362" lon="5.14661">
        <ele>340</ele>
        <time>2022-06-06T15:34:37Z</time>
      </trkpt>
      <trkpt lat="47.50359" lon="5.1466">
        <ele>340</ele>
        <time>2022-06-06T15:34:38Z</time>
      </trkpt>
      <trkpt lat="47.50355" lon="5.14659">
        <ele>340</ele>
        <time>2022-06-06T15:34:39Z</time>
      </trkpt>
      <trkpt lat="47.50338" lon="5.14653">
        <ele>339.8</ele>
        <time>2022-06-06T15:34:44Z</time>
      </trkpt>
      <trkpt lat="47.50332" lon="5.14651">
        <ele>339.6</ele>
        <time>2022-06-06T15:34:46Z</time>
      </trkpt>
      <trkpt lat="47.50329" lon="5.14649">
        <ele>339.6</ele>
        <time>2022-06-06T15:34:47Z</time>
      </trkpt>
      <trkpt lat="47.50309" lon="5.14642">
        <ele>339.4</ele>
        <time>2022-06-06T15:34:53Z</time>
      </trkpt>
      <trkpt lat="47.50277" lon="5.14631">
        <ele>339.2</ele>
        <time>2022-06-06T15:35:00Z</time>
      </trkpt>
      <trkpt lat="47.50256" lon="5.14621">
        <ele>339</ele>
        <time>2022-06-06T15:35:05Z</time>
      </trkpt>
      <trkpt lat="47.50248" lon="5.14618">
        <ele>338.8</ele>
        <time>2022-06-06T15:35:07Z</time>
      </trkpt>
      <trkpt lat="47.50222" lon="5.1461">
        <ele>338.4</ele>
        <time>2022-06-06T15:35:13Z</time>
      </trkpt>
      <trkpt lat="47.50218" lon="5.14608">
        <ele>338.4</ele>
        <time>2022-06-06T15:35:14Z</time>
      </trkpt>
      <trkpt lat="47.50191" lon="5.14599">
        <ele>337.8</ele>
        <time>2022-06-06T15:35:19Z</time>
      </trkpt>
      <trkpt lat="47.50157" lon="5.14586">
        <ele>337.4</ele>
        <time>2022-06-06T15:35:25Z</time>
      </trkpt>
      <trkpt lat="47.50152" lon="5.14584">
        <ele>336.8</ele>
        <time>2022-06-06T15:35:26Z</time>
      </trkpt>
      <trkpt lat="47.50135" lon="5.14578">
        <ele>336.2</ele>
        <time>2022-06-06T15:35:29Z</time>
      </trkpt>
      <trkpt lat="47.50097" lon="5.14564">
        <ele>335.4</ele>
        <time>2022-06-06T15:35:35Z</time>
      </trkpt>
      <trkpt lat="47.50091" lon="5.14561">
        <ele>335.2</ele>
        <time>2022-06-06T15:35:36Z</time>
      </trkpt>
      <trkpt lat="47.50058" lon="5.14549">
        <ele>334</ele>
        <time>2022-06-06T15:35:41Z</time>
      </trkpt>
      <trkpt lat="47.50052" lon="5.14547">
        <ele>333.4</ele>
        <time>2022-06-06T15:35:42Z</time>
      </trkpt>
      <trkpt lat="47.50039" lon="5.14542">
        <ele>333</ele>
        <time>2022-06-06T15:35:44Z</time>
      </trkpt>
      <trkpt lat="47.50008" lon="5.14529">
        <ele>332.2</ele>
        <time>2022-06-06T15:35:49Z</time>
      </trkpt>
      <trkpt lat="47.49995" lon="5.14524">
        <ele>332</ele>
        <time>2022-06-06T15:35:51Z</time>
      </trkpt>
      <trkpt lat="47.49964" lon="5.14512">
        <ele>330.6</ele>
        <time>2022-06-06T15:35:56Z</time>
      </trkpt>
      <trkpt lat="47.49953" lon="5.14507">
        <ele>330.4</ele>
        <time>2022-06-06T15:35:58Z</time>
      </trkpt>
      <trkpt lat="47.49915" lon="5.14493">
        <ele>330</ele>
        <time>2022-06-06T15:36:05Z</time>
      </trkpt>
      <trkpt lat="47.49857" lon="5.14473">
        <ele>330</ele>
        <time>2022-06-06T15:36:15Z</time>
      </trkpt>
      <trkpt lat="47.49812" lon="5.14455">
        <ele>329.8</ele>
        <time>2022-06-06T15:36:23Z</time>
      </trkpt>
      <trkpt lat="47.49807" lon="5.14453">
        <ele>329.6</ele>
        <time>2022-06-06T15:36:24Z</time>
      </trkpt>
      <trkpt lat="47.49788" lon="5.14446">
        <ele>329.6</ele>
        <time>2022-06-06T15:36:28Z</time>
      </trkpt>
      <trkpt lat="47.49732" lon="5.14425">
        <ele>329</ele>
        <time>2022-06-06T15:36:38Z</time>
      </trkpt>
      <trkpt lat="47.49702" lon="5.14415">
        <ele>328.6</ele>
        <time>2022-06-06T15:36:43Z</time>
      </trkpt>
      <trkpt lat="47.49689" lon="5.14412">
        <ele>328.4</ele>
        <time>2022-06-06T15:36:45Z</time>
      </trkpt>
      <trkpt lat="47.49659" lon="5.14403">
        <ele>327.6</ele>
        <time>2022-06-06T15:36:50Z</time>
      </trkpt>
      <trkpt lat="47.49654" lon="5.14401">
        <ele>327.6</ele>
        <time>2022-06-06T15:36:51Z</time>
      </trkpt>
      <trkpt lat="47.49623" lon="5.1439">
        <ele>327.6</ele>
        <time>2022-06-06T15:36:57Z</time>
      </trkpt>
      <trkpt lat="47.49602" lon="5.14382">
        <ele>328.6</ele>
        <time>2022-06-06T15:37:02Z</time>
      </trkpt>
      <trkpt lat="47.49593" lon="5.14379">
        <ele>329</ele>
        <time>2022-06-06T15:37:04Z</time>
      </trkpt>
      <trkpt lat="47.49585" lon="5.14376">
        <ele>329.8</ele>
        <time>2022-06-06T15:37:06Z</time>
      </trkpt>
      <trkpt lat="47.49557" lon="5.14366">
        <ele>331</ele>
        <time>2022-06-06T15:37:13Z</time>
      </trkpt>
      <trkpt lat="47.4955" lon="5.14363">
        <ele>331.4</ele>
        <time>2022-06-06T15:37:15Z</time>
      </trkpt>
      <trkpt lat="47.49538" lon="5.14359">
        <ele>331.8</ele>
        <time>2022-06-06T15:37:18Z</time>
      </trkpt>
      <trkpt lat="47.4953" lon="5.14355">
        <ele>332.2</ele>
        <time>2022-06-06T15:37:20Z</time>
      </trkpt>
      <trkpt lat="47.49522" lon="5.14353">
        <ele>332.4</ele>
        <time>2022-06-06T15:37:22Z</time>
      </trkpt>
      <trkpt lat="47.49506" lon="5.14347">
        <ele>333.6</ele>
        <time>2022-06-06T15:37:26Z</time>
      </trkpt>
      <trkpt lat="47.49492" lon="5.14342">
        <ele>334.2</ele>
        <time>2022-06-06T15:37:30Z</time>
      </trkpt>
      <trkpt lat="47.4948" lon="5.14338">
        <ele>334.8</ele>
        <time>2022-06-06T15:37:33Z</time>
      </trkpt>
      <trkpt lat="47.49461" lon="5.14331">
        <ele>336</ele>
        <time>2022-06-06T15:37:38Z</time>
      </trkpt>
      <trkpt lat="47.49451" lon="5.14327">
        <ele>336.2</ele>
        <time>2022-06-06T15:37:41Z</time>
      </trkpt>
      <trkpt lat="47.4942" lon="5.14315">
        <ele>337</ele>
        <time>2022-06-06T15:37:49Z</time>
      </trkpt>
      <trkpt lat="47.49408" lon="5.1431">
        <ele>337.2</ele>
        <time>2022-06-06T15:37:52Z</time>
      </trkpt>
      <trkpt lat="47.4937" lon="5.14296">
        <ele>337.6</ele>
        <time>2022-06-06T15:38:01Z</time>
      </trkpt>
      <trkpt lat="47.49343" lon="5.14286">
        <ele>337.6</ele>
        <time>2022-06-06T15:38:08Z</time>
      </trkpt>
      <trkpt lat="47.49314" lon="5.14274">
        <ele>337.4</ele>
        <time>2022-06-06T15:38:15Z</time>
      </trkpt>
      <trkpt lat="47.49277" lon="5.1426">
        <ele>337</ele>
        <time>2022-06-06T15:38:23Z</time>
      </trkpt>
      <trkpt lat="47.49272" lon="5.14258">
        <ele>337</ele>
        <time>2022-06-06T15:38:24Z</time>
      </trkpt>
      <trkpt lat="47.49263" lon="5.14255">
        <ele>336.8</ele>
        <time>2022-06-06T15:38:26Z</time>
      </trkpt>
      <trkpt lat="47.49253" lon="5.14255">
        <ele>336.6</ele>
        <time>2022-06-06T15:38:28Z</time>
      </trkpt>
      <trkpt lat="47.49248" lon="5.14256">
        <ele>336.6</ele>
        <time>2022-06-06T15:38:29Z</time>
      </trkpt>
      <trkpt lat="47.49228" lon="5.14268">
        <ele>336.2</ele>
        <time>2022-06-06T15:38:33Z</time>
      </trkpt>
      <trkpt lat="47.49218" lon="5.14276">
        <ele>335.6</ele>
        <time>2022-06-06T15:38:35Z</time>
      </trkpt>
      <trkpt lat="47.492" lon="5.14288">
        <ele>334.8</ele>
        <time>2022-06-06T15:38:38Z</time>
      </trkpt>
      <trkpt lat="47.49194" lon="5.14292">
        <ele>334.4</ele>
        <time>2022-06-06T15:38:39Z</time>
      </trkpt>
      <trkpt lat="47.49169" lon="5.14311">
        <ele>333.4</ele>
        <time>2022-06-06T15:38:43Z</time>
      </trkpt>
      <trkpt lat="47.49163" lon="5.14315">
        <ele>333</ele>
        <time>2022-06-06T15:38:44Z</time>
      </trkpt>
      <trkpt lat="47.49126" lon="5.1434">
        <ele>332</ele>
        <time>2022-06-06T15:38:49Z</time>
      </trkpt>
      <trkpt lat="47.49112" lon="5.14351">
        <ele>331.4</ele>
        <time>2022-06-06T15:38:51Z</time>
      </trkpt>
      <trkpt lat="47.4909" lon="5.14367">
        <ele>330.8</ele>
        <time>2022-06-06T15:38:54Z</time>
      </trkpt>
      <trkpt lat="47.49067" lon="5.14384">
        <ele>329.6</ele>
        <time>2022-06-06T15:38:57Z</time>
      </trkpt>
      <trkpt lat="47.49051" lon="5.14397">
        <ele>328.6</ele>
        <time>2022-06-06T15:38:59Z</time>
      </trkpt>
      <trkpt lat="47.49028" lon="5.14414">
        <ele>327.4</ele>
        <time>2022-06-06T15:39:02Z</time>
      </trkpt>
      <trkpt lat="47.49004" lon="5.14431">
        <ele>325.6</ele>
        <time>2022-06-06T15:39:05Z</time>
      </trkpt>
      <trkpt lat="47.48988" lon="5.14441">
        <ele>324.4</ele>
        <time>2022-06-06T15:39:07Z</time>
      </trkpt>
      <trkpt lat="47.48973" lon="5.1445">
        <ele>324</ele>
        <time>2022-06-06T15:39:09Z</time>
      </trkpt>
      <trkpt lat="47.48958" lon="5.1446">
        <ele>323.4</ele>
        <time>2022-06-06T15:39:11Z</time>
      </trkpt>
      <trkpt lat="47.48929" lon="5.14477">
        <ele>322</ele>
        <time>2022-06-06T15:39:15Z</time>
      </trkpt>
      <trkpt lat="47.48907" lon="5.14493">
        <ele>320.8</ele>
        <time>2022-06-06T15:39:18Z</time>
      </trkpt>
      <trkpt lat="47.48897" lon="5.14502">
        <ele>320.2</ele>
        <time>2022-06-06T15:39:20Z</time>
      </trkpt>
      <trkpt lat="47.48868" lon="5.14521">
        <ele>320.4</ele>
        <time>2022-06-06T15:39:26Z</time>
      </trkpt>
      <trkpt lat="47.48833" lon="5.14542">
        <ele>321.2</ele>
        <time>2022-06-06T15:39:34Z</time>
      </trkpt>
      <trkpt lat="47.4882" lon="5.14546">
        <ele>322</ele>
        <time>2022-06-06T15:39:37Z</time>
      </trkpt>
      <trkpt lat="47.4881" lon="5.14546">
        <ele>322.4</ele>
        <time>2022-06-06T15:39:39Z</time>
      </trkpt>
      <trkpt lat="47.48797" lon="5.14544">
        <ele>322.8</ele>
        <time>2022-06-06T15:39:42Z</time>
      </trkpt>
      <trkpt lat="47.48793" lon="5.14542">
        <ele>323</ele>
        <time>2022-06-06T15:39:43Z</time>
      </trkpt>
      <trkpt lat="47.48789" lon="5.1454">
        <ele>323.2</ele>
        <time>2022-06-06T15:39:44Z</time>
      </trkpt>
      <trkpt lat="47.48782" lon="5.14536">
        <ele>323.6</ele>
        <time>2022-06-06T15:39:46Z</time>
      </trkpt>
      <trkpt lat="47.48772" lon="5.14532">
        <ele>324.2</ele>
        <time>2022-06-06T15:39:49Z</time>
      </trkpt>
      <trkpt lat="47.48748" lon="5.14519">
        <ele>325.2</ele>
        <time>2022-06-06T15:39:56Z</time>
      </trkpt>
      <trkpt lat="47.48718" lon="5.14502">
        <ele>326</ele>
        <time>2022-06-06T15:40:04Z</time>
      </trkpt>
      <trkpt lat="47.4871" lon="5.14496">
        <ele>326.2</ele>
        <time>2022-06-06T15:40:06Z</time>
      </trkpt>
      <trkpt lat="47.48693" lon="5.14486">
        <ele>326.2</ele>
        <time>2022-06-06T15:40:10Z</time>
      </trkpt>
      <trkpt lat="47.48679" lon="5.14479">
        <ele>326.4</ele>
        <time>2022-06-06T15:40:13Z</time>
      </trkpt>
      <trkpt lat="47.48668" lon="5.14475">
        <ele>326.4</ele>
        <time>2022-06-06T15:40:15Z</time>
      </trkpt>
      <trkpt lat="47.48639" lon="5.14457">
        <ele>326.2</ele>
        <time>2022-06-06T15:40:21Z</time>
      </trkpt>
      <trkpt lat="47.48634" lon="5.14454">
        <ele>326</ele>
        <time>2022-06-06T15:40:22Z</time>
      </trkpt>
      <trkpt lat="47.48622" lon="5.14447">
        <ele>326</ele>
        <time>2022-06-06T15:40:25Z</time>
      </trkpt>
      <trkpt lat="47.48617" lon="5.14445">
        <ele>326</ele>
        <time>2022-06-06T15:40:26Z</time>
      </trkpt>
      <trkpt lat="47.48606" lon="5.1444">
        <ele>325.8</ele>
        <time>2022-06-06T15:40:28Z</time>
      </trkpt>
      <trkpt lat="47.48597" lon="5.14435">
        <ele>325.6</ele>
        <time>2022-06-06T15:40:30Z</time>
      </trkpt>
      <trkpt lat="47.48592" lon="5.14433">
        <ele>325.4</ele>
        <time>2022-06-06T15:40:31Z</time>
      </trkpt>
      <trkpt lat="47.4858" lon="5.14429">
        <ele>325.2</ele>
        <time>2022-06-06T15:40:33Z</time>
      </trkpt>
      <trkpt lat="47.48558" lon="5.14414">
        <ele>324.4</ele>
        <time>2022-06-06T15:40:37Z</time>
      </trkpt>
      <trkpt lat="47.4854" lon="5.14406">
        <ele>324.2</ele>
        <time>2022-06-06T15:40:40Z</time>
      </trkpt>
      <trkpt lat="47.48527" lon="5.144">
        <ele>323.8</ele>
        <time>2022-06-06T15:40:42Z</time>
      </trkpt>
      <trkpt lat="47.48488" lon="5.14378">
        <ele>323</ele>
        <time>2022-06-06T15:40:48Z</time>
      </trkpt>
      <trkpt lat="47.48482" lon="5.14374">
        <ele>322.8</ele>
        <time>2022-06-06T15:40:49Z</time>
      </trkpt>
      <trkpt lat="47.48453" lon="5.14359">
        <ele>322.2</ele>
        <time>2022-06-06T15:40:54Z</time>
      </trkpt>
      <trkpt lat="47.48448" lon="5.14355">
        <ele>322.2</ele>
        <time>2022-06-06T15:40:55Z</time>
      </trkpt>
      <trkpt lat="47.4843" lon="5.14345">
        <ele>322.2</ele>
        <time>2022-06-06T15:40:59Z</time>
      </trkpt>
      <trkpt lat="47.4842" lon="5.1434">
        <ele>322.4</ele>
        <time>2022-06-06T15:41:01Z</time>
      </trkpt>
      <trkpt lat="47.48391" lon="5.14325">
        <ele>322.4</ele>
        <time>2022-06-06T15:41:06Z</time>
      </trkpt>
      <trkpt lat="47.4838" lon="5.14318">
        <ele>322.4</ele>
        <time>2022-06-06T15:41:08Z</time>
      </trkpt>
      <trkpt lat="47.48368" lon="5.14311">
        <ele>322.2</ele>
        <time>2022-06-06T15:41:10Z</time>
      </trkpt>
      <trkpt lat="47.48361" lon="5.14309">
        <ele>322</ele>
        <time>2022-06-06T15:41:11Z</time>
      </trkpt>
      <trkpt lat="47.48355" lon="5.14305">
        <ele>322</ele>
        <time>2022-06-06T15:41:12Z</time>
      </trkpt>
      <trkpt lat="47.48344" lon="5.14297">
        <ele>321.8</ele>
        <time>2022-06-06T15:41:14Z</time>
      </trkpt>
      <trkpt lat="47.48338" lon="5.14293">
        <ele>321.6</ele>
        <time>2022-06-06T15:41:15Z</time>
      </trkpt>
      <trkpt lat="47.48331" lon="5.14289">
        <ele>321.6</ele>
        <time>2022-06-06T15:41:16Z</time>
      </trkpt>
      <trkpt lat="47.48311" lon="5.14278">
        <ele>321</ele>
        <time>2022-06-06T15:41:19Z</time>
      </trkpt>
      <trkpt lat="47.48303" lon="5.14276">
        <ele>320.8</ele>
        <time>2022-06-06T15:41:20Z</time>
      </trkpt>
      <trkpt lat="47.48264" lon="5.14261">
        <ele>320.6</ele>
        <time>2022-06-06T15:41:27Z</time>
      </trkpt>
      <trkpt lat="47.4826" lon="5.14258">
        <ele>320.6</ele>
        <time>2022-06-06T15:41:28Z</time>
      </trkpt>
      <trkpt lat="47.48242" lon="5.14245">
        <ele>321.2</ele>
        <time>2022-06-06T15:41:32Z</time>
      </trkpt>
      <trkpt lat="47.48234" lon="5.1424">
        <ele>322</ele>
        <time>2022-06-06T15:41:34Z</time>
      </trkpt>
      <trkpt lat="47.4823" lon="5.14237">
        <ele>322.2</ele>
        <time>2022-06-06T15:41:35Z</time>
      </trkpt>
      <trkpt lat="47.48217" lon="5.1423">
        <ele>322.8</ele>
        <time>2022-06-06T15:41:38Z</time>
      </trkpt>
      <trkpt lat="47.48212" lon="5.14228">
        <ele>322.8</ele>
        <time>2022-06-06T15:41:39Z</time>
      </trkpt>
      <trkpt lat="47.48207" lon="5.14226">
        <ele>322.8</ele>
        <time>2022-06-06T15:41:40Z</time>
      </trkpt>
      <trkpt lat="47.48203" lon="5.14223">
        <ele>323.2</ele>
        <time>2022-06-06T15:41:41Z</time>
      </trkpt>
      <trkpt lat="47.48195" lon="5.14217">
        <ele>323.2</ele>
        <time>2022-06-06T15:41:43Z</time>
      </trkpt>
      <trkpt lat="47.48191" lon="5.14215">
        <ele>323.4</ele>
        <time>2022-06-06T15:41:44Z</time>
      </trkpt>
      <trkpt lat="47.48175" lon="5.14207">
        <ele>324.2</ele>
        <time>2022-06-06T15:41:48Z</time>
      </trkpt>
      <trkpt lat="47.48171" lon="5.14205">
        <ele>324.2</ele>
        <time>2022-06-06T15:41:49Z</time>
      </trkpt>
      <trkpt lat="47.48152" lon="5.14195">
        <ele>325.4</ele>
        <time>2022-06-06T15:41:54Z</time>
      </trkpt>
      <trkpt lat="47.48145" lon="5.1419">
        <ele>326</ele>
        <time>2022-06-06T15:41:56Z</time>
      </trkpt>
      <trkpt lat="47.48134" lon="5.14184">
        <ele>326.4</ele>
        <time>2022-06-06T15:41:59Z</time>
      </trkpt>
      <trkpt lat="47.48116" lon="5.14174">
        <ele>327.4</ele>
        <time>2022-06-06T15:42:04Z</time>
      </trkpt>
      <trkpt lat="47.48099" lon="5.14165">
        <ele>328.6</ele>
        <time>2022-06-06T15:42:09Z</time>
      </trkpt>
      <trkpt lat="47.48086" lon="5.14157">
        <ele>329.4</ele>
        <time>2022-06-06T15:42:13Z</time>
      </trkpt>
      <trkpt lat="47.48079" lon="5.14154">
        <ele>329.6</ele>
        <time>2022-06-06T15:42:15Z</time>
      </trkpt>
      <trkpt lat="47.48064" lon="5.14143">
        <ele>330.6</ele>
        <time>2022-06-06T15:42:20Z</time>
      </trkpt>
      <trkpt lat="47.4805" lon="5.14136">
        <ele>331</ele>
        <time>2022-06-06T15:42:24Z</time>
      </trkpt>
      <trkpt lat="47.48036" lon="5.14129">
        <ele>331.6</ele>
        <time>2022-06-06T15:42:28Z</time>
      </trkpt>
      <trkpt lat="47.48022" lon="5.14122">
        <ele>332</ele>
        <time>2022-06-06T15:42:32Z</time>
      </trkpt>
      <trkpt lat="47.48012" lon="5.14116">
        <ele>332.4</ele>
        <time>2022-06-06T15:42:35Z</time>
      </trkpt>
      <trkpt lat="47.47984" lon="5.14102">
        <ele>333</ele>
        <time>2022-06-06T15:42:43Z</time>
      </trkpt>
      <trkpt lat="47.47978" lon="5.14098">
        <ele>333.2</ele>
        <time>2022-06-06T15:42:45Z</time>
      </trkpt>
      <trkpt lat="47.47957" lon="5.14086">
        <ele>333.8</ele>
        <time>2022-06-06T15:42:51Z</time>
      </trkpt>
      <trkpt lat="47.47935" lon="5.14071">
        <ele>334</ele>
        <time>2022-06-06T15:42:57Z</time>
      </trkpt>
      <trkpt lat="47.47923" lon="5.1406">
        <ele>334</ele>
        <time>2022-06-06T15:43:00Z</time>
      </trkpt>
      <trkpt lat="47.47911" lon="5.14047">
        <ele>333.8</ele>
        <time>2022-06-06T15:43:03Z</time>
      </trkpt>
      <trkpt lat="47.47897" lon="5.14031">
        <ele>333.2</ele>
        <time>2022-06-06T15:43:06Z</time>
      </trkpt>
      <trkpt lat="47.4789" lon="5.14019">
        <ele>332.8</ele>
        <time>2022-06-06T15:43:08Z</time>
      </trkpt>
      <trkpt lat="47.47884" lon="5.14006">
        <ele>332.4</ele>
        <time>2022-06-06T15:43:10Z</time>
      </trkpt>
      <trkpt lat="47.47875" lon="5.13983">
        <ele>332</ele>
        <time>2022-06-06T15:43:13Z</time>
      </trkpt>
      <trkpt lat="47.47865" lon="5.13961">
        <ele>331.4</ele>
        <time>2022-06-06T15:43:16Z</time>
      </trkpt>
      <trkpt lat="47.47857" lon="5.13948">
        <ele>330.8</ele>
        <time>2022-06-06T15:43:18Z</time>
      </trkpt>
      <trkpt lat="47.47846" lon="5.13933">
        <ele>330</ele>
        <time>2022-06-06T15:43:20Z</time>
      </trkpt>
      <trkpt lat="47.47836" lon="5.13917">
        <ele>329.4</ele>
        <time>2022-06-06T15:43:22Z</time>
      </trkpt>
      <trkpt lat="47.47824" lon="5.13897">
        <ele>328</ele>
        <time>2022-06-06T15:43:25Z</time>
      </trkpt>
      <trkpt lat="47.47821" lon="5.13889">
        <ele>327.8</ele>
        <time>2022-06-06T15:43:26Z</time>
      </trkpt>
      <trkpt lat="47.47815" lon="5.13872">
        <ele>327</ele>
        <time>2022-06-06T15:43:28Z</time>
      </trkpt>
      <trkpt lat="47.47814" lon="5.13863">
        <ele>325.8</ele>
        <time>2022-06-06T15:43:29Z</time>
      </trkpt>
      <trkpt lat="47.4781" lon="5.13846">
        <ele>324.8</ele>
        <time>2022-06-06T15:43:31Z</time>
      </trkpt>
      <trkpt lat="47.47807" lon="5.13832">
        <ele>323.4</ele>
        <time>2022-06-06T15:43:33Z</time>
      </trkpt>
      <trkpt lat="47.47801" lon="5.13816">
        <ele>322.4</ele>
        <time>2022-06-06T15:43:35Z</time>
      </trkpt>
      <trkpt lat="47.47794" lon="5.13804">
        <ele>321.2</ele>
        <time>2022-06-06T15:43:37Z</time>
      </trkpt>
      <trkpt lat="47.47786" lon="5.13791">
        <ele>319.4</ele>
        <time>2022-06-06T15:43:39Z</time>
      </trkpt>
    </trkseg>
  </trk>
</gpx>